<?xml version="1.0" encoding="UTF-8" standalone="no" ?>
<gpx xmlns="http://www.topografix.com/GPX/1/1" xmlns:xsi="http://www.w3.org/2001/XMLSchema-instance" xsi:schemaLocation="http://www.topografix.com/GPX/1/1 http://www.topografix.com/GPX/1/1/gpx.xsd" version="1.1" creator="VisuGPX - https://www.visugpx.com">
  <metadata>
    <name>de Chevagny, l'etang du rousset et Saint Quentin</name>
    <desc><![CDATA[Trace AlpineQuest 21/09/2022 09:01:01]]></desc>
  </metadata>
  <trk>
    <name><![CDATA[de Chevagny, l'etang du rousset et Saint Quentin_1]]></name>
    <trkseg>
      <trkpt lat="46.53868" lon="4.50941">
        <ele>265.999</ele>
        <time>2022-09-21T07:01:01Z</time>
      </trkpt>
      <trkpt lat="46.53873" lon="4.50952">
        <ele>257.599</ele>
        <time>2022-09-21T07:01:06Z</time>
      </trkpt>
      <trkpt lat="46.53875" lon="4.50975">
        <ele>270.799</ele>
        <time>2022-09-21T07:01:11Z</time>
      </trkpt>
      <trkpt lat="46.53871" lon="4.50984">
        <ele>247.599</ele>
        <time>2022-09-21T07:01:30Z</time>
      </trkpt>
      <trkpt lat="46.53867" lon="4.50993">
        <ele>247.899</ele>
        <time>2022-09-21T07:01:36Z</time>
      </trkpt>
      <trkpt lat="46.53861" lon="4.50998">
        <ele>244.999</ele>
        <time>2022-09-21T07:01:42Z</time>
      </trkpt>
      <trkpt lat="46.53856" lon="4.51004">
        <ele>240.699</ele>
        <time>2022-09-21T07:01:50Z</time>
      </trkpt>
      <trkpt lat="46.53853" lon="4.51017">
        <ele>239.199</ele>
        <time>2022-09-21T07:01:56Z</time>
      </trkpt>
      <trkpt lat="46.53851" lon="4.51026">
        <ele>236.499</ele>
        <time>2022-09-21T07:02:02Z</time>
      </trkpt>
      <trkpt lat="46.53849" lon="4.51036">
        <ele>237.599</ele>
        <time>2022-09-21T07:02:07Z</time>
      </trkpt>
      <trkpt lat="46.53842" lon="4.51039">
        <ele>238.299</ele>
        <time>2022-09-21T07:02:13Z</time>
      </trkpt>
      <trkpt lat="46.53835" lon="4.51039">
        <ele>237.299</ele>
        <time>2022-09-21T07:02:20Z</time>
      </trkpt>
      <trkpt lat="46.53827" lon="4.5104">
        <ele>237.399</ele>
        <time>2022-09-21T07:02:26Z</time>
      </trkpt>
      <trkpt lat="46.53821" lon="4.51041">
        <ele>237.299</ele>
        <time>2022-09-21T07:02:32Z</time>
      </trkpt>
      <trkpt lat="46.53814" lon="4.51042">
        <ele>235.399</ele>
        <time>2022-09-21T07:02:38Z</time>
      </trkpt>
      <trkpt lat="46.53807" lon="4.51048">
        <ele>237.199</ele>
        <time>2022-09-21T07:02:44Z</time>
      </trkpt>
      <trkpt lat="46.538" lon="4.51053">
        <ele>240.099</ele>
        <time>2022-09-21T07:02:50Z</time>
      </trkpt>
      <trkpt lat="46.53794" lon="4.5106">
        <ele>241.399</ele>
        <time>2022-09-21T07:02:56Z</time>
      </trkpt>
      <trkpt lat="46.53787" lon="4.51066">
        <ele>242.299</ele>
        <time>2022-09-21T07:03:02Z</time>
      </trkpt>
      <trkpt lat="46.53781" lon="4.51072">
        <ele>243.799</ele>
        <time>2022-09-21T07:03:07Z</time>
      </trkpt>
      <trkpt lat="46.53776" lon="4.51081">
        <ele>245.899</ele>
        <time>2022-09-21T07:03:12Z</time>
      </trkpt>
      <trkpt lat="46.5377" lon="4.5109">
        <ele>247.999</ele>
        <time>2022-09-21T07:03:19Z</time>
      </trkpt>
      <trkpt lat="46.53765" lon="4.51097">
        <ele>247.999</ele>
        <time>2022-09-21T07:03:24Z</time>
      </trkpt>
      <trkpt lat="46.5376" lon="4.51105">
        <ele>246.799</ele>
        <time>2022-09-21T07:03:30Z</time>
      </trkpt>
      <trkpt lat="46.53755" lon="4.51116">
        <ele>247.899</ele>
        <time>2022-09-21T07:03:36Z</time>
      </trkpt>
      <trkpt lat="46.53752" lon="4.51127">
        <ele>246.499</ele>
        <time>2022-09-21T07:03:41Z</time>
      </trkpt>
      <trkpt lat="46.53748" lon="4.51135">
        <ele>244.199</ele>
        <time>2022-09-21T07:03:46Z</time>
      </trkpt>
      <trkpt lat="46.53744" lon="4.51146">
        <ele>244.899</ele>
        <time>2022-09-21T07:03:52Z</time>
      </trkpt>
      <trkpt lat="46.53741" lon="4.51155">
        <ele>244.499</ele>
        <time>2022-09-21T07:03:57Z</time>
      </trkpt>
      <trkpt lat="46.53738" lon="4.51164">
        <ele>244.899</ele>
        <time>2022-09-21T07:04:02Z</time>
      </trkpt>
      <trkpt lat="46.53734" lon="4.51173">
        <ele>245.699</ele>
        <time>2022-09-21T07:04:08Z</time>
      </trkpt>
      <trkpt lat="46.53729" lon="4.5118">
        <ele>245.599</ele>
        <time>2022-09-21T07:04:13Z</time>
      </trkpt>
      <trkpt lat="46.53724" lon="4.51188">
        <ele>244.299</ele>
        <time>2022-09-21T07:04:18Z</time>
      </trkpt>
      <trkpt lat="46.53719" lon="4.51197">
        <ele>245.199</ele>
        <time>2022-09-21T07:04:24Z</time>
      </trkpt>
      <trkpt lat="46.53714" lon="4.51205">
        <ele>244.899</ele>
        <time>2022-09-21T07:04:29Z</time>
      </trkpt>
      <trkpt lat="46.53709" lon="4.51212">
        <ele>246.699</ele>
        <time>2022-09-21T07:04:35Z</time>
      </trkpt>
      <trkpt lat="46.53703" lon="4.51218">
        <ele>246.699</ele>
        <time>2022-09-21T07:04:40Z</time>
      </trkpt>
      <trkpt lat="46.53697" lon="4.51224">
        <ele>246.899</ele>
        <time>2022-09-21T07:04:45Z</time>
      </trkpt>
      <trkpt lat="46.53693" lon="4.51233">
        <ele>248.099</ele>
        <time>2022-09-21T07:04:51Z</time>
      </trkpt>
      <trkpt lat="46.53687" lon="4.51239">
        <ele>248.299</ele>
        <time>2022-09-21T07:04:56Z</time>
      </trkpt>
      <trkpt lat="46.53684" lon="4.5125">
        <ele>247.399</ele>
        <time>2022-09-21T07:05:01Z</time>
      </trkpt>
      <trkpt lat="46.53683" lon="4.5126">
        <ele>247.799</ele>
        <time>2022-09-21T07:05:07Z</time>
      </trkpt>
      <trkpt lat="46.53682" lon="4.51269">
        <ele>245.999</ele>
        <time>2022-09-21T07:05:13Z</time>
      </trkpt>
      <trkpt lat="46.53681" lon="4.5128">
        <ele>246.699</ele>
        <time>2022-09-21T07:05:19Z</time>
      </trkpt>
      <trkpt lat="46.53679" lon="4.51289">
        <ele>246.599</ele>
        <time>2022-09-21T07:05:24Z</time>
      </trkpt>
      <trkpt lat="46.53677" lon="4.51298">
        <ele>249.599</ele>
        <time>2022-09-21T07:05:38Z</time>
      </trkpt>
      <trkpt lat="46.53667" lon="4.51303">
        <ele>251.599</ele>
        <time>2022-09-21T07:05:44Z</time>
      </trkpt>
      <trkpt lat="46.53659" lon="4.51303">
        <ele>251.999</ele>
        <time>2022-09-21T07:05:50Z</time>
      </trkpt>
      <trkpt lat="46.53652" lon="4.51303">
        <ele>251.698</ele>
        <time>2022-09-21T07:05:56Z</time>
      </trkpt>
      <trkpt lat="46.53644" lon="4.51302">
        <ele>252.298</ele>
        <time>2022-09-21T07:06:01Z</time>
      </trkpt>
      <trkpt lat="46.53636" lon="4.51301">
        <ele>252.398</ele>
        <time>2022-09-21T07:06:06Z</time>
      </trkpt>
      <trkpt lat="46.53626" lon="4.51301">
        <ele>253.498</ele>
        <time>2022-09-21T07:06:12Z</time>
      </trkpt>
      <trkpt lat="46.53619" lon="4.513">
        <ele>253.498</ele>
        <time>2022-09-21T07:06:18Z</time>
      </trkpt>
      <trkpt lat="46.53611" lon="4.51303">
        <ele>255.098</ele>
        <time>2022-09-21T07:06:24Z</time>
      </trkpt>
      <trkpt lat="46.53604" lon="4.51307">
        <ele>257.498</ele>
        <time>2022-09-21T07:06:29Z</time>
      </trkpt>
      <trkpt lat="46.53598" lon="4.51315">
        <ele>258.398</ele>
        <time>2022-09-21T07:06:34Z</time>
      </trkpt>
      <trkpt lat="46.53589" lon="4.51323">
        <ele>258.498</ele>
        <time>2022-09-21T07:06:40Z</time>
      </trkpt>
      <trkpt lat="46.53583" lon="4.51333">
        <ele>259.698</ele>
        <time>2022-09-21T07:06:45Z</time>
      </trkpt>
      <trkpt lat="46.53579" lon="4.51341">
        <ele>260.498</ele>
        <time>2022-09-21T07:06:51Z</time>
      </trkpt>
      <trkpt lat="46.53575" lon="4.51348">
        <ele>259.198</ele>
        <time>2022-09-21T07:06:57Z</time>
      </trkpt>
      <trkpt lat="46.53569" lon="4.51354">
        <ele>259.898</ele>
        <time>2022-09-21T07:07:02Z</time>
      </trkpt>
      <trkpt lat="46.53564" lon="4.51362">
        <ele>261.098</ele>
        <time>2022-09-21T07:07:09Z</time>
      </trkpt>
      <trkpt lat="46.5356" lon="4.51371">
        <ele>267.898</ele>
        <time>2022-09-21T07:08:37Z</time>
      </trkpt>
      <trkpt lat="46.53554" lon="4.51369">
        <ele>268.098</ele>
        <time>2022-09-21T07:08:44Z</time>
      </trkpt>
      <trkpt lat="46.53548" lon="4.51363">
        <ele>266.298</ele>
        <time>2022-09-21T07:08:52Z</time>
      </trkpt>
      <trkpt lat="46.53544" lon="4.51355">
        <ele>265.598</ele>
        <time>2022-09-21T07:09:07Z</time>
      </trkpt>
      <trkpt lat="46.53539" lon="4.51346">
        <ele>266.498</ele>
        <time>2022-09-21T07:09:14Z</time>
      </trkpt>
      <trkpt lat="46.53532" lon="4.51339">
        <ele>266.898</ele>
        <time>2022-09-21T07:09:20Z</time>
      </trkpt>
      <trkpt lat="46.53527" lon="4.51334">
        <ele>266.398</ele>
        <time>2022-09-21T07:09:28Z</time>
      </trkpt>
      <trkpt lat="46.53521" lon="4.51329">
        <ele>266.398</ele>
        <time>2022-09-21T07:09:35Z</time>
      </trkpt>
      <trkpt lat="46.53514" lon="4.51326">
        <ele>265.998</ele>
        <time>2022-09-21T07:09:43Z</time>
      </trkpt>
      <trkpt lat="46.53508" lon="4.5132">
        <ele>266.498</ele>
        <time>2022-09-21T07:09:49Z</time>
      </trkpt>
      <trkpt lat="46.53502" lon="4.51317">
        <ele>265.898</ele>
        <time>2022-09-21T07:09:55Z</time>
      </trkpt>
      <trkpt lat="46.53494" lon="4.51311">
        <ele>265.698</ele>
        <time>2022-09-21T07:10:00Z</time>
      </trkpt>
      <trkpt lat="46.53488" lon="4.51305">
        <ele>267.498</ele>
        <time>2022-09-21T07:10:05Z</time>
      </trkpt>
      <trkpt lat="46.53483" lon="4.51299">
        <ele>268.598</ele>
        <time>2022-09-21T07:10:14Z</time>
      </trkpt>
      <trkpt lat="46.53474" lon="4.51293">
        <ele>269.198</ele>
        <time>2022-09-21T07:10:20Z</time>
      </trkpt>
      <trkpt lat="46.53468" lon="4.51287">
        <ele>270.398</ele>
        <time>2022-09-21T07:10:26Z</time>
      </trkpt>
      <trkpt lat="46.53462" lon="4.51282">
        <ele>270.198</ele>
        <time>2022-09-21T07:10:32Z</time>
      </trkpt>
      <trkpt lat="46.53454" lon="4.51277">
        <ele>269.298</ele>
        <time>2022-09-21T07:10:38Z</time>
      </trkpt>
      <trkpt lat="46.53448" lon="4.51272">
        <ele>267.898</ele>
        <time>2022-09-21T07:10:46Z</time>
      </trkpt>
      <trkpt lat="46.53443" lon="4.51265">
        <ele>268.198</ele>
        <time>2022-09-21T07:10:52Z</time>
      </trkpt>
      <trkpt lat="46.53439" lon="4.51257">
        <ele>268.398</ele>
        <time>2022-09-21T07:10:58Z</time>
      </trkpt>
      <trkpt lat="46.53433" lon="4.51251">
        <ele>270.898</ele>
        <time>2022-09-21T07:11:04Z</time>
      </trkpt>
      <trkpt lat="46.53425" lon="4.51249">
        <ele>271.698</ele>
        <time>2022-09-21T07:11:11Z</time>
      </trkpt>
      <trkpt lat="46.53418" lon="4.51249">
        <ele>272.598</ele>
        <time>2022-09-21T07:11:18Z</time>
      </trkpt>
      <trkpt lat="46.53411" lon="4.51247">
        <ele>273.798</ele>
        <time>2022-09-21T07:11:24Z</time>
      </trkpt>
      <trkpt lat="46.53404" lon="4.51243">
        <ele>274.798</ele>
        <time>2022-09-21T07:11:33Z</time>
      </trkpt>
      <trkpt lat="46.53397" lon="4.5124">
        <ele>275.398</ele>
        <time>2022-09-21T07:11:38Z</time>
      </trkpt>
      <trkpt lat="46.5339" lon="4.5124">
        <ele>274.698</ele>
        <time>2022-09-21T07:11:46Z</time>
      </trkpt>
      <trkpt lat="46.53383" lon="4.51238">
        <ele>274.698</ele>
        <time>2022-09-21T07:11:52Z</time>
      </trkpt>
      <trkpt lat="46.53375" lon="4.51237">
        <ele>274.098</ele>
        <time>2022-09-21T07:11:58Z</time>
      </trkpt>
      <trkpt lat="46.53368" lon="4.51237">
        <ele>275.798</ele>
        <time>2022-09-21T07:12:06Z</time>
      </trkpt>
      <trkpt lat="46.53361" lon="4.51237">
        <ele>275.098</ele>
        <time>2022-09-21T07:12:13Z</time>
      </trkpt>
      <trkpt lat="46.53355" lon="4.51236">
        <ele>275.398</ele>
        <time>2022-09-21T07:12:20Z</time>
      </trkpt>
      <trkpt lat="46.53348" lon="4.51233">
        <ele>277.098</ele>
        <time>2022-09-21T07:12:28Z</time>
      </trkpt>
      <trkpt lat="46.53342" lon="4.51229">
        <ele>277.998</ele>
        <time>2022-09-21T07:12:34Z</time>
      </trkpt>
      <trkpt lat="46.53336" lon="4.51223">
        <ele>279.698</ele>
        <time>2022-09-21T07:12:42Z</time>
      </trkpt>
      <trkpt lat="46.5333" lon="4.51218">
        <ele>281.298</ele>
        <time>2022-09-21T07:12:49Z</time>
      </trkpt>
      <trkpt lat="46.53322" lon="4.51213">
        <ele>281.898</ele>
        <time>2022-09-21T07:12:56Z</time>
      </trkpt>
      <trkpt lat="46.53314" lon="4.51209">
        <ele>282.397</ele>
        <time>2022-09-21T07:13:01Z</time>
      </trkpt>
      <trkpt lat="46.53309" lon="4.51203">
        <ele>283.897</ele>
        <time>2022-09-21T07:13:10Z</time>
      </trkpt>
      <trkpt lat="46.53302" lon="4.51199">
        <ele>283.897</ele>
        <time>2022-09-21T07:13:17Z</time>
      </trkpt>
      <trkpt lat="46.53295" lon="4.51194">
        <ele>284.897</ele>
        <time>2022-09-21T07:13:23Z</time>
      </trkpt>
      <trkpt lat="46.53289" lon="4.5119">
        <ele>285.397</ele>
        <time>2022-09-21T07:13:30Z</time>
      </trkpt>
      <trkpt lat="46.53284" lon="4.51183">
        <ele>284.097</ele>
        <time>2022-09-21T07:13:39Z</time>
      </trkpt>
      <trkpt lat="46.53277" lon="4.51179">
        <ele>283.597</ele>
        <time>2022-09-21T07:13:44Z</time>
      </trkpt>
      <trkpt lat="46.5327" lon="4.51177">
        <ele>284.597</ele>
        <time>2022-09-21T07:13:50Z</time>
      </trkpt>
      <trkpt lat="46.53264" lon="4.51173">
        <ele>285.197</ele>
        <time>2022-09-21T07:13:57Z</time>
      </trkpt>
      <trkpt lat="46.53257" lon="4.51166">
        <ele>285.297</ele>
        <time>2022-09-21T07:14:04Z</time>
      </trkpt>
      <trkpt lat="46.53254" lon="4.51156">
        <ele>285.197</ele>
        <time>2022-09-21T07:14:11Z</time>
      </trkpt>
      <trkpt lat="46.53248" lon="4.51149">
        <ele>284.397</ele>
        <time>2022-09-21T07:14:19Z</time>
      </trkpt>
      <trkpt lat="46.53243" lon="4.51144">
        <ele>282.997</ele>
        <time>2022-09-21T07:14:27Z</time>
      </trkpt>
      <trkpt lat="46.53239" lon="4.51133">
        <ele>283.597</ele>
        <time>2022-09-21T07:14:34Z</time>
      </trkpt>
      <trkpt lat="46.53238" lon="4.51123">
        <ele>283.697</ele>
        <time>2022-09-21T07:14:41Z</time>
      </trkpt>
      <trkpt lat="46.53232" lon="4.51117">
        <ele>284.397</ele>
        <time>2022-09-21T07:14:46Z</time>
      </trkpt>
      <trkpt lat="46.53228" lon="4.51109">
        <ele>284.897</ele>
        <time>2022-09-21T07:14:52Z</time>
      </trkpt>
      <trkpt lat="46.53223" lon="4.51102">
        <ele>283.697</ele>
        <time>2022-09-21T07:15:00Z</time>
      </trkpt>
      <trkpt lat="46.53219" lon="4.51095">
        <ele>284.197</ele>
        <time>2022-09-21T07:15:08Z</time>
      </trkpt>
      <trkpt lat="46.53215" lon="4.51086">
        <ele>283.797</ele>
        <time>2022-09-21T07:15:14Z</time>
      </trkpt>
      <trkpt lat="46.53212" lon="4.51077">
        <ele>285.097</ele>
        <time>2022-09-21T07:15:22Z</time>
      </trkpt>
      <trkpt lat="46.53208" lon="4.51065">
        <ele>286.897</ele>
        <time>2022-09-21T07:15:27Z</time>
      </trkpt>
      <trkpt lat="46.53207" lon="4.51055">
        <ele>289.897</ele>
        <time>2022-09-21T07:15:32Z</time>
      </trkpt>
      <trkpt lat="46.53208" lon="4.51045">
        <ele>290.497</ele>
        <time>2022-09-21T07:15:38Z</time>
      </trkpt>
      <trkpt lat="46.5321" lon="4.51036">
        <ele>291.497</ele>
        <time>2022-09-21T07:15:45Z</time>
      </trkpt>
      <trkpt lat="46.53211" lon="4.51025">
        <ele>293.997</ele>
        <time>2022-09-21T07:15:51Z</time>
      </trkpt>
      <trkpt lat="46.53212" lon="4.51016">
        <ele>294.797</ele>
        <time>2022-09-21T07:15:58Z</time>
      </trkpt>
      <trkpt lat="46.53212" lon="4.51004">
        <ele>293.997</ele>
        <time>2022-09-21T07:16:04Z</time>
      </trkpt>
      <trkpt lat="46.53214" lon="4.50995">
        <ele>293.997</ele>
        <time>2022-09-21T07:16:10Z</time>
      </trkpt>
      <trkpt lat="46.53214" lon="4.50983">
        <ele>295.097</ele>
        <time>2022-09-21T07:16:17Z</time>
      </trkpt>
      <trkpt lat="46.53215" lon="4.50973">
        <ele>296.097</ele>
        <time>2022-09-21T07:16:23Z</time>
      </trkpt>
      <trkpt lat="46.53213" lon="4.50963">
        <ele>295.397</ele>
        <time>2022-09-21T07:16:29Z</time>
      </trkpt>
      <trkpt lat="46.53212" lon="4.50953">
        <ele>294.097</ele>
        <time>2022-09-21T07:16:34Z</time>
      </trkpt>
      <trkpt lat="46.53211" lon="4.50941">
        <ele>292.097</ele>
        <time>2022-09-21T07:16:40Z</time>
      </trkpt>
      <trkpt lat="46.53208" lon="4.50932">
        <ele>290.497</ele>
        <time>2022-09-21T07:16:46Z</time>
      </trkpt>
      <trkpt lat="46.53202" lon="4.50927">
        <ele>285.497</ele>
        <time>2022-09-21T07:16:54Z</time>
      </trkpt>
      <trkpt lat="46.53196" lon="4.50933">
        <ele>285.197</ele>
        <time>2022-09-21T07:17:22Z</time>
      </trkpt>
      <trkpt lat="46.53191" lon="4.50939">
        <ele>285.697</ele>
        <time>2022-09-21T07:17:28Z</time>
      </trkpt>
      <trkpt lat="46.53185" lon="4.50945">
        <ele>284.597</ele>
        <time>2022-09-21T07:17:35Z</time>
      </trkpt>
      <trkpt lat="46.53178" lon="4.50949">
        <ele>284.697</ele>
        <time>2022-09-21T07:17:42Z</time>
      </trkpt>
      <trkpt lat="46.53172" lon="4.50953">
        <ele>284.497</ele>
        <time>2022-09-21T07:17:48Z</time>
      </trkpt>
      <trkpt lat="46.53167" lon="4.50959">
        <ele>284.797</ele>
        <time>2022-09-21T07:17:55Z</time>
      </trkpt>
      <trkpt lat="46.5316" lon="4.50961">
        <ele>285.897</ele>
        <time>2022-09-21T07:18:01Z</time>
      </trkpt>
      <trkpt lat="46.53155" lon="4.50967">
        <ele>284.897</ele>
        <time>2022-09-21T07:18:06Z</time>
      </trkpt>
      <trkpt lat="46.53147" lon="4.50972">
        <ele>283.497</ele>
        <time>2022-09-21T07:18:12Z</time>
      </trkpt>
      <trkpt lat="46.53141" lon="4.50977">
        <ele>283.997</ele>
        <time>2022-09-21T07:18:18Z</time>
      </trkpt>
      <trkpt lat="46.53135" lon="4.50982">
        <ele>283.997</ele>
        <time>2022-09-21T07:18:24Z</time>
      </trkpt>
      <trkpt lat="46.53128" lon="4.50986">
        <ele>283.697</ele>
        <time>2022-09-21T07:18:29Z</time>
      </trkpt>
      <trkpt lat="46.53121" lon="4.50989">
        <ele>283.597</ele>
        <time>2022-09-21T07:18:36Z</time>
      </trkpt>
      <trkpt lat="46.53115" lon="4.50993">
        <ele>282.897</ele>
        <time>2022-09-21T07:18:42Z</time>
      </trkpt>
      <trkpt lat="46.53108" lon="4.50994">
        <ele>284.597</ele>
        <time>2022-09-21T07:18:47Z</time>
      </trkpt>
      <trkpt lat="46.53101" lon="4.50997">
        <ele>283.397</ele>
        <time>2022-09-21T07:18:52Z</time>
      </trkpt>
      <trkpt lat="46.53094" lon="4.50999">
        <ele>283.197</ele>
        <time>2022-09-21T07:18:57Z</time>
      </trkpt>
      <trkpt lat="46.53087" lon="4.51001">
        <ele>281.597</ele>
        <time>2022-09-21T07:19:04Z</time>
      </trkpt>
      <trkpt lat="46.53081" lon="4.51002">
        <ele>280.597</ele>
        <time>2022-09-21T07:19:10Z</time>
      </trkpt>
      <trkpt lat="46.53073" lon="4.51001">
        <ele>281.597</ele>
        <time>2022-09-21T07:19:16Z</time>
      </trkpt>
      <trkpt lat="46.53067" lon="4.51001">
        <ele>282.497</ele>
        <time>2022-09-21T07:19:22Z</time>
      </trkpt>
      <trkpt lat="46.53059" lon="4.50998">
        <ele>281.397</ele>
        <time>2022-09-21T07:19:29Z</time>
      </trkpt>
      <trkpt lat="46.53052" lon="4.51002">
        <ele>283.297</ele>
        <time>2022-09-21T07:19:35Z</time>
      </trkpt>
      <trkpt lat="46.53045" lon="4.51004">
        <ele>281.897</ele>
        <time>2022-09-21T07:19:41Z</time>
      </trkpt>
      <trkpt lat="46.53037" lon="4.51006">
        <ele>280.597</ele>
        <time>2022-09-21T07:19:46Z</time>
      </trkpt>
      <trkpt lat="46.5303" lon="4.5101">
        <ele>278.197</ele>
        <time>2022-09-21T07:19:53Z</time>
      </trkpt>
      <trkpt lat="46.53023" lon="4.51015">
        <ele>276.097</ele>
        <time>2022-09-21T07:19:58Z</time>
      </trkpt>
      <trkpt lat="46.53017" lon="4.51022">
        <ele>273.597</ele>
        <time>2022-09-21T07:20:04Z</time>
      </trkpt>
      <trkpt lat="46.53011" lon="4.51027">
        <ele>271.797</ele>
        <time>2022-09-21T07:20:09Z</time>
      </trkpt>
      <trkpt lat="46.53005" lon="4.51031">
        <ele>273.497</ele>
        <time>2022-09-21T07:20:16Z</time>
      </trkpt>
      <trkpt lat="46.52999" lon="4.51025">
        <ele>279.896</ele>
        <time>2022-09-21T07:20:52Z</time>
      </trkpt>
      <trkpt lat="46.52997" lon="4.51016">
        <ele>280.796</ele>
        <time>2022-09-21T07:20:57Z</time>
      </trkpt>
      <trkpt lat="46.52996" lon="4.51005">
        <ele>282.996</ele>
        <time>2022-09-21T07:21:03Z</time>
      </trkpt>
      <trkpt lat="46.52995" lon="4.50995">
        <ele>284.696</ele>
        <time>2022-09-21T07:21:09Z</time>
      </trkpt>
      <trkpt lat="46.52992" lon="4.50984">
        <ele>286.596</ele>
        <time>2022-09-21T07:21:15Z</time>
      </trkpt>
      <trkpt lat="46.5299" lon="4.50975">
        <ele>286.596</ele>
        <time>2022-09-21T07:21:22Z</time>
      </trkpt>
      <trkpt lat="46.52987" lon="4.50965">
        <ele>287.096</ele>
        <time>2022-09-21T07:21:27Z</time>
      </trkpt>
      <trkpt lat="46.52985" lon="4.50956">
        <ele>286.996</ele>
        <time>2022-09-21T07:21:32Z</time>
      </trkpt>
      <trkpt lat="46.52983" lon="4.50946">
        <ele>285.396</ele>
        <time>2022-09-21T07:21:39Z</time>
      </trkpt>
      <trkpt lat="46.52984" lon="4.50936">
        <ele>284.896</ele>
        <time>2022-09-21T07:21:46Z</time>
      </trkpt>
      <trkpt lat="46.52984" lon="4.50927">
        <ele>284.196</ele>
        <time>2022-09-21T07:21:52Z</time>
      </trkpt>
      <trkpt lat="46.52982" lon="4.50918">
        <ele>282.896</ele>
        <time>2022-09-21T07:21:58Z</time>
      </trkpt>
      <trkpt lat="46.5298" lon="4.50906">
        <ele>282.896</ele>
        <time>2022-09-21T07:22:04Z</time>
      </trkpt>
      <trkpt lat="46.52978" lon="4.50896">
        <ele>283.996</ele>
        <time>2022-09-21T07:22:09Z</time>
      </trkpt>
      <trkpt lat="46.52976" lon="4.50887">
        <ele>285.496</ele>
        <time>2022-09-21T07:22:14Z</time>
      </trkpt>
      <trkpt lat="46.52976" lon="4.50878">
        <ele>285.296</ele>
        <time>2022-09-21T07:22:21Z</time>
      </trkpt>
      <trkpt lat="46.52976" lon="4.50868">
        <ele>287.196</ele>
        <time>2022-09-21T07:22:27Z</time>
      </trkpt>
      <trkpt lat="46.52976" lon="4.50856">
        <ele>288.796</ele>
        <time>2022-09-21T07:22:32Z</time>
      </trkpt>
      <trkpt lat="46.52975" lon="4.50846">
        <ele>289.396</ele>
        <time>2022-09-21T07:22:37Z</time>
      </trkpt>
      <trkpt lat="46.52973" lon="4.50836">
        <ele>288.196</ele>
        <time>2022-09-21T07:22:44Z</time>
      </trkpt>
      <trkpt lat="46.52971" lon="4.50826">
        <ele>288.596</ele>
        <time>2022-09-21T07:22:52Z</time>
      </trkpt>
      <trkpt lat="46.52972" lon="4.50815">
        <ele>285.596</ele>
        <time>2022-09-21T07:23:00Z</time>
      </trkpt>
      <trkpt lat="46.52973" lon="4.50804">
        <ele>285.396</ele>
        <time>2022-09-21T07:23:06Z</time>
      </trkpt>
      <trkpt lat="46.52973" lon="4.50794">
        <ele>285.096</ele>
        <time>2022-09-21T07:23:13Z</time>
      </trkpt>
      <trkpt lat="46.52971" lon="4.50785">
        <ele>285.296</ele>
        <time>2022-09-21T07:23:18Z</time>
      </trkpt>
      <trkpt lat="46.52969" lon="4.50774">
        <ele>283.196</ele>
        <time>2022-09-21T07:23:24Z</time>
      </trkpt>
      <trkpt lat="46.52967" lon="4.50765">
        <ele>283.096</ele>
        <time>2022-09-21T07:23:29Z</time>
      </trkpt>
      <trkpt lat="46.52966" lon="4.50754">
        <ele>281.096</ele>
        <time>2022-09-21T07:23:36Z</time>
      </trkpt>
      <trkpt lat="46.52965" lon="4.50744">
        <ele>279.896</ele>
        <time>2022-09-21T07:23:42Z</time>
      </trkpt>
      <trkpt lat="46.52962" lon="4.50731">
        <ele>281.296</ele>
        <time>2022-09-21T07:23:48Z</time>
      </trkpt>
      <trkpt lat="46.5296" lon="4.5072">
        <ele>280.596</ele>
        <time>2022-09-21T07:23:53Z</time>
      </trkpt>
      <trkpt lat="46.52959" lon="4.50708">
        <ele>280.696</ele>
        <time>2022-09-21T07:23:58Z</time>
      </trkpt>
      <trkpt lat="46.52959" lon="4.50694">
        <ele>278.296</ele>
        <time>2022-09-21T07:24:04Z</time>
      </trkpt>
      <trkpt lat="46.52956" lon="4.50682">
        <ele>277.996</ele>
        <time>2022-09-21T07:24:09Z</time>
      </trkpt>
      <trkpt lat="46.52955" lon="4.50672">
        <ele>276.496</ele>
        <time>2022-09-21T07:24:15Z</time>
      </trkpt>
      <trkpt lat="46.52952" lon="4.50662">
        <ele>274.796</ele>
        <time>2022-09-21T07:24:20Z</time>
      </trkpt>
      <trkpt lat="46.52949" lon="4.50653">
        <ele>274.296</ele>
        <time>2022-09-21T07:24:26Z</time>
      </trkpt>
      <trkpt lat="46.52942" lon="4.50643">
        <ele>273.996</ele>
        <time>2022-09-21T07:24:32Z</time>
      </trkpt>
      <trkpt lat="46.52938" lon="4.50633">
        <ele>272.896</ele>
        <time>2022-09-21T07:24:38Z</time>
      </trkpt>
      <trkpt lat="46.52935" lon="4.50625">
        <ele>272.596</ele>
        <time>2022-09-21T07:24:44Z</time>
      </trkpt>
      <trkpt lat="46.5293" lon="4.50617">
        <ele>273.296</ele>
        <time>2022-09-21T07:24:50Z</time>
      </trkpt>
      <trkpt lat="46.52927" lon="4.50609">
        <ele>272.796</ele>
        <time>2022-09-21T07:24:57Z</time>
      </trkpt>
      <trkpt lat="46.52924" lon="4.50599">
        <ele>272.696</ele>
        <time>2022-09-21T07:25:03Z</time>
      </trkpt>
      <trkpt lat="46.5292" lon="4.50591">
        <ele>273.096</ele>
        <time>2022-09-21T07:25:08Z</time>
      </trkpt>
      <trkpt lat="46.52917" lon="4.50582">
        <ele>274.296</ele>
        <time>2022-09-21T07:25:14Z</time>
      </trkpt>
      <trkpt lat="46.52912" lon="4.50571">
        <ele>274.296</ele>
        <time>2022-09-21T07:25:20Z</time>
      </trkpt>
      <trkpt lat="46.52907" lon="4.50563">
        <ele>274.796</ele>
        <time>2022-09-21T07:25:25Z</time>
      </trkpt>
      <trkpt lat="46.52904" lon="4.50554">
        <ele>275.396</ele>
        <time>2022-09-21T07:25:31Z</time>
      </trkpt>
      <trkpt lat="46.529" lon="4.50546">
        <ele>275.796</ele>
        <time>2022-09-21T07:25:36Z</time>
      </trkpt>
      <trkpt lat="46.52896" lon="4.50537">
        <ele>275.096</ele>
        <time>2022-09-21T07:25:43Z</time>
      </trkpt>
      <trkpt lat="46.52892" lon="4.50528">
        <ele>274.696</ele>
        <time>2022-09-21T07:25:49Z</time>
      </trkpt>
      <trkpt lat="46.52887" lon="4.5052">
        <ele>275.396</ele>
        <time>2022-09-21T07:25:54Z</time>
      </trkpt>
      <trkpt lat="46.52884" lon="4.50511">
        <ele>275.196</ele>
        <time>2022-09-21T07:26:00Z</time>
      </trkpt>
      <trkpt lat="46.52882" lon="4.50502">
        <ele>274.896</ele>
        <time>2022-09-21T07:26:06Z</time>
      </trkpt>
      <trkpt lat="46.52878" lon="4.50495">
        <ele>275.696</ele>
        <time>2022-09-21T07:26:12Z</time>
      </trkpt>
      <trkpt lat="46.52875" lon="4.50486">
        <ele>274.896</ele>
        <time>2022-09-21T07:26:17Z</time>
      </trkpt>
      <trkpt lat="46.52872" lon="4.50477">
        <ele>274.896</ele>
        <time>2022-09-21T07:26:22Z</time>
      </trkpt>
      <trkpt lat="46.5287" lon="4.50467">
        <ele>274.496</ele>
        <time>2022-09-21T07:26:28Z</time>
      </trkpt>
      <trkpt lat="46.52867" lon="4.50456">
        <ele>274.096</ele>
        <time>2022-09-21T07:26:33Z</time>
      </trkpt>
      <trkpt lat="46.52865" lon="4.50445">
        <ele>274.496</ele>
        <time>2022-09-21T07:26:38Z</time>
      </trkpt>
      <trkpt lat="46.52862" lon="4.50433">
        <ele>274.396</ele>
        <time>2022-09-21T07:26:44Z</time>
      </trkpt>
      <trkpt lat="46.52859" lon="4.50424">
        <ele>275.696</ele>
        <time>2022-09-21T07:26:49Z</time>
      </trkpt>
      <trkpt lat="46.52856" lon="4.50416">
        <ele>275.596</ele>
        <time>2022-09-21T07:26:55Z</time>
      </trkpt>
      <trkpt lat="46.52853" lon="4.50405">
        <ele>277.596</ele>
        <time>2022-09-21T07:27:06Z</time>
      </trkpt>
      <trkpt lat="46.5285" lon="4.50397">
        <ele>281.696</ele>
        <time>2022-09-21T07:27:15Z</time>
      </trkpt>
      <trkpt lat="46.52847" lon="4.50387">
        <ele>280.996</ele>
        <time>2022-09-21T07:29:56Z</time>
      </trkpt>
      <trkpt lat="46.52844" lon="4.50377">
        <ele>279.296</ele>
        <time>2022-09-21T07:30:03Z</time>
      </trkpt>
      <trkpt lat="46.52842" lon="4.50366">
        <ele>277.396</ele>
        <time>2022-09-21T07:30:09Z</time>
      </trkpt>
      <trkpt lat="46.52842" lon="4.50356">
        <ele>275.096</ele>
        <time>2022-09-21T07:30:19Z</time>
      </trkpt>
      <trkpt lat="46.52842" lon="4.50346">
        <ele>275.496</ele>
        <time>2022-09-21T07:30:26Z</time>
      </trkpt>
      <trkpt lat="46.5284" lon="4.50336">
        <ele>276.896</ele>
        <time>2022-09-21T07:30:33Z</time>
      </trkpt>
      <trkpt lat="46.52839" lon="4.50325">
        <ele>276.396</ele>
        <time>2022-09-21T07:30:40Z</time>
      </trkpt>
      <trkpt lat="46.52838" lon="4.50314">
        <ele>277.396</ele>
        <time>2022-09-21T07:30:46Z</time>
      </trkpt>
      <trkpt lat="46.52836" lon="4.50302">
        <ele>278.596</ele>
        <time>2022-09-21T07:30:52Z</time>
      </trkpt>
      <trkpt lat="46.52834" lon="4.50293">
        <ele>277.096</ele>
        <time>2022-09-21T07:30:58Z</time>
      </trkpt>
      <trkpt lat="46.52833" lon="4.50283">
        <ele>277.995</ele>
        <time>2022-09-21T07:31:04Z</time>
      </trkpt>
      <trkpt lat="46.5283" lon="4.50274">
        <ele>278.395</ele>
        <time>2022-09-21T07:31:09Z</time>
      </trkpt>
      <trkpt lat="46.52829" lon="4.50262">
        <ele>279.495</ele>
        <time>2022-09-21T07:31:15Z</time>
      </trkpt>
      <trkpt lat="46.52827" lon="4.50253">
        <ele>279.095</ele>
        <time>2022-09-21T07:31:20Z</time>
      </trkpt>
      <trkpt lat="46.52824" lon="4.50244">
        <ele>277.895</ele>
        <time>2022-09-21T07:31:26Z</time>
      </trkpt>
      <trkpt lat="46.52822" lon="4.50235">
        <ele>277.595</ele>
        <time>2022-09-21T07:31:32Z</time>
      </trkpt>
      <trkpt lat="46.52819" lon="4.50225">
        <ele>277.595</ele>
        <time>2022-09-21T07:31:37Z</time>
      </trkpt>
      <trkpt lat="46.52816" lon="4.50215">
        <ele>278.495</ele>
        <time>2022-09-21T07:31:43Z</time>
      </trkpt>
      <trkpt lat="46.52814" lon="4.50205">
        <ele>278.295</ele>
        <time>2022-09-21T07:31:50Z</time>
      </trkpt>
      <trkpt lat="46.52813" lon="4.50195">
        <ele>277.395</ele>
        <time>2022-09-21T07:32:04Z</time>
      </trkpt>
      <trkpt lat="46.52813" lon="4.50185">
        <ele>278.595</ele>
        <time>2022-09-21T07:32:09Z</time>
      </trkpt>
      <trkpt lat="46.52813" lon="4.50174">
        <ele>281.795</ele>
        <time>2022-09-21T07:32:14Z</time>
      </trkpt>
      <trkpt lat="46.52813" lon="4.50164">
        <ele>282.995</ele>
        <time>2022-09-21T07:32:20Z</time>
      </trkpt>
      <trkpt lat="46.52818" lon="4.50157">
        <ele>284.695</ele>
        <time>2022-09-21T07:32:54Z</time>
      </trkpt>
      <trkpt lat="46.52824" lon="4.50156">
        <ele>284.095</ele>
        <time>2022-09-21T07:33:00Z</time>
      </trkpt>
      <trkpt lat="46.52831" lon="4.50156">
        <ele>284.495</ele>
        <time>2022-09-21T07:33:06Z</time>
      </trkpt>
      <trkpt lat="46.52838" lon="4.50158">
        <ele>285.695</ele>
        <time>2022-09-21T07:33:14Z</time>
      </trkpt>
      <trkpt lat="46.52846" lon="4.50159">
        <ele>284.795</ele>
        <time>2022-09-21T07:33:20Z</time>
      </trkpt>
      <trkpt lat="46.52852" lon="4.50158">
        <ele>283.795</ele>
        <time>2022-09-21T07:33:26Z</time>
      </trkpt>
      <trkpt lat="46.52859" lon="4.50157">
        <ele>281.895</ele>
        <time>2022-09-21T07:33:32Z</time>
      </trkpt>
      <trkpt lat="46.52866" lon="4.50156">
        <ele>280.295</ele>
        <time>2022-09-21T07:33:38Z</time>
      </trkpt>
      <trkpt lat="46.52872" lon="4.50157">
        <ele>278.996</ele>
        <time>2022-09-21T07:33:44Z</time>
      </trkpt>
      <trkpt lat="46.5288" lon="4.50156">
        <ele>277.896</ele>
        <time>2022-09-21T07:33:50Z</time>
      </trkpt>
      <trkpt lat="46.52886" lon="4.50156">
        <ele>277.796</ele>
        <time>2022-09-21T07:33:56Z</time>
      </trkpt>
      <trkpt lat="46.52893" lon="4.50156">
        <ele>277.896</ele>
        <time>2022-09-21T07:34:01Z</time>
      </trkpt>
      <trkpt lat="46.529" lon="4.50154">
        <ele>275.496</ele>
        <time>2022-09-21T07:34:07Z</time>
      </trkpt>
      <trkpt lat="46.52907" lon="4.50154">
        <ele>272.796</ele>
        <time>2022-09-21T07:34:13Z</time>
      </trkpt>
      <trkpt lat="46.52914" lon="4.50154">
        <ele>271.096</ele>
        <time>2022-09-21T07:34:18Z</time>
      </trkpt>
      <trkpt lat="46.52921" lon="4.50152">
        <ele>272.396</ele>
        <time>2022-09-21T07:34:25Z</time>
      </trkpt>
      <trkpt lat="46.52928" lon="4.50151">
        <ele>273.096</ele>
        <time>2022-09-21T07:34:30Z</time>
      </trkpt>
      <trkpt lat="46.52936" lon="4.50151">
        <ele>272.196</ele>
        <time>2022-09-21T07:34:36Z</time>
      </trkpt>
      <trkpt lat="46.52943" lon="4.50148">
        <ele>274.596</ele>
        <time>2022-09-21T07:34:42Z</time>
      </trkpt>
      <trkpt lat="46.52949" lon="4.50149">
        <ele>275.596</ele>
        <time>2022-09-21T07:34:48Z</time>
      </trkpt>
      <trkpt lat="46.52956" lon="4.50148">
        <ele>275.496</ele>
        <time>2022-09-21T07:35:03Z</time>
      </trkpt>
      <trkpt lat="46.52963" lon="4.50147">
        <ele>275.096</ele>
        <time>2022-09-21T07:35:12Z</time>
      </trkpt>
      <trkpt lat="46.5297" lon="4.50146">
        <ele>272.996</ele>
        <time>2022-09-21T07:35:24Z</time>
      </trkpt>
      <trkpt lat="46.52976" lon="4.50147">
        <ele>271.196</ele>
        <time>2022-09-21T07:35:32Z</time>
      </trkpt>
      <trkpt lat="46.52983" lon="4.50147">
        <ele>271.096</ele>
        <time>2022-09-21T07:35:37Z</time>
      </trkpt>
      <trkpt lat="46.5299" lon="4.50146">
        <ele>269.796</ele>
        <time>2022-09-21T07:35:43Z</time>
      </trkpt>
      <trkpt lat="46.52997" lon="4.50146">
        <ele>271.396</ele>
        <time>2022-09-21T07:35:50Z</time>
      </trkpt>
      <trkpt lat="46.53004" lon="4.50145">
        <ele>270.996</ele>
        <time>2022-09-21T07:35:56Z</time>
      </trkpt>
      <trkpt lat="46.53012" lon="4.50143">
        <ele>269.496</ele>
        <time>2022-09-21T07:36:03Z</time>
      </trkpt>
      <trkpt lat="46.53019" lon="4.5014">
        <ele>267.396</ele>
        <time>2022-09-21T07:36:09Z</time>
      </trkpt>
      <trkpt lat="46.53025" lon="4.50135">
        <ele>265.596</ele>
        <time>2022-09-21T07:36:15Z</time>
      </trkpt>
      <trkpt lat="46.5303" lon="4.50126">
        <ele>265.196</ele>
        <time>2022-09-21T07:36:20Z</time>
      </trkpt>
      <trkpt lat="46.53034" lon="4.50117">
        <ele>266.296</ele>
        <time>2022-09-21T07:36:26Z</time>
      </trkpt>
      <trkpt lat="46.53036" lon="4.50106">
        <ele>266.896</ele>
        <time>2022-09-21T07:36:32Z</time>
      </trkpt>
      <trkpt lat="46.5304" lon="4.50096">
        <ele>266.896</ele>
        <time>2022-09-21T07:36:38Z</time>
      </trkpt>
      <trkpt lat="46.53045" lon="4.50087">
        <ele>264.496</ele>
        <time>2022-09-21T07:36:44Z</time>
      </trkpt>
      <trkpt lat="46.53049" lon="4.5008">
        <ele>263.696</ele>
        <time>2022-09-21T07:36:49Z</time>
      </trkpt>
      <trkpt lat="46.53053" lon="4.50071">
        <ele>261.696</ele>
        <time>2022-09-21T07:36:55Z</time>
      </trkpt>
      <trkpt lat="46.53057" lon="4.50064">
        <ele>261.296</ele>
        <time>2022-09-21T07:37:00Z</time>
      </trkpt>
      <trkpt lat="46.53063" lon="4.50057">
        <ele>261.096</ele>
        <time>2022-09-21T07:37:05Z</time>
      </trkpt>
      <trkpt lat="46.53068" lon="4.5005">
        <ele>261.996</ele>
        <time>2022-09-21T07:37:11Z</time>
      </trkpt>
      <trkpt lat="46.53073" lon="4.50043">
        <ele>262.396</ele>
        <time>2022-09-21T07:37:16Z</time>
      </trkpt>
      <trkpt lat="46.53079" lon="4.50038">
        <ele>261.596</ele>
        <time>2022-09-21T07:37:23Z</time>
      </trkpt>
      <trkpt lat="46.53085" lon="4.50031">
        <ele>260.496</ele>
        <time>2022-09-21T07:37:29Z</time>
      </trkpt>
      <trkpt lat="46.53092" lon="4.50026">
        <ele>260.496</ele>
        <time>2022-09-21T07:37:34Z</time>
      </trkpt>
      <trkpt lat="46.53099" lon="4.5002">
        <ele>261.296</ele>
        <time>2022-09-21T07:37:40Z</time>
      </trkpt>
      <trkpt lat="46.53105" lon="4.50014">
        <ele>263.296</ele>
        <time>2022-09-21T07:37:47Z</time>
      </trkpt>
      <trkpt lat="46.53112" lon="4.5001">
        <ele>263.596</ele>
        <time>2022-09-21T07:37:52Z</time>
      </trkpt>
      <trkpt lat="46.53119" lon="4.50005">
        <ele>265.396</ele>
        <time>2022-09-21T07:37:57Z</time>
      </trkpt>
      <trkpt lat="46.53125" lon="4.49999">
        <ele>265.196</ele>
        <time>2022-09-21T07:38:02Z</time>
      </trkpt>
      <trkpt lat="46.53131" lon="4.49993">
        <ele>263.296</ele>
        <time>2022-09-21T07:38:08Z</time>
      </trkpt>
      <trkpt lat="46.53137" lon="4.49987">
        <ele>262.296</ele>
        <time>2022-09-21T07:38:13Z</time>
      </trkpt>
      <trkpt lat="46.53144" lon="4.49981">
        <ele>260.596</ele>
        <time>2022-09-21T07:38:19Z</time>
      </trkpt>
      <trkpt lat="46.5315" lon="4.49975">
        <ele>261.596</ele>
        <time>2022-09-21T07:38:25Z</time>
      </trkpt>
      <trkpt lat="46.53156" lon="4.49969">
        <ele>259.196</ele>
        <time>2022-09-21T07:38:30Z</time>
      </trkpt>
      <trkpt lat="46.53164" lon="4.49965">
        <ele>258.796</ele>
        <time>2022-09-21T07:38:36Z</time>
      </trkpt>
      <trkpt lat="46.53169" lon="4.49959">
        <ele>258.796</ele>
        <time>2022-09-21T07:38:42Z</time>
      </trkpt>
      <trkpt lat="46.53175" lon="4.49953">
        <ele>257.996</ele>
        <time>2022-09-21T07:38:48Z</time>
      </trkpt>
      <trkpt lat="46.53181" lon="4.49948">
        <ele>258.196</ele>
        <time>2022-09-21T07:38:53Z</time>
      </trkpt>
      <trkpt lat="46.53187" lon="4.49943">
        <ele>259.696</ele>
        <time>2022-09-21T07:38:59Z</time>
      </trkpt>
      <trkpt lat="46.53194" lon="4.4994">
        <ele>260.296</ele>
        <time>2022-09-21T07:39:05Z</time>
      </trkpt>
      <trkpt lat="46.532" lon="4.49936">
        <ele>261.696</ele>
        <time>2022-09-21T07:39:10Z</time>
      </trkpt>
      <trkpt lat="46.53207" lon="4.4993">
        <ele>261.696</ele>
        <time>2022-09-21T07:39:16Z</time>
      </trkpt>
      <trkpt lat="46.53213" lon="4.49927">
        <ele>261.196</ele>
        <time>2022-09-21T07:39:21Z</time>
      </trkpt>
      <trkpt lat="46.53218" lon="4.49917">
        <ele>263.296</ele>
        <time>2022-09-21T07:39:27Z</time>
      </trkpt>
      <trkpt lat="46.53221" lon="4.49908">
        <ele>260.796</ele>
        <time>2022-09-21T07:39:33Z</time>
      </trkpt>
      <trkpt lat="46.53224" lon="4.49898">
        <ele>262.096</ele>
        <time>2022-09-21T07:39:38Z</time>
      </trkpt>
      <trkpt lat="46.53225" lon="4.49885">
        <ele>262.496</ele>
        <time>2022-09-21T07:39:44Z</time>
      </trkpt>
      <trkpt lat="46.53223" lon="4.49873">
        <ele>262.096</ele>
        <time>2022-09-21T07:39:50Z</time>
      </trkpt>
      <trkpt lat="46.53223" lon="4.49861">
        <ele>261.696</ele>
        <time>2022-09-21T07:39:56Z</time>
      </trkpt>
      <trkpt lat="46.53221" lon="4.49852">
        <ele>260.396</ele>
        <time>2022-09-21T07:40:01Z</time>
      </trkpt>
      <trkpt lat="46.53218" lon="4.49843">
        <ele>259.796</ele>
        <time>2022-09-21T07:40:06Z</time>
      </trkpt>
      <trkpt lat="46.53217" lon="4.49832">
        <ele>258.896</ele>
        <time>2022-09-21T07:40:12Z</time>
      </trkpt>
      <trkpt lat="46.53216" lon="4.49822">
        <ele>259.096</ele>
        <time>2022-09-21T07:40:17Z</time>
      </trkpt>
      <trkpt lat="46.53214" lon="4.49813">
        <ele>256.996</ele>
        <time>2022-09-21T07:40:23Z</time>
      </trkpt>
      <trkpt lat="46.53213" lon="4.49803">
        <ele>254.196</ele>
        <time>2022-09-21T07:40:28Z</time>
      </trkpt>
      <trkpt lat="46.53212" lon="4.49793">
        <ele>254.696</ele>
        <time>2022-09-21T07:40:36Z</time>
      </trkpt>
      <trkpt lat="46.53212" lon="4.49782">
        <ele>255.396</ele>
        <time>2022-09-21T07:40:43Z</time>
      </trkpt>
      <trkpt lat="46.53209" lon="4.49772">
        <ele>256.296</ele>
        <time>2022-09-21T07:40:48Z</time>
      </trkpt>
      <trkpt lat="46.53207" lon="4.49762">
        <ele>256.996</ele>
        <time>2022-09-21T07:40:54Z</time>
      </trkpt>
      <trkpt lat="46.53205" lon="4.49748">
        <ele>257.196</ele>
        <time>2022-09-21T07:41:00Z</time>
      </trkpt>
      <trkpt lat="46.53203" lon="4.49735">
        <ele>257.596</ele>
        <time>2022-09-21T07:41:05Z</time>
      </trkpt>
      <trkpt lat="46.532" lon="4.49725">
        <ele>257.796</ele>
        <time>2022-09-21T07:41:10Z</time>
      </trkpt>
      <trkpt lat="46.53196" lon="4.49714">
        <ele>257.896</ele>
        <time>2022-09-21T07:41:16Z</time>
      </trkpt>
      <trkpt lat="46.53192" lon="4.49703">
        <ele>257.696</ele>
        <time>2022-09-21T07:41:21Z</time>
      </trkpt>
      <trkpt lat="46.53188" lon="4.49692">
        <ele>256.896</ele>
        <time>2022-09-21T07:41:26Z</time>
      </trkpt>
      <trkpt lat="46.53187" lon="4.49681">
        <ele>261.396</ele>
        <time>2022-09-21T07:41:32Z</time>
      </trkpt>
      <trkpt lat="46.53184" lon="4.4967">
        <ele>262.896</ele>
        <time>2022-09-21T07:41:38Z</time>
      </trkpt>
      <trkpt lat="46.53181" lon="4.4966">
        <ele>262.096</ele>
        <time>2022-09-21T07:41:44Z</time>
      </trkpt>
      <trkpt lat="46.53177" lon="4.49651">
        <ele>262.196</ele>
        <time>2022-09-21T07:41:49Z</time>
      </trkpt>
      <trkpt lat="46.53174" lon="4.49643">
        <ele>261.896</ele>
        <time>2022-09-21T07:41:54Z</time>
      </trkpt>
      <trkpt lat="46.53169" lon="4.49633">
        <ele>262.196</ele>
        <time>2022-09-21T07:42:00Z</time>
      </trkpt>
      <trkpt lat="46.53167" lon="4.49624">
        <ele>264.596</ele>
        <time>2022-09-21T07:42:05Z</time>
      </trkpt>
      <trkpt lat="46.53165" lon="4.49614">
        <ele>264.096</ele>
        <time>2022-09-21T07:42:10Z</time>
      </trkpt>
      <trkpt lat="46.53163" lon="4.49603">
        <ele>262.796</ele>
        <time>2022-09-21T07:42:16Z</time>
      </trkpt>
      <trkpt lat="46.53162" lon="4.49593">
        <ele>262.596</ele>
        <time>2022-09-21T07:42:21Z</time>
      </trkpt>
      <trkpt lat="46.5316" lon="4.49583">
        <ele>262.996</ele>
        <time>2022-09-21T07:42:27Z</time>
      </trkpt>
      <trkpt lat="46.53158" lon="4.49572">
        <ele>263.496</ele>
        <time>2022-09-21T07:42:32Z</time>
      </trkpt>
      <trkpt lat="46.53156" lon="4.4956">
        <ele>265.496</ele>
        <time>2022-09-21T07:42:37Z</time>
      </trkpt>
      <trkpt lat="46.53153" lon="4.49551">
        <ele>265.496</ele>
        <time>2022-09-21T07:42:42Z</time>
      </trkpt>
      <trkpt lat="46.53154" lon="4.49539">
        <ele>265.296</ele>
        <time>2022-09-21T07:42:48Z</time>
      </trkpt>
      <trkpt lat="46.53154" lon="4.49529">
        <ele>264.596</ele>
        <time>2022-09-21T07:42:53Z</time>
      </trkpt>
      <trkpt lat="46.53153" lon="4.49519">
        <ele>263.396</ele>
        <time>2022-09-21T07:42:58Z</time>
      </trkpt>
      <trkpt lat="46.53155" lon="4.49507">
        <ele>263.596</ele>
        <time>2022-09-21T07:43:04Z</time>
      </trkpt>
      <trkpt lat="46.53156" lon="4.49497">
        <ele>263.996</ele>
        <time>2022-09-21T07:43:09Z</time>
      </trkpt>
      <trkpt lat="46.53156" lon="4.49486">
        <ele>266.396</ele>
        <time>2022-09-21T07:43:15Z</time>
      </trkpt>
      <trkpt lat="46.53157" lon="4.49476">
        <ele>267.096</ele>
        <time>2022-09-21T07:43:20Z</time>
      </trkpt>
      <trkpt lat="46.53162" lon="4.49467">
        <ele>267.596</ele>
        <time>2022-09-21T07:43:25Z</time>
      </trkpt>
      <trkpt lat="46.53165" lon="4.4946">
        <ele>267.596</ele>
        <time>2022-09-21T07:43:31Z</time>
      </trkpt>
      <trkpt lat="46.53171" lon="4.49452">
        <ele>270.096</ele>
        <time>2022-09-21T07:43:36Z</time>
      </trkpt>
      <trkpt lat="46.53177" lon="4.49446">
        <ele>272.396</ele>
        <time>2022-09-21T07:43:41Z</time>
      </trkpt>
      <trkpt lat="46.53181" lon="4.49437">
        <ele>272.896</ele>
        <time>2022-09-21T07:43:46Z</time>
      </trkpt>
      <trkpt lat="46.53185" lon="4.49426">
        <ele>273.696</ele>
        <time>2022-09-21T07:43:52Z</time>
      </trkpt>
      <trkpt lat="46.53189" lon="4.49416">
        <ele>273.896</ele>
        <time>2022-09-21T07:43:58Z</time>
      </trkpt>
      <trkpt lat="46.5319" lon="4.49406">
        <ele>274.096</ele>
        <time>2022-09-21T07:44:04Z</time>
      </trkpt>
      <trkpt lat="46.53192" lon="4.49396">
        <ele>272.596</ele>
        <time>2022-09-21T07:44:09Z</time>
      </trkpt>
      <trkpt lat="46.53196" lon="4.49388">
        <ele>269.896</ele>
        <time>2022-09-21T07:44:15Z</time>
      </trkpt>
      <trkpt lat="46.53199" lon="4.49378">
        <ele>267.296</ele>
        <time>2022-09-21T07:44:21Z</time>
      </trkpt>
      <trkpt lat="46.53204" lon="4.49371">
        <ele>263.696</ele>
        <time>2022-09-21T07:44:27Z</time>
      </trkpt>
      <trkpt lat="46.53207" lon="4.49361">
        <ele>262.996</ele>
        <time>2022-09-21T07:44:33Z</time>
      </trkpt>
      <trkpt lat="46.53208" lon="4.49351">
        <ele>264.496</ele>
        <time>2022-09-21T07:44:38Z</time>
      </trkpt>
      <trkpt lat="46.5321" lon="4.49339">
        <ele>266.796</ele>
        <time>2022-09-21T07:44:44Z</time>
      </trkpt>
      <trkpt lat="46.53212" lon="4.49329">
        <ele>267.896</ele>
        <time>2022-09-21T07:44:50Z</time>
      </trkpt>
      <trkpt lat="46.53213" lon="4.49318">
        <ele>269.896</ele>
        <time>2022-09-21T07:44:56Z</time>
      </trkpt>
      <trkpt lat="46.53214" lon="4.49308">
        <ele>271.596</ele>
        <time>2022-09-21T07:45:01Z</time>
      </trkpt>
      <trkpt lat="46.53216" lon="4.49297">
        <ele>271.996</ele>
        <time>2022-09-21T07:45:07Z</time>
      </trkpt>
      <trkpt lat="46.53218" lon="4.49287">
        <ele>274.196</ele>
        <time>2022-09-21T07:45:12Z</time>
      </trkpt>
      <trkpt lat="46.5322" lon="4.49278">
        <ele>274.896</ele>
        <time>2022-09-21T07:45:20Z</time>
      </trkpt>
      <trkpt lat="46.53222" lon="4.49269">
        <ele>274.596</ele>
        <time>2022-09-21T07:45:35Z</time>
      </trkpt>
      <trkpt lat="46.53224" lon="4.49259">
        <ele>276.696</ele>
        <time>2022-09-21T07:45:46Z</time>
      </trkpt>
      <trkpt lat="46.53225" lon="4.49248">
        <ele>277.496</ele>
        <time>2022-09-21T07:45:52Z</time>
      </trkpt>
      <trkpt lat="46.53227" lon="4.49238">
        <ele>276.096</ele>
        <time>2022-09-21T07:46:01Z</time>
      </trkpt>
      <trkpt lat="46.5323" lon="4.4923">
        <ele>275.196</ele>
        <time>2022-09-21T07:46:07Z</time>
      </trkpt>
      <trkpt lat="46.53232" lon="4.4922">
        <ele>277.096</ele>
        <time>2022-09-21T07:46:12Z</time>
      </trkpt>
      <trkpt lat="46.53236" lon="4.49211">
        <ele>278.196</ele>
        <time>2022-09-21T07:46:18Z</time>
      </trkpt>
      <trkpt lat="46.53236" lon="4.49201">
        <ele>276.596</ele>
        <time>2022-09-21T07:46:24Z</time>
      </trkpt>
      <trkpt lat="46.5324" lon="4.49193">
        <ele>280.196</ele>
        <time>2022-09-21T07:46:51Z</time>
      </trkpt>
      <trkpt lat="46.53241" lon="4.49183">
        <ele>279.996</ele>
        <time>2022-09-21T07:46:56Z</time>
      </trkpt>
      <trkpt lat="46.53243" lon="4.49173">
        <ele>279.696</ele>
        <time>2022-09-21T07:47:02Z</time>
      </trkpt>
      <trkpt lat="46.53244" lon="4.49164">
        <ele>279.396</ele>
        <time>2022-09-21T07:47:08Z</time>
      </trkpt>
      <trkpt lat="46.53247" lon="4.49155">
        <ele>280.896</ele>
        <time>2022-09-21T07:47:14Z</time>
      </trkpt>
      <trkpt lat="46.53251" lon="4.49146">
        <ele>281.396</ele>
        <time>2022-09-21T07:47:20Z</time>
      </trkpt>
      <trkpt lat="46.53252" lon="4.49137">
        <ele>280.096</ele>
        <time>2022-09-21T07:47:26Z</time>
      </trkpt>
      <trkpt lat="46.53255" lon="4.49127">
        <ele>282.196</ele>
        <time>2022-09-21T07:47:32Z</time>
      </trkpt>
      <trkpt lat="46.53255" lon="4.49117">
        <ele>281.696</ele>
        <time>2022-09-21T07:47:39Z</time>
      </trkpt>
      <trkpt lat="46.53256" lon="4.49107">
        <ele>282.696</ele>
        <time>2022-09-21T07:47:45Z</time>
      </trkpt>
      <trkpt lat="46.5326" lon="4.49096">
        <ele>284.496</ele>
        <time>2022-09-21T07:47:51Z</time>
      </trkpt>
      <trkpt lat="46.5326" lon="4.49086">
        <ele>283.896</ele>
        <time>2022-09-21T07:47:57Z</time>
      </trkpt>
      <trkpt lat="46.53262" lon="4.49076">
        <ele>285.996</ele>
        <time>2022-09-21T07:48:02Z</time>
      </trkpt>
      <trkpt lat="46.53265" lon="4.49067">
        <ele>286.896</ele>
        <time>2022-09-21T07:48:08Z</time>
      </trkpt>
      <trkpt lat="46.53266" lon="4.49056">
        <ele>287.396</ele>
        <time>2022-09-21T07:48:14Z</time>
      </trkpt>
      <trkpt lat="46.53266" lon="4.49046">
        <ele>288.096</ele>
        <time>2022-09-21T07:48:20Z</time>
      </trkpt>
      <trkpt lat="46.53268" lon="4.49036">
        <ele>288.696</ele>
        <time>2022-09-21T07:48:26Z</time>
      </trkpt>
      <trkpt lat="46.53273" lon="4.49027">
        <ele>290.896</ele>
        <time>2022-09-21T07:48:32Z</time>
      </trkpt>
      <trkpt lat="46.53274" lon="4.49017">
        <ele>293.896</ele>
        <time>2022-09-21T07:48:39Z</time>
      </trkpt>
      <trkpt lat="46.53275" lon="4.49008">
        <ele>295.496</ele>
        <time>2022-09-21T07:48:45Z</time>
      </trkpt>
      <trkpt lat="46.53277" lon="4.48998">
        <ele>295.696</ele>
        <time>2022-09-21T07:48:52Z</time>
      </trkpt>
      <trkpt lat="46.53281" lon="4.48989">
        <ele>296.096</ele>
        <time>2022-09-21T07:48:58Z</time>
      </trkpt>
      <trkpt lat="46.53283" lon="4.48979">
        <ele>295.196</ele>
        <time>2022-09-21T07:49:04Z</time>
      </trkpt>
      <trkpt lat="46.53287" lon="4.4897">
        <ele>295.496</ele>
        <time>2022-09-21T07:49:09Z</time>
      </trkpt>
      <trkpt lat="46.5329" lon="4.48962">
        <ele>294.196</ele>
        <time>2022-09-21T07:49:14Z</time>
      </trkpt>
      <trkpt lat="46.53293" lon="4.48952">
        <ele>294.896</ele>
        <time>2022-09-21T07:49:20Z</time>
      </trkpt>
      <trkpt lat="46.53294" lon="4.48942">
        <ele>294.496</ele>
        <time>2022-09-21T07:49:26Z</time>
      </trkpt>
      <trkpt lat="46.53298" lon="4.48931">
        <ele>294.996</ele>
        <time>2022-09-21T07:49:32Z</time>
      </trkpt>
      <trkpt lat="46.53299" lon="4.48921">
        <ele>296.996</ele>
        <time>2022-09-21T07:49:38Z</time>
      </trkpt>
      <trkpt lat="46.53301" lon="4.48911">
        <ele>298.796</ele>
        <time>2022-09-21T07:49:44Z</time>
      </trkpt>
      <trkpt lat="46.53299" lon="4.48921">
        <ele>300.196</ele>
        <time>2022-09-21T07:50:59Z</time>
      </trkpt>
      <trkpt lat="46.53301" lon="4.48912">
        <ele>299.096</ele>
        <time>2022-09-21T07:51:14Z</time>
      </trkpt>
      <trkpt lat="46.53303" lon="4.48902">
        <ele>300.896</ele>
        <time>2022-09-21T07:51:30Z</time>
      </trkpt>
      <trkpt lat="46.53305" lon="4.48893">
        <ele>303.796</ele>
        <time>2022-09-21T07:51:59Z</time>
      </trkpt>
      <trkpt lat="46.5331" lon="4.48885">
        <ele>302.096</ele>
        <time>2022-09-21T07:52:15Z</time>
      </trkpt>
      <trkpt lat="46.53311" lon="4.48875">
        <ele>302.496</ele>
        <time>2022-09-21T07:52:22Z</time>
      </trkpt>
      <trkpt lat="46.53313" lon="4.48866">
        <ele>300.896</ele>
        <time>2022-09-21T07:52:29Z</time>
      </trkpt>
      <trkpt lat="46.53312" lon="4.48856">
        <ele>301.496</ele>
        <time>2022-09-21T07:52:34Z</time>
      </trkpt>
      <trkpt lat="46.53313" lon="4.48845">
        <ele>301.896</ele>
        <time>2022-09-21T07:52:40Z</time>
      </trkpt>
      <trkpt lat="46.53315" lon="4.48836">
        <ele>301.396</ele>
        <time>2022-09-21T07:52:46Z</time>
      </trkpt>
      <trkpt lat="46.53318" lon="4.48827">
        <ele>302.396</ele>
        <time>2022-09-21T07:52:52Z</time>
      </trkpt>
      <trkpt lat="46.53319" lon="4.48818">
        <ele>301.696</ele>
        <time>2022-09-21T07:52:57Z</time>
      </trkpt>
      <trkpt lat="46.53317" lon="4.48808">
        <ele>301.296</ele>
        <time>2022-09-21T07:53:03Z</time>
      </trkpt>
      <trkpt lat="46.53317" lon="4.48798">
        <ele>301.096</ele>
        <time>2022-09-21T07:53:09Z</time>
      </trkpt>
      <trkpt lat="46.53318" lon="4.48789">
        <ele>302.096</ele>
        <time>2022-09-21T07:53:15Z</time>
      </trkpt>
      <trkpt lat="46.5332" lon="4.48778">
        <ele>302.596</ele>
        <time>2022-09-21T07:53:21Z</time>
      </trkpt>
      <trkpt lat="46.53319" lon="4.48768">
        <ele>301.796</ele>
        <time>2022-09-21T07:53:28Z</time>
      </trkpt>
      <trkpt lat="46.5332" lon="4.48758">
        <ele>302.096</ele>
        <time>2022-09-21T07:53:34Z</time>
      </trkpt>
      <trkpt lat="46.5332" lon="4.48748">
        <ele>301.896</ele>
        <time>2022-09-21T07:53:40Z</time>
      </trkpt>
      <trkpt lat="46.53322" lon="4.48738">
        <ele>302.696</ele>
        <time>2022-09-21T07:53:45Z</time>
      </trkpt>
      <trkpt lat="46.53322" lon="4.48729">
        <ele>301.496</ele>
        <time>2022-09-21T07:53:50Z</time>
      </trkpt>
      <trkpt lat="46.53324" lon="4.48717">
        <ele>302.396</ele>
        <time>2022-09-21T07:53:56Z</time>
      </trkpt>
      <trkpt lat="46.53325" lon="4.48708">
        <ele>303.096</ele>
        <time>2022-09-21T07:54:01Z</time>
      </trkpt>
      <trkpt lat="46.53325" lon="4.48698">
        <ele>303.796</ele>
        <time>2022-09-21T07:54:07Z</time>
      </trkpt>
      <trkpt lat="46.53327" lon="4.48688">
        <ele>305.596</ele>
        <time>2022-09-21T07:54:13Z</time>
      </trkpt>
      <trkpt lat="46.5333" lon="4.48678">
        <ele>305.196</ele>
        <time>2022-09-21T07:54:19Z</time>
      </trkpt>
      <trkpt lat="46.53331" lon="4.48668">
        <ele>306.296</ele>
        <time>2022-09-21T07:54:25Z</time>
      </trkpt>
      <trkpt lat="46.53332" lon="4.48659">
        <ele>304.896</ele>
        <time>2022-09-21T07:54:31Z</time>
      </trkpt>
      <trkpt lat="46.53335" lon="4.48648">
        <ele>304.396</ele>
        <time>2022-09-21T07:54:36Z</time>
      </trkpt>
      <trkpt lat="46.53338" lon="4.4864">
        <ele>304.496</ele>
        <time>2022-09-21T07:54:41Z</time>
      </trkpt>
      <trkpt lat="46.53338" lon="4.48628">
        <ele>305.296</ele>
        <time>2022-09-21T07:54:47Z</time>
      </trkpt>
      <trkpt lat="46.53339" lon="4.48619">
        <ele>306.596</ele>
        <time>2022-09-21T07:54:53Z</time>
      </trkpt>
      <trkpt lat="46.53339" lon="4.48609">
        <ele>306.996</ele>
        <time>2022-09-21T07:54:59Z</time>
      </trkpt>
      <trkpt lat="46.5334" lon="4.48598">
        <ele>308.196</ele>
        <time>2022-09-21T07:55:06Z</time>
      </trkpt>
      <trkpt lat="46.5334" lon="4.48587">
        <ele>308.696</ele>
        <time>2022-09-21T07:55:12Z</time>
      </trkpt>
      <trkpt lat="46.53338" lon="4.48576">
        <ele>310.596</ele>
        <time>2022-09-21T07:55:18Z</time>
      </trkpt>
      <trkpt lat="46.53337" lon="4.48567">
        <ele>309.696</ele>
        <time>2022-09-21T07:55:24Z</time>
      </trkpt>
      <trkpt lat="46.53338" lon="4.48557">
        <ele>309.596</ele>
        <time>2022-09-21T07:55:30Z</time>
      </trkpt>
      <trkpt lat="46.53338" lon="4.48548">
        <ele>310.296</ele>
        <time>2022-09-21T07:55:36Z</time>
      </trkpt>
      <trkpt lat="46.53337" lon="4.48538">
        <ele>310.796</ele>
        <time>2022-09-21T07:55:42Z</time>
      </trkpt>
      <trkpt lat="46.53339" lon="4.48528">
        <ele>312.896</ele>
        <time>2022-09-21T07:55:49Z</time>
      </trkpt>
      <trkpt lat="46.53338" lon="4.48518">
        <ele>314.296</ele>
        <time>2022-09-21T07:55:56Z</time>
      </trkpt>
      <trkpt lat="46.53335" lon="4.48508">
        <ele>314.896</ele>
        <time>2022-09-21T07:56:03Z</time>
      </trkpt>
      <trkpt lat="46.53334" lon="4.48498">
        <ele>316.296</ele>
        <time>2022-09-21T07:56:10Z</time>
      </trkpt>
      <trkpt lat="46.53332" lon="4.48489">
        <ele>319.096</ele>
        <time>2022-09-21T07:56:16Z</time>
      </trkpt>
      <trkpt lat="46.5333" lon="4.4848">
        <ele>319.396</ele>
        <time>2022-09-21T07:56:23Z</time>
      </trkpt>
      <trkpt lat="46.53329" lon="4.48469">
        <ele>320.396</ele>
        <time>2022-09-21T07:56:29Z</time>
      </trkpt>
      <trkpt lat="46.53327" lon="4.48459">
        <ele>322.296</ele>
        <time>2022-09-21T07:56:36Z</time>
      </trkpt>
      <trkpt lat="46.53323" lon="4.4845">
        <ele>322.195</ele>
        <time>2022-09-21T07:56:43Z</time>
      </trkpt>
      <trkpt lat="46.5332" lon="4.48441">
        <ele>322.595</ele>
        <time>2022-09-21T07:56:50Z</time>
      </trkpt>
      <trkpt lat="46.53317" lon="4.48432">
        <ele>323.695</ele>
        <time>2022-09-21T07:56:56Z</time>
      </trkpt>
      <trkpt lat="46.53313" lon="4.48424">
        <ele>324.295</ele>
        <time>2022-09-21T07:57:02Z</time>
      </trkpt>
      <trkpt lat="46.53307" lon="4.48415">
        <ele>324.895</ele>
        <time>2022-09-21T07:57:08Z</time>
      </trkpt>
      <trkpt lat="46.53303" lon="4.48406">
        <ele>324.695</ele>
        <time>2022-09-21T07:57:14Z</time>
      </trkpt>
      <trkpt lat="46.53299" lon="4.48397">
        <ele>323.795</ele>
        <time>2022-09-21T07:57:20Z</time>
      </trkpt>
      <trkpt lat="46.53295" lon="4.48388">
        <ele>324.195</ele>
        <time>2022-09-21T07:57:25Z</time>
      </trkpt>
      <trkpt lat="46.53291" lon="4.4838">
        <ele>325.095</ele>
        <time>2022-09-21T07:57:30Z</time>
      </trkpt>
      <trkpt lat="46.5329" lon="4.4837">
        <ele>326.595</ele>
        <time>2022-09-21T07:57:36Z</time>
      </trkpt>
      <trkpt lat="46.53287" lon="4.48362">
        <ele>328.695</ele>
        <time>2022-09-21T07:57:42Z</time>
      </trkpt>
      <trkpt lat="46.53285" lon="4.48351">
        <ele>328.795</ele>
        <time>2022-09-21T07:57:48Z</time>
      </trkpt>
      <trkpt lat="46.53287" lon="4.48341">
        <ele>330.695</ele>
        <time>2022-09-21T07:57:54Z</time>
      </trkpt>
      <trkpt lat="46.5329" lon="4.48331">
        <ele>330.995</ele>
        <time>2022-09-21T07:58:00Z</time>
      </trkpt>
      <trkpt lat="46.53293" lon="4.48321">
        <ele>329.795</ele>
        <time>2022-09-21T07:58:08Z</time>
      </trkpt>
      <trkpt lat="46.53294" lon="4.48311">
        <ele>331.395</ele>
        <time>2022-09-21T07:58:14Z</time>
      </trkpt>
      <trkpt lat="46.53294" lon="4.48299">
        <ele>331.895</ele>
        <time>2022-09-21T07:58:20Z</time>
      </trkpt>
      <trkpt lat="46.53292" lon="4.4829">
        <ele>331.795</ele>
        <time>2022-09-21T07:58:27Z</time>
      </trkpt>
      <trkpt lat="46.53287" lon="4.48282">
        <ele>333.495</ele>
        <time>2022-09-21T07:58:33Z</time>
      </trkpt>
      <trkpt lat="46.53284" lon="4.48272">
        <ele>335.595</ele>
        <time>2022-09-21T07:58:39Z</time>
      </trkpt>
      <trkpt lat="46.5328" lon="4.48264">
        <ele>338.595</ele>
        <time>2022-09-21T07:58:45Z</time>
      </trkpt>
      <trkpt lat="46.53277" lon="4.48255">
        <ele>340.095</ele>
        <time>2022-09-21T07:58:50Z</time>
      </trkpt>
      <trkpt lat="46.53274" lon="4.48247">
        <ele>341.095</ele>
        <time>2022-09-21T07:58:55Z</time>
      </trkpt>
      <trkpt lat="46.53273" lon="4.48235">
        <ele>341.795</ele>
        <time>2022-09-21T07:59:01Z</time>
      </trkpt>
      <trkpt lat="46.5327" lon="4.48225">
        <ele>342.795</ele>
        <time>2022-09-21T07:59:06Z</time>
      </trkpt>
      <trkpt lat="46.53269" lon="4.48215">
        <ele>345.195</ele>
        <time>2022-09-21T07:59:12Z</time>
      </trkpt>
      <trkpt lat="46.53268" lon="4.48205">
        <ele>345.895</ele>
        <time>2022-09-21T07:59:17Z</time>
      </trkpt>
      <trkpt lat="46.53267" lon="4.48195">
        <ele>346.395</ele>
        <time>2022-09-21T07:59:23Z</time>
      </trkpt>
      <trkpt lat="46.53266" lon="4.48185">
        <ele>345.395</ele>
        <time>2022-09-21T07:59:29Z</time>
      </trkpt>
      <trkpt lat="46.53266" lon="4.48175">
        <ele>344.095</ele>
        <time>2022-09-21T07:59:35Z</time>
      </trkpt>
      <trkpt lat="46.53266" lon="4.48164">
        <ele>343.295</ele>
        <time>2022-09-21T07:59:44Z</time>
      </trkpt>
      <trkpt lat="46.53265" lon="4.48155">
        <ele>342.295</ele>
        <time>2022-09-21T07:59:49Z</time>
      </trkpt>
      <trkpt lat="46.53265" lon="4.48145">
        <ele>341.895</ele>
        <time>2022-09-21T07:59:54Z</time>
      </trkpt>
      <trkpt lat="46.53266" lon="4.48136">
        <ele>345.395</ele>
        <time>2022-09-21T08:00:00Z</time>
      </trkpt>
      <trkpt lat="46.53269" lon="4.48126">
        <ele>347.695</ele>
        <time>2022-09-21T08:00:05Z</time>
      </trkpt>
      <trkpt lat="46.53273" lon="4.48117">
        <ele>346.995</ele>
        <time>2022-09-21T08:00:10Z</time>
      </trkpt>
      <trkpt lat="46.53276" lon="4.48108">
        <ele>346.895</ele>
        <time>2022-09-21T08:00:17Z</time>
      </trkpt>
      <trkpt lat="46.53279" lon="4.48098">
        <ele>348.495</ele>
        <time>2022-09-21T08:00:24Z</time>
      </trkpt>
      <trkpt lat="46.53282" lon="4.4809">
        <ele>349.495</ele>
        <time>2022-09-21T08:00:29Z</time>
      </trkpt>
      <trkpt lat="46.53286" lon="4.48082">
        <ele>349.395</ele>
        <time>2022-09-21T08:00:38Z</time>
      </trkpt>
      <trkpt lat="46.5329" lon="4.48073">
        <ele>348.695</ele>
        <time>2022-09-21T08:00:44Z</time>
      </trkpt>
      <trkpt lat="46.53294" lon="4.48064">
        <ele>348.995</ele>
        <time>2022-09-21T08:00:49Z</time>
      </trkpt>
      <trkpt lat="46.53299" lon="4.48056">
        <ele>351.095</ele>
        <time>2022-09-21T08:00:54Z</time>
      </trkpt>
      <trkpt lat="46.53303" lon="4.48047">
        <ele>351.495</ele>
        <time>2022-09-21T08:01:00Z</time>
      </trkpt>
      <trkpt lat="46.53307" lon="4.4804">
        <ele>352.895</ele>
        <time>2022-09-21T08:01:06Z</time>
      </trkpt>
      <trkpt lat="46.53313" lon="4.48031">
        <ele>352.395</ele>
        <time>2022-09-21T08:01:12Z</time>
      </trkpt>
      <trkpt lat="46.53317" lon="4.48023">
        <ele>350.895</ele>
        <time>2022-09-21T08:01:18Z</time>
      </trkpt>
      <trkpt lat="46.53324" lon="4.48017">
        <ele>350.495</ele>
        <time>2022-09-21T08:01:24Z</time>
      </trkpt>
      <trkpt lat="46.5333" lon="4.48011">
        <ele>349.995</ele>
        <time>2022-09-21T08:01:29Z</time>
      </trkpt>
      <trkpt lat="46.53336" lon="4.48005">
        <ele>351.195</ele>
        <time>2022-09-21T08:01:34Z</time>
      </trkpt>
      <trkpt lat="46.53342" lon="4.47999">
        <ele>350.195</ele>
        <time>2022-09-21T08:01:40Z</time>
      </trkpt>
      <trkpt lat="46.53347" lon="4.47993">
        <ele>350.095</ele>
        <time>2022-09-21T08:01:46Z</time>
      </trkpt>
      <trkpt lat="46.53356" lon="4.47987">
        <ele>351.495</ele>
        <time>2022-09-21T08:01:52Z</time>
      </trkpt>
      <trkpt lat="46.53363" lon="4.47982">
        <ele>351.095</ele>
        <time>2022-09-21T08:01:58Z</time>
      </trkpt>
      <trkpt lat="46.5337" lon="4.47976">
        <ele>353.295</ele>
        <time>2022-09-21T08:02:04Z</time>
      </trkpt>
      <trkpt lat="46.53376" lon="4.47971">
        <ele>353.495</ele>
        <time>2022-09-21T08:02:09Z</time>
      </trkpt>
      <trkpt lat="46.53383" lon="4.47966">
        <ele>354.795</ele>
        <time>2022-09-21T08:02:15Z</time>
      </trkpt>
      <trkpt lat="46.53389" lon="4.47961">
        <ele>354.695</ele>
        <time>2022-09-21T08:02:20Z</time>
      </trkpt>
      <trkpt lat="46.53396" lon="4.47957">
        <ele>354.895</ele>
        <time>2022-09-21T08:02:25Z</time>
      </trkpt>
      <trkpt lat="46.53401" lon="4.47951">
        <ele>354.995</ele>
        <time>2022-09-21T08:02:31Z</time>
      </trkpt>
      <trkpt lat="46.53407" lon="4.47943">
        <ele>354.995</ele>
        <time>2022-09-21T08:02:36Z</time>
      </trkpt>
      <trkpt lat="46.53413" lon="4.47937">
        <ele>356.395</ele>
        <time>2022-09-21T08:02:42Z</time>
      </trkpt>
      <trkpt lat="46.53419" lon="4.47929">
        <ele>356.995</ele>
        <time>2022-09-21T08:02:48Z</time>
      </trkpt>
      <trkpt lat="46.53425" lon="4.47923">
        <ele>359.195</ele>
        <time>2022-09-21T08:02:54Z</time>
      </trkpt>
      <trkpt lat="46.53429" lon="4.47911">
        <ele>359.495</ele>
        <time>2022-09-21T08:03:00Z</time>
      </trkpt>
      <trkpt lat="46.53434" lon="4.47903">
        <ele>358.695</ele>
        <time>2022-09-21T08:03:06Z</time>
      </trkpt>
      <trkpt lat="46.53438" lon="4.47893">
        <ele>359.495</ele>
        <time>2022-09-21T08:03:12Z</time>
      </trkpt>
      <trkpt lat="46.5344" lon="4.47884">
        <ele>360.495</ele>
        <time>2022-09-21T08:03:18Z</time>
      </trkpt>
      <trkpt lat="46.53443" lon="4.47873">
        <ele>361.395</ele>
        <time>2022-09-21T08:03:24Z</time>
      </trkpt>
      <trkpt lat="46.53444" lon="4.47862">
        <ele>361.895</ele>
        <time>2022-09-21T08:03:31Z</time>
      </trkpt>
      <trkpt lat="46.53444" lon="4.47852">
        <ele>362.195</ele>
        <time>2022-09-21T08:03:37Z</time>
      </trkpt>
      <trkpt lat="46.53445" lon="4.47843">
        <ele>363.695</ele>
        <time>2022-09-21T08:03:43Z</time>
      </trkpt>
      <trkpt lat="46.53445" lon="4.47832">
        <ele>365.495</ele>
        <time>2022-09-21T08:03:48Z</time>
      </trkpt>
      <trkpt lat="46.53446" lon="4.47823">
        <ele>367.195</ele>
        <time>2022-09-21T08:03:54Z</time>
      </trkpt>
      <trkpt lat="46.53447" lon="4.47813">
        <ele>366.595</ele>
        <time>2022-09-21T08:04:00Z</time>
      </trkpt>
      <trkpt lat="46.53445" lon="4.47802">
        <ele>367.595</ele>
        <time>2022-09-21T08:04:06Z</time>
      </trkpt>
      <trkpt lat="46.53445" lon="4.47791">
        <ele>367.995</ele>
        <time>2022-09-21T08:04:12Z</time>
      </trkpt>
      <trkpt lat="46.53444" lon="4.47781">
        <ele>366.995</ele>
        <time>2022-09-21T08:04:18Z</time>
      </trkpt>
      <trkpt lat="46.53442" lon="4.47771">
        <ele>366.595</ele>
        <time>2022-09-21T08:04:24Z</time>
      </trkpt>
      <trkpt lat="46.53442" lon="4.47761">
        <ele>367.795</ele>
        <time>2022-09-21T08:04:32Z</time>
      </trkpt>
      <trkpt lat="46.53444" lon="4.47752">
        <ele>369.195</ele>
        <time>2022-09-21T08:04:57Z</time>
      </trkpt>
      <trkpt lat="46.53444" lon="4.47742">
        <ele>368.895</ele>
        <time>2022-09-21T08:05:04Z</time>
      </trkpt>
      <trkpt lat="46.53443" lon="4.47731">
        <ele>371.695</ele>
        <time>2022-09-21T08:08:47Z</time>
      </trkpt>
      <trkpt lat="46.53443" lon="4.47721">
        <ele>372.895</ele>
        <time>2022-09-21T08:08:54Z</time>
      </trkpt>
      <trkpt lat="46.53444" lon="4.4771">
        <ele>373.695</ele>
        <time>2022-09-21T08:09:00Z</time>
      </trkpt>
      <trkpt lat="46.53445" lon="4.477">
        <ele>374.795</ele>
        <time>2022-09-21T08:09:06Z</time>
      </trkpt>
      <trkpt lat="46.53446" lon="4.47689">
        <ele>374.995</ele>
        <time>2022-09-21T08:09:12Z</time>
      </trkpt>
      <trkpt lat="46.53446" lon="4.47679">
        <ele>373.895</ele>
        <time>2022-09-21T08:09:19Z</time>
      </trkpt>
      <trkpt lat="46.53448" lon="4.47669">
        <ele>373.595</ele>
        <time>2022-09-21T08:09:25Z</time>
      </trkpt>
      <trkpt lat="46.53449" lon="4.47659">
        <ele>372.795</ele>
        <time>2022-09-21T08:09:31Z</time>
      </trkpt>
      <trkpt lat="46.53449" lon="4.47648">
        <ele>372.595</ele>
        <time>2022-09-21T08:09:36Z</time>
      </trkpt>
      <trkpt lat="46.53449" lon="4.47639">
        <ele>371.795</ele>
        <time>2022-09-21T08:09:42Z</time>
      </trkpt>
      <trkpt lat="46.53449" lon="4.47627">
        <ele>372.595</ele>
        <time>2022-09-21T08:09:48Z</time>
      </trkpt>
      <trkpt lat="46.53449" lon="4.47617">
        <ele>372.995</ele>
        <time>2022-09-21T08:09:53Z</time>
      </trkpt>
      <trkpt lat="46.53451" lon="4.47606">
        <ele>372.295</ele>
        <time>2022-09-21T08:09:59Z</time>
      </trkpt>
      <trkpt lat="46.53453" lon="4.47596">
        <ele>372.195</ele>
        <time>2022-09-21T08:10:05Z</time>
      </trkpt>
      <trkpt lat="46.53456" lon="4.47586">
        <ele>373.995</ele>
        <time>2022-09-21T08:10:11Z</time>
      </trkpt>
      <trkpt lat="46.53458" lon="4.47575">
        <ele>373.895</ele>
        <time>2022-09-21T08:10:17Z</time>
      </trkpt>
      <trkpt lat="46.53461" lon="4.47565">
        <ele>373.195</ele>
        <time>2022-09-21T08:10:23Z</time>
      </trkpt>
      <trkpt lat="46.53463" lon="4.47557">
        <ele>373.695</ele>
        <time>2022-09-21T08:10:28Z</time>
      </trkpt>
      <trkpt lat="46.53466" lon="4.47547">
        <ele>372.795</ele>
        <time>2022-09-21T08:10:33Z</time>
      </trkpt>
      <trkpt lat="46.5347" lon="4.47541">
        <ele>372.695</ele>
        <time>2022-09-21T08:10:38Z</time>
      </trkpt>
      <trkpt lat="46.53473" lon="4.4753">
        <ele>373.295</ele>
        <time>2022-09-21T08:10:44Z</time>
      </trkpt>
      <trkpt lat="46.53476" lon="4.47519">
        <ele>373.795</ele>
        <time>2022-09-21T08:10:50Z</time>
      </trkpt>
      <trkpt lat="46.53478" lon="4.47508">
        <ele>372.095</ele>
        <time>2022-09-21T08:10:56Z</time>
      </trkpt>
      <trkpt lat="46.53481" lon="4.47499">
        <ele>370.895</ele>
        <time>2022-09-21T08:11:02Z</time>
      </trkpt>
      <trkpt lat="46.53487" lon="4.47488">
        <ele>370.195</ele>
        <time>2022-09-21T08:11:08Z</time>
      </trkpt>
      <trkpt lat="46.53492" lon="4.4748">
        <ele>371.795</ele>
        <time>2022-09-21T08:11:13Z</time>
      </trkpt>
      <trkpt lat="46.53498" lon="4.47473">
        <ele>371.395</ele>
        <time>2022-09-21T08:11:19Z</time>
      </trkpt>
      <trkpt lat="46.53503" lon="4.47466">
        <ele>371.395</ele>
        <time>2022-09-21T08:11:24Z</time>
      </trkpt>
      <trkpt lat="46.53506" lon="4.47457">
        <ele>371.695</ele>
        <time>2022-09-21T08:11:30Z</time>
      </trkpt>
      <trkpt lat="46.53512" lon="4.47447">
        <ele>370.995</ele>
        <time>2022-09-21T08:11:36Z</time>
      </trkpt>
      <trkpt lat="46.53517" lon="4.47439">
        <ele>370.595</ele>
        <time>2022-09-21T08:11:41Z</time>
      </trkpt>
      <trkpt lat="46.53522" lon="4.47431">
        <ele>369.995</ele>
        <time>2022-09-21T08:11:46Z</time>
      </trkpt>
      <trkpt lat="46.53525" lon="4.47422">
        <ele>369.595</ele>
        <time>2022-09-21T08:11:52Z</time>
      </trkpt>
      <trkpt lat="46.53529" lon="4.47414">
        <ele>370.095</ele>
        <time>2022-09-21T08:11:57Z</time>
      </trkpt>
      <trkpt lat="46.53533" lon="4.47407">
        <ele>371.595</ele>
        <time>2022-09-21T08:12:02Z</time>
      </trkpt>
      <trkpt lat="46.5354" lon="4.47401">
        <ele>370.895</ele>
        <time>2022-09-21T08:12:08Z</time>
      </trkpt>
      <trkpt lat="46.53545" lon="4.47392">
        <ele>370.095</ele>
        <time>2022-09-21T08:12:13Z</time>
      </trkpt>
      <trkpt lat="46.5355" lon="4.47385">
        <ele>372.595</ele>
        <time>2022-09-21T08:12:19Z</time>
      </trkpt>
      <trkpt lat="46.53556" lon="4.47377">
        <ele>376.195</ele>
        <time>2022-09-21T08:12:24Z</time>
      </trkpt>
      <trkpt lat="46.5356" lon="4.47369">
        <ele>376.995</ele>
        <time>2022-09-21T08:12:30Z</time>
      </trkpt>
      <trkpt lat="46.53564" lon="4.47361">
        <ele>376.495</ele>
        <time>2022-09-21T08:12:36Z</time>
      </trkpt>
      <trkpt lat="46.53566" lon="4.47351">
        <ele>373.995</ele>
        <time>2022-09-21T08:12:42Z</time>
      </trkpt>
      <trkpt lat="46.5357" lon="4.4734">
        <ele>374.295</ele>
        <time>2022-09-21T08:12:48Z</time>
      </trkpt>
      <trkpt lat="46.53571" lon="4.47329">
        <ele>372.395</ele>
        <time>2022-09-21T08:12:55Z</time>
      </trkpt>
      <trkpt lat="46.53574" lon="4.4732">
        <ele>372.595</ele>
        <time>2022-09-21T08:13:01Z</time>
      </trkpt>
      <trkpt lat="46.53576" lon="4.47311">
        <ele>372.595</ele>
        <time>2022-09-21T08:13:06Z</time>
      </trkpt>
      <trkpt lat="46.53578" lon="4.47302">
        <ele>373.195</ele>
        <time>2022-09-21T08:13:12Z</time>
      </trkpt>
      <trkpt lat="46.53581" lon="4.47292">
        <ele>375.995</ele>
        <time>2022-09-21T08:13:18Z</time>
      </trkpt>
      <trkpt lat="46.53586" lon="4.47282">
        <ele>376.995</ele>
        <time>2022-09-21T08:13:24Z</time>
      </trkpt>
      <trkpt lat="46.53587" lon="4.47272">
        <ele>376.795</ele>
        <time>2022-09-21T08:13:30Z</time>
      </trkpt>
      <trkpt lat="46.53588" lon="4.47262">
        <ele>378.895</ele>
        <time>2022-09-21T08:13:37Z</time>
      </trkpt>
      <trkpt lat="46.53588" lon="4.47252">
        <ele>378.995</ele>
        <time>2022-09-21T08:13:43Z</time>
      </trkpt>
      <trkpt lat="46.5359" lon="4.47242">
        <ele>379.495</ele>
        <time>2022-09-21T08:13:49Z</time>
      </trkpt>
      <trkpt lat="46.53592" lon="4.47232">
        <ele>380.995</ele>
        <time>2022-09-21T08:13:56Z</time>
      </trkpt>
      <trkpt lat="46.53592" lon="4.47223">
        <ele>382.795</ele>
        <time>2022-09-21T08:14:02Z</time>
      </trkpt>
      <trkpt lat="46.53595" lon="4.47214">
        <ele>384.595</ele>
        <time>2022-09-21T08:14:08Z</time>
      </trkpt>
      <trkpt lat="46.53596" lon="4.47203">
        <ele>382.995</ele>
        <time>2022-09-21T08:14:15Z</time>
      </trkpt>
      <trkpt lat="46.53595" lon="4.47193">
        <ele>383.195</ele>
        <time>2022-09-21T08:14:27Z</time>
      </trkpt>
      <trkpt lat="46.53598" lon="4.4718">
        <ele>382.095</ele>
        <time>2022-09-21T08:15:25Z</time>
      </trkpt>
      <trkpt lat="46.53596" lon="4.4717">
        <ele>382.095</ele>
        <time>2022-09-21T08:15:30Z</time>
      </trkpt>
      <trkpt lat="46.53593" lon="4.47161">
        <ele>382.795</ele>
        <time>2022-09-21T08:16:22Z</time>
      </trkpt>
      <trkpt lat="46.53591" lon="4.47148">
        <ele>381.595</ele>
        <time>2022-09-21T08:16:28Z</time>
      </trkpt>
      <trkpt lat="46.5359" lon="4.47138">
        <ele>381.395</ele>
        <time>2022-09-21T08:16:34Z</time>
      </trkpt>
      <trkpt lat="46.53588" lon="4.47128">
        <ele>382.095</ele>
        <time>2022-09-21T08:16:40Z</time>
      </trkpt>
      <trkpt lat="46.53587" lon="4.47118">
        <ele>382.395</ele>
        <time>2022-09-21T08:16:45Z</time>
      </trkpt>
      <trkpt lat="46.53586" lon="4.47109">
        <ele>381.495</ele>
        <time>2022-09-21T08:16:50Z</time>
      </trkpt>
      <trkpt lat="46.53584" lon="4.47097">
        <ele>381.895</ele>
        <time>2022-09-21T08:16:56Z</time>
      </trkpt>
      <trkpt lat="46.53581" lon="4.47088">
        <ele>382.095</ele>
        <time>2022-09-21T08:17:01Z</time>
      </trkpt>
      <trkpt lat="46.53581" lon="4.47078">
        <ele>382.695</ele>
        <time>2022-09-21T08:17:06Z</time>
      </trkpt>
      <trkpt lat="46.5358" lon="4.47067">
        <ele>382.195</ele>
        <time>2022-09-21T08:17:12Z</time>
      </trkpt>
      <trkpt lat="46.53581" lon="4.47056">
        <ele>387.195</ele>
        <time>2022-09-21T08:17:18Z</time>
      </trkpt>
      <trkpt lat="46.53582" lon="4.47044">
        <ele>388.295</ele>
        <time>2022-09-21T08:17:24Z</time>
      </trkpt>
      <trkpt lat="46.53583" lon="4.47034">
        <ele>386.995</ele>
        <time>2022-09-21T08:17:30Z</time>
      </trkpt>
      <trkpt lat="46.53583" lon="4.47022">
        <ele>384.595</ele>
        <time>2022-09-21T08:17:36Z</time>
      </trkpt>
      <trkpt lat="46.53582" lon="4.47013">
        <ele>381.395</ele>
        <time>2022-09-21T08:17:42Z</time>
      </trkpt>
      <trkpt lat="46.53585" lon="4.47004">
        <ele>379.295</ele>
        <time>2022-09-21T08:17:50Z</time>
      </trkpt>
      <trkpt lat="46.53587" lon="4.46995">
        <ele>380.395</ele>
        <time>2022-09-21T08:17:59Z</time>
      </trkpt>
      <trkpt lat="46.53589" lon="4.46985">
        <ele>379.295</ele>
        <time>2022-09-21T08:18:05Z</time>
      </trkpt>
      <trkpt lat="46.53592" lon="4.46976">
        <ele>378.595</ele>
        <time>2022-09-21T08:18:11Z</time>
      </trkpt>
      <trkpt lat="46.53596" lon="4.46966">
        <ele>380.095</ele>
        <time>2022-09-21T08:18:17Z</time>
      </trkpt>
      <trkpt lat="46.53597" lon="4.46956">
        <ele>381.595</ele>
        <time>2022-09-21T08:18:24Z</time>
      </trkpt>
      <trkpt lat="46.53599" lon="4.46946">
        <ele>385.995</ele>
        <time>2022-09-21T08:19:15Z</time>
      </trkpt>
      <trkpt lat="46.53602" lon="4.46937">
        <ele>385.895</ele>
        <time>2022-09-21T08:19:22Z</time>
      </trkpt>
      <trkpt lat="46.53606" lon="4.46928">
        <ele>386.395</ele>
        <time>2022-09-21T08:19:28Z</time>
      </trkpt>
      <trkpt lat="46.53611" lon="4.4692">
        <ele>387.695</ele>
        <time>2022-09-21T08:19:36Z</time>
      </trkpt>
      <trkpt lat="46.53618" lon="4.46917">
        <ele>386.695</ele>
        <time>2022-09-21T08:21:14Z</time>
      </trkpt>
      <trkpt lat="46.53624" lon="4.46921">
        <ele>385.795</ele>
        <time>2022-09-21T08:21:22Z</time>
      </trkpt>
      <trkpt lat="46.5363" lon="4.46928">
        <ele>385.595</ele>
        <time>2022-09-21T08:21:31Z</time>
      </trkpt>
      <trkpt lat="46.53638" lon="4.46932">
        <ele>384.995</ele>
        <time>2022-09-21T08:21:36Z</time>
      </trkpt>
      <trkpt lat="46.53644" lon="4.46936">
        <ele>384.595</ele>
        <time>2022-09-21T08:21:42Z</time>
      </trkpt>
      <trkpt lat="46.5365" lon="4.46941">
        <ele>385.595</ele>
        <time>2022-09-21T08:21:48Z</time>
      </trkpt>
      <trkpt lat="46.53656" lon="4.46945">
        <ele>385.495</ele>
        <time>2022-09-21T08:21:53Z</time>
      </trkpt>
      <trkpt lat="46.53662" lon="4.46949">
        <ele>385.595</ele>
        <time>2022-09-21T08:21:59Z</time>
      </trkpt>
      <trkpt lat="46.53668" lon="4.46954">
        <ele>384.295</ele>
        <time>2022-09-21T08:22:04Z</time>
      </trkpt>
      <trkpt lat="46.53675" lon="4.46957">
        <ele>385.195</ele>
        <time>2022-09-21T08:22:10Z</time>
      </trkpt>
      <trkpt lat="46.53683" lon="4.46963">
        <ele>385.395</ele>
        <time>2022-09-21T08:22:16Z</time>
      </trkpt>
      <trkpt lat="46.53689" lon="4.46968">
        <ele>386.195</ele>
        <time>2022-09-21T08:22:21Z</time>
      </trkpt>
      <trkpt lat="46.53695" lon="4.46973">
        <ele>386.095</ele>
        <time>2022-09-21T08:22:27Z</time>
      </trkpt>
      <trkpt lat="46.53703" lon="4.46976">
        <ele>387.095</ele>
        <time>2022-09-21T08:22:33Z</time>
      </trkpt>
      <trkpt lat="46.5371" lon="4.46979">
        <ele>386.895</ele>
        <time>2022-09-21T08:22:38Z</time>
      </trkpt>
      <trkpt lat="46.53716" lon="4.46983">
        <ele>387.796</ele>
        <time>2022-09-21T08:22:44Z</time>
      </trkpt>
      <trkpt lat="46.53722" lon="4.46985">
        <ele>389.196</ele>
        <time>2022-09-21T08:22:49Z</time>
      </trkpt>
      <trkpt lat="46.5373" lon="4.46988">
        <ele>390.596</ele>
        <time>2022-09-21T08:22:55Z</time>
      </trkpt>
      <trkpt lat="46.53737" lon="4.46993">
        <ele>391.596</ele>
        <time>2022-09-21T08:23:00Z</time>
      </trkpt>
      <trkpt lat="46.53743" lon="4.46997">
        <ele>390.896</ele>
        <time>2022-09-21T08:23:06Z</time>
      </trkpt>
      <trkpt lat="46.53749" lon="4.47002">
        <ele>391.396</ele>
        <time>2022-09-21T08:23:12Z</time>
      </trkpt>
      <trkpt lat="46.53756" lon="4.47007">
        <ele>390.096</ele>
        <time>2022-09-21T08:23:17Z</time>
      </trkpt>
      <trkpt lat="46.53762" lon="4.4701">
        <ele>388.096</ele>
        <time>2022-09-21T08:23:24Z</time>
      </trkpt>
      <trkpt lat="46.5377" lon="4.47016">
        <ele>387.096</ele>
        <time>2022-09-21T08:23:29Z</time>
      </trkpt>
      <trkpt lat="46.53777" lon="4.47019">
        <ele>387.296</ele>
        <time>2022-09-21T08:23:34Z</time>
      </trkpt>
      <trkpt lat="46.53785" lon="4.47023">
        <ele>389.996</ele>
        <time>2022-09-21T08:23:40Z</time>
      </trkpt>
      <trkpt lat="46.53791" lon="4.47025">
        <ele>389.696</ele>
        <time>2022-09-21T08:23:45Z</time>
      </trkpt>
      <trkpt lat="46.53798" lon="4.47028">
        <ele>390.796</ele>
        <time>2022-09-21T08:23:51Z</time>
      </trkpt>
      <trkpt lat="46.53806" lon="4.47029">
        <ele>391.396</ele>
        <time>2022-09-21T08:23:56Z</time>
      </trkpt>
      <trkpt lat="46.53813" lon="4.4703">
        <ele>389.996</ele>
        <time>2022-09-21T08:24:03Z</time>
      </trkpt>
      <trkpt lat="46.53819" lon="4.47031">
        <ele>388.796</ele>
        <time>2022-09-21T08:24:08Z</time>
      </trkpt>
      <trkpt lat="46.53826" lon="4.47032">
        <ele>387.596</ele>
        <time>2022-09-21T08:24:14Z</time>
      </trkpt>
      <trkpt lat="46.53834" lon="4.47035">
        <ele>387.896</ele>
        <time>2022-09-21T08:24:20Z</time>
      </trkpt>
      <trkpt lat="46.53841" lon="4.47035">
        <ele>388.496</ele>
        <time>2022-09-21T08:24:25Z</time>
      </trkpt>
      <trkpt lat="46.53848" lon="4.47035">
        <ele>388.896</ele>
        <time>2022-09-21T08:24:30Z</time>
      </trkpt>
      <trkpt lat="46.53855" lon="4.47036">
        <ele>387.996</ele>
        <time>2022-09-21T08:24:36Z</time>
      </trkpt>
      <trkpt lat="46.53862" lon="4.47035">
        <ele>387.096</ele>
        <time>2022-09-21T08:24:41Z</time>
      </trkpt>
      <trkpt lat="46.53868" lon="4.47035">
        <ele>387.196</ele>
        <time>2022-09-21T08:24:46Z</time>
      </trkpt>
      <trkpt lat="46.53876" lon="4.47034">
        <ele>387.096</ele>
        <time>2022-09-21T08:24:52Z</time>
      </trkpt>
      <trkpt lat="46.53883" lon="4.47032">
        <ele>387.996</ele>
        <time>2022-09-21T08:24:57Z</time>
      </trkpt>
      <trkpt lat="46.53891" lon="4.4703">
        <ele>388.196</ele>
        <time>2022-09-21T08:25:02Z</time>
      </trkpt>
      <trkpt lat="46.53898" lon="4.47031">
        <ele>388.896</ele>
        <time>2022-09-21T08:25:08Z</time>
      </trkpt>
      <trkpt lat="46.53906" lon="4.47029">
        <ele>386.996</ele>
        <time>2022-09-21T08:25:14Z</time>
      </trkpt>
      <trkpt lat="46.53914" lon="4.47026">
        <ele>385.096</ele>
        <time>2022-09-21T08:25:20Z</time>
      </trkpt>
      <trkpt lat="46.53921" lon="4.47029">
        <ele>385.596</ele>
        <time>2022-09-21T08:25:25Z</time>
      </trkpt>
      <trkpt lat="46.53928" lon="4.47032">
        <ele>386.196</ele>
        <time>2022-09-21T08:25:30Z</time>
      </trkpt>
      <trkpt lat="46.53937" lon="4.47034">
        <ele>385.596</ele>
        <time>2022-09-21T08:25:36Z</time>
      </trkpt>
      <trkpt lat="46.53944" lon="4.47038">
        <ele>386.796</ele>
        <time>2022-09-21T08:25:41Z</time>
      </trkpt>
      <trkpt lat="46.53951" lon="4.47043">
        <ele>387.296</ele>
        <time>2022-09-21T08:25:47Z</time>
      </trkpt>
      <trkpt lat="46.53958" lon="4.47045">
        <ele>387.096</ele>
        <time>2022-09-21T08:25:52Z</time>
      </trkpt>
      <trkpt lat="46.53964" lon="4.4705">
        <ele>386.796</ele>
        <time>2022-09-21T08:25:57Z</time>
      </trkpt>
      <trkpt lat="46.53971" lon="4.47055">
        <ele>387.596</ele>
        <time>2022-09-21T08:26:03Z</time>
      </trkpt>
      <trkpt lat="46.53978" lon="4.47057">
        <ele>388.196</ele>
        <time>2022-09-21T08:26:08Z</time>
      </trkpt>
      <trkpt lat="46.53985" lon="4.47062">
        <ele>387.796</ele>
        <time>2022-09-21T08:26:15Z</time>
      </trkpt>
      <trkpt lat="46.53991" lon="4.47066">
        <ele>388.996</ele>
        <time>2022-09-21T08:26:20Z</time>
      </trkpt>
      <trkpt lat="46.53998" lon="4.47067">
        <ele>390.196</ele>
        <time>2022-09-21T08:26:28Z</time>
      </trkpt>
      <trkpt lat="46.54004" lon="4.47072">
        <ele>390.496</ele>
        <time>2022-09-21T08:26:34Z</time>
      </trkpt>
      <trkpt lat="46.54011" lon="4.47075">
        <ele>390.196</ele>
        <time>2022-09-21T08:26:40Z</time>
      </trkpt>
      <trkpt lat="46.54018" lon="4.47078">
        <ele>388.796</ele>
        <time>2022-09-21T08:26:45Z</time>
      </trkpt>
      <trkpt lat="46.54024" lon="4.47082">
        <ele>389.796</ele>
        <time>2022-09-21T08:26:51Z</time>
      </trkpt>
      <trkpt lat="46.54031" lon="4.47085">
        <ele>389.596</ele>
        <time>2022-09-21T08:26:56Z</time>
      </trkpt>
      <trkpt lat="46.54038" lon="4.47088">
        <ele>389.596</ele>
        <time>2022-09-21T08:27:02Z</time>
      </trkpt>
      <trkpt lat="46.54047" lon="4.4709">
        <ele>387.797</ele>
        <time>2022-09-21T08:27:08Z</time>
      </trkpt>
      <trkpt lat="46.54053" lon="4.47095">
        <ele>387.797</ele>
        <time>2022-09-21T08:27:14Z</time>
      </trkpt>
      <trkpt lat="46.5406" lon="4.47102">
        <ele>388.097</ele>
        <time>2022-09-21T08:27:20Z</time>
      </trkpt>
      <trkpt lat="46.54065" lon="4.47108">
        <ele>389.097</ele>
        <time>2022-09-21T08:27:25Z</time>
      </trkpt>
      <trkpt lat="46.54072" lon="4.47113">
        <ele>388.897</ele>
        <time>2022-09-21T08:27:31Z</time>
      </trkpt>
      <trkpt lat="46.54078" lon="4.47118">
        <ele>388.997</ele>
        <time>2022-09-21T08:27:36Z</time>
      </trkpt>
      <trkpt lat="46.54084" lon="4.47123">
        <ele>389.797</ele>
        <time>2022-09-21T08:27:42Z</time>
      </trkpt>
      <trkpt lat="46.54092" lon="4.47129">
        <ele>389.097</ele>
        <time>2022-09-21T08:27:48Z</time>
      </trkpt>
      <trkpt lat="46.54099" lon="4.47133">
        <ele>389.797</ele>
        <time>2022-09-21T08:27:55Z</time>
      </trkpt>
      <trkpt lat="46.54106" lon="4.47134">
        <ele>389.897</ele>
        <time>2022-09-21T08:28:00Z</time>
      </trkpt>
      <trkpt lat="46.54113" lon="4.47139">
        <ele>390.297</ele>
        <time>2022-09-21T08:28:06Z</time>
      </trkpt>
      <trkpt lat="46.54119" lon="4.47142">
        <ele>391.097</ele>
        <time>2022-09-21T08:28:13Z</time>
      </trkpt>
      <trkpt lat="46.54115" lon="4.47134">
        <ele>391.197</ele>
        <time>2022-09-21T08:28:23Z</time>
      </trkpt>
      <trkpt lat="46.54111" lon="4.47122">
        <ele>390.197</ele>
        <time>2022-09-21T08:28:28Z</time>
      </trkpt>
      <trkpt lat="46.54114" lon="4.47131">
        <ele>391.897</ele>
        <time>2022-09-21T08:29:12Z</time>
      </trkpt>
      <trkpt lat="46.54117" lon="4.47139">
        <ele>391.997</ele>
        <time>2022-09-21T08:29:17Z</time>
      </trkpt>
      <trkpt lat="46.54124" lon="4.47142">
        <ele>391.397</ele>
        <time>2022-09-21T08:29:26Z</time>
      </trkpt>
      <trkpt lat="46.5413" lon="4.47148">
        <ele>392.597</ele>
        <time>2022-09-21T08:29:36Z</time>
      </trkpt>
      <trkpt lat="46.54136" lon="4.47149">
        <ele>392.297</ele>
        <time>2022-09-21T08:29:41Z</time>
      </trkpt>
      <trkpt lat="46.54144" lon="4.47151">
        <ele>392.997</ele>
        <time>2022-09-21T08:29:46Z</time>
      </trkpt>
      <trkpt lat="46.54152" lon="4.47154">
        <ele>392.897</ele>
        <time>2022-09-21T08:29:52Z</time>
      </trkpt>
      <trkpt lat="46.54159" lon="4.47155">
        <ele>392.797</ele>
        <time>2022-09-21T08:29:58Z</time>
      </trkpt>
      <trkpt lat="46.54168" lon="4.47157">
        <ele>392.297</ele>
        <time>2022-09-21T08:30:04Z</time>
      </trkpt>
      <trkpt lat="46.54175" lon="4.47159">
        <ele>393.797</ele>
        <time>2022-09-21T08:30:10Z</time>
      </trkpt>
      <trkpt lat="46.54183" lon="4.47161">
        <ele>393.897</ele>
        <time>2022-09-21T08:30:16Z</time>
      </trkpt>
      <trkpt lat="46.54191" lon="4.47162">
        <ele>394.397</ele>
        <time>2022-09-21T08:30:22Z</time>
      </trkpt>
      <trkpt lat="46.54199" lon="4.47163">
        <ele>396.497</ele>
        <time>2022-09-21T08:30:28Z</time>
      </trkpt>
      <trkpt lat="46.54205" lon="4.47168">
        <ele>397.897</ele>
        <time>2022-09-21T08:30:34Z</time>
      </trkpt>
      <trkpt lat="46.54212" lon="4.47169">
        <ele>398.097</ele>
        <time>2022-09-21T08:30:40Z</time>
      </trkpt>
      <trkpt lat="46.5422" lon="4.47172">
        <ele>397.497</ele>
        <time>2022-09-21T08:30:46Z</time>
      </trkpt>
      <trkpt lat="46.54226" lon="4.47174">
        <ele>397.597</ele>
        <time>2022-09-21T08:30:52Z</time>
      </trkpt>
      <trkpt lat="46.54233" lon="4.47177">
        <ele>397.197</ele>
        <time>2022-09-21T08:30:57Z</time>
      </trkpt>
      <trkpt lat="46.5424" lon="4.47178">
        <ele>395.197</ele>
        <time>2022-09-21T08:31:03Z</time>
      </trkpt>
      <trkpt lat="46.54247" lon="4.47182">
        <ele>394.597</ele>
        <time>2022-09-21T08:31:09Z</time>
      </trkpt>
      <trkpt lat="46.54255" lon="4.4718">
        <ele>396.297</ele>
        <time>2022-09-21T08:31:16Z</time>
      </trkpt>
      <trkpt lat="46.54261" lon="4.47177">
        <ele>396.697</ele>
        <time>2022-09-21T08:31:22Z</time>
      </trkpt>
      <trkpt lat="46.54268" lon="4.47174">
        <ele>397.697</ele>
        <time>2022-09-21T08:31:28Z</time>
      </trkpt>
      <trkpt lat="46.54275" lon="4.47171">
        <ele>398.197</ele>
        <time>2022-09-21T08:31:33Z</time>
      </trkpt>
      <trkpt lat="46.54281" lon="4.47172">
        <ele>398.297</ele>
        <time>2022-09-21T08:31:39Z</time>
      </trkpt>
      <trkpt lat="46.54288" lon="4.47172">
        <ele>399.497</ele>
        <time>2022-09-21T08:31:44Z</time>
      </trkpt>
      <trkpt lat="46.54296" lon="4.47171">
        <ele>400.297</ele>
        <time>2022-09-21T08:31:49Z</time>
      </trkpt>
      <trkpt lat="46.54303" lon="4.4717">
        <ele>401.997</ele>
        <time>2022-09-21T08:31:54Z</time>
      </trkpt>
      <trkpt lat="46.5431" lon="4.47168">
        <ele>401.997</ele>
        <time>2022-09-21T08:32:01Z</time>
      </trkpt>
      <trkpt lat="46.54317" lon="4.47168">
        <ele>402.397</ele>
        <time>2022-09-21T08:32:07Z</time>
      </trkpt>
      <trkpt lat="46.54324" lon="4.47172">
        <ele>402.097</ele>
        <time>2022-09-21T08:32:12Z</time>
      </trkpt>
      <trkpt lat="46.54331" lon="4.47173">
        <ele>401.597</ele>
        <time>2022-09-21T08:32:17Z</time>
      </trkpt>
      <trkpt lat="46.54339" lon="4.47174">
        <ele>401.597</ele>
        <time>2022-09-21T08:32:22Z</time>
      </trkpt>
      <trkpt lat="46.54347" lon="4.47172">
        <ele>403.697</ele>
        <time>2022-09-21T08:32:29Z</time>
      </trkpt>
      <trkpt lat="46.54354" lon="4.4717">
        <ele>404.697</ele>
        <time>2022-09-21T08:32:35Z</time>
      </trkpt>
      <trkpt lat="46.54361" lon="4.47167">
        <ele>405.797</ele>
        <time>2022-09-21T08:32:40Z</time>
      </trkpt>
      <trkpt lat="46.54368" lon="4.47164">
        <ele>407.997</ele>
        <time>2022-09-21T08:32:45Z</time>
      </trkpt>
      <trkpt lat="46.54374" lon="4.4716">
        <ele>408.997</ele>
        <time>2022-09-21T08:32:50Z</time>
      </trkpt>
      <trkpt lat="46.54381" lon="4.47154">
        <ele>408.497</ele>
        <time>2022-09-21T08:32:56Z</time>
      </trkpt>
      <trkpt lat="46.54387" lon="4.47149">
        <ele>408.497</ele>
        <time>2022-09-21T08:33:02Z</time>
      </trkpt>
      <trkpt lat="46.54395" lon="4.47143">
        <ele>408.498</ele>
        <time>2022-09-21T08:33:08Z</time>
      </trkpt>
      <trkpt lat="46.54402" lon="4.47138">
        <ele>409.598</ele>
        <time>2022-09-21T08:33:13Z</time>
      </trkpt>
      <trkpt lat="46.54407" lon="4.47132">
        <ele>409.598</ele>
        <time>2022-09-21T08:33:19Z</time>
      </trkpt>
      <trkpt lat="46.54413" lon="4.47127">
        <ele>410.398</ele>
        <time>2022-09-21T08:33:24Z</time>
      </trkpt>
      <trkpt lat="46.54419" lon="4.47121">
        <ele>411.698</ele>
        <time>2022-09-21T08:33:29Z</time>
      </trkpt>
      <trkpt lat="46.54424" lon="4.47114">
        <ele>412.698</ele>
        <time>2022-09-21T08:33:34Z</time>
      </trkpt>
      <trkpt lat="46.5443" lon="4.47108">
        <ele>412.898</ele>
        <time>2022-09-21T08:33:40Z</time>
      </trkpt>
      <trkpt lat="46.54436" lon="4.47103">
        <ele>413.298</ele>
        <time>2022-09-21T08:33:45Z</time>
      </trkpt>
      <trkpt lat="46.54442" lon="4.47095">
        <ele>414.298</ele>
        <time>2022-09-21T08:33:50Z</time>
      </trkpt>
      <trkpt lat="46.54449" lon="4.4709">
        <ele>414.998</ele>
        <time>2022-09-21T08:33:56Z</time>
      </trkpt>
      <trkpt lat="46.54456" lon="4.47089">
        <ele>415.898</ele>
        <time>2022-09-21T08:34:01Z</time>
      </trkpt>
      <trkpt lat="46.54463" lon="4.47087">
        <ele>416.098</ele>
        <time>2022-09-21T08:34:06Z</time>
      </trkpt>
      <trkpt lat="46.5447" lon="4.47085">
        <ele>416.298</ele>
        <time>2022-09-21T08:34:12Z</time>
      </trkpt>
      <trkpt lat="46.54477" lon="4.47085">
        <ele>417.398</ele>
        <time>2022-09-21T08:34:17Z</time>
      </trkpt>
      <trkpt lat="46.54483" lon="4.47086">
        <ele>417.298</ele>
        <time>2022-09-21T08:34:22Z</time>
      </trkpt>
      <trkpt lat="46.54492" lon="4.47085">
        <ele>418.898</ele>
        <time>2022-09-21T08:34:28Z</time>
      </trkpt>
      <trkpt lat="46.54499" lon="4.4708">
        <ele>419.998</ele>
        <time>2022-09-21T08:34:34Z</time>
      </trkpt>
      <trkpt lat="46.54507" lon="4.4708">
        <ele>420.098</ele>
        <time>2022-09-21T08:34:40Z</time>
      </trkpt>
      <trkpt lat="46.54515" lon="4.47078">
        <ele>419.898</ele>
        <time>2022-09-21T08:34:46Z</time>
      </trkpt>
      <trkpt lat="46.54522" lon="4.47075">
        <ele>422.798</ele>
        <time>2022-09-21T08:34:52Z</time>
      </trkpt>
      <trkpt lat="46.54529" lon="4.47075">
        <ele>424.398</ele>
        <time>2022-09-21T08:34:58Z</time>
      </trkpt>
      <trkpt lat="46.54537" lon="4.4707">
        <ele>424.598</ele>
        <time>2022-09-21T08:35:04Z</time>
      </trkpt>
      <trkpt lat="46.54544" lon="4.4707">
        <ele>426.898</ele>
        <time>2022-09-21T08:35:11Z</time>
      </trkpt>
      <trkpt lat="46.54551" lon="4.47069">
        <ele>427.598</ele>
        <time>2022-09-21T08:35:16Z</time>
      </trkpt>
      <trkpt lat="46.54558" lon="4.47067">
        <ele>428.898</ele>
        <time>2022-09-21T08:35:22Z</time>
      </trkpt>
      <trkpt lat="46.54566" lon="4.47065">
        <ele>429.298</ele>
        <time>2022-09-21T08:35:28Z</time>
      </trkpt>
      <trkpt lat="46.54572" lon="4.47066">
        <ele>430.498</ele>
        <time>2022-09-21T08:35:33Z</time>
      </trkpt>
      <trkpt lat="46.54579" lon="4.47066">
        <ele>429.998</ele>
        <time>2022-09-21T08:35:39Z</time>
      </trkpt>
      <trkpt lat="46.54586" lon="4.47065">
        <ele>429.198</ele>
        <time>2022-09-21T08:35:45Z</time>
      </trkpt>
      <trkpt lat="46.54593" lon="4.47065">
        <ele>429.998</ele>
        <time>2022-09-21T08:35:50Z</time>
      </trkpt>
      <trkpt lat="46.546" lon="4.47064">
        <ele>430.098</ele>
        <time>2022-09-21T08:35:56Z</time>
      </trkpt>
      <trkpt lat="46.54608" lon="4.47064">
        <ele>431.098</ele>
        <time>2022-09-21T08:36:01Z</time>
      </trkpt>
      <trkpt lat="46.54615" lon="4.47061">
        <ele>432.498</ele>
        <time>2022-09-21T08:36:07Z</time>
      </trkpt>
      <trkpt lat="46.54622" lon="4.4706">
        <ele>434.298</ele>
        <time>2022-09-21T08:36:13Z</time>
      </trkpt>
      <trkpt lat="46.54629" lon="4.47055">
        <ele>435.898</ele>
        <time>2022-09-21T08:36:18Z</time>
      </trkpt>
      <trkpt lat="46.54636" lon="4.47051">
        <ele>436.398</ele>
        <time>2022-09-21T08:36:24Z</time>
      </trkpt>
      <trkpt lat="46.54642" lon="4.47048">
        <ele>438.098</ele>
        <time>2022-09-21T08:36:29Z</time>
      </trkpt>
      <trkpt lat="46.54649" lon="4.47043">
        <ele>438.498</ele>
        <time>2022-09-21T08:36:35Z</time>
      </trkpt>
      <trkpt lat="46.54655" lon="4.47037">
        <ele>438.598</ele>
        <time>2022-09-21T08:36:41Z</time>
      </trkpt>
      <trkpt lat="46.54661" lon="4.47033">
        <ele>437.998</ele>
        <time>2022-09-21T08:36:47Z</time>
      </trkpt>
      <trkpt lat="46.54668" lon="4.4703">
        <ele>437.498</ele>
        <time>2022-09-21T08:36:52Z</time>
      </trkpt>
      <trkpt lat="46.54674" lon="4.47026">
        <ele>438.098</ele>
        <time>2022-09-21T08:36:57Z</time>
      </trkpt>
      <trkpt lat="46.54681" lon="4.47026">
        <ele>438.798</ele>
        <time>2022-09-21T08:37:03Z</time>
      </trkpt>
      <trkpt lat="46.54689" lon="4.47026">
        <ele>439.498</ele>
        <time>2022-09-21T08:37:08Z</time>
      </trkpt>
      <trkpt lat="46.54696" lon="4.47024">
        <ele>439.498</ele>
        <time>2022-09-21T08:37:14Z</time>
      </trkpt>
      <trkpt lat="46.54703" lon="4.47022">
        <ele>439.698</ele>
        <time>2022-09-21T08:37:20Z</time>
      </trkpt>
      <trkpt lat="46.54709" lon="4.47019">
        <ele>439.498</ele>
        <time>2022-09-21T08:37:26Z</time>
      </trkpt>
      <trkpt lat="46.54718" lon="4.47015">
        <ele>441.998</ele>
        <time>2022-09-21T08:37:32Z</time>
      </trkpt>
      <trkpt lat="46.54725" lon="4.47011">
        <ele>443.498</ele>
        <time>2022-09-21T08:37:37Z</time>
      </trkpt>
      <trkpt lat="46.54731" lon="4.47008">
        <ele>445.298</ele>
        <time>2022-09-21T08:37:42Z</time>
      </trkpt>
      <trkpt lat="46.54738" lon="4.47004">
        <ele>445.898</ele>
        <time>2022-09-21T08:37:48Z</time>
      </trkpt>
      <trkpt lat="46.54747" lon="4.47">
        <ele>445.498</ele>
        <time>2022-09-21T08:37:53Z</time>
      </trkpt>
      <trkpt lat="46.54752" lon="4.46994">
        <ele>444.198</ele>
        <time>2022-09-21T08:37:59Z</time>
      </trkpt>
      <trkpt lat="46.54759" lon="4.46992">
        <ele>444.298</ele>
        <time>2022-09-21T08:38:04Z</time>
      </trkpt>
      <trkpt lat="46.54766" lon="4.46991">
        <ele>445.398</ele>
        <time>2022-09-21T08:38:09Z</time>
      </trkpt>
      <trkpt lat="46.54772" lon="4.46985">
        <ele>446.198</ele>
        <time>2022-09-21T08:38:14Z</time>
      </trkpt>
      <trkpt lat="46.54781" lon="4.46978">
        <ele>447.898</ele>
        <time>2022-09-21T08:38:20Z</time>
      </trkpt>
      <trkpt lat="46.54788" lon="4.46974">
        <ele>451.698</ele>
        <time>2022-09-21T08:38:26Z</time>
      </trkpt>
      <trkpt lat="46.54796" lon="4.46971">
        <ele>451.098</ele>
        <time>2022-09-21T08:38:32Z</time>
      </trkpt>
      <trkpt lat="46.54802" lon="4.46966">
        <ele>451.199</ele>
        <time>2022-09-21T08:38:37Z</time>
      </trkpt>
      <trkpt lat="46.54809" lon="4.46963">
        <ele>451.999</ele>
        <time>2022-09-21T08:38:44Z</time>
      </trkpt>
      <trkpt lat="46.54816" lon="4.46961">
        <ele>452.199</ele>
        <time>2022-09-21T08:38:49Z</time>
      </trkpt>
      <trkpt lat="46.54823" lon="4.46958">
        <ele>452.499</ele>
        <time>2022-09-21T08:38:54Z</time>
      </trkpt>
      <trkpt lat="46.5483" lon="4.46959">
        <ele>452.999</ele>
        <time>2022-09-21T08:39:01Z</time>
      </trkpt>
      <trkpt lat="46.54836" lon="4.46963">
        <ele>453.699</ele>
        <time>2022-09-21T08:39:11Z</time>
      </trkpt>
      <trkpt lat="46.5484" lon="4.46971">
        <ele>453.199</ele>
        <time>2022-09-21T08:39:18Z</time>
      </trkpt>
      <trkpt lat="46.54847" lon="4.46971">
        <ele>454.599</ele>
        <time>2022-09-21T08:43:36Z</time>
      </trkpt>
      <trkpt lat="46.54854" lon="4.46969">
        <ele>453.599</ele>
        <time>2022-09-21T08:43:43Z</time>
      </trkpt>
      <trkpt lat="46.54861" lon="4.4697">
        <ele>453.499</ele>
        <time>2022-09-21T08:43:50Z</time>
      </trkpt>
      <trkpt lat="46.54868" lon="4.46969">
        <ele>451.799</ele>
        <time>2022-09-21T08:43:57Z</time>
      </trkpt>
      <trkpt lat="46.54875" lon="4.46968">
        <ele>450.499</ele>
        <time>2022-09-21T08:44:03Z</time>
      </trkpt>
      <trkpt lat="46.54882" lon="4.46966">
        <ele>448.299</ele>
        <time>2022-09-21T08:44:10Z</time>
      </trkpt>
      <trkpt lat="46.54888" lon="4.46963">
        <ele>447.999</ele>
        <time>2022-09-21T08:44:16Z</time>
      </trkpt>
      <trkpt lat="46.54896" lon="4.46961">
        <ele>447.199</ele>
        <time>2022-09-21T08:44:22Z</time>
      </trkpt>
      <trkpt lat="46.54904" lon="4.46958">
        <ele>447.999</ele>
        <time>2022-09-21T08:44:28Z</time>
      </trkpt>
      <trkpt lat="46.54911" lon="4.46957">
        <ele>448.699</ele>
        <time>2022-09-21T08:44:33Z</time>
      </trkpt>
      <trkpt lat="46.54917" lon="4.46955">
        <ele>448.499</ele>
        <time>2022-09-21T08:44:38Z</time>
      </trkpt>
      <trkpt lat="46.54925" lon="4.46953">
        <ele>447.299</ele>
        <time>2022-09-21T08:44:44Z</time>
      </trkpt>
      <trkpt lat="46.54932" lon="4.46951">
        <ele>446.399</ele>
        <time>2022-09-21T08:44:50Z</time>
      </trkpt>
      <trkpt lat="46.5494" lon="4.46949">
        <ele>445.199</ele>
        <time>2022-09-21T08:44:57Z</time>
      </trkpt>
      <trkpt lat="46.54947" lon="4.46947">
        <ele>445.099</ele>
        <time>2022-09-21T08:45:02Z</time>
      </trkpt>
      <trkpt lat="46.54954" lon="4.46947">
        <ele>444.599</ele>
        <time>2022-09-21T08:45:08Z</time>
      </trkpt>
      <trkpt lat="46.54961" lon="4.46948">
        <ele>445.499</ele>
        <time>2022-09-21T08:45:16Z</time>
      </trkpt>
      <trkpt lat="46.54968" lon="4.46949">
        <ele>446.299</ele>
        <time>2022-09-21T08:45:21Z</time>
      </trkpt>
      <trkpt lat="46.54975" lon="4.46946">
        <ele>446.599</ele>
        <time>2022-09-21T08:45:27Z</time>
      </trkpt>
      <trkpt lat="46.54981" lon="4.46942">
        <ele>446.899</ele>
        <time>2022-09-21T08:45:33Z</time>
      </trkpt>
      <trkpt lat="46.54987" lon="4.46937">
        <ele>447.699</ele>
        <time>2022-09-21T08:45:39Z</time>
      </trkpt>
      <trkpt lat="46.54993" lon="4.46935">
        <ele>445.799</ele>
        <time>2022-09-21T08:45:46Z</time>
      </trkpt>
      <trkpt lat="46.55001" lon="4.46932">
        <ele>442.599</ele>
        <time>2022-09-21T08:45:52Z</time>
      </trkpt>
      <trkpt lat="46.55008" lon="4.46929">
        <ele>441.399</ele>
        <time>2022-09-21T08:45:57Z</time>
      </trkpt>
      <trkpt lat="46.55015" lon="4.46923">
        <ele>439.999</ele>
        <time>2022-09-21T08:46:03Z</time>
      </trkpt>
      <trkpt lat="46.55022" lon="4.46918">
        <ele>439.299</ele>
        <time>2022-09-21T08:46:08Z</time>
      </trkpt>
      <trkpt lat="46.55029" lon="4.46914">
        <ele>440.799</ele>
        <time>2022-09-21T08:46:13Z</time>
      </trkpt>
      <trkpt lat="46.55036" lon="4.46912">
        <ele>442.399</ele>
        <time>2022-09-21T08:46:18Z</time>
      </trkpt>
      <trkpt lat="46.55044" lon="4.46912">
        <ele>442.399</ele>
        <time>2022-09-21T08:46:24Z</time>
      </trkpt>
      <trkpt lat="46.55051" lon="4.46914">
        <ele>442.499</ele>
        <time>2022-09-21T08:46:29Z</time>
      </trkpt>
      <trkpt lat="46.55058" lon="4.46915">
        <ele>441.399</ele>
        <time>2022-09-21T08:46:35Z</time>
      </trkpt>
      <trkpt lat="46.55065" lon="4.46914">
        <ele>440.699</ele>
        <time>2022-09-21T08:46:40Z</time>
      </trkpt>
      <trkpt lat="46.55071" lon="4.46916">
        <ele>439.299</ele>
        <time>2022-09-21T08:46:45Z</time>
      </trkpt>
      <trkpt lat="46.55079" lon="4.46917">
        <ele>439.899</ele>
        <time>2022-09-21T08:46:50Z</time>
      </trkpt>
      <trkpt lat="46.55088" lon="4.46918">
        <ele>440.799</ele>
        <time>2022-09-21T08:46:56Z</time>
      </trkpt>
      <trkpt lat="46.55095" lon="4.4692">
        <ele>441.499</ele>
        <time>2022-09-21T08:47:03Z</time>
      </trkpt>
      <trkpt lat="46.55102" lon="4.46918">
        <ele>441.399</ele>
        <time>2022-09-21T08:47:08Z</time>
      </trkpt>
      <trkpt lat="46.5511" lon="4.46919">
        <ele>442.699</ele>
        <time>2022-09-21T08:47:15Z</time>
      </trkpt>
      <trkpt lat="46.55118" lon="4.46921">
        <ele>442.699</ele>
        <time>2022-09-21T08:47:20Z</time>
      </trkpt>
      <trkpt lat="46.55125" lon="4.46921">
        <ele>440.499</ele>
        <time>2022-09-21T08:47:25Z</time>
      </trkpt>
      <trkpt lat="46.55131" lon="4.4692">
        <ele>439.799</ele>
        <time>2022-09-21T08:47:30Z</time>
      </trkpt>
      <trkpt lat="46.5514" lon="4.4692">
        <ele>439.899</ele>
        <time>2022-09-21T08:47:36Z</time>
      </trkpt>
      <trkpt lat="46.55148" lon="4.46917">
        <ele>439.699</ele>
        <time>2022-09-21T08:47:41Z</time>
      </trkpt>
      <trkpt lat="46.55155" lon="4.46917">
        <ele>441.199</ele>
        <time>2022-09-21T08:47:48Z</time>
      </trkpt>
      <trkpt lat="46.55162" lon="4.46913">
        <ele>439.699</ele>
        <time>2022-09-21T08:47:53Z</time>
      </trkpt>
      <trkpt lat="46.5517" lon="4.46908">
        <ele>437.799</ele>
        <time>2022-09-21T08:47:59Z</time>
      </trkpt>
      <trkpt lat="46.55178" lon="4.4691">
        <ele>437.399</ele>
        <time>2022-09-21T08:48:04Z</time>
      </trkpt>
      <trkpt lat="46.55185" lon="4.4691">
        <ele>437.5</ele>
        <time>2022-09-21T08:48:09Z</time>
      </trkpt>
      <trkpt lat="46.55192" lon="4.4691">
        <ele>436.2</ele>
        <time>2022-09-21T08:48:14Z</time>
      </trkpt>
      <trkpt lat="46.55201" lon="4.4691">
        <ele>435.2</ele>
        <time>2022-09-21T08:48:20Z</time>
      </trkpt>
      <trkpt lat="46.55209" lon="4.46913">
        <ele>434.8</ele>
        <time>2022-09-21T08:48:25Z</time>
      </trkpt>
      <trkpt lat="46.55217" lon="4.46915">
        <ele>433.7</ele>
        <time>2022-09-21T08:48:31Z</time>
      </trkpt>
      <trkpt lat="46.55223" lon="4.46915">
        <ele>431.4</ele>
        <time>2022-09-21T08:48:36Z</time>
      </trkpt>
      <trkpt lat="46.55231" lon="4.46914">
        <ele>431</ele>
        <time>2022-09-21T08:48:42Z</time>
      </trkpt>
      <trkpt lat="46.55239" lon="4.46913">
        <ele>429.6</ele>
        <time>2022-09-21T08:48:48Z</time>
      </trkpt>
      <trkpt lat="46.55247" lon="4.4691">
        <ele>428.8</ele>
        <time>2022-09-21T08:48:53Z</time>
      </trkpt>
      <trkpt lat="46.55253" lon="4.46908">
        <ele>429.7</ele>
        <time>2022-09-21T08:48:58Z</time>
      </trkpt>
      <trkpt lat="46.55262" lon="4.46907">
        <ele>430.4</ele>
        <time>2022-09-21T08:49:04Z</time>
      </trkpt>
      <trkpt lat="46.5527" lon="4.46905">
        <ele>431.4</ele>
        <time>2022-09-21T08:49:09Z</time>
      </trkpt>
      <trkpt lat="46.55277" lon="4.46903">
        <ele>431.3</ele>
        <time>2022-09-21T08:49:14Z</time>
      </trkpt>
      <trkpt lat="46.55285" lon="4.46901">
        <ele>432.3</ele>
        <time>2022-09-21T08:49:20Z</time>
      </trkpt>
      <trkpt lat="46.55291" lon="4.46899">
        <ele>431.2</ele>
        <time>2022-09-21T08:49:25Z</time>
      </trkpt>
      <trkpt lat="46.55298" lon="4.46898">
        <ele>429.5</ele>
        <time>2022-09-21T08:49:30Z</time>
      </trkpt>
      <trkpt lat="46.55306" lon="4.46895">
        <ele>428.4</ele>
        <time>2022-09-21T08:49:36Z</time>
      </trkpt>
      <trkpt lat="46.55313" lon="4.46896">
        <ele>428</ele>
        <time>2022-09-21T08:49:42Z</time>
      </trkpt>
      <trkpt lat="46.55321" lon="4.46895">
        <ele>427.1</ele>
        <time>2022-09-21T08:49:48Z</time>
      </trkpt>
      <trkpt lat="46.55329" lon="4.46895">
        <ele>427.6</ele>
        <time>2022-09-21T08:49:53Z</time>
      </trkpt>
      <trkpt lat="46.55337" lon="4.46895">
        <ele>427.6</ele>
        <time>2022-09-21T08:49:59Z</time>
      </trkpt>
      <trkpt lat="46.55343" lon="4.46893">
        <ele>426</ele>
        <time>2022-09-21T08:50:04Z</time>
      </trkpt>
      <trkpt lat="46.5535" lon="4.46892">
        <ele>425</ele>
        <time>2022-09-21T08:50:09Z</time>
      </trkpt>
      <trkpt lat="46.55357" lon="4.46892">
        <ele>425.4</ele>
        <time>2022-09-21T08:50:15Z</time>
      </trkpt>
      <trkpt lat="46.55364" lon="4.4689">
        <ele>426.3</ele>
        <time>2022-09-21T08:50:21Z</time>
      </trkpt>
      <trkpt lat="46.5537" lon="4.46888">
        <ele>426.6</ele>
        <time>2022-09-21T08:50:33Z</time>
      </trkpt>
      <trkpt lat="46.55376" lon="4.46883">
        <ele>425.3</ele>
        <time>2022-09-21T08:50:39Z</time>
      </trkpt>
      <trkpt lat="46.55383" lon="4.46878">
        <ele>424.8</ele>
        <time>2022-09-21T08:50:45Z</time>
      </trkpt>
      <trkpt lat="46.5539" lon="4.46872">
        <ele>425.4</ele>
        <time>2022-09-21T08:50:51Z</time>
      </trkpt>
      <trkpt lat="46.55395" lon="4.46866">
        <ele>424.6</ele>
        <time>2022-09-21T08:50:56Z</time>
      </trkpt>
      <trkpt lat="46.55402" lon="4.46861">
        <ele>423.4</ele>
        <time>2022-09-21T08:51:03Z</time>
      </trkpt>
      <trkpt lat="46.55409" lon="4.46857">
        <ele>422.4</ele>
        <time>2022-09-21T08:51:08Z</time>
      </trkpt>
      <trkpt lat="46.55416" lon="4.46854">
        <ele>422.4</ele>
        <time>2022-09-21T08:51:13Z</time>
      </trkpt>
      <trkpt lat="46.55423" lon="4.46852">
        <ele>422.9</ele>
        <time>2022-09-21T08:51:18Z</time>
      </trkpt>
      <trkpt lat="46.55432" lon="4.46849">
        <ele>422.9</ele>
        <time>2022-09-21T08:51:24Z</time>
      </trkpt>
      <trkpt lat="46.55439" lon="4.46847">
        <ele>422.1</ele>
        <time>2022-09-21T08:51:31Z</time>
      </trkpt>
      <trkpt lat="46.55445" lon="4.46851">
        <ele>422.2</ele>
        <time>2022-09-21T08:52:52Z</time>
      </trkpt>
      <trkpt lat="46.55452" lon="4.46849">
        <ele>420.4</ele>
        <time>2022-09-21T08:52:58Z</time>
      </trkpt>
      <trkpt lat="46.55458" lon="4.46846">
        <ele>419.1</ele>
        <time>2022-09-21T08:53:04Z</time>
      </trkpt>
      <trkpt lat="46.55465" lon="4.46845">
        <ele>419.2</ele>
        <time>2022-09-21T08:53:08Z</time>
      </trkpt>
      <trkpt lat="46.55473" lon="4.46846">
        <ele>417.2</ele>
        <time>2022-09-21T08:53:15Z</time>
      </trkpt>
      <trkpt lat="46.55479" lon="4.46847">
        <ele>417.6</ele>
        <time>2022-09-21T08:53:20Z</time>
      </trkpt>
      <trkpt lat="46.55486" lon="4.46845">
        <ele>417.8</ele>
        <time>2022-09-21T08:53:25Z</time>
      </trkpt>
      <trkpt lat="46.55493" lon="4.46846">
        <ele>418.6</ele>
        <time>2022-09-21T08:53:30Z</time>
      </trkpt>
      <trkpt lat="46.55502" lon="4.46848">
        <ele>419.8</ele>
        <time>2022-09-21T08:53:36Z</time>
      </trkpt>
      <trkpt lat="46.55509" lon="4.46849">
        <ele>420.6</ele>
        <time>2022-09-21T08:53:41Z</time>
      </trkpt>
      <trkpt lat="46.55515" lon="4.46851">
        <ele>422.1</ele>
        <time>2022-09-21T08:53:46Z</time>
      </trkpt>
      <trkpt lat="46.55524" lon="4.46851">
        <ele>423.6</ele>
        <time>2022-09-21T08:53:52Z</time>
      </trkpt>
      <trkpt lat="46.5553" lon="4.46854">
        <ele>424.8</ele>
        <time>2022-09-21T08:53:57Z</time>
      </trkpt>
      <trkpt lat="46.55538" lon="4.46854">
        <ele>424.5</ele>
        <time>2022-09-21T08:54:02Z</time>
      </trkpt>
      <trkpt lat="46.55546" lon="4.46854">
        <ele>424.7</ele>
        <time>2022-09-21T08:54:08Z</time>
      </trkpt>
      <trkpt lat="46.55554" lon="4.46853">
        <ele>425.6</ele>
        <time>2022-09-21T08:54:15Z</time>
      </trkpt>
      <trkpt lat="46.5556" lon="4.4685">
        <ele>425.101</ele>
        <time>2022-09-21T08:54:20Z</time>
      </trkpt>
      <trkpt lat="46.55567" lon="4.46848">
        <ele>426.601</ele>
        <time>2022-09-21T08:54:26Z</time>
      </trkpt>
      <trkpt lat="46.55573" lon="4.46842">
        <ele>426.901</ele>
        <time>2022-09-21T08:54:32Z</time>
      </trkpt>
      <trkpt lat="46.55582" lon="4.46838">
        <ele>426.801</ele>
        <time>2022-09-21T08:54:37Z</time>
      </trkpt>
      <trkpt lat="46.5559" lon="4.46836">
        <ele>423.301</ele>
        <time>2022-09-21T08:54:43Z</time>
      </trkpt>
      <trkpt lat="46.55597" lon="4.46834">
        <ele>420.801</ele>
        <time>2022-09-21T08:54:48Z</time>
      </trkpt>
      <trkpt lat="46.55604" lon="4.46833">
        <ele>421.101</ele>
        <time>2022-09-21T08:54:55Z</time>
      </trkpt>
      <trkpt lat="46.5561" lon="4.46831">
        <ele>421.301</ele>
        <time>2022-09-21T08:55:00Z</time>
      </trkpt>
      <trkpt lat="46.55617" lon="4.46831">
        <ele>423.901</ele>
        <time>2022-09-21T08:55:06Z</time>
      </trkpt>
      <trkpt lat="46.55626" lon="4.46831">
        <ele>426.701</ele>
        <time>2022-09-21T08:55:12Z</time>
      </trkpt>
      <trkpt lat="46.55634" lon="4.46831">
        <ele>428.201</ele>
        <time>2022-09-21T08:55:19Z</time>
      </trkpt>
      <trkpt lat="46.55641" lon="4.46832">
        <ele>428.901</ele>
        <time>2022-09-21T08:55:24Z</time>
      </trkpt>
      <trkpt lat="46.55648" lon="4.46836">
        <ele>428.701</ele>
        <time>2022-09-21T08:55:30Z</time>
      </trkpt>
      <trkpt lat="46.55655" lon="4.46837">
        <ele>429.401</ele>
        <time>2022-09-21T08:55:36Z</time>
      </trkpt>
      <trkpt lat="46.55662" lon="4.46838">
        <ele>428.701</ele>
        <time>2022-09-21T08:55:41Z</time>
      </trkpt>
      <trkpt lat="46.55668" lon="4.4684">
        <ele>429.101</ele>
        <time>2022-09-21T08:55:47Z</time>
      </trkpt>
      <trkpt lat="46.55675" lon="4.46842">
        <ele>429.501</ele>
        <time>2022-09-21T08:55:53Z</time>
      </trkpt>
      <trkpt lat="46.55683" lon="4.46848">
        <ele>429.501</ele>
        <time>2022-09-21T08:55:59Z</time>
      </trkpt>
      <trkpt lat="46.55689" lon="4.46852">
        <ele>431.701</ele>
        <time>2022-09-21T08:56:04Z</time>
      </trkpt>
      <trkpt lat="46.55695" lon="4.46856">
        <ele>434.001</ele>
        <time>2022-09-21T08:56:10Z</time>
      </trkpt>
      <trkpt lat="46.55701" lon="4.46859">
        <ele>433.501</ele>
        <time>2022-09-21T08:56:17Z</time>
      </trkpt>
      <trkpt lat="46.55708" lon="4.46862">
        <ele>434.201</ele>
        <time>2022-09-21T08:56:24Z</time>
      </trkpt>
      <trkpt lat="46.55715" lon="4.46864">
        <ele>435.201</ele>
        <time>2022-09-21T08:56:31Z</time>
      </trkpt>
      <trkpt lat="46.55722" lon="4.46867">
        <ele>437.201</ele>
        <time>2022-09-21T08:56:51Z</time>
      </trkpt>
      <trkpt lat="46.55729" lon="4.4687">
        <ele>437.401</ele>
        <time>2022-09-21T08:56:56Z</time>
      </trkpt>
      <trkpt lat="46.55735" lon="4.46872">
        <ele>435.401</ele>
        <time>2022-09-21T08:57:02Z</time>
      </trkpt>
      <trkpt lat="46.55742" lon="4.46875">
        <ele>435.501</ele>
        <time>2022-09-21T08:57:09Z</time>
      </trkpt>
      <trkpt lat="46.5575" lon="4.46877">
        <ele>435.001</ele>
        <time>2022-09-21T08:57:15Z</time>
      </trkpt>
      <trkpt lat="46.55758" lon="4.46875">
        <ele>434.801</ele>
        <time>2022-09-21T08:57:20Z</time>
      </trkpt>
      <trkpt lat="46.55765" lon="4.46874">
        <ele>433.901</ele>
        <time>2022-09-21T08:57:26Z</time>
      </trkpt>
      <trkpt lat="46.55773" lon="4.46871">
        <ele>434.801</ele>
        <time>2022-09-21T08:57:31Z</time>
      </trkpt>
      <trkpt lat="46.5578" lon="4.46869">
        <ele>436.801</ele>
        <time>2022-09-21T08:57:37Z</time>
      </trkpt>
      <trkpt lat="46.55787" lon="4.46867">
        <ele>435.501</ele>
        <time>2022-09-21T08:57:43Z</time>
      </trkpt>
      <trkpt lat="46.55794" lon="4.46864">
        <ele>434.301</ele>
        <time>2022-09-21T08:57:49Z</time>
      </trkpt>
      <trkpt lat="46.558" lon="4.46862">
        <ele>434.001</ele>
        <time>2022-09-21T08:57:55Z</time>
      </trkpt>
      <trkpt lat="46.55807" lon="4.46859">
        <ele>434.801</ele>
        <time>2022-09-21T08:58:02Z</time>
      </trkpt>
      <trkpt lat="46.55814" lon="4.46857">
        <ele>435.901</ele>
        <time>2022-09-21T08:58:09Z</time>
      </trkpt>
      <trkpt lat="46.55821" lon="4.46857">
        <ele>436.501</ele>
        <time>2022-09-21T08:58:15Z</time>
      </trkpt>
      <trkpt lat="46.55828" lon="4.46854">
        <ele>438.601</ele>
        <time>2022-09-21T08:58:20Z</time>
      </trkpt>
      <trkpt lat="46.55834" lon="4.46852">
        <ele>438.301</ele>
        <time>2022-09-21T08:58:25Z</time>
      </trkpt>
      <trkpt lat="46.55843" lon="4.46851">
        <ele>439.301</ele>
        <time>2022-09-21T08:58:31Z</time>
      </trkpt>
      <trkpt lat="46.5585" lon="4.46849">
        <ele>438.301</ele>
        <time>2022-09-21T08:58:37Z</time>
      </trkpt>
      <trkpt lat="46.55856" lon="4.46848">
        <ele>438.201</ele>
        <time>2022-09-21T08:58:43Z</time>
      </trkpt>
      <trkpt lat="46.55863" lon="4.46848">
        <ele>438.001</ele>
        <time>2022-09-21T08:58:49Z</time>
      </trkpt>
      <trkpt lat="46.5587" lon="4.46847">
        <ele>438.701</ele>
        <time>2022-09-21T08:58:56Z</time>
      </trkpt>
      <trkpt lat="46.55877" lon="4.46844">
        <ele>438.201</ele>
        <time>2022-09-21T08:59:02Z</time>
      </trkpt>
      <trkpt lat="46.55884" lon="4.46844">
        <ele>438.601</ele>
        <time>2022-09-21T08:59:08Z</time>
      </trkpt>
      <trkpt lat="46.55892" lon="4.46842">
        <ele>439.101</ele>
        <time>2022-09-21T08:59:14Z</time>
      </trkpt>
      <trkpt lat="46.55899" lon="4.46839">
        <ele>438.801</ele>
        <time>2022-09-21T08:59:20Z</time>
      </trkpt>
      <trkpt lat="46.55907" lon="4.46839">
        <ele>440.001</ele>
        <time>2022-09-21T08:59:26Z</time>
      </trkpt>
      <trkpt lat="46.55914" lon="4.46839">
        <ele>440.401</ele>
        <time>2022-09-21T08:59:31Z</time>
      </trkpt>
      <trkpt lat="46.55921" lon="4.46837">
        <ele>441.602</ele>
        <time>2022-09-21T08:59:36Z</time>
      </trkpt>
      <trkpt lat="46.55929" lon="4.46835">
        <ele>442.702</ele>
        <time>2022-09-21T08:59:42Z</time>
      </trkpt>
      <trkpt lat="46.55936" lon="4.46834">
        <ele>444.402</ele>
        <time>2022-09-21T08:59:48Z</time>
      </trkpt>
      <trkpt lat="46.55943" lon="4.46834">
        <ele>442.502</ele>
        <time>2022-09-21T08:59:57Z</time>
      </trkpt>
      <trkpt lat="46.55949" lon="4.46829">
        <ele>441.302</ele>
        <time>2022-09-21T09:03:33Z</time>
      </trkpt>
      <trkpt lat="46.55955" lon="4.46823">
        <ele>439.802</ele>
        <time>2022-09-21T09:03:39Z</time>
      </trkpt>
      <trkpt lat="46.55962" lon="4.46816">
        <ele>440.202</ele>
        <time>2022-09-21T09:03:45Z</time>
      </trkpt>
      <trkpt lat="46.55967" lon="4.46811">
        <ele>439.802</ele>
        <time>2022-09-21T09:03:51Z</time>
      </trkpt>
      <trkpt lat="46.55973" lon="4.46805">
        <ele>442.102</ele>
        <time>2022-09-21T09:03:57Z</time>
      </trkpt>
      <trkpt lat="46.55979" lon="4.46798">
        <ele>442.402</ele>
        <time>2022-09-21T09:04:03Z</time>
      </trkpt>
      <trkpt lat="46.55985" lon="4.46793">
        <ele>441.902</ele>
        <time>2022-09-21T09:04:09Z</time>
      </trkpt>
      <trkpt lat="46.5599" lon="4.46788">
        <ele>442.302</ele>
        <time>2022-09-21T09:04:15Z</time>
      </trkpt>
      <trkpt lat="46.55996" lon="4.46782">
        <ele>442.002</ele>
        <time>2022-09-21T09:04:20Z</time>
      </trkpt>
      <trkpt lat="46.56001" lon="4.46775">
        <ele>441.102</ele>
        <time>2022-09-21T09:04:26Z</time>
      </trkpt>
      <trkpt lat="46.56007" lon="4.46768">
        <ele>441.002</ele>
        <time>2022-09-21T09:04:31Z</time>
      </trkpt>
      <trkpt lat="46.56013" lon="4.46762">
        <ele>440.902</ele>
        <time>2022-09-21T09:04:37Z</time>
      </trkpt>
      <trkpt lat="46.56019" lon="4.46756">
        <ele>441.702</ele>
        <time>2022-09-21T09:04:42Z</time>
      </trkpt>
      <trkpt lat="46.56024" lon="4.46749">
        <ele>440.702</ele>
        <time>2022-09-21T09:04:49Z</time>
      </trkpt>
      <trkpt lat="46.5603" lon="4.4674">
        <ele>442.102</ele>
        <time>2022-09-21T09:04:55Z</time>
      </trkpt>
      <trkpt lat="46.56036" lon="4.46734">
        <ele>443.202</ele>
        <time>2022-09-21T09:05:01Z</time>
      </trkpt>
      <trkpt lat="46.56042" lon="4.46727">
        <ele>444.602</ele>
        <time>2022-09-21T09:05:07Z</time>
      </trkpt>
      <trkpt lat="46.56048" lon="4.4672">
        <ele>445.102</ele>
        <time>2022-09-21T09:05:12Z</time>
      </trkpt>
      <trkpt lat="46.56053" lon="4.46712">
        <ele>445.802</ele>
        <time>2022-09-21T09:05:18Z</time>
      </trkpt>
      <trkpt lat="46.56058" lon="4.46704">
        <ele>445.902</ele>
        <time>2022-09-21T09:05:24Z</time>
      </trkpt>
      <trkpt lat="46.56062" lon="4.46696">
        <ele>444.402</ele>
        <time>2022-09-21T09:05:30Z</time>
      </trkpt>
      <trkpt lat="46.56066" lon="4.46687">
        <ele>442.802</ele>
        <time>2022-09-21T09:05:36Z</time>
      </trkpt>
      <trkpt lat="46.56071" lon="4.46679">
        <ele>443.102</ele>
        <time>2022-09-21T09:05:42Z</time>
      </trkpt>
      <trkpt lat="46.56076" lon="4.46671">
        <ele>443.402</ele>
        <time>2022-09-21T09:05:47Z</time>
      </trkpt>
      <trkpt lat="46.5608" lon="4.46662">
        <ele>443.502</ele>
        <time>2022-09-21T09:05:53Z</time>
      </trkpt>
      <trkpt lat="46.56085" lon="4.46654">
        <ele>443.302</ele>
        <time>2022-09-21T09:05:59Z</time>
      </trkpt>
      <trkpt lat="46.5609" lon="4.46646">
        <ele>444.702</ele>
        <time>2022-09-21T09:06:04Z</time>
      </trkpt>
      <trkpt lat="46.56094" lon="4.46638">
        <ele>445.102</ele>
        <time>2022-09-21T09:06:10Z</time>
      </trkpt>
      <trkpt lat="46.56098" lon="4.4663">
        <ele>444.302</ele>
        <time>2022-09-21T09:06:15Z</time>
      </trkpt>
      <trkpt lat="46.56103" lon="4.46622">
        <ele>444.202</ele>
        <time>2022-09-21T09:06:20Z</time>
      </trkpt>
      <trkpt lat="46.56109" lon="4.46615">
        <ele>444.702</ele>
        <time>2022-09-21T09:06:25Z</time>
      </trkpt>
      <trkpt lat="46.56115" lon="4.46606">
        <ele>444.102</ele>
        <time>2022-09-21T09:06:31Z</time>
      </trkpt>
      <trkpt lat="46.56119" lon="4.46598">
        <ele>443.402</ele>
        <time>2022-09-21T09:06:37Z</time>
      </trkpt>
      <trkpt lat="46.56124" lon="4.4659">
        <ele>442.202</ele>
        <time>2022-09-21T09:06:42Z</time>
      </trkpt>
      <trkpt lat="46.56128" lon="4.46582">
        <ele>441.202</ele>
        <time>2022-09-21T09:06:47Z</time>
      </trkpt>
      <trkpt lat="46.56132" lon="4.46575">
        <ele>440.902</ele>
        <time>2022-09-21T09:06:53Z</time>
      </trkpt>
      <trkpt lat="46.56137" lon="4.46564">
        <ele>440.202</ele>
        <time>2022-09-21T09:06:59Z</time>
      </trkpt>
      <trkpt lat="46.56142" lon="4.46555">
        <ele>440.002</ele>
        <time>2022-09-21T09:07:04Z</time>
      </trkpt>
      <trkpt lat="46.56146" lon="4.46547">
        <ele>441.702</ele>
        <time>2022-09-21T09:07:10Z</time>
      </trkpt>
      <trkpt lat="46.5615" lon="4.46537">
        <ele>441.202</ele>
        <time>2022-09-21T09:07:16Z</time>
      </trkpt>
      <trkpt lat="46.56151" lon="4.46527">
        <ele>441.202</ele>
        <time>2022-09-21T09:07:22Z</time>
      </trkpt>
      <trkpt lat="46.56155" lon="4.46518">
        <ele>442.302</ele>
        <time>2022-09-21T09:07:28Z</time>
      </trkpt>
      <trkpt lat="46.56159" lon="4.46507">
        <ele>442.102</ele>
        <time>2022-09-21T09:07:33Z</time>
      </trkpt>
      <trkpt lat="46.56162" lon="4.46497">
        <ele>442.102</ele>
        <time>2022-09-21T09:07:39Z</time>
      </trkpt>
      <trkpt lat="46.56162" lon="4.46486">
        <ele>440.102</ele>
        <time>2022-09-21T09:07:45Z</time>
      </trkpt>
      <trkpt lat="46.56163" lon="4.46474">
        <ele>439.502</ele>
        <time>2022-09-21T09:07:51Z</time>
      </trkpt>
      <trkpt lat="46.56166" lon="4.46465">
        <ele>439.802</ele>
        <time>2022-09-21T09:07:56Z</time>
      </trkpt>
      <trkpt lat="46.56169" lon="4.46454">
        <ele>439.802</ele>
        <time>2022-09-21T09:08:01Z</time>
      </trkpt>
      <trkpt lat="46.5617" lon="4.46444">
        <ele>440.902</ele>
        <time>2022-09-21T09:08:07Z</time>
      </trkpt>
      <trkpt lat="46.56172" lon="4.46433">
        <ele>439.802</ele>
        <time>2022-09-21T09:08:13Z</time>
      </trkpt>
      <trkpt lat="46.56175" lon="4.46423">
        <ele>439.602</ele>
        <time>2022-09-21T09:08:19Z</time>
      </trkpt>
      <trkpt lat="46.56176" lon="4.46413">
        <ele>439.302</ele>
        <time>2022-09-21T09:08:25Z</time>
      </trkpt>
      <trkpt lat="46.56179" lon="4.46401">
        <ele>437.302</ele>
        <time>2022-09-21T09:08:31Z</time>
      </trkpt>
      <trkpt lat="46.56181" lon="4.46391">
        <ele>435.402</ele>
        <time>2022-09-21T09:08:36Z</time>
      </trkpt>
      <trkpt lat="46.56182" lon="4.46381">
        <ele>434.802</ele>
        <time>2022-09-21T09:08:42Z</time>
      </trkpt>
      <trkpt lat="46.56184" lon="4.46371">
        <ele>434.602</ele>
        <time>2022-09-21T09:08:48Z</time>
      </trkpt>
      <trkpt lat="46.56186" lon="4.46362">
        <ele>434.902</ele>
        <time>2022-09-21T09:08:53Z</time>
      </trkpt>
      <trkpt lat="46.56189" lon="4.4635">
        <ele>435.802</ele>
        <time>2022-09-21T09:08:59Z</time>
      </trkpt>
      <trkpt lat="46.56191" lon="4.46341">
        <ele>434.902</ele>
        <time>2022-09-21T09:09:05Z</time>
      </trkpt>
      <trkpt lat="46.56193" lon="4.46328">
        <ele>433.502</ele>
        <time>2022-09-21T09:09:11Z</time>
      </trkpt>
      <trkpt lat="46.56194" lon="4.46318">
        <ele>433.602</ele>
        <time>2022-09-21T09:09:16Z</time>
      </trkpt>
      <trkpt lat="46.56196" lon="4.46307">
        <ele>433.802</ele>
        <time>2022-09-21T09:09:21Z</time>
      </trkpt>
      <trkpt lat="46.56196" lon="4.46295">
        <ele>434.902</ele>
        <time>2022-09-21T09:09:27Z</time>
      </trkpt>
      <trkpt lat="46.56194" lon="4.46286">
        <ele>433.602</ele>
        <time>2022-09-21T09:09:32Z</time>
      </trkpt>
      <trkpt lat="46.56193" lon="4.46276">
        <ele>433.302</ele>
        <time>2022-09-21T09:09:37Z</time>
      </trkpt>
      <trkpt lat="46.56192" lon="4.46266">
        <ele>433.802</ele>
        <time>2022-09-21T09:09:43Z</time>
      </trkpt>
      <trkpt lat="46.56189" lon="4.46255">
        <ele>433.502</ele>
        <time>2022-09-21T09:09:48Z</time>
      </trkpt>
      <trkpt lat="46.56186" lon="4.46245">
        <ele>432.102</ele>
        <time>2022-09-21T09:09:54Z</time>
      </trkpt>
      <trkpt lat="46.56187" lon="4.46235">
        <ele>432.502</ele>
        <time>2022-09-21T09:09:59Z</time>
      </trkpt>
      <trkpt lat="46.56187" lon="4.46224">
        <ele>434.102</ele>
        <time>2022-09-21T09:10:04Z</time>
      </trkpt>
      <trkpt lat="46.56189" lon="4.46213">
        <ele>434.202</ele>
        <time>2022-09-21T09:10:10Z</time>
      </trkpt>
      <trkpt lat="46.56191" lon="4.46204">
        <ele>434.202</ele>
        <time>2022-09-21T09:10:15Z</time>
      </trkpt>
      <trkpt lat="46.56194" lon="4.46195">
        <ele>434.002</ele>
        <time>2022-09-21T09:10:20Z</time>
      </trkpt>
      <trkpt lat="46.56197" lon="4.46185">
        <ele>433.302</ele>
        <time>2022-09-21T09:10:25Z</time>
      </trkpt>
      <trkpt lat="46.56201" lon="4.46175">
        <ele>431.702</ele>
        <time>2022-09-21T09:10:31Z</time>
      </trkpt>
      <trkpt lat="46.56204" lon="4.46167">
        <ele>430.802</ele>
        <time>2022-09-21T09:10:37Z</time>
      </trkpt>
      <trkpt lat="46.56208" lon="4.46159">
        <ele>431.902</ele>
        <time>2022-09-21T09:10:42Z</time>
      </trkpt>
      <trkpt lat="46.56212" lon="4.46151">
        <ele>431.702</ele>
        <time>2022-09-21T09:10:47Z</time>
      </trkpt>
      <trkpt lat="46.56215" lon="4.46142">
        <ele>432.702</ele>
        <time>2022-09-21T09:10:52Z</time>
      </trkpt>
      <trkpt lat="46.56219" lon="4.46134">
        <ele>434.202</ele>
        <time>2022-09-21T09:11:00Z</time>
      </trkpt>
      <trkpt lat="46.56223" lon="4.46124">
        <ele>433.502</ele>
        <time>2022-09-21T09:11:07Z</time>
      </trkpt>
      <trkpt lat="46.56226" lon="4.46116">
        <ele>433.402</ele>
        <time>2022-09-21T09:11:12Z</time>
      </trkpt>
      <trkpt lat="46.56228" lon="4.46105">
        <ele>431.402</ele>
        <time>2022-09-21T09:11:18Z</time>
      </trkpt>
      <trkpt lat="46.56229" lon="4.46095">
        <ele>430.702</ele>
        <time>2022-09-21T09:11:24Z</time>
      </trkpt>
      <trkpt lat="46.56232" lon="4.46087">
        <ele>429.102</ele>
        <time>2022-09-21T09:11:30Z</time>
      </trkpt>
      <trkpt lat="46.56234" lon="4.46077">
        <ele>430.602</ele>
        <time>2022-09-21T09:11:35Z</time>
      </trkpt>
      <trkpt lat="46.56235" lon="4.4606">
        <ele>434.802</ele>
        <time>2022-09-21T09:11:43Z</time>
      </trkpt>
      <trkpt lat="46.56235" lon="4.46049">
        <ele>434.202</ele>
        <time>2022-09-21T09:11:49Z</time>
      </trkpt>
      <trkpt lat="46.56235" lon="4.46039">
        <ele>435.602</ele>
        <time>2022-09-21T09:11:54Z</time>
      </trkpt>
      <trkpt lat="46.56235" lon="4.46029">
        <ele>435.102</ele>
        <time>2022-09-21T09:12:00Z</time>
      </trkpt>
      <trkpt lat="46.56229" lon="4.46031">
        <ele>434.502</ele>
        <time>2022-09-21T09:12:36Z</time>
      </trkpt>
      <trkpt lat="46.56228" lon="4.4602">
        <ele>435.102</ele>
        <time>2022-09-21T09:12:42Z</time>
      </trkpt>
      <trkpt lat="46.56227" lon="4.4601">
        <ele>434.002</ele>
        <time>2022-09-21T09:12:50Z</time>
      </trkpt>
      <trkpt lat="46.56227" lon="4.46">
        <ele>434.002</ele>
        <time>2022-09-21T09:12:55Z</time>
      </trkpt>
      <trkpt lat="46.56224" lon="4.45989">
        <ele>432.902</ele>
        <time>2022-09-21T09:13:01Z</time>
      </trkpt>
      <trkpt lat="46.5622" lon="4.45979">
        <ele>433.002</ele>
        <time>2022-09-21T09:13:06Z</time>
      </trkpt>
      <trkpt lat="46.56216" lon="4.4597">
        <ele>434.202</ele>
        <time>2022-09-21T09:13:12Z</time>
      </trkpt>
      <trkpt lat="46.56213" lon="4.45961">
        <ele>433.302</ele>
        <time>2022-09-21T09:13:17Z</time>
      </trkpt>
      <trkpt lat="46.5621" lon="4.45953">
        <ele>431.402</ele>
        <time>2022-09-21T09:13:24Z</time>
      </trkpt>
      <trkpt lat="46.56206" lon="4.45943">
        <ele>431.702</ele>
        <time>2022-09-21T09:14:00Z</time>
      </trkpt>
      <trkpt lat="46.56203" lon="4.45935">
        <ele>429.602</ele>
        <time>2022-09-21T09:14:05Z</time>
      </trkpt>
      <trkpt lat="46.56201" lon="4.45925">
        <ele>427.702</ele>
        <time>2022-09-21T09:14:13Z</time>
      </trkpt>
      <trkpt lat="46.562" lon="4.45914">
        <ele>427.502</ele>
        <time>2022-09-21T09:14:20Z</time>
      </trkpt>
      <trkpt lat="46.56197" lon="4.45904">
        <ele>426.302</ele>
        <time>2022-09-21T09:14:27Z</time>
      </trkpt>
      <trkpt lat="46.56195" lon="4.45894">
        <ele>426.802</ele>
        <time>2022-09-21T09:14:33Z</time>
      </trkpt>
      <trkpt lat="46.56194" lon="4.45884">
        <ele>425.602</ele>
        <time>2022-09-21T09:14:39Z</time>
      </trkpt>
      <trkpt lat="46.56194" lon="4.45874">
        <ele>423.702</ele>
        <time>2022-09-21T09:14:45Z</time>
      </trkpt>
      <trkpt lat="46.56193" lon="4.45864">
        <ele>422.902</ele>
        <time>2022-09-21T09:14:50Z</time>
      </trkpt>
      <trkpt lat="46.56192" lon="4.45854">
        <ele>420.802</ele>
        <time>2022-09-21T09:14:56Z</time>
      </trkpt>
      <trkpt lat="46.56191" lon="4.45843">
        <ele>418.702</ele>
        <time>2022-09-21T09:15:02Z</time>
      </trkpt>
      <trkpt lat="46.56192" lon="4.45831">
        <ele>419.002</ele>
        <time>2022-09-21T09:15:07Z</time>
      </trkpt>
      <trkpt lat="46.56194" lon="4.4582">
        <ele>420.402</ele>
        <time>2022-09-21T09:15:13Z</time>
      </trkpt>
      <trkpt lat="46.56195" lon="4.45808">
        <ele>424.702</ele>
        <time>2022-09-21T09:16:43Z</time>
      </trkpt>
      <trkpt lat="46.56196" lon="4.45798">
        <ele>424.802</ele>
        <time>2022-09-21T09:16:50Z</time>
      </trkpt>
      <trkpt lat="46.56198" lon="4.45789">
        <ele>424.602</ele>
        <time>2022-09-21T09:16:55Z</time>
      </trkpt>
      <trkpt lat="46.56197" lon="4.45778">
        <ele>423.902</ele>
        <time>2022-09-21T09:17:01Z</time>
      </trkpt>
      <trkpt lat="46.56199" lon="4.45769">
        <ele>421.902</ele>
        <time>2022-09-21T09:17:06Z</time>
      </trkpt>
      <trkpt lat="46.56202" lon="4.45758">
        <ele>420.202</ele>
        <time>2022-09-21T09:17:12Z</time>
      </trkpt>
      <trkpt lat="46.56203" lon="4.45748">
        <ele>419.301</ele>
        <time>2022-09-21T09:17:18Z</time>
      </trkpt>
      <trkpt lat="46.56203" lon="4.45737">
        <ele>415.801</ele>
        <time>2022-09-21T09:17:26Z</time>
      </trkpt>
      <trkpt lat="46.56203" lon="4.45726">
        <ele>415.601</ele>
        <time>2022-09-21T09:17:32Z</time>
      </trkpt>
      <trkpt lat="46.56205" lon="4.45714">
        <ele>413.401</ele>
        <time>2022-09-21T09:17:37Z</time>
      </trkpt>
      <trkpt lat="46.56208" lon="4.45705">
        <ele>413.401</ele>
        <time>2022-09-21T09:17:43Z</time>
      </trkpt>
      <trkpt lat="46.56211" lon="4.45696">
        <ele>417.901</ele>
        <time>2022-09-21T09:17:49Z</time>
      </trkpt>
      <trkpt lat="46.56213" lon="4.45686">
        <ele>419.801</ele>
        <time>2022-09-21T09:17:55Z</time>
      </trkpt>
      <trkpt lat="46.56213" lon="4.45673">
        <ele>418.001</ele>
        <time>2022-09-21T09:18:01Z</time>
      </trkpt>
      <trkpt lat="46.56214" lon="4.45664">
        <ele>416.401</ele>
        <time>2022-09-21T09:18:07Z</time>
      </trkpt>
      <trkpt lat="46.56216" lon="4.45655">
        <ele>416.801</ele>
        <time>2022-09-21T09:18:14Z</time>
      </trkpt>
      <trkpt lat="46.56215" lon="4.45643">
        <ele>415.801</ele>
        <time>2022-09-21T09:18:20Z</time>
      </trkpt>
      <trkpt lat="46.56213" lon="4.45632">
        <ele>414.901</ele>
        <time>2022-09-21T09:18:25Z</time>
      </trkpt>
      <trkpt lat="46.56212" lon="4.4562">
        <ele>414.901</ele>
        <time>2022-09-21T09:18:30Z</time>
      </trkpt>
      <trkpt lat="46.56213" lon="4.45611">
        <ele>415.901</ele>
        <time>2022-09-21T09:18:35Z</time>
      </trkpt>
      <trkpt lat="46.56213" lon="4.45598">
        <ele>414.301</ele>
        <time>2022-09-21T09:18:41Z</time>
      </trkpt>
      <trkpt lat="46.56214" lon="4.45587">
        <ele>411.701</ele>
        <time>2022-09-21T09:18:47Z</time>
      </trkpt>
      <trkpt lat="46.56213" lon="4.45576">
        <ele>408.901</ele>
        <time>2022-09-21T09:18:53Z</time>
      </trkpt>
      <trkpt lat="46.56212" lon="4.45566">
        <ele>408.601</ele>
        <time>2022-09-21T09:18:58Z</time>
      </trkpt>
      <trkpt lat="46.56215" lon="4.45555">
        <ele>410.401</ele>
        <time>2022-09-21T09:19:03Z</time>
      </trkpt>
      <trkpt lat="46.56218" lon="4.45545">
        <ele>411.901</ele>
        <time>2022-09-21T09:19:09Z</time>
      </trkpt>
      <trkpt lat="46.56221" lon="4.45536">
        <ele>412.501</ele>
        <time>2022-09-21T09:19:14Z</time>
      </trkpt>
      <trkpt lat="46.56222" lon="4.45526">
        <ele>411.001</ele>
        <time>2022-09-21T09:19:19Z</time>
      </trkpt>
      <trkpt lat="46.56223" lon="4.45515">
        <ele>410.701</ele>
        <time>2022-09-21T09:19:25Z</time>
      </trkpt>
      <trkpt lat="46.56225" lon="4.45505">
        <ele>410.101</ele>
        <time>2022-09-21T09:19:30Z</time>
      </trkpt>
      <trkpt lat="46.56226" lon="4.45496">
        <ele>408.201</ele>
        <time>2022-09-21T09:19:36Z</time>
      </trkpt>
      <trkpt lat="46.56229" lon="4.45486">
        <ele>407.201</ele>
        <time>2022-09-21T09:19:42Z</time>
      </trkpt>
      <trkpt lat="46.56234" lon="4.45478">
        <ele>406.601</ele>
        <time>2022-09-21T09:19:47Z</time>
      </trkpt>
      <trkpt lat="46.56237" lon="4.45468">
        <ele>407.601</ele>
        <time>2022-09-21T09:19:53Z</time>
      </trkpt>
      <trkpt lat="46.56242" lon="4.45461">
        <ele>408.801</ele>
        <time>2022-09-21T09:19:58Z</time>
      </trkpt>
      <trkpt lat="46.56248" lon="4.45453">
        <ele>408.801</ele>
        <time>2022-09-21T09:20:03Z</time>
      </trkpt>
      <trkpt lat="46.56254" lon="4.45448">
        <ele>409.001</ele>
        <time>2022-09-21T09:20:09Z</time>
      </trkpt>
      <trkpt lat="46.56259" lon="4.45441">
        <ele>408.401</ele>
        <time>2022-09-21T09:20:15Z</time>
      </trkpt>
      <trkpt lat="46.56264" lon="4.4543">
        <ele>408.901</ele>
        <time>2022-09-21T09:20:21Z</time>
      </trkpt>
      <trkpt lat="46.56269" lon="4.45423">
        <ele>408.401</ele>
        <time>2022-09-21T09:20:27Z</time>
      </trkpt>
      <trkpt lat="46.56274" lon="4.45412">
        <ele>407.301</ele>
        <time>2022-09-21T09:20:33Z</time>
      </trkpt>
      <trkpt lat="46.56277" lon="4.45402">
        <ele>407.001</ele>
        <time>2022-09-21T09:20:38Z</time>
      </trkpt>
      <trkpt lat="46.5628" lon="4.45394">
        <ele>407.601</ele>
        <time>2022-09-21T09:20:43Z</time>
      </trkpt>
      <trkpt lat="46.56283" lon="4.45383">
        <ele>406.601</ele>
        <time>2022-09-21T09:20:49Z</time>
      </trkpt>
      <trkpt lat="46.56284" lon="4.45373">
        <ele>407.101</ele>
        <time>2022-09-21T09:20:54Z</time>
      </trkpt>
      <trkpt lat="46.56286" lon="4.45364">
        <ele>407.301</ele>
        <time>2022-09-21T09:20:59Z</time>
      </trkpt>
      <trkpt lat="46.5629" lon="4.45351">
        <ele>407.901</ele>
        <time>2022-09-21T09:21:05Z</time>
      </trkpt>
      <trkpt lat="46.5629" lon="4.45341">
        <ele>409.101</ele>
        <time>2022-09-21T09:21:12Z</time>
      </trkpt>
      <trkpt lat="46.56292" lon="4.45331">
        <ele>408.101</ele>
        <time>2022-09-21T09:21:18Z</time>
      </trkpt>
      <trkpt lat="46.56296" lon="4.4532">
        <ele>408.101</ele>
        <time>2022-09-21T09:21:23Z</time>
      </trkpt>
      <trkpt lat="46.56298" lon="4.45308">
        <ele>408.401</ele>
        <time>2022-09-21T09:21:29Z</time>
      </trkpt>
      <trkpt lat="46.56301" lon="4.45298">
        <ele>407.801</ele>
        <time>2022-09-21T09:21:34Z</time>
      </trkpt>
      <trkpt lat="46.56302" lon="4.45287">
        <ele>408.201</ele>
        <time>2022-09-21T09:21:39Z</time>
      </trkpt>
      <trkpt lat="46.56301" lon="4.45276">
        <ele>408.001</ele>
        <time>2022-09-21T09:21:45Z</time>
      </trkpt>
      <trkpt lat="46.56301" lon="4.45265">
        <ele>407.201</ele>
        <time>2022-09-21T09:21:51Z</time>
      </trkpt>
      <trkpt lat="46.56302" lon="4.45255">
        <ele>407.801</ele>
        <time>2022-09-21T09:21:57Z</time>
      </trkpt>
      <trkpt lat="46.56303" lon="4.45244">
        <ele>406.001</ele>
        <time>2022-09-21T09:22:03Z</time>
      </trkpt>
      <trkpt lat="46.56307" lon="4.45232">
        <ele>405.401</ele>
        <time>2022-09-21T09:22:09Z</time>
      </trkpt>
      <trkpt lat="46.56307" lon="4.45222">
        <ele>406.901</ele>
        <time>2022-09-21T09:22:14Z</time>
      </trkpt>
      <trkpt lat="46.56307" lon="4.45211">
        <ele>406.401</ele>
        <time>2022-09-21T09:22:20Z</time>
      </trkpt>
      <trkpt lat="46.56307" lon="4.45201">
        <ele>405.501</ele>
        <time>2022-09-21T09:22:25Z</time>
      </trkpt>
      <trkpt lat="46.56309" lon="4.4519">
        <ele>405.601</ele>
        <time>2022-09-21T09:22:31Z</time>
      </trkpt>
      <trkpt lat="46.5631" lon="4.45178">
        <ele>406.401</ele>
        <time>2022-09-21T09:22:37Z</time>
      </trkpt>
      <trkpt lat="46.56311" lon="4.45167">
        <ele>406.201</ele>
        <time>2022-09-21T09:22:44Z</time>
      </trkpt>
      <trkpt lat="46.56314" lon="4.45158">
        <ele>406.501</ele>
        <time>2022-09-21T09:22:49Z</time>
      </trkpt>
      <trkpt lat="46.56315" lon="4.45147">
        <ele>408.501</ele>
        <time>2022-09-21T09:22:55Z</time>
      </trkpt>
      <trkpt lat="46.56319" lon="4.45136">
        <ele>408.501</ele>
        <time>2022-09-21T09:23:01Z</time>
      </trkpt>
      <trkpt lat="46.56322" lon="4.45127">
        <ele>409.401</ele>
        <time>2022-09-21T09:23:06Z</time>
      </trkpt>
      <trkpt lat="46.56324" lon="4.45117">
        <ele>409.301</ele>
        <time>2022-09-21T09:23:12Z</time>
      </trkpt>
      <trkpt lat="46.56325" lon="4.45107">
        <ele>410.001</ele>
        <time>2022-09-21T09:23:19Z</time>
      </trkpt>
      <trkpt lat="46.56331" lon="4.45096">
        <ele>410.401</ele>
        <time>2022-09-21T09:23:25Z</time>
      </trkpt>
      <trkpt lat="46.56332" lon="4.45084">
        <ele>409.101</ele>
        <time>2022-09-21T09:23:30Z</time>
      </trkpt>
      <trkpt lat="46.56336" lon="4.45077">
        <ele>409.001</ele>
        <time>2022-09-21T09:23:35Z</time>
      </trkpt>
      <trkpt lat="46.56338" lon="4.45065">
        <ele>407.801</ele>
        <time>2022-09-21T09:23:41Z</time>
      </trkpt>
      <trkpt lat="46.56343" lon="4.45058">
        <ele>414.501</ele>
        <time>2022-09-21T09:26:00Z</time>
      </trkpt>
      <trkpt lat="46.56346" lon="4.45048">
        <ele>414.701</ele>
        <time>2022-09-21T09:26:05Z</time>
      </trkpt>
      <trkpt lat="46.56351" lon="4.45039">
        <ele>414.301</ele>
        <time>2022-09-21T09:26:10Z</time>
      </trkpt>
      <trkpt lat="46.56356" lon="4.45033">
        <ele>413.201</ele>
        <time>2022-09-21T09:26:17Z</time>
      </trkpt>
      <trkpt lat="46.56359" lon="4.45023">
        <ele>413.201</ele>
        <time>2022-09-21T09:26:24Z</time>
      </trkpt>
      <trkpt lat="46.56365" lon="4.45019">
        <ele>413.601</ele>
        <time>2022-09-21T09:26:29Z</time>
      </trkpt>
      <trkpt lat="46.56368" lon="4.45011">
        <ele>416.201</ele>
        <time>2022-09-21T09:26:37Z</time>
      </trkpt>
      <trkpt lat="46.56371" lon="4.45001">
        <ele>416.801</ele>
        <time>2022-09-21T09:26:43Z</time>
      </trkpt>
      <trkpt lat="46.56374" lon="4.44991">
        <ele>416.601</ele>
        <time>2022-09-21T09:26:49Z</time>
      </trkpt>
      <trkpt lat="46.56378" lon="4.44983">
        <ele>418.301</ele>
        <time>2022-09-21T09:26:55Z</time>
      </trkpt>
      <trkpt lat="46.56381" lon="4.44973">
        <ele>419.501</ele>
        <time>2022-09-21T09:27:01Z</time>
      </trkpt>
      <trkpt lat="46.56383" lon="4.44964">
        <ele>418.701</ele>
        <time>2022-09-21T09:27:06Z</time>
      </trkpt>
      <trkpt lat="46.56386" lon="4.44955">
        <ele>419.801</ele>
        <time>2022-09-21T09:27:12Z</time>
      </trkpt>
      <trkpt lat="46.56385" lon="4.44944">
        <ele>424.501</ele>
        <time>2022-09-21T09:27:21Z</time>
      </trkpt>
      <trkpt lat="46.56387" lon="4.44935">
        <ele>424.701</ele>
        <time>2022-09-21T09:27:27Z</time>
      </trkpt>
      <trkpt lat="46.56388" lon="4.44924">
        <ele>423.101</ele>
        <time>2022-09-21T09:27:34Z</time>
      </trkpt>
      <trkpt lat="46.56389" lon="4.44912">
        <ele>422.001</ele>
        <time>2022-09-21T09:27:39Z</time>
      </trkpt>
      <trkpt lat="46.56391" lon="4.44902">
        <ele>422.201</ele>
        <time>2022-09-21T09:27:45Z</time>
      </trkpt>
      <trkpt lat="46.56392" lon="4.44893">
        <ele>423.101</ele>
        <time>2022-09-21T09:27:50Z</time>
      </trkpt>
      <trkpt lat="46.56396" lon="4.44884">
        <ele>425.401</ele>
        <time>2022-09-21T09:27:55Z</time>
      </trkpt>
      <trkpt lat="46.56399" lon="4.44875">
        <ele>425.801</ele>
        <time>2022-09-21T09:28:01Z</time>
      </trkpt>
      <trkpt lat="46.56401" lon="4.44864">
        <ele>424.501</ele>
        <time>2022-09-21T09:28:08Z</time>
      </trkpt>
      <trkpt lat="46.56401" lon="4.44853">
        <ele>422.401</ele>
        <time>2022-09-21T09:28:14Z</time>
      </trkpt>
      <trkpt lat="46.56403" lon="4.44842">
        <ele>421.401</ele>
        <time>2022-09-21T09:28:20Z</time>
      </trkpt>
      <trkpt lat="46.56405" lon="4.44832">
        <ele>420.501</ele>
        <time>2022-09-21T09:28:26Z</time>
      </trkpt>
      <trkpt lat="46.56406" lon="4.44822">
        <ele>419.201</ele>
        <time>2022-09-21T09:28:32Z</time>
      </trkpt>
      <trkpt lat="46.56407" lon="4.44812">
        <ele>417.701</ele>
        <time>2022-09-21T09:28:39Z</time>
      </trkpt>
      <trkpt lat="46.5641" lon="4.448">
        <ele>417.801</ele>
        <time>2022-09-21T09:28:45Z</time>
      </trkpt>
      <trkpt lat="46.56413" lon="4.44791">
        <ele>417.201</ele>
        <time>2022-09-21T09:28:50Z</time>
      </trkpt>
      <trkpt lat="46.56416" lon="4.44782">
        <ele>416.301</ele>
        <time>2022-09-21T09:28:56Z</time>
      </trkpt>
      <trkpt lat="46.56417" lon="4.44771">
        <ele>414.301</ele>
        <time>2022-09-21T09:29:02Z</time>
      </trkpt>
      <trkpt lat="46.56419" lon="4.44761">
        <ele>413.201</ele>
        <time>2022-09-21T09:29:08Z</time>
      </trkpt>
      <trkpt lat="46.56422" lon="4.44751">
        <ele>413.401</ele>
        <time>2022-09-21T09:29:14Z</time>
      </trkpt>
      <trkpt lat="46.56424" lon="4.44741">
        <ele>412.801</ele>
        <time>2022-09-21T09:29:22Z</time>
      </trkpt>
      <trkpt lat="46.56425" lon="4.4473">
        <ele>413.801</ele>
        <time>2022-09-21T09:29:27Z</time>
      </trkpt>
      <trkpt lat="46.56431" lon="4.44717">
        <ele>417.401</ele>
        <time>2022-09-21T09:29:33Z</time>
      </trkpt>
      <trkpt lat="46.56431" lon="4.44707">
        <ele>416.701</ele>
        <time>2022-09-21T09:29:38Z</time>
      </trkpt>
      <trkpt lat="46.56435" lon="4.44698">
        <ele>421.801</ele>
        <time>2022-09-21T09:29:44Z</time>
      </trkpt>
      <trkpt lat="46.56435" lon="4.44688">
        <ele>423.601</ele>
        <time>2022-09-21T09:29:50Z</time>
      </trkpt>
      <trkpt lat="46.56434" lon="4.44678">
        <ele>425.601</ele>
        <time>2022-09-21T09:29:55Z</time>
      </trkpt>
      <trkpt lat="46.56437" lon="4.44668">
        <ele>425.501</ele>
        <time>2022-09-21T09:30:02Z</time>
      </trkpt>
      <trkpt lat="46.56439" lon="4.44659">
        <ele>424.601</ele>
        <time>2022-09-21T09:30:07Z</time>
      </trkpt>
      <trkpt lat="46.56443" lon="4.44647">
        <ele>424.701</ele>
        <time>2022-09-21T09:30:13Z</time>
      </trkpt>
      <trkpt lat="46.56445" lon="4.44638">
        <ele>423.801</ele>
        <time>2022-09-21T09:30:19Z</time>
      </trkpt>
      <trkpt lat="46.56449" lon="4.44625">
        <ele>420.301</ele>
        <time>2022-09-21T09:30:25Z</time>
      </trkpt>
      <trkpt lat="46.56454" lon="4.44617">
        <ele>419.501</ele>
        <time>2022-09-21T09:30:31Z</time>
      </trkpt>
      <trkpt lat="46.56457" lon="4.44608">
        <ele>416.901</ele>
        <time>2022-09-21T09:30:39Z</time>
      </trkpt>
      <trkpt lat="46.56458" lon="4.44597">
        <ele>417.601</ele>
        <time>2022-09-21T09:30:46Z</time>
      </trkpt>
      <trkpt lat="46.5646" lon="4.44586">
        <ele>415.901</ele>
        <time>2022-09-21T09:30:52Z</time>
      </trkpt>
      <trkpt lat="46.56463" lon="4.44577">
        <ele>415.201</ele>
        <time>2022-09-21T09:30:57Z</time>
      </trkpt>
      <trkpt lat="46.56469" lon="4.44567">
        <ele>418.601</ele>
        <time>2022-09-21T09:31:02Z</time>
      </trkpt>
      <trkpt lat="46.56469" lon="4.44557">
        <ele>418.001</ele>
        <time>2022-09-21T09:31:07Z</time>
      </trkpt>
      <trkpt lat="46.56469" lon="4.44545">
        <ele>419.001</ele>
        <time>2022-09-21T09:31:13Z</time>
      </trkpt>
      <trkpt lat="46.56468" lon="4.44534">
        <ele>419.901</ele>
        <time>2022-09-21T09:31:19Z</time>
      </trkpt>
      <trkpt lat="46.56467" lon="4.44522">
        <ele>419.601</ele>
        <time>2022-09-21T09:31:25Z</time>
      </trkpt>
      <trkpt lat="46.56467" lon="4.44511">
        <ele>422.001</ele>
        <time>2022-09-21T09:31:31Z</time>
      </trkpt>
      <trkpt lat="46.56466" lon="4.44501">
        <ele>421.801</ele>
        <time>2022-09-21T09:31:37Z</time>
      </trkpt>
      <trkpt lat="46.56467" lon="4.44491">
        <ele>417.801</ele>
        <time>2022-09-21T09:31:42Z</time>
      </trkpt>
      <trkpt lat="46.56468" lon="4.44481">
        <ele>419.201</ele>
        <time>2022-09-21T09:31:49Z</time>
      </trkpt>
      <trkpt lat="46.56472" lon="4.44473">
        <ele>417.901</ele>
        <time>2022-09-21T09:31:56Z</time>
      </trkpt>
      <trkpt lat="46.56468" lon="4.44463">
        <ele>418.001</ele>
        <time>2022-09-21T09:32:02Z</time>
      </trkpt>
      <trkpt lat="46.56461" lon="4.44446">
        <ele>417.401</ele>
        <time>2022-09-21T09:32:07Z</time>
      </trkpt>
      <trkpt lat="46.56457" lon="4.4443">
        <ele>420.001</ele>
        <time>2022-09-21T09:32:13Z</time>
      </trkpt>
      <trkpt lat="46.56452" lon="4.4444">
        <ele>420.001</ele>
        <time>2022-09-21T09:33:15Z</time>
      </trkpt>
      <trkpt lat="46.56447" lon="4.4445">
        <ele>419.901</ele>
        <time>2022-09-21T09:33:24Z</time>
      </trkpt>
      <trkpt lat="46.56452" lon="4.44443">
        <ele>421.201</ele>
        <time>2022-09-21T09:33:52Z</time>
      </trkpt>
      <trkpt lat="46.56458" lon="4.44437">
        <ele>423.301</ele>
        <time>2022-09-21T09:34:25Z</time>
      </trkpt>
      <trkpt lat="46.56466" lon="4.44434">
        <ele>420.701</ele>
        <time>2022-09-21T09:34:30Z</time>
      </trkpt>
      <trkpt lat="46.56473" lon="4.44431">
        <ele>418.301</ele>
        <time>2022-09-21T09:34:35Z</time>
      </trkpt>
      <trkpt lat="46.5648" lon="4.4443">
        <ele>413.001</ele>
        <time>2022-09-21T09:34:41Z</time>
      </trkpt>
      <trkpt lat="46.56489" lon="4.44427">
        <ele>410.701</ele>
        <time>2022-09-21T09:34:47Z</time>
      </trkpt>
      <trkpt lat="46.56495" lon="4.44425">
        <ele>408.701</ele>
        <time>2022-09-21T09:34:54Z</time>
      </trkpt>
      <trkpt lat="46.56503" lon="4.44425">
        <ele>405.001</ele>
        <time>2022-09-21T09:35:01Z</time>
      </trkpt>
      <trkpt lat="46.56509" lon="4.44428">
        <ele>403.801</ele>
        <time>2022-09-21T09:35:10Z</time>
      </trkpt>
      <trkpt lat="46.56517" lon="4.44426">
        <ele>404.001</ele>
        <time>2022-09-21T09:35:15Z</time>
      </trkpt>
      <trkpt lat="46.56527" lon="4.44426">
        <ele>406.701</ele>
        <time>2022-09-21T09:35:21Z</time>
      </trkpt>
      <trkpt lat="46.56534" lon="4.44424">
        <ele>408.101</ele>
        <time>2022-09-21T09:35:27Z</time>
      </trkpt>
      <trkpt lat="46.56541" lon="4.44424">
        <ele>408.001</ele>
        <time>2022-09-21T09:35:33Z</time>
      </trkpt>
      <trkpt lat="46.56548" lon="4.44424">
        <ele>407.802</ele>
        <time>2022-09-21T09:35:40Z</time>
      </trkpt>
      <trkpt lat="46.56555" lon="4.44425">
        <ele>408.002</ele>
        <time>2022-09-21T09:35:46Z</time>
      </trkpt>
      <trkpt lat="46.56561" lon="4.44425">
        <ele>408.302</ele>
        <time>2022-09-21T09:35:51Z</time>
      </trkpt>
      <trkpt lat="46.5657" lon="4.44426">
        <ele>411.002</ele>
        <time>2022-09-21T09:35:57Z</time>
      </trkpt>
      <trkpt lat="46.56578" lon="4.44427">
        <ele>412.102</ele>
        <time>2022-09-21T09:36:02Z</time>
      </trkpt>
      <trkpt lat="46.56586" lon="4.44428">
        <ele>413.602</ele>
        <time>2022-09-21T09:36:07Z</time>
      </trkpt>
      <trkpt lat="46.56593" lon="4.44428">
        <ele>414.402</ele>
        <time>2022-09-21T09:36:13Z</time>
      </trkpt>
      <trkpt lat="46.566" lon="4.44426">
        <ele>416.202</ele>
        <time>2022-09-21T09:36:20Z</time>
      </trkpt>
      <trkpt lat="46.56606" lon="4.44425">
        <ele>413.302</ele>
        <time>2022-09-21T09:36:28Z</time>
      </trkpt>
      <trkpt lat="46.56613" lon="4.44422">
        <ele>411.302</ele>
        <time>2022-09-21T09:36:33Z</time>
      </trkpt>
      <trkpt lat="46.56619" lon="4.44418">
        <ele>409.602</ele>
        <time>2022-09-21T09:36:38Z</time>
      </trkpt>
      <trkpt lat="46.56627" lon="4.44414">
        <ele>410.602</ele>
        <time>2022-09-21T09:36:43Z</time>
      </trkpt>
      <trkpt lat="46.56634" lon="4.44409">
        <ele>408.802</ele>
        <time>2022-09-21T09:36:49Z</time>
      </trkpt>
      <trkpt lat="46.5664" lon="4.44409">
        <ele>408.802</ele>
        <time>2022-09-21T09:36:56Z</time>
      </trkpt>
      <trkpt lat="46.56648" lon="4.44406">
        <ele>409.002</ele>
        <time>2022-09-21T09:37:02Z</time>
      </trkpt>
      <trkpt lat="46.56654" lon="4.44404">
        <ele>408.902</ele>
        <time>2022-09-21T09:37:09Z</time>
      </trkpt>
      <trkpt lat="46.56661" lon="4.44402">
        <ele>409.802</ele>
        <time>2022-09-21T09:37:16Z</time>
      </trkpt>
      <trkpt lat="46.56668" lon="4.44399">
        <ele>409.602</ele>
        <time>2022-09-21T09:37:22Z</time>
      </trkpt>
      <trkpt lat="46.56675" lon="4.44395">
        <ele>411.302</ele>
        <time>2022-09-21T09:37:27Z</time>
      </trkpt>
      <trkpt lat="46.56683" lon="4.44392">
        <ele>411.402</ele>
        <time>2022-09-21T09:37:34Z</time>
      </trkpt>
      <trkpt lat="46.5669" lon="4.44389">
        <ele>412.602</ele>
        <time>2022-09-21T09:37:40Z</time>
      </trkpt>
      <trkpt lat="46.56696" lon="4.44388">
        <ele>413.602</ele>
        <time>2022-09-21T09:37:47Z</time>
      </trkpt>
      <trkpt lat="46.56705" lon="4.44386">
        <ele>414.002</ele>
        <time>2022-09-21T09:37:53Z</time>
      </trkpt>
      <trkpt lat="46.56711" lon="4.44383">
        <ele>412.002</ele>
        <time>2022-09-21T09:38:00Z</time>
      </trkpt>
      <trkpt lat="46.56718" lon="4.44382">
        <ele>412.102</ele>
        <time>2022-09-21T09:38:06Z</time>
      </trkpt>
      <trkpt lat="46.56726" lon="4.44383">
        <ele>411.902</ele>
        <time>2022-09-21T09:38:13Z</time>
      </trkpt>
      <trkpt lat="46.56733" lon="4.4438">
        <ele>413.502</ele>
        <time>2022-09-21T09:38:19Z</time>
      </trkpt>
      <trkpt lat="46.56743" lon="4.44375">
        <ele>416.802</ele>
        <time>2022-09-21T09:38:25Z</time>
      </trkpt>
      <trkpt lat="46.56751" lon="4.44372">
        <ele>418.602</ele>
        <time>2022-09-21T09:38:31Z</time>
      </trkpt>
      <trkpt lat="46.5676" lon="4.44368">
        <ele>422.602</ele>
        <time>2022-09-21T09:38:37Z</time>
      </trkpt>
      <trkpt lat="46.56766" lon="4.44363">
        <ele>422.702</ele>
        <time>2022-09-21T09:38:43Z</time>
      </trkpt>
      <trkpt lat="46.56772" lon="4.4436">
        <ele>421.002</ele>
        <time>2022-09-21T09:38:49Z</time>
      </trkpt>
      <trkpt lat="46.56779" lon="4.44357">
        <ele>417.902</ele>
        <time>2022-09-21T09:38:56Z</time>
      </trkpt>
      <trkpt lat="46.56788" lon="4.44352">
        <ele>417.802</ele>
        <time>2022-09-21T09:39:01Z</time>
      </trkpt>
      <trkpt lat="46.56795" lon="4.44347">
        <ele>419.102</ele>
        <time>2022-09-21T09:39:06Z</time>
      </trkpt>
      <trkpt lat="46.56802" lon="4.44344">
        <ele>417.002</ele>
        <time>2022-09-21T09:39:14Z</time>
      </trkpt>
      <trkpt lat="46.56808" lon="4.4434">
        <ele>414.802</ele>
        <time>2022-09-21T09:39:19Z</time>
      </trkpt>
      <trkpt lat="46.56816" lon="4.44335">
        <ele>415.102</ele>
        <time>2022-09-21T09:39:25Z</time>
      </trkpt>
      <trkpt lat="46.56822" lon="4.44329">
        <ele>413.802</ele>
        <time>2022-09-21T09:39:30Z</time>
      </trkpt>
      <trkpt lat="46.56829" lon="4.44326">
        <ele>412.502</ele>
        <time>2022-09-21T09:39:37Z</time>
      </trkpt>
      <trkpt lat="46.56836" lon="4.44322">
        <ele>412.402</ele>
        <time>2022-09-21T09:39:42Z</time>
      </trkpt>
      <trkpt lat="46.56843" lon="4.44319">
        <ele>412.402</ele>
        <time>2022-09-21T09:39:48Z</time>
      </trkpt>
      <trkpt lat="46.56851" lon="4.44317">
        <ele>413.102</ele>
        <time>2022-09-21T09:39:53Z</time>
      </trkpt>
      <trkpt lat="46.56858" lon="4.44315">
        <ele>415.502</ele>
        <time>2022-09-21T09:39:58Z</time>
      </trkpt>
      <trkpt lat="46.56864" lon="4.44311">
        <ele>416.002</ele>
        <time>2022-09-21T09:40:04Z</time>
      </trkpt>
      <trkpt lat="46.56873" lon="4.44308">
        <ele>416.702</ele>
        <time>2022-09-21T09:40:09Z</time>
      </trkpt>
      <trkpt lat="46.5688" lon="4.44307">
        <ele>422.102</ele>
        <time>2022-09-21T09:40:14Z</time>
      </trkpt>
      <trkpt lat="46.56887" lon="4.44304">
        <ele>423.502</ele>
        <time>2022-09-21T09:40:20Z</time>
      </trkpt>
      <trkpt lat="46.56895" lon="4.44301">
        <ele>424.402</ele>
        <time>2022-09-21T09:40:27Z</time>
      </trkpt>
      <trkpt lat="46.56901" lon="4.44297">
        <ele>422.802</ele>
        <time>2022-09-21T09:40:34Z</time>
      </trkpt>
      <trkpt lat="46.56907" lon="4.44292">
        <ele>419.702</ele>
        <time>2022-09-21T09:40:41Z</time>
      </trkpt>
      <trkpt lat="46.56913" lon="4.44288">
        <ele>417.902</ele>
        <time>2022-09-21T09:40:46Z</time>
      </trkpt>
      <trkpt lat="46.5692" lon="4.44284">
        <ele>415.502</ele>
        <time>2022-09-21T09:40:53Z</time>
      </trkpt>
      <trkpt lat="46.56928" lon="4.44282">
        <ele>415.102</ele>
        <time>2022-09-21T09:41:01Z</time>
      </trkpt>
      <trkpt lat="46.56934" lon="4.44279">
        <ele>415.302</ele>
        <time>2022-09-21T09:41:06Z</time>
      </trkpt>
      <trkpt lat="46.56943" lon="4.44277">
        <ele>419.102</ele>
        <time>2022-09-21T09:41:11Z</time>
      </trkpt>
      <trkpt lat="46.56956" lon="4.44267">
        <ele>417.403</ele>
        <time>2022-09-21T09:41:17Z</time>
      </trkpt>
      <trkpt lat="46.56963" lon="4.44268">
        <ele>415.703</ele>
        <time>2022-09-21T09:41:22Z</time>
      </trkpt>
      <trkpt lat="46.5697" lon="4.44264">
        <ele>413.203</ele>
        <time>2022-09-21T09:41:29Z</time>
      </trkpt>
      <trkpt lat="46.56977" lon="4.44263">
        <ele>412.903</ele>
        <time>2022-09-21T09:41:36Z</time>
      </trkpt>
      <trkpt lat="46.56983" lon="4.44258">
        <ele>412.703</ele>
        <time>2022-09-21T09:41:42Z</time>
      </trkpt>
      <trkpt lat="46.5699" lon="4.44257">
        <ele>411.503</ele>
        <time>2022-09-21T09:41:47Z</time>
      </trkpt>
      <trkpt lat="46.56999" lon="4.44253">
        <ele>414.103</ele>
        <time>2022-09-21T09:41:53Z</time>
      </trkpt>
      <trkpt lat="46.57006" lon="4.44248">
        <ele>414.303</ele>
        <time>2022-09-21T09:42:00Z</time>
      </trkpt>
      <trkpt lat="46.57013" lon="4.44243">
        <ele>415.103</ele>
        <time>2022-09-21T09:42:06Z</time>
      </trkpt>
      <trkpt lat="46.5702" lon="4.44237">
        <ele>414.703</ele>
        <time>2022-09-21T09:42:11Z</time>
      </trkpt>
      <trkpt lat="46.57028" lon="4.44234">
        <ele>414.803</ele>
        <time>2022-09-21T09:42:17Z</time>
      </trkpt>
      <trkpt lat="46.57036" lon="4.44234">
        <ele>415.503</ele>
        <time>2022-09-21T09:42:22Z</time>
      </trkpt>
      <trkpt lat="46.57043" lon="4.44233">
        <ele>416.003</ele>
        <time>2022-09-21T09:42:29Z</time>
      </trkpt>
      <trkpt lat="46.5705" lon="4.44232">
        <ele>416.303</ele>
        <time>2022-09-21T09:42:37Z</time>
      </trkpt>
      <trkpt lat="46.57057" lon="4.4423">
        <ele>416.603</ele>
        <time>2022-09-21T09:42:42Z</time>
      </trkpt>
      <trkpt lat="46.57059" lon="4.4424">
        <ele>416.403</ele>
        <time>2022-09-21T09:43:09Z</time>
      </trkpt>
      <trkpt lat="46.57065" lon="4.44236">
        <ele>418.203</ele>
        <time>2022-09-21T09:43:14Z</time>
      </trkpt>
      <trkpt lat="46.57076" lon="4.4423">
        <ele>417.703</ele>
        <time>2022-09-21T09:43:19Z</time>
      </trkpt>
      <trkpt lat="46.57082" lon="4.44228">
        <ele>418.103</ele>
        <time>2022-09-21T09:43:25Z</time>
      </trkpt>
      <trkpt lat="46.5709" lon="4.44222">
        <ele>415.903</ele>
        <time>2022-09-21T09:43:30Z</time>
      </trkpt>
      <trkpt lat="46.57097" lon="4.4422">
        <ele>416.003</ele>
        <time>2022-09-21T09:43:36Z</time>
      </trkpt>
      <trkpt lat="46.57104" lon="4.44218">
        <ele>414.203</ele>
        <time>2022-09-21T09:43:41Z</time>
      </trkpt>
      <trkpt lat="46.57111" lon="4.44213">
        <ele>412.403</ele>
        <time>2022-09-21T09:43:46Z</time>
      </trkpt>
      <trkpt lat="46.57118" lon="4.44212">
        <ele>411.403</ele>
        <time>2022-09-21T09:43:51Z</time>
      </trkpt>
      <trkpt lat="46.57126" lon="4.44208">
        <ele>411.803</ele>
        <time>2022-09-21T09:43:57Z</time>
      </trkpt>
      <trkpt lat="46.57135" lon="4.44205">
        <ele>411.603</ele>
        <time>2022-09-21T09:44:02Z</time>
      </trkpt>
      <trkpt lat="46.57142" lon="4.44205">
        <ele>412.803</ele>
        <time>2022-09-21T09:44:07Z</time>
      </trkpt>
      <trkpt lat="46.5715" lon="4.44205">
        <ele>412.303</ele>
        <time>2022-09-21T09:44:13Z</time>
      </trkpt>
      <trkpt lat="46.57156" lon="4.44207">
        <ele>411.603</ele>
        <time>2022-09-21T09:44:19Z</time>
      </trkpt>
      <trkpt lat="46.57163" lon="4.44207">
        <ele>410.303</ele>
        <time>2022-09-21T09:44:26Z</time>
      </trkpt>
      <trkpt lat="46.57171" lon="4.44207">
        <ele>411.903</ele>
        <time>2022-09-21T09:44:31Z</time>
      </trkpt>
      <trkpt lat="46.5718" lon="4.4421">
        <ele>414.403</ele>
        <time>2022-09-21T09:44:37Z</time>
      </trkpt>
      <trkpt lat="46.57187" lon="4.44212">
        <ele>414.503</ele>
        <time>2022-09-21T09:44:42Z</time>
      </trkpt>
      <trkpt lat="46.57193" lon="4.44213">
        <ele>413.903</ele>
        <time>2022-09-21T09:44:48Z</time>
      </trkpt>
      <trkpt lat="46.572" lon="4.44211">
        <ele>415.503</ele>
        <time>2022-09-21T09:44:53Z</time>
      </trkpt>
      <trkpt lat="46.57207" lon="4.4421">
        <ele>415.703</ele>
        <time>2022-09-21T09:44:59Z</time>
      </trkpt>
      <trkpt lat="46.57215" lon="4.44208">
        <ele>413.803</ele>
        <time>2022-09-21T09:45:05Z</time>
      </trkpt>
      <trkpt lat="46.57223" lon="4.4421">
        <ele>412.903</ele>
        <time>2022-09-21T09:45:12Z</time>
      </trkpt>
      <trkpt lat="46.5723" lon="4.4421">
        <ele>412.503</ele>
        <time>2022-09-21T09:45:18Z</time>
      </trkpt>
      <trkpt lat="46.5724" lon="4.4421">
        <ele>413.903</ele>
        <time>2022-09-21T09:45:23Z</time>
      </trkpt>
      <trkpt lat="46.5725" lon="4.4421">
        <ele>413.403</ele>
        <time>2022-09-21T09:45:29Z</time>
      </trkpt>
      <trkpt lat="46.57256" lon="4.44211">
        <ele>411.603</ele>
        <time>2022-09-21T09:45:34Z</time>
      </trkpt>
      <trkpt lat="46.57263" lon="4.44213">
        <ele>408.703</ele>
        <time>2022-09-21T09:45:40Z</time>
      </trkpt>
      <trkpt lat="46.5727" lon="4.44214">
        <ele>406.903</ele>
        <time>2022-09-21T09:45:46Z</time>
      </trkpt>
      <trkpt lat="46.57276" lon="4.44216">
        <ele>405.403</ele>
        <time>2022-09-21T09:45:52Z</time>
      </trkpt>
      <trkpt lat="46.57283" lon="4.4422">
        <ele>404.703</ele>
        <time>2022-09-21T09:45:59Z</time>
      </trkpt>
      <trkpt lat="46.57291" lon="4.44221">
        <ele>407.103</ele>
        <time>2022-09-21T09:46:05Z</time>
      </trkpt>
      <trkpt lat="46.57299" lon="4.44224">
        <ele>415.403</ele>
        <time>2022-09-21T09:46:10Z</time>
      </trkpt>
      <trkpt lat="46.57306" lon="4.44222">
        <ele>414.803</ele>
        <time>2022-09-21T09:46:15Z</time>
      </trkpt>
      <trkpt lat="46.57315" lon="4.44223">
        <ele>411.803</ele>
        <time>2022-09-21T09:46:21Z</time>
      </trkpt>
      <trkpt lat="46.57321" lon="4.4422">
        <ele>409.404</ele>
        <time>2022-09-21T09:46:28Z</time>
      </trkpt>
      <trkpt lat="46.57329" lon="4.44221">
        <ele>409.304</ele>
        <time>2022-09-21T09:46:36Z</time>
      </trkpt>
      <trkpt lat="46.57336" lon="4.44215">
        <ele>408.804</ele>
        <time>2022-09-21T09:46:41Z</time>
      </trkpt>
      <trkpt lat="46.57349" lon="4.44215">
        <ele>408.604</ele>
        <time>2022-09-21T09:46:46Z</time>
      </trkpt>
      <trkpt lat="46.57356" lon="4.44217">
        <ele>407.204</ele>
        <time>2022-09-21T09:46:51Z</time>
      </trkpt>
      <trkpt lat="46.57363" lon="4.4422">
        <ele>406.804</ele>
        <time>2022-09-21T09:46:57Z</time>
      </trkpt>
      <trkpt lat="46.57369" lon="4.44223">
        <ele>406.704</ele>
        <time>2022-09-21T09:47:03Z</time>
      </trkpt>
      <trkpt lat="46.57377" lon="4.44222">
        <ele>405.404</ele>
        <time>2022-09-21T09:47:10Z</time>
      </trkpt>
      <trkpt lat="46.57384" lon="4.44221">
        <ele>404.704</ele>
        <time>2022-09-21T09:47:17Z</time>
      </trkpt>
      <trkpt lat="46.57391" lon="4.4422">
        <ele>402.904</ele>
        <time>2022-09-21T09:47:23Z</time>
      </trkpt>
      <trkpt lat="46.57403" lon="4.44214">
        <ele>401.804</ele>
        <time>2022-09-21T09:47:31Z</time>
      </trkpt>
      <trkpt lat="46.57409" lon="4.4421">
        <ele>400.204</ele>
        <time>2022-09-21T09:47:36Z</time>
      </trkpt>
      <trkpt lat="46.57415" lon="4.44205">
        <ele>397.004</ele>
        <time>2022-09-21T09:47:43Z</time>
      </trkpt>
      <trkpt lat="46.57422" lon="4.44202">
        <ele>397.904</ele>
        <time>2022-09-21T09:47:50Z</time>
      </trkpt>
      <trkpt lat="46.57429" lon="4.44196">
        <ele>397.504</ele>
        <time>2022-09-21T09:47:56Z</time>
      </trkpt>
      <trkpt lat="46.57436" lon="4.44193">
        <ele>397.104</ele>
        <time>2022-09-21T09:48:01Z</time>
      </trkpt>
      <trkpt lat="46.57442" lon="4.44189">
        <ele>395.304</ele>
        <time>2022-09-21T09:48:07Z</time>
      </trkpt>
      <trkpt lat="46.57449" lon="4.44185">
        <ele>396.304</ele>
        <time>2022-09-21T09:48:13Z</time>
      </trkpt>
      <trkpt lat="46.57456" lon="4.44182">
        <ele>395.804</ele>
        <time>2022-09-21T09:48:20Z</time>
      </trkpt>
      <trkpt lat="46.57463" lon="4.44179">
        <ele>395.904</ele>
        <time>2022-09-21T09:48:26Z</time>
      </trkpt>
      <trkpt lat="46.57469" lon="4.44174">
        <ele>394.104</ele>
        <time>2022-09-21T09:48:32Z</time>
      </trkpt>
      <trkpt lat="46.57476" lon="4.44168">
        <ele>391.204</ele>
        <time>2022-09-21T09:48:39Z</time>
      </trkpt>
      <trkpt lat="46.57483" lon="4.44165">
        <ele>390.904</ele>
        <time>2022-09-21T09:48:45Z</time>
      </trkpt>
      <trkpt lat="46.5749" lon="4.44162">
        <ele>390.504</ele>
        <time>2022-09-21T09:48:51Z</time>
      </trkpt>
      <trkpt lat="46.57501" lon="4.44157">
        <ele>393.304</ele>
        <time>2022-09-21T09:48:56Z</time>
      </trkpt>
      <trkpt lat="46.57507" lon="4.44153">
        <ele>392.604</ele>
        <time>2022-09-21T09:49:02Z</time>
      </trkpt>
      <trkpt lat="46.57514" lon="4.44147">
        <ele>392.004</ele>
        <time>2022-09-21T09:49:09Z</time>
      </trkpt>
      <trkpt lat="46.5752" lon="4.44145">
        <ele>392.404</ele>
        <time>2022-09-21T09:49:14Z</time>
      </trkpt>
      <trkpt lat="46.57527" lon="4.44143">
        <ele>388.104</ele>
        <time>2022-09-21T09:49:21Z</time>
      </trkpt>
      <trkpt lat="46.57533" lon="4.44138">
        <ele>384.504</ele>
        <time>2022-09-21T09:49:27Z</time>
      </trkpt>
      <trkpt lat="46.57539" lon="4.44134">
        <ele>383.804</ele>
        <time>2022-09-21T09:49:32Z</time>
      </trkpt>
      <trkpt lat="46.57546" lon="4.44133">
        <ele>383.004</ele>
        <time>2022-09-21T09:49:38Z</time>
      </trkpt>
      <trkpt lat="46.57555" lon="4.44129">
        <ele>386.604</ele>
        <time>2022-09-21T09:49:44Z</time>
      </trkpt>
      <trkpt lat="46.57562" lon="4.44127">
        <ele>388.204</ele>
        <time>2022-09-21T09:49:51Z</time>
      </trkpt>
      <trkpt lat="46.57569" lon="4.44122">
        <ele>388.504</ele>
        <time>2022-09-21T09:49:57Z</time>
      </trkpt>
      <trkpt lat="46.57576" lon="4.44118">
        <ele>386.304</ele>
        <time>2022-09-21T09:50:02Z</time>
      </trkpt>
      <trkpt lat="46.57583" lon="4.44111">
        <ele>385.004</ele>
        <time>2022-09-21T09:50:08Z</time>
      </trkpt>
      <trkpt lat="46.57589" lon="4.44105">
        <ele>383.804</ele>
        <time>2022-09-21T09:50:14Z</time>
      </trkpt>
      <trkpt lat="46.57594" lon="4.44099">
        <ele>382.804</ele>
        <time>2022-09-21T09:50:20Z</time>
      </trkpt>
      <trkpt lat="46.57602" lon="4.44091">
        <ele>382.304</ele>
        <time>2022-09-21T09:50:25Z</time>
      </trkpt>
      <trkpt lat="46.57607" lon="4.44084">
        <ele>380.504</ele>
        <time>2022-09-21T09:50:30Z</time>
      </trkpt>
      <trkpt lat="46.57612" lon="4.44076">
        <ele>377.004</ele>
        <time>2022-09-21T09:50:36Z</time>
      </trkpt>
      <trkpt lat="46.57616" lon="4.44069">
        <ele>375.504</ele>
        <time>2022-09-21T09:50:43Z</time>
      </trkpt>
      <trkpt lat="46.57622" lon="4.44063">
        <ele>376.304</ele>
        <time>2022-09-21T09:50:48Z</time>
      </trkpt>
      <trkpt lat="46.57626" lon="4.44055">
        <ele>375.204</ele>
        <time>2022-09-21T09:50:53Z</time>
      </trkpt>
      <trkpt lat="46.57631" lon="4.44047">
        <ele>374.504</ele>
        <time>2022-09-21T09:50:58Z</time>
      </trkpt>
      <trkpt lat="46.57635" lon="4.44039">
        <ele>372.504</ele>
        <time>2022-09-21T09:51:04Z</time>
      </trkpt>
      <trkpt lat="46.5764" lon="4.44032">
        <ele>373.404</ele>
        <time>2022-09-21T09:51:11Z</time>
      </trkpt>
      <trkpt lat="46.57644" lon="4.44023">
        <ele>374.004</ele>
        <time>2022-09-21T09:51:18Z</time>
      </trkpt>
      <trkpt lat="46.57648" lon="4.44015">
        <ele>372.704</ele>
        <time>2022-09-21T09:51:24Z</time>
      </trkpt>
      <trkpt lat="46.57653" lon="4.44007">
        <ele>372.404</ele>
        <time>2022-09-21T09:51:29Z</time>
      </trkpt>
      <trkpt lat="46.57659" lon="4.44001">
        <ele>371.804</ele>
        <time>2022-09-21T09:51:34Z</time>
      </trkpt>
      <trkpt lat="46.57663" lon="4.43993">
        <ele>371.204</ele>
        <time>2022-09-21T09:51:56Z</time>
      </trkpt>
      <trkpt lat="46.57667" lon="4.43984">
        <ele>369.204</ele>
        <time>2022-09-21T09:52:05Z</time>
      </trkpt>
      <trkpt lat="46.57675" lon="4.43984">
        <ele>368.604</ele>
        <time>2022-09-21T09:52:11Z</time>
      </trkpt>
      <trkpt lat="46.57671" lon="4.43976">
        <ele>374.804</ele>
        <time>2022-09-21T09:53:26Z</time>
      </trkpt>
      <trkpt lat="46.57664" lon="4.43977">
        <ele>372.904</ele>
        <time>2022-09-21T09:53:32Z</time>
      </trkpt>
      <trkpt lat="46.57655" lon="4.4397">
        <ele>371.804</ele>
        <time>2022-09-21T09:54:02Z</time>
      </trkpt>
      <trkpt lat="46.57665" lon="4.43974">
        <ele>372.904</ele>
        <time>2022-09-21T09:54:08Z</time>
      </trkpt>
      <trkpt lat="46.57672" lon="4.43978">
        <ele>372.304</ele>
        <time>2022-09-21T09:54:13Z</time>
      </trkpt>
      <trkpt lat="46.57677" lon="4.43984">
        <ele>372.204</ele>
        <time>2022-09-21T09:54:24Z</time>
      </trkpt>
      <trkpt lat="46.57682" lon="4.43993">
        <ele>369.604</ele>
        <time>2022-09-21T09:55:46Z</time>
      </trkpt>
      <trkpt lat="46.57685" lon="4.44005">
        <ele>372.404</ele>
        <time>2022-09-21T09:55:52Z</time>
      </trkpt>
      <trkpt lat="46.57686" lon="4.44015">
        <ele>374.604</ele>
        <time>2022-09-21T09:55:58Z</time>
      </trkpt>
      <trkpt lat="46.57689" lon="4.44025">
        <ele>375.304</ele>
        <time>2022-09-21T09:56:04Z</time>
      </trkpt>
      <trkpt lat="46.57693" lon="4.44033">
        <ele>375.304</ele>
        <time>2022-09-21T09:56:10Z</time>
      </trkpt>
      <trkpt lat="46.57697" lon="4.44041">
        <ele>374.404</ele>
        <time>2022-09-21T09:56:17Z</time>
      </trkpt>
      <trkpt lat="46.57701" lon="4.4405">
        <ele>375.204</ele>
        <time>2022-09-21T09:56:24Z</time>
      </trkpt>
      <trkpt lat="46.57704" lon="4.44059">
        <ele>374.704</ele>
        <time>2022-09-21T09:56:31Z</time>
      </trkpt>
      <trkpt lat="46.57709" lon="4.44066">
        <ele>375.704</ele>
        <time>2022-09-21T09:56:37Z</time>
      </trkpt>
      <trkpt lat="46.57714" lon="4.44074">
        <ele>375.204</ele>
        <time>2022-09-21T09:56:43Z</time>
      </trkpt>
      <trkpt lat="46.57717" lon="4.44083">
        <ele>375.405</ele>
        <time>2022-09-21T09:56:48Z</time>
      </trkpt>
      <trkpt lat="46.57722" lon="4.4409">
        <ele>374.005</ele>
        <time>2022-09-21T09:56:54Z</time>
      </trkpt>
      <trkpt lat="46.57726" lon="4.441">
        <ele>372.705</ele>
        <time>2022-09-21T09:57:00Z</time>
      </trkpt>
      <trkpt lat="46.57729" lon="4.44108">
        <ele>373.705</ele>
        <time>2022-09-21T09:57:05Z</time>
      </trkpt>
      <trkpt lat="46.57734" lon="4.44115">
        <ele>373.805</ele>
        <time>2022-09-21T09:57:11Z</time>
      </trkpt>
      <trkpt lat="46.57738" lon="4.44124">
        <ele>373.705</ele>
        <time>2022-09-21T09:57:16Z</time>
      </trkpt>
      <trkpt lat="46.57742" lon="4.44132">
        <ele>372.705</ele>
        <time>2022-09-21T09:57:22Z</time>
      </trkpt>
      <trkpt lat="46.57745" lon="4.44141">
        <ele>371.505</ele>
        <time>2022-09-21T09:57:29Z</time>
      </trkpt>
      <trkpt lat="46.5775" lon="4.4415">
        <ele>371.405</ele>
        <time>2022-09-21T09:57:35Z</time>
      </trkpt>
      <trkpt lat="46.57754" lon="4.44158">
        <ele>370.105</ele>
        <time>2022-09-21T09:57:41Z</time>
      </trkpt>
      <trkpt lat="46.57759" lon="4.44165">
        <ele>369.705</ele>
        <time>2022-09-21T09:57:46Z</time>
      </trkpt>
      <trkpt lat="46.57763" lon="4.44176">
        <ele>370.405</ele>
        <time>2022-09-21T09:57:52Z</time>
      </trkpt>
      <trkpt lat="46.57767" lon="4.44183">
        <ele>370.105</ele>
        <time>2022-09-21T09:57:57Z</time>
      </trkpt>
      <trkpt lat="46.5777" lon="4.44193">
        <ele>369.705</ele>
        <time>2022-09-21T09:58:04Z</time>
      </trkpt>
      <trkpt lat="46.57773" lon="4.44203">
        <ele>370.205</ele>
        <time>2022-09-21T09:58:10Z</time>
      </trkpt>
      <trkpt lat="46.57777" lon="4.44214">
        <ele>370.905</ele>
        <time>2022-09-21T09:58:16Z</time>
      </trkpt>
      <trkpt lat="46.5778" lon="4.44223">
        <ele>371.805</ele>
        <time>2022-09-21T09:58:22Z</time>
      </trkpt>
      <trkpt lat="46.57784" lon="4.44236">
        <ele>372.305</ele>
        <time>2022-09-21T09:58:28Z</time>
      </trkpt>
      <trkpt lat="46.57788" lon="4.44245">
        <ele>373.705</ele>
        <time>2022-09-21T09:58:36Z</time>
      </trkpt>
      <trkpt lat="46.57791" lon="4.44254">
        <ele>373.105</ele>
        <time>2022-09-21T09:58:41Z</time>
      </trkpt>
      <trkpt lat="46.57792" lon="4.44265">
        <ele>372.805</ele>
        <time>2022-09-21T09:58:47Z</time>
      </trkpt>
      <trkpt lat="46.57796" lon="4.44273">
        <ele>371.505</ele>
        <time>2022-09-21T09:58:52Z</time>
      </trkpt>
      <trkpt lat="46.57798" lon="4.44283">
        <ele>373.805</ele>
        <time>2022-09-21T09:58:58Z</time>
      </trkpt>
      <trkpt lat="46.57801" lon="4.44291">
        <ele>375.505</ele>
        <time>2022-09-21T09:59:03Z</time>
      </trkpt>
      <trkpt lat="46.57805" lon="4.44302">
        <ele>376.505</ele>
        <time>2022-09-21T09:59:08Z</time>
      </trkpt>
      <trkpt lat="46.57807" lon="4.44313">
        <ele>377.405</ele>
        <time>2022-09-21T09:59:14Z</time>
      </trkpt>
      <trkpt lat="46.57809" lon="4.44323">
        <ele>377.905</ele>
        <time>2022-09-21T09:59:19Z</time>
      </trkpt>
      <trkpt lat="46.57814" lon="4.44331">
        <ele>378.305</ele>
        <time>2022-09-21T09:59:25Z</time>
      </trkpt>
      <trkpt lat="46.57818" lon="4.44338">
        <ele>378.605</ele>
        <time>2022-09-21T09:59:31Z</time>
      </trkpt>
      <trkpt lat="46.5782" lon="4.44348">
        <ele>376.905</ele>
        <time>2022-09-21T09:59:37Z</time>
      </trkpt>
      <trkpt lat="46.57821" lon="4.44359">
        <ele>376.205</ele>
        <time>2022-09-21T09:59:43Z</time>
      </trkpt>
      <trkpt lat="46.57823" lon="4.44369">
        <ele>374.305</ele>
        <time>2022-09-21T09:59:49Z</time>
      </trkpt>
      <trkpt lat="46.57824" lon="4.4438">
        <ele>374.305</ele>
        <time>2022-09-21T09:59:56Z</time>
      </trkpt>
      <trkpt lat="46.57826" lon="4.44391">
        <ele>373.005</ele>
        <time>2022-09-21T10:00:02Z</time>
      </trkpt>
      <trkpt lat="46.57826" lon="4.44401">
        <ele>374.005</ele>
        <time>2022-09-21T10:00:07Z</time>
      </trkpt>
      <trkpt lat="46.57829" lon="4.44411">
        <ele>375.705</ele>
        <time>2022-09-21T10:00:12Z</time>
      </trkpt>
      <trkpt lat="46.57834" lon="4.44419">
        <ele>377.305</ele>
        <time>2022-09-21T10:00:18Z</time>
      </trkpt>
      <trkpt lat="46.57841" lon="4.44418">
        <ele>379.805</ele>
        <time>2022-09-21T10:00:24Z</time>
      </trkpt>
      <trkpt lat="46.57848" lon="4.44416">
        <ele>381.705</ele>
        <time>2022-09-21T10:00:30Z</time>
      </trkpt>
      <trkpt lat="46.57855" lon="4.44412">
        <ele>379.705</ele>
        <time>2022-09-21T10:00:38Z</time>
      </trkpt>
      <trkpt lat="46.5785" lon="4.44419">
        <ele>376.305</ele>
        <time>2022-09-21T10:01:01Z</time>
      </trkpt>
      <trkpt lat="46.57849" lon="4.44428">
        <ele>375.005</ele>
        <time>2022-09-21T10:01:10Z</time>
      </trkpt>
      <trkpt lat="46.57848" lon="4.44418">
        <ele>376.905</ele>
        <time>2022-09-21T10:01:30Z</time>
      </trkpt>
      <trkpt lat="46.57848" lon="4.44427">
        <ele>380.405</ele>
        <time>2022-09-21T10:01:54Z</time>
      </trkpt>
      <trkpt lat="46.57854" lon="4.4443">
        <ele>378.405</ele>
        <time>2022-09-21T10:15:26Z</time>
      </trkpt>
      <trkpt lat="46.57848" lon="4.44425">
        <ele>373.805</ele>
        <time>2022-09-21T10:18:55Z</time>
      </trkpt>
      <trkpt lat="46.57848" lon="4.44435">
        <ele>379.805</ele>
        <time>2022-09-21T10:30:42Z</time>
      </trkpt>
      <trkpt lat="46.57854" lon="4.4444">
        <ele>382.105</ele>
        <time>2022-09-21T10:30:50Z</time>
      </trkpt>
      <trkpt lat="46.57854" lon="4.4443">
        <ele>387.605</ele>
        <time>2022-09-21T10:31:21Z</time>
      </trkpt>
      <trkpt lat="46.57849" lon="4.44422">
        <ele>388.505</ele>
        <time>2022-09-21T10:31:27Z</time>
      </trkpt>
      <trkpt lat="46.57852" lon="4.44413">
        <ele>386.705</ele>
        <time>2022-09-21T10:31:34Z</time>
      </trkpt>
      <trkpt lat="46.5786" lon="4.44404">
        <ele>387.905</ele>
        <time>2022-09-21T10:31:40Z</time>
      </trkpt>
      <trkpt lat="46.57858" lon="4.44414">
        <ele>385.305</ele>
        <time>2022-09-21T10:32:55Z</time>
      </trkpt>
      <trkpt lat="46.57852" lon="4.44417">
        <ele>384.905</ele>
        <time>2022-09-21T10:33:02Z</time>
      </trkpt>
      <trkpt lat="46.57846" lon="4.44421">
        <ele>384.405</ele>
        <time>2022-09-21T10:33:09Z</time>
      </trkpt>
      <trkpt lat="46.57848" lon="4.4443">
        <ele>383.005</ele>
        <time>2022-09-21T10:34:48Z</time>
      </trkpt>
      <trkpt lat="46.57841" lon="4.44423">
        <ele>380.105</ele>
        <time>2022-09-21T10:37:01Z</time>
      </trkpt>
      <trkpt lat="46.57844" lon="4.44413">
        <ele>386.205</ele>
        <time>2022-09-21T10:49:42Z</time>
      </trkpt>
      <trkpt lat="46.57843" lon="4.44423">
        <ele>389.505</ele>
        <time>2022-09-21T10:50:34Z</time>
      </trkpt>
      <trkpt lat="46.57847" lon="4.44433">
        <ele>383.805</ele>
        <time>2022-09-21T10:51:40Z</time>
      </trkpt>
      <trkpt lat="46.57851" lon="4.4444">
        <ele>380.905</ele>
        <time>2022-09-21T10:51:47Z</time>
      </trkpt>
      <trkpt lat="46.57852" lon="4.44451">
        <ele>379.905</ele>
        <time>2022-09-21T10:52:04Z</time>
      </trkpt>
      <trkpt lat="46.57855" lon="4.44459">
        <ele>380.105</ele>
        <time>2022-09-21T10:52:09Z</time>
      </trkpt>
      <trkpt lat="46.57858" lon="4.44469">
        <ele>377.705</ele>
        <time>2022-09-21T10:52:16Z</time>
      </trkpt>
      <trkpt lat="46.57861" lon="4.44479">
        <ele>379.005</ele>
        <time>2022-09-21T10:52:24Z</time>
      </trkpt>
      <trkpt lat="46.57864" lon="4.44487">
        <ele>380.305</ele>
        <time>2022-09-21T10:52:30Z</time>
      </trkpt>
      <trkpt lat="46.57866" lon="4.44498">
        <ele>379.005</ele>
        <time>2022-09-21T10:52:37Z</time>
      </trkpt>
      <trkpt lat="46.57867" lon="4.44509">
        <ele>378.805</ele>
        <time>2022-09-21T10:52:43Z</time>
      </trkpt>
      <trkpt lat="46.57867" lon="4.44518">
        <ele>378.605</ele>
        <time>2022-09-21T10:52:49Z</time>
      </trkpt>
      <trkpt lat="46.57868" lon="4.44528">
        <ele>376.605</ele>
        <time>2022-09-21T10:52:55Z</time>
      </trkpt>
      <trkpt lat="46.57869" lon="4.44539">
        <ele>375.705</ele>
        <time>2022-09-21T10:53:01Z</time>
      </trkpt>
      <trkpt lat="46.5787" lon="4.44549">
        <ele>376.305</ele>
        <time>2022-09-21T10:53:08Z</time>
      </trkpt>
      <trkpt lat="46.57871" lon="4.44558">
        <ele>376.605</ele>
        <time>2022-09-21T10:53:13Z</time>
      </trkpt>
      <trkpt lat="46.57871" lon="4.4457">
        <ele>377.105</ele>
        <time>2022-09-21T10:53:19Z</time>
      </trkpt>
      <trkpt lat="46.57871" lon="4.44579">
        <ele>376.205</ele>
        <time>2022-09-21T10:53:24Z</time>
      </trkpt>
      <trkpt lat="46.57872" lon="4.44591">
        <ele>376.205</ele>
        <time>2022-09-21T10:53:31Z</time>
      </trkpt>
      <trkpt lat="46.57874" lon="4.44601">
        <ele>375.105</ele>
        <time>2022-09-21T10:53:37Z</time>
      </trkpt>
      <trkpt lat="46.57875" lon="4.4461">
        <ele>375.805</ele>
        <time>2022-09-21T10:53:43Z</time>
      </trkpt>
      <trkpt lat="46.57876" lon="4.44622">
        <ele>377.105</ele>
        <time>2022-09-21T10:53:49Z</time>
      </trkpt>
      <trkpt lat="46.57878" lon="4.44633">
        <ele>378.805</ele>
        <time>2022-09-21T10:53:55Z</time>
      </trkpt>
      <trkpt lat="46.5788" lon="4.44643">
        <ele>377.805</ele>
        <time>2022-09-21T10:54:00Z</time>
      </trkpt>
      <trkpt lat="46.57881" lon="4.44652">
        <ele>377.405</ele>
        <time>2022-09-21T10:54:07Z</time>
      </trkpt>
      <trkpt lat="46.57883" lon="4.44663">
        <ele>377.505</ele>
        <time>2022-09-21T10:54:12Z</time>
      </trkpt>
      <trkpt lat="46.57886" lon="4.44673">
        <ele>377.705</ele>
        <time>2022-09-21T10:54:19Z</time>
      </trkpt>
      <trkpt lat="46.57889" lon="4.44686">
        <ele>378.005</ele>
        <time>2022-09-21T10:54:24Z</time>
      </trkpt>
      <trkpt lat="46.5789" lon="4.44696">
        <ele>377.505</ele>
        <time>2022-09-21T10:54:30Z</time>
      </trkpt>
      <trkpt lat="46.57893" lon="4.44705">
        <ele>377.505</ele>
        <time>2022-09-21T10:54:36Z</time>
      </trkpt>
      <trkpt lat="46.57896" lon="4.44715">
        <ele>377.105</ele>
        <time>2022-09-21T10:54:43Z</time>
      </trkpt>
      <trkpt lat="46.57899" lon="4.44725">
        <ele>375.405</ele>
        <time>2022-09-21T10:54:50Z</time>
      </trkpt>
      <trkpt lat="46.57902" lon="4.44735">
        <ele>376.205</ele>
        <time>2022-09-21T10:54:55Z</time>
      </trkpt>
      <trkpt lat="46.57904" lon="4.44746">
        <ele>377.806</ele>
        <time>2022-09-21T10:55:00Z</time>
      </trkpt>
      <trkpt lat="46.57906" lon="4.44757">
        <ele>379.806</ele>
        <time>2022-09-21T10:55:07Z</time>
      </trkpt>
      <trkpt lat="46.57909" lon="4.44767">
        <ele>379.906</ele>
        <time>2022-09-21T10:55:12Z</time>
      </trkpt>
      <trkpt lat="46.57911" lon="4.44778">
        <ele>379.306</ele>
        <time>2022-09-21T10:55:17Z</time>
      </trkpt>
      <trkpt lat="46.57912" lon="4.44787">
        <ele>378.406</ele>
        <time>2022-09-21T10:55:23Z</time>
      </trkpt>
      <trkpt lat="46.57914" lon="4.44798">
        <ele>377.006</ele>
        <time>2022-09-21T10:55:29Z</time>
      </trkpt>
      <trkpt lat="46.57917" lon="4.44809">
        <ele>377.506</ele>
        <time>2022-09-21T10:55:35Z</time>
      </trkpt>
      <trkpt lat="46.57918" lon="4.44819">
        <ele>377.106</ele>
        <time>2022-09-21T10:55:40Z</time>
      </trkpt>
      <trkpt lat="46.57921" lon="4.4483">
        <ele>377.706</ele>
        <time>2022-09-21T10:55:45Z</time>
      </trkpt>
      <trkpt lat="46.57924" lon="4.44842">
        <ele>378.406</ele>
        <time>2022-09-21T10:55:51Z</time>
      </trkpt>
      <trkpt lat="46.57927" lon="4.44852">
        <ele>376.806</ele>
        <time>2022-09-21T10:55:56Z</time>
      </trkpt>
      <trkpt lat="46.57931" lon="4.4486">
        <ele>374.706</ele>
        <time>2022-09-21T10:56:03Z</time>
      </trkpt>
      <trkpt lat="46.57933" lon="4.4487">
        <ele>374.606</ele>
        <time>2022-09-21T10:56:08Z</time>
      </trkpt>
      <trkpt lat="46.57936" lon="4.44879">
        <ele>375.506</ele>
        <time>2022-09-21T10:56:13Z</time>
      </trkpt>
      <trkpt lat="46.57938" lon="4.44888">
        <ele>375.706</ele>
        <time>2022-09-21T10:56:19Z</time>
      </trkpt>
      <trkpt lat="46.5794" lon="4.44898">
        <ele>375.406</ele>
        <time>2022-09-21T10:56:25Z</time>
      </trkpt>
      <trkpt lat="46.57941" lon="4.44908">
        <ele>374.306</ele>
        <time>2022-09-21T10:56:31Z</time>
      </trkpt>
      <trkpt lat="46.57943" lon="4.44917">
        <ele>373.906</ele>
        <time>2022-09-21T10:56:36Z</time>
      </trkpt>
      <trkpt lat="46.57945" lon="4.44927">
        <ele>374.206</ele>
        <time>2022-09-21T10:56:41Z</time>
      </trkpt>
      <trkpt lat="46.57949" lon="4.44939">
        <ele>373.706</ele>
        <time>2022-09-21T10:56:47Z</time>
      </trkpt>
      <trkpt lat="46.5795" lon="4.4495">
        <ele>373.506</ele>
        <time>2022-09-21T10:56:52Z</time>
      </trkpt>
      <trkpt lat="46.57946" lon="4.44957">
        <ele>375.506</ele>
        <time>2022-09-21T10:56:58Z</time>
      </trkpt>
      <trkpt lat="46.5794" lon="4.44963">
        <ele>376.506</ele>
        <time>2022-09-21T10:57:03Z</time>
      </trkpt>
      <trkpt lat="46.57934" lon="4.4497">
        <ele>378.306</ele>
        <time>2022-09-21T10:57:08Z</time>
      </trkpt>
      <trkpt lat="46.57928" lon="4.44973">
        <ele>380.606</ele>
        <time>2022-09-21T10:57:13Z</time>
      </trkpt>
      <trkpt lat="46.5793" lon="4.44983">
        <ele>383.106</ele>
        <time>2022-09-21T10:58:23Z</time>
      </trkpt>
      <trkpt lat="46.57927" lon="4.44993">
        <ele>385.006</ele>
        <time>2022-09-21T10:58:29Z</time>
      </trkpt>
      <trkpt lat="46.57927" lon="4.45003">
        <ele>386.506</ele>
        <time>2022-09-21T10:58:35Z</time>
      </trkpt>
      <trkpt lat="46.57929" lon="4.45013">
        <ele>386.406</ele>
        <time>2022-09-21T10:58:41Z</time>
      </trkpt>
      <trkpt lat="46.5793" lon="4.45024">
        <ele>387.406</ele>
        <time>2022-09-21T10:58:48Z</time>
      </trkpt>
      <trkpt lat="46.57932" lon="4.45033">
        <ele>386.606</ele>
        <time>2022-09-21T10:58:53Z</time>
      </trkpt>
      <trkpt lat="46.57933" lon="4.45044">
        <ele>383.906</ele>
        <time>2022-09-21T10:59:01Z</time>
      </trkpt>
      <trkpt lat="46.57931" lon="4.45054">
        <ele>384.306</ele>
        <time>2022-09-21T10:59:08Z</time>
      </trkpt>
      <trkpt lat="46.57931" lon="4.45064">
        <ele>384.606</ele>
        <time>2022-09-21T10:59:15Z</time>
      </trkpt>
      <trkpt lat="46.57931" lon="4.45074">
        <ele>383.506</ele>
        <time>2022-09-21T10:59:20Z</time>
      </trkpt>
      <trkpt lat="46.57935" lon="4.45082">
        <ele>381.306</ele>
        <time>2022-09-21T10:59:27Z</time>
      </trkpt>
      <trkpt lat="46.57941" lon="4.45085">
        <ele>377.706</ele>
        <time>2022-09-21T10:59:40Z</time>
      </trkpt>
      <trkpt lat="46.57938" lon="4.45077">
        <ele>382.106</ele>
        <time>2022-09-21T11:00:35Z</time>
      </trkpt>
      <trkpt lat="46.57933" lon="4.45083">
        <ele>383.606</ele>
        <time>2022-09-21T11:00:50Z</time>
      </trkpt>
      <trkpt lat="46.57939" lon="4.4508">
        <ele>384.206</ele>
        <time>2022-09-21T11:01:02Z</time>
      </trkpt>
      <trkpt lat="46.57935" lon="4.45088">
        <ele>380.306</ele>
        <time>2022-09-21T11:01:35Z</time>
      </trkpt>
      <trkpt lat="46.57937" lon="4.45097">
        <ele>379.806</ele>
        <time>2022-09-21T11:01:41Z</time>
      </trkpt>
      <trkpt lat="46.57939" lon="4.45108">
        <ele>378.906</ele>
        <time>2022-09-21T11:01:50Z</time>
      </trkpt>
      <trkpt lat="46.57944" lon="4.45116">
        <ele>378.906</ele>
        <time>2022-09-21T11:01:57Z</time>
      </trkpt>
      <trkpt lat="46.57943" lon="4.45126">
        <ele>383.306</ele>
        <time>2022-09-21T11:04:29Z</time>
      </trkpt>
      <trkpt lat="46.57945" lon="4.45136">
        <ele>379.106</ele>
        <time>2022-09-21T11:05:46Z</time>
      </trkpt>
      <trkpt lat="46.57947" lon="4.45146">
        <ele>379.106</ele>
        <time>2022-09-21T11:05:52Z</time>
      </trkpt>
      <trkpt lat="46.57947" lon="4.45158">
        <ele>378.206</ele>
        <time>2022-09-21T11:05:57Z</time>
      </trkpt>
      <trkpt lat="46.57947" lon="4.45168">
        <ele>380.206</ele>
        <time>2022-09-21T11:06:35Z</time>
      </trkpt>
      <trkpt lat="46.57949" lon="4.45178">
        <ele>380.506</ele>
        <time>2022-09-21T11:06:40Z</time>
      </trkpt>
      <trkpt lat="46.5795" lon="4.45189">
        <ele>380.206</ele>
        <time>2022-09-21T11:06:46Z</time>
      </trkpt>
      <trkpt lat="46.57951" lon="4.45198">
        <ele>378.506</ele>
        <time>2022-09-21T11:06:52Z</time>
      </trkpt>
      <trkpt lat="46.5795" lon="4.45208">
        <ele>378.106</ele>
        <time>2022-09-21T11:06:59Z</time>
      </trkpt>
      <trkpt lat="46.57949" lon="4.45217">
        <ele>378.806</ele>
        <time>2022-09-21T11:07:05Z</time>
      </trkpt>
      <trkpt lat="46.57949" lon="4.45228">
        <ele>378.806</ele>
        <time>2022-09-21T11:07:13Z</time>
      </trkpt>
      <trkpt lat="46.57951" lon="4.45237">
        <ele>378.306</ele>
        <time>2022-09-21T11:07:20Z</time>
      </trkpt>
      <trkpt lat="46.57952" lon="4.45247">
        <ele>377.806</ele>
        <time>2022-09-21T11:07:26Z</time>
      </trkpt>
      <trkpt lat="46.57951" lon="4.45257">
        <ele>376.706</ele>
        <time>2022-09-21T11:07:33Z</time>
      </trkpt>
      <trkpt lat="46.5795" lon="4.45267">
        <ele>377.006</ele>
        <time>2022-09-21T11:07:39Z</time>
      </trkpt>
      <trkpt lat="46.57948" lon="4.45277">
        <ele>377.906</ele>
        <time>2022-09-21T11:07:46Z</time>
      </trkpt>
      <trkpt lat="46.57949" lon="4.45267">
        <ele>380.106</ele>
        <time>2022-09-21T11:07:58Z</time>
      </trkpt>
      <trkpt lat="46.57948" lon="4.45277">
        <ele>383.806</ele>
        <time>2022-09-21T11:09:28Z</time>
      </trkpt>
      <trkpt lat="46.5795" lon="4.45287">
        <ele>386.006</ele>
        <time>2022-09-21T11:09:33Z</time>
      </trkpt>
      <trkpt lat="46.5795" lon="4.45298">
        <ele>388.106</ele>
        <time>2022-09-21T11:09:39Z</time>
      </trkpt>
      <trkpt lat="46.5795" lon="4.45309">
        <ele>389.206</ele>
        <time>2022-09-21T11:09:45Z</time>
      </trkpt>
      <trkpt lat="46.57951" lon="4.45319">
        <ele>389.906</ele>
        <time>2022-09-21T11:09:51Z</time>
      </trkpt>
      <trkpt lat="46.57951" lon="4.45329">
        <ele>389.806</ele>
        <time>2022-09-21T11:09:57Z</time>
      </trkpt>
      <trkpt lat="46.57952" lon="4.45338">
        <ele>389.306</ele>
        <time>2022-09-21T11:10:04Z</time>
      </trkpt>
      <trkpt lat="46.57951" lon="4.45349">
        <ele>388.506</ele>
        <time>2022-09-21T11:10:09Z</time>
      </trkpt>
      <trkpt lat="46.5795" lon="4.45361">
        <ele>387.006</ele>
        <time>2022-09-21T11:10:15Z</time>
      </trkpt>
      <trkpt lat="46.5795" lon="4.45371">
        <ele>385.906</ele>
        <time>2022-09-21T11:10:20Z</time>
      </trkpt>
      <trkpt lat="46.57951" lon="4.45381">
        <ele>385.606</ele>
        <time>2022-09-21T11:10:25Z</time>
      </trkpt>
      <trkpt lat="46.5795" lon="4.45391">
        <ele>384.706</ele>
        <time>2022-09-21T11:10:31Z</time>
      </trkpt>
      <trkpt lat="46.5795" lon="4.45402">
        <ele>385.006</ele>
        <time>2022-09-21T11:10:38Z</time>
      </trkpt>
      <trkpt lat="46.57951" lon="4.45413">
        <ele>385.006</ele>
        <time>2022-09-21T11:10:44Z</time>
      </trkpt>
      <trkpt lat="46.57951" lon="4.45423">
        <ele>384.506</ele>
        <time>2022-09-21T11:10:50Z</time>
      </trkpt>
      <trkpt lat="46.5795" lon="4.45433">
        <ele>384.606</ele>
        <time>2022-09-21T11:10:55Z</time>
      </trkpt>
      <trkpt lat="46.5795" lon="4.45444">
        <ele>384.406</ele>
        <time>2022-09-21T11:11:02Z</time>
      </trkpt>
      <trkpt lat="46.5795" lon="4.45454">
        <ele>383.606</ele>
        <time>2022-09-21T11:11:07Z</time>
      </trkpt>
      <trkpt lat="46.5795" lon="4.45464">
        <ele>383.206</ele>
        <time>2022-09-21T11:11:12Z</time>
      </trkpt>
      <trkpt lat="46.57949" lon="4.45475">
        <ele>383.606</ele>
        <time>2022-09-21T11:11:18Z</time>
      </trkpt>
      <trkpt lat="46.5795" lon="4.45485">
        <ele>384.306</ele>
        <time>2022-09-21T11:11:24Z</time>
      </trkpt>
      <trkpt lat="46.5795" lon="4.45495">
        <ele>383.506</ele>
        <time>2022-09-21T11:11:30Z</time>
      </trkpt>
      <trkpt lat="46.57949" lon="4.45505">
        <ele>383.106</ele>
        <time>2022-09-21T11:11:35Z</time>
      </trkpt>
      <trkpt lat="46.5795" lon="4.45515">
        <ele>383.906</ele>
        <time>2022-09-21T11:11:40Z</time>
      </trkpt>
      <trkpt lat="46.57951" lon="4.45524">
        <ele>384.006</ele>
        <time>2022-09-21T11:11:47Z</time>
      </trkpt>
      <trkpt lat="46.5795" lon="4.45535">
        <ele>385.006</ele>
        <time>2022-09-21T11:11:53Z</time>
      </trkpt>
      <trkpt lat="46.57949" lon="4.45547">
        <ele>384.706</ele>
        <time>2022-09-21T11:11:59Z</time>
      </trkpt>
      <trkpt lat="46.5795" lon="4.45556">
        <ele>385.706</ele>
        <time>2022-09-21T11:12:05Z</time>
      </trkpt>
      <trkpt lat="46.57951" lon="4.45567">
        <ele>386.406</ele>
        <time>2022-09-21T11:12:11Z</time>
      </trkpt>
      <trkpt lat="46.5795" lon="4.45577">
        <ele>386.606</ele>
        <time>2022-09-21T11:12:17Z</time>
      </trkpt>
      <trkpt lat="46.57949" lon="4.45588">
        <ele>386.206</ele>
        <time>2022-09-21T11:12:23Z</time>
      </trkpt>
      <trkpt lat="46.57946" lon="4.45602">
        <ele>387.106</ele>
        <time>2022-09-21T11:12:28Z</time>
      </trkpt>
      <trkpt lat="46.57947" lon="4.45612">
        <ele>388.206</ele>
        <time>2022-09-21T11:12:35Z</time>
      </trkpt>
      <trkpt lat="46.57946" lon="4.45624">
        <ele>389.006</ele>
        <time>2022-09-21T11:12:40Z</time>
      </trkpt>
      <trkpt lat="46.57947" lon="4.45634">
        <ele>388.706</ele>
        <time>2022-09-21T11:12:47Z</time>
      </trkpt>
      <trkpt lat="46.57948" lon="4.45645">
        <ele>390.606</ele>
        <time>2022-09-21T11:12:53Z</time>
      </trkpt>
      <trkpt lat="46.57946" lon="4.45661">
        <ele>390.306</ele>
        <time>2022-09-21T11:12:59Z</time>
      </trkpt>
      <trkpt lat="46.57946" lon="4.45672">
        <ele>389.306</ele>
        <time>2022-09-21T11:13:05Z</time>
      </trkpt>
      <trkpt lat="46.57947" lon="4.45682">
        <ele>388.306</ele>
        <time>2022-09-21T11:13:11Z</time>
      </trkpt>
      <trkpt lat="46.57946" lon="4.45692">
        <ele>389.106</ele>
        <time>2022-09-21T11:13:16Z</time>
      </trkpt>
      <trkpt lat="46.57947" lon="4.45702">
        <ele>391.106</ele>
        <time>2022-09-21T11:13:21Z</time>
      </trkpt>
      <trkpt lat="46.57948" lon="4.45711">
        <ele>391.506</ele>
        <time>2022-09-21T11:13:27Z</time>
      </trkpt>
      <trkpt lat="46.5795" lon="4.45722">
        <ele>391.806</ele>
        <time>2022-09-21T11:13:32Z</time>
      </trkpt>
      <trkpt lat="46.5795" lon="4.45731">
        <ele>389.806</ele>
        <time>2022-09-21T11:13:37Z</time>
      </trkpt>
      <trkpt lat="46.57951" lon="4.45743">
        <ele>389.906</ele>
        <time>2022-09-21T11:13:43Z</time>
      </trkpt>
      <trkpt lat="46.57953" lon="4.45754">
        <ele>387.906</ele>
        <time>2022-09-21T11:13:50Z</time>
      </trkpt>
      <trkpt lat="46.57954" lon="4.45764">
        <ele>387.106</ele>
        <time>2022-09-21T11:13:55Z</time>
      </trkpt>
      <trkpt lat="46.57955" lon="4.45775">
        <ele>385.806</ele>
        <time>2022-09-21T11:14:02Z</time>
      </trkpt>
      <trkpt lat="46.57954" lon="4.45785">
        <ele>384.606</ele>
        <time>2022-09-21T11:14:07Z</time>
      </trkpt>
      <trkpt lat="46.57949" lon="4.4579">
        <ele>382.206</ele>
        <time>2022-09-21T11:14:43Z</time>
      </trkpt>
      <trkpt lat="46.57942" lon="4.45793">
        <ele>382.706</ele>
        <time>2022-09-21T11:14:49Z</time>
      </trkpt>
      <trkpt lat="46.57933" lon="4.45797">
        <ele>383.806</ele>
        <time>2022-09-21T11:14:55Z</time>
      </trkpt>
      <trkpt lat="46.57926" lon="4.45799">
        <ele>384.506</ele>
        <time>2022-09-21T11:15:01Z</time>
      </trkpt>
      <trkpt lat="46.57918" lon="4.458">
        <ele>385.106</ele>
        <time>2022-09-21T11:15:07Z</time>
      </trkpt>
      <trkpt lat="46.57911" lon="4.45801">
        <ele>385.606</ele>
        <time>2022-09-21T11:15:13Z</time>
      </trkpt>
      <trkpt lat="46.57904" lon="4.45804">
        <ele>386.206</ele>
        <time>2022-09-21T11:15:25Z</time>
      </trkpt>
      <trkpt lat="46.579" lon="4.45813">
        <ele>385.706</ele>
        <time>2022-09-21T11:15:37Z</time>
      </trkpt>
      <trkpt lat="46.57891" lon="4.45814">
        <ele>386.706</ele>
        <time>2022-09-21T11:15:43Z</time>
      </trkpt>
      <trkpt lat="46.57884" lon="4.45815">
        <ele>387.306</ele>
        <time>2022-09-21T11:15:52Z</time>
      </trkpt>
      <trkpt lat="46.57877" lon="4.45814">
        <ele>388.606</ele>
        <time>2022-09-21T11:15:58Z</time>
      </trkpt>
      <trkpt lat="46.5787" lon="4.45813">
        <ele>389.406</ele>
        <time>2022-09-21T11:16:03Z</time>
      </trkpt>
      <trkpt lat="46.57863" lon="4.45811">
        <ele>388.306</ele>
        <time>2022-09-21T11:16:10Z</time>
      </trkpt>
      <trkpt lat="46.57857" lon="4.45807">
        <ele>385.906</ele>
        <time>2022-09-21T11:16:16Z</time>
      </trkpt>
      <trkpt lat="46.5785" lon="4.45806">
        <ele>385.006</ele>
        <time>2022-09-21T11:16:24Z</time>
      </trkpt>
      <trkpt lat="46.57843" lon="4.45811">
        <ele>386.306</ele>
        <time>2022-09-21T11:16:33Z</time>
      </trkpt>
      <trkpt lat="46.57839" lon="4.45819">
        <ele>386.306</ele>
        <time>2022-09-21T11:16:40Z</time>
      </trkpt>
      <trkpt lat="46.57836" lon="4.45828">
        <ele>386.006</ele>
        <time>2022-09-21T11:16:50Z</time>
      </trkpt>
      <trkpt lat="46.57836" lon="4.45837">
        <ele>384.006</ele>
        <time>2022-09-21T11:16:55Z</time>
      </trkpt>
      <trkpt lat="46.57837" lon="4.45847">
        <ele>381.406</ele>
        <time>2022-09-21T11:17:08Z</time>
      </trkpt>
      <trkpt lat="46.57838" lon="4.4586">
        <ele>381.906</ele>
        <time>2022-09-21T11:17:13Z</time>
      </trkpt>
      <trkpt lat="46.5784" lon="4.45871">
        <ele>381.806</ele>
        <time>2022-09-21T11:17:19Z</time>
      </trkpt>
      <trkpt lat="46.57841" lon="4.45884">
        <ele>382.906</ele>
        <time>2022-09-21T11:17:24Z</time>
      </trkpt>
      <trkpt lat="46.57846" lon="4.45892">
        <ele>381.306</ele>
        <time>2022-09-21T11:17:30Z</time>
      </trkpt>
      <trkpt lat="46.57851" lon="4.459">
        <ele>378.206</ele>
        <time>2022-09-21T11:17:37Z</time>
      </trkpt>
      <trkpt lat="46.57852" lon="4.45913">
        <ele>377.806</ele>
        <time>2022-09-21T11:17:43Z</time>
      </trkpt>
      <trkpt lat="46.57854" lon="4.45923">
        <ele>377.806</ele>
        <time>2022-09-21T11:17:48Z</time>
      </trkpt>
      <trkpt lat="46.57858" lon="4.45933">
        <ele>379.306</ele>
        <time>2022-09-21T11:17:54Z</time>
      </trkpt>
      <trkpt lat="46.57861" lon="4.45942">
        <ele>379.806</ele>
        <time>2022-09-21T11:17:59Z</time>
      </trkpt>
      <trkpt lat="46.57865" lon="4.4595">
        <ele>378.306</ele>
        <time>2022-09-21T11:18:05Z</time>
      </trkpt>
      <trkpt lat="46.57864" lon="4.45962">
        <ele>376.506</ele>
        <time>2022-09-21T11:18:14Z</time>
      </trkpt>
      <trkpt lat="46.57863" lon="4.45971">
        <ele>377.806</ele>
        <time>2022-09-21T11:18:21Z</time>
      </trkpt>
      <trkpt lat="46.57862" lon="4.45981">
        <ele>378.906</ele>
        <time>2022-09-21T11:18:29Z</time>
      </trkpt>
      <trkpt lat="46.57861" lon="4.45991">
        <ele>379.406</ele>
        <time>2022-09-21T11:18:36Z</time>
      </trkpt>
      <trkpt lat="46.57859" lon="4.46003">
        <ele>385.106</ele>
        <time>2022-09-21T11:20:15Z</time>
      </trkpt>
      <trkpt lat="46.57861" lon="4.46012">
        <ele>385.806</ele>
        <time>2022-09-21T11:20:22Z</time>
      </trkpt>
      <trkpt lat="46.57863" lon="4.46022">
        <ele>385.206</ele>
        <time>2022-09-21T11:20:29Z</time>
      </trkpt>
      <trkpt lat="46.57865" lon="4.46032">
        <ele>383.406</ele>
        <time>2022-09-21T11:20:37Z</time>
      </trkpt>
      <trkpt lat="46.57866" lon="4.46043">
        <ele>380.606</ele>
        <time>2022-09-21T11:20:44Z</time>
      </trkpt>
      <trkpt lat="46.57866" lon="4.46053">
        <ele>380.506</ele>
        <time>2022-09-21T11:20:50Z</time>
      </trkpt>
      <trkpt lat="46.57866" lon="4.46063">
        <ele>378.506</ele>
        <time>2022-09-21T11:20:57Z</time>
      </trkpt>
      <trkpt lat="46.57868" lon="4.46074">
        <ele>378.506</ele>
        <time>2022-09-21T11:21:05Z</time>
      </trkpt>
      <trkpt lat="46.5787" lon="4.46084">
        <ele>377.406</ele>
        <time>2022-09-21T11:21:11Z</time>
      </trkpt>
      <trkpt lat="46.57871" lon="4.46094">
        <ele>377.906</ele>
        <time>2022-09-21T11:21:17Z</time>
      </trkpt>
      <trkpt lat="46.57871" lon="4.46105">
        <ele>378.006</ele>
        <time>2022-09-21T11:21:23Z</time>
      </trkpt>
      <trkpt lat="46.57872" lon="4.46115">
        <ele>378.606</ele>
        <time>2022-09-21T11:21:29Z</time>
      </trkpt>
      <trkpt lat="46.57875" lon="4.46124">
        <ele>379.406</ele>
        <time>2022-09-21T11:21:36Z</time>
      </trkpt>
      <trkpt lat="46.57876" lon="4.46134">
        <ele>378.306</ele>
        <time>2022-09-21T11:21:43Z</time>
      </trkpt>
      <trkpt lat="46.57877" lon="4.46145">
        <ele>378.006</ele>
        <time>2022-09-21T11:21:49Z</time>
      </trkpt>
      <trkpt lat="46.57878" lon="4.46156">
        <ele>379.906</ele>
        <time>2022-09-21T11:21:55Z</time>
      </trkpt>
      <trkpt lat="46.57879" lon="4.46165">
        <ele>379.706</ele>
        <time>2022-09-21T11:22:01Z</time>
      </trkpt>
      <trkpt lat="46.5788" lon="4.46175">
        <ele>378.406</ele>
        <time>2022-09-21T11:22:07Z</time>
      </trkpt>
      <trkpt lat="46.5788" lon="4.46185">
        <ele>378.006</ele>
        <time>2022-09-21T11:22:12Z</time>
      </trkpt>
      <trkpt lat="46.5788" lon="4.46195">
        <ele>379.606</ele>
        <time>2022-09-21T11:22:18Z</time>
      </trkpt>
      <trkpt lat="46.57878" lon="4.46205">
        <ele>379.706</ele>
        <time>2022-09-21T11:22:24Z</time>
      </trkpt>
      <trkpt lat="46.57874" lon="4.46214">
        <ele>381.906</ele>
        <time>2022-09-21T11:22:31Z</time>
      </trkpt>
      <trkpt lat="46.57868" lon="4.46218">
        <ele>382.106</ele>
        <time>2022-09-21T11:22:36Z</time>
      </trkpt>
      <trkpt lat="46.57862" lon="4.46223">
        <ele>382.206</ele>
        <time>2022-09-21T11:22:42Z</time>
      </trkpt>
      <trkpt lat="46.57856" lon="4.4623">
        <ele>381.606</ele>
        <time>2022-09-21T11:22:48Z</time>
      </trkpt>
      <trkpt lat="46.57851" lon="4.46238">
        <ele>381.706</ele>
        <time>2022-09-21T11:22:55Z</time>
      </trkpt>
      <trkpt lat="46.57847" lon="4.46246">
        <ele>382.506</ele>
        <time>2022-09-21T11:23:01Z</time>
      </trkpt>
      <trkpt lat="46.57844" lon="4.46255">
        <ele>382.306</ele>
        <time>2022-09-21T11:23:07Z</time>
      </trkpt>
      <trkpt lat="46.57841" lon="4.46263">
        <ele>383.006</ele>
        <time>2022-09-21T11:23:14Z</time>
      </trkpt>
      <trkpt lat="46.57838" lon="4.46273">
        <ele>383.106</ele>
        <time>2022-09-21T11:23:20Z</time>
      </trkpt>
      <trkpt lat="46.57836" lon="4.46283">
        <ele>381.506</ele>
        <time>2022-09-21T11:23:27Z</time>
      </trkpt>
      <trkpt lat="46.57834" lon="4.46292">
        <ele>381.206</ele>
        <time>2022-09-21T11:23:32Z</time>
      </trkpt>
      <trkpt lat="46.57832" lon="4.46302">
        <ele>382.606</ele>
        <time>2022-09-21T11:23:38Z</time>
      </trkpt>
      <trkpt lat="46.57831" lon="4.46311">
        <ele>381.406</ele>
        <time>2022-09-21T11:23:44Z</time>
      </trkpt>
      <trkpt lat="46.57829" lon="4.4632">
        <ele>381.406</ele>
        <time>2022-09-21T11:23:50Z</time>
      </trkpt>
      <trkpt lat="46.57825" lon="4.46328">
        <ele>381.506</ele>
        <time>2022-09-21T11:23:56Z</time>
      </trkpt>
      <trkpt lat="46.57821" lon="4.46337">
        <ele>381.706</ele>
        <time>2022-09-21T11:24:04Z</time>
      </trkpt>
      <trkpt lat="46.57817" lon="4.46344">
        <ele>382.006</ele>
        <time>2022-09-21T11:24:10Z</time>
      </trkpt>
      <trkpt lat="46.57812" lon="4.46353">
        <ele>382.906</ele>
        <time>2022-09-21T11:24:16Z</time>
      </trkpt>
      <trkpt lat="46.57807" lon="4.4636">
        <ele>384.006</ele>
        <time>2022-09-21T11:24:23Z</time>
      </trkpt>
      <trkpt lat="46.57803" lon="4.4637">
        <ele>384.006</ele>
        <time>2022-09-21T11:24:29Z</time>
      </trkpt>
      <trkpt lat="46.578" lon="4.46381">
        <ele>385.206</ele>
        <time>2022-09-21T11:24:35Z</time>
      </trkpt>
      <trkpt lat="46.57795" lon="4.46388">
        <ele>385.006</ele>
        <time>2022-09-21T11:24:42Z</time>
      </trkpt>
      <trkpt lat="46.5779" lon="4.46393">
        <ele>384.106</ele>
        <time>2022-09-21T11:25:05Z</time>
      </trkpt>
      <trkpt lat="46.57783" lon="4.46397">
        <ele>387.906</ele>
        <time>2022-09-21T11:25:12Z</time>
      </trkpt>
      <trkpt lat="46.57776" lon="4.464">
        <ele>388.406</ele>
        <time>2022-09-21T11:25:18Z</time>
      </trkpt>
      <trkpt lat="46.5777" lon="4.46403">
        <ele>387.006</ele>
        <time>2022-09-21T11:25:25Z</time>
      </trkpt>
      <trkpt lat="46.57762" lon="4.46405">
        <ele>386.106</ele>
        <time>2022-09-21T11:25:31Z</time>
      </trkpt>
      <trkpt lat="46.57755" lon="4.46408">
        <ele>385.906</ele>
        <time>2022-09-21T11:25:36Z</time>
      </trkpt>
      <trkpt lat="46.57748" lon="4.4641">
        <ele>385.406</ele>
        <time>2022-09-21T11:25:42Z</time>
      </trkpt>
      <trkpt lat="46.57741" lon="4.46414">
        <ele>386.306</ele>
        <time>2022-09-21T11:25:49Z</time>
      </trkpt>
      <trkpt lat="46.57735" lon="4.46418">
        <ele>390.906</ele>
        <time>2022-09-21T11:25:58Z</time>
      </trkpt>
      <trkpt lat="46.57729" lon="4.46423">
        <ele>392.706</ele>
        <time>2022-09-21T11:26:23Z</time>
      </trkpt>
      <trkpt lat="46.57723" lon="4.46429">
        <ele>390.506</ele>
        <time>2022-09-21T11:26:31Z</time>
      </trkpt>
      <trkpt lat="46.57718" lon="4.46435">
        <ele>388.806</ele>
        <time>2022-09-21T11:26:40Z</time>
      </trkpt>
      <trkpt lat="46.57712" lon="4.46438">
        <ele>390.006</ele>
        <time>2022-09-21T11:26:56Z</time>
      </trkpt>
      <trkpt lat="46.57706" lon="4.46442">
        <ele>389.006</ele>
        <time>2022-09-21T11:27:07Z</time>
      </trkpt>
      <trkpt lat="46.57706" lon="4.46452">
        <ele>388.806</ele>
        <time>2022-09-21T11:27:18Z</time>
      </trkpt>
      <trkpt lat="46.57703" lon="4.46461">
        <ele>389.306</ele>
        <time>2022-09-21T11:27:34Z</time>
      </trkpt>
      <trkpt lat="46.577" lon="4.4647">
        <ele>386.506</ele>
        <time>2022-09-21T11:27:54Z</time>
      </trkpt>
      <trkpt lat="46.57697" lon="4.46478">
        <ele>386.406</ele>
        <time>2022-09-21T11:28:03Z</time>
      </trkpt>
      <trkpt lat="46.57693" lon="4.46487">
        <ele>384.206</ele>
        <time>2022-09-21T11:28:16Z</time>
      </trkpt>
      <trkpt lat="46.5769" lon="4.46497">
        <ele>385.206</ele>
        <time>2022-09-21T11:28:22Z</time>
      </trkpt>
      <trkpt lat="46.57686" lon="4.46506">
        <ele>386.206</ele>
        <time>2022-09-21T11:28:28Z</time>
      </trkpt>
      <trkpt lat="46.57681" lon="4.46514">
        <ele>387.106</ele>
        <time>2022-09-21T11:28:34Z</time>
      </trkpt>
      <trkpt lat="46.57677" lon="4.46523">
        <ele>387.106</ele>
        <time>2022-09-21T11:28:40Z</time>
      </trkpt>
      <trkpt lat="46.57673" lon="4.46532">
        <ele>385.806</ele>
        <time>2022-09-21T11:28:47Z</time>
      </trkpt>
      <trkpt lat="46.57669" lon="4.46541">
        <ele>385.906</ele>
        <time>2022-09-21T11:28:53Z</time>
      </trkpt>
      <trkpt lat="46.57665" lon="4.46548">
        <ele>386.506</ele>
        <time>2022-09-21T11:28:59Z</time>
      </trkpt>
      <trkpt lat="46.5766" lon="4.46555">
        <ele>385.906</ele>
        <time>2022-09-21T11:29:05Z</time>
      </trkpt>
      <trkpt lat="46.57655" lon="4.46563">
        <ele>386.106</ele>
        <time>2022-09-21T11:29:11Z</time>
      </trkpt>
      <trkpt lat="46.57649" lon="4.46569">
        <ele>388.506</ele>
        <time>2022-09-21T11:29:18Z</time>
      </trkpt>
      <trkpt lat="46.57644" lon="4.46575">
        <ele>388.406</ele>
        <time>2022-09-21T11:29:24Z</time>
      </trkpt>
      <trkpt lat="46.57638" lon="4.46581">
        <ele>388.006</ele>
        <time>2022-09-21T11:29:30Z</time>
      </trkpt>
      <trkpt lat="46.57633" lon="4.46587">
        <ele>388.306</ele>
        <time>2022-09-21T11:29:36Z</time>
      </trkpt>
      <trkpt lat="46.57627" lon="4.46593">
        <ele>389.706</ele>
        <time>2022-09-21T11:30:22Z</time>
      </trkpt>
      <trkpt lat="46.57622" lon="4.46599">
        <ele>388.706</ele>
        <time>2022-09-21T11:31:09Z</time>
      </trkpt>
      <trkpt lat="46.57618" lon="4.46607">
        <ele>388.706</ele>
        <time>2022-09-21T11:31:15Z</time>
      </trkpt>
      <trkpt lat="46.57613" lon="4.46615">
        <ele>388.706</ele>
        <time>2022-09-21T11:31:20Z</time>
      </trkpt>
      <trkpt lat="46.57608" lon="4.46624">
        <ele>388.406</ele>
        <time>2022-09-21T11:31:26Z</time>
      </trkpt>
      <trkpt lat="46.57603" lon="4.46633">
        <ele>387.506</ele>
        <time>2022-09-21T11:31:31Z</time>
      </trkpt>
      <trkpt lat="46.57601" lon="4.46641">
        <ele>390.406</ele>
        <time>2022-09-21T11:31:38Z</time>
      </trkpt>
      <trkpt lat="46.57597" lon="4.46651">
        <ele>390.706</ele>
        <time>2022-09-21T11:31:43Z</time>
      </trkpt>
      <trkpt lat="46.57593" lon="4.4666">
        <ele>389.906</ele>
        <time>2022-09-21T11:31:50Z</time>
      </trkpt>
      <trkpt lat="46.57588" lon="4.46668">
        <ele>389.306</ele>
        <time>2022-09-21T11:31:55Z</time>
      </trkpt>
      <trkpt lat="46.57584" lon="4.46675">
        <ele>389.706</ele>
        <time>2022-09-21T11:32:00Z</time>
      </trkpt>
      <trkpt lat="46.5758" lon="4.46685">
        <ele>390.206</ele>
        <time>2022-09-21T11:32:05Z</time>
      </trkpt>
      <trkpt lat="46.57574" lon="4.46694">
        <ele>389.106</ele>
        <time>2022-09-21T11:32:11Z</time>
      </trkpt>
      <trkpt lat="46.57569" lon="4.46703">
        <ele>389.406</ele>
        <time>2022-09-21T11:32:18Z</time>
      </trkpt>
      <trkpt lat="46.57564" lon="4.46711">
        <ele>389.006</ele>
        <time>2022-09-21T11:32:23Z</time>
      </trkpt>
      <trkpt lat="46.57559" lon="4.46719">
        <ele>388.606</ele>
        <time>2022-09-21T11:32:29Z</time>
      </trkpt>
      <trkpt lat="46.57553" lon="4.46727">
        <ele>389.806</ele>
        <time>2022-09-21T11:32:35Z</time>
      </trkpt>
      <trkpt lat="46.57547" lon="4.46733">
        <ele>390.506</ele>
        <time>2022-09-21T11:32:41Z</time>
      </trkpt>
      <trkpt lat="46.57539" lon="4.46739">
        <ele>389.606</ele>
        <time>2022-09-21T11:32:47Z</time>
      </trkpt>
      <trkpt lat="46.57533" lon="4.46744">
        <ele>388.106</ele>
        <time>2022-09-21T11:33:47Z</time>
      </trkpt>
      <trkpt lat="46.57526" lon="4.46749">
        <ele>390.506</ele>
        <time>2022-09-21T11:33:55Z</time>
      </trkpt>
      <trkpt lat="46.5752" lon="4.46755">
        <ele>388.406</ele>
        <time>2022-09-21T11:34:02Z</time>
      </trkpt>
      <trkpt lat="46.57514" lon="4.4676">
        <ele>388.006</ele>
        <time>2022-09-21T11:34:08Z</time>
      </trkpt>
      <trkpt lat="46.57508" lon="4.46764">
        <ele>388.506</ele>
        <time>2022-09-21T11:34:13Z</time>
      </trkpt>
      <trkpt lat="46.57502" lon="4.46769">
        <ele>387.406</ele>
        <time>2022-09-21T11:34:19Z</time>
      </trkpt>
      <trkpt lat="46.57495" lon="4.46773">
        <ele>388.106</ele>
        <time>2022-09-21T11:34:25Z</time>
      </trkpt>
      <trkpt lat="46.57488" lon="4.46777">
        <ele>388.806</ele>
        <time>2022-09-21T11:34:32Z</time>
      </trkpt>
      <trkpt lat="46.57482" lon="4.46784">
        <ele>388.506</ele>
        <time>2022-09-21T11:34:39Z</time>
      </trkpt>
      <trkpt lat="46.57477" lon="4.4679">
        <ele>389.206</ele>
        <time>2022-09-21T11:34:45Z</time>
      </trkpt>
      <trkpt lat="46.5747" lon="4.46794">
        <ele>389.806</ele>
        <time>2022-09-21T11:34:51Z</time>
      </trkpt>
      <trkpt lat="46.57465" lon="4.468">
        <ele>388.606</ele>
        <time>2022-09-21T11:34:57Z</time>
      </trkpt>
      <trkpt lat="46.57459" lon="4.46809">
        <ele>389.306</ele>
        <time>2022-09-21T11:35:03Z</time>
      </trkpt>
      <trkpt lat="46.57453" lon="4.46816">
        <ele>388.906</ele>
        <time>2022-09-21T11:35:08Z</time>
      </trkpt>
      <trkpt lat="46.57449" lon="4.46823">
        <ele>391.006</ele>
        <time>2022-09-21T11:35:14Z</time>
      </trkpt>
      <trkpt lat="46.57442" lon="4.46828">
        <ele>390.906</ele>
        <time>2022-09-21T11:35:20Z</time>
      </trkpt>
      <trkpt lat="46.57436" lon="4.46836">
        <ele>389.306</ele>
        <time>2022-09-21T11:35:26Z</time>
      </trkpt>
      <trkpt lat="46.5743" lon="4.46841">
        <ele>388.006</ele>
        <time>2022-09-21T11:35:32Z</time>
      </trkpt>
      <trkpt lat="46.57424" lon="4.46847">
        <ele>389.106</ele>
        <time>2022-09-21T11:35:37Z</time>
      </trkpt>
      <trkpt lat="46.57417" lon="4.46852">
        <ele>390.306</ele>
        <time>2022-09-21T11:35:43Z</time>
      </trkpt>
      <trkpt lat="46.57411" lon="4.46858">
        <ele>390.706</ele>
        <time>2022-09-21T11:35:48Z</time>
      </trkpt>
      <trkpt lat="46.57405" lon="4.46863">
        <ele>391.606</ele>
        <time>2022-09-21T11:35:54Z</time>
      </trkpt>
      <trkpt lat="46.57399" lon="4.46868">
        <ele>391.406</ele>
        <time>2022-09-21T11:35:59Z</time>
      </trkpt>
      <trkpt lat="46.57392" lon="4.46874">
        <ele>392.806</ele>
        <time>2022-09-21T11:36:06Z</time>
      </trkpt>
      <trkpt lat="46.57387" lon="4.46882">
        <ele>392.106</ele>
        <time>2022-09-21T11:36:11Z</time>
      </trkpt>
      <trkpt lat="46.57382" lon="4.4689">
        <ele>389.006</ele>
        <time>2022-09-21T11:36:17Z</time>
      </trkpt>
      <trkpt lat="46.57375" lon="4.46898">
        <ele>388.106</ele>
        <time>2022-09-21T11:36:23Z</time>
      </trkpt>
      <trkpt lat="46.57369" lon="4.46905">
        <ele>387.406</ele>
        <time>2022-09-21T11:36:29Z</time>
      </trkpt>
      <trkpt lat="46.57364" lon="4.46913">
        <ele>388.806</ele>
        <time>2022-09-21T11:36:36Z</time>
      </trkpt>
      <trkpt lat="46.5736" lon="4.46926">
        <ele>389.906</ele>
        <time>2022-09-21T11:36:42Z</time>
      </trkpt>
      <trkpt lat="46.57358" lon="4.46936">
        <ele>392.106</ele>
        <time>2022-09-21T11:36:50Z</time>
      </trkpt>
      <trkpt lat="46.57355" lon="4.46945">
        <ele>390.606</ele>
        <time>2022-09-21T11:36:56Z</time>
      </trkpt>
      <trkpt lat="46.57351" lon="4.46956">
        <ele>390.406</ele>
        <time>2022-09-21T11:37:01Z</time>
      </trkpt>
      <trkpt lat="46.57349" lon="4.46966">
        <ele>390.206</ele>
        <time>2022-09-21T11:37:07Z</time>
      </trkpt>
      <trkpt lat="46.57347" lon="4.46975">
        <ele>388.806</ele>
        <time>2022-09-21T11:37:14Z</time>
      </trkpt>
      <trkpt lat="46.57347" lon="4.46985">
        <ele>387.306</ele>
        <time>2022-09-21T11:37:20Z</time>
      </trkpt>
      <trkpt lat="46.57348" lon="4.46995">
        <ele>386.406</ele>
        <time>2022-09-21T11:37:25Z</time>
      </trkpt>
      <trkpt lat="46.5735" lon="4.47005">
        <ele>385.206</ele>
        <time>2022-09-21T11:37:32Z</time>
      </trkpt>
      <trkpt lat="46.57351" lon="4.47014">
        <ele>381.406</ele>
        <time>2022-09-21T11:37:38Z</time>
      </trkpt>
      <trkpt lat="46.57347" lon="4.47028">
        <ele>381.506</ele>
        <time>2022-09-21T11:37:44Z</time>
      </trkpt>
      <trkpt lat="46.57344" lon="4.47039">
        <ele>379.706</ele>
        <time>2022-09-21T11:37:50Z</time>
      </trkpt>
      <trkpt lat="46.57341" lon="4.47048">
        <ele>382.006</ele>
        <time>2022-09-21T11:37:55Z</time>
      </trkpt>
      <trkpt lat="46.57338" lon="4.47059">
        <ele>386.006</ele>
        <time>2022-09-21T11:38:01Z</time>
      </trkpt>
      <trkpt lat="46.57336" lon="4.4707">
        <ele>386.506</ele>
        <time>2022-09-21T11:38:07Z</time>
      </trkpt>
      <trkpt lat="46.57335" lon="4.47079">
        <ele>386.106</ele>
        <time>2022-09-21T11:38:12Z</time>
      </trkpt>
      <trkpt lat="46.57334" lon="4.4709">
        <ele>383.206</ele>
        <time>2022-09-21T11:38:18Z</time>
      </trkpt>
      <trkpt lat="46.57334" lon="4.471">
        <ele>380.606</ele>
        <time>2022-09-21T11:38:25Z</time>
      </trkpt>
      <trkpt lat="46.57334" lon="4.4711">
        <ele>379.006</ele>
        <time>2022-09-21T11:38:30Z</time>
      </trkpt>
      <trkpt lat="46.57333" lon="4.47121">
        <ele>378.706</ele>
        <time>2022-09-21T11:38:35Z</time>
      </trkpt>
      <trkpt lat="46.57332" lon="4.47132">
        <ele>378.406</ele>
        <time>2022-09-21T11:38:41Z</time>
      </trkpt>
      <trkpt lat="46.57331" lon="4.47141">
        <ele>376.906</ele>
        <time>2022-09-21T11:38:46Z</time>
      </trkpt>
      <trkpt lat="46.57328" lon="4.47152">
        <ele>376.306</ele>
        <time>2022-09-21T11:38:52Z</time>
      </trkpt>
      <trkpt lat="46.57324" lon="4.47162">
        <ele>377.006</ele>
        <time>2022-09-21T11:38:58Z</time>
      </trkpt>
      <trkpt lat="46.57321" lon="4.47172">
        <ele>377.406</ele>
        <time>2022-09-21T11:39:04Z</time>
      </trkpt>
      <trkpt lat="46.57317" lon="4.47183">
        <ele>379.806</ele>
        <time>2022-09-21T11:39:10Z</time>
      </trkpt>
      <trkpt lat="46.57314" lon="4.47193">
        <ele>380.206</ele>
        <time>2022-09-21T11:39:16Z</time>
      </trkpt>
      <trkpt lat="46.5731" lon="4.47207">
        <ele>379.606</ele>
        <time>2022-09-21T11:39:22Z</time>
      </trkpt>
      <trkpt lat="46.57306" lon="4.47216">
        <ele>379.206</ele>
        <time>2022-09-21T11:39:29Z</time>
      </trkpt>
      <trkpt lat="46.57302" lon="4.47224">
        <ele>384.006</ele>
        <time>2022-09-21T11:41:14Z</time>
      </trkpt>
      <trkpt lat="46.57299" lon="4.47233">
        <ele>383.606</ele>
        <time>2022-09-21T11:41:26Z</time>
      </trkpt>
      <trkpt lat="46.57297" lon="4.47242">
        <ele>385.106</ele>
        <time>2022-09-21T11:41:56Z</time>
      </trkpt>
      <trkpt lat="46.57294" lon="4.47252">
        <ele>382.406</ele>
        <time>2022-09-21T11:42:02Z</time>
      </trkpt>
      <trkpt lat="46.57293" lon="4.47262">
        <ele>380.306</ele>
        <time>2022-09-21T11:42:09Z</time>
      </trkpt>
      <trkpt lat="46.57291" lon="4.47271">
        <ele>378.306</ele>
        <time>2022-09-21T11:42:15Z</time>
      </trkpt>
      <trkpt lat="46.57287" lon="4.47281">
        <ele>377.506</ele>
        <time>2022-09-21T11:42:20Z</time>
      </trkpt>
      <trkpt lat="46.57283" lon="4.47293">
        <ele>376.606</ele>
        <time>2022-09-21T11:42:26Z</time>
      </trkpt>
      <trkpt lat="46.57279" lon="4.47303">
        <ele>377.206</ele>
        <time>2022-09-21T11:42:31Z</time>
      </trkpt>
      <trkpt lat="46.57277" lon="4.47314">
        <ele>375.706</ele>
        <time>2022-09-21T11:42:37Z</time>
      </trkpt>
      <trkpt lat="46.57273" lon="4.47323">
        <ele>373.106</ele>
        <time>2022-09-21T11:42:42Z</time>
      </trkpt>
      <trkpt lat="46.57269" lon="4.47331">
        <ele>374.606</ele>
        <time>2022-09-21T11:42:47Z</time>
      </trkpt>
      <trkpt lat="46.57266" lon="4.4734">
        <ele>374.206</ele>
        <time>2022-09-21T11:42:52Z</time>
      </trkpt>
      <trkpt lat="46.57262" lon="4.47351">
        <ele>374.806</ele>
        <time>2022-09-21T11:42:58Z</time>
      </trkpt>
      <trkpt lat="46.57259" lon="4.4736">
        <ele>374.406</ele>
        <time>2022-09-21T11:43:03Z</time>
      </trkpt>
      <trkpt lat="46.57255" lon="4.47369">
        <ele>375.206</ele>
        <time>2022-09-21T11:43:08Z</time>
      </trkpt>
      <trkpt lat="46.57252" lon="4.47381">
        <ele>375.506</ele>
        <time>2022-09-21T11:43:14Z</time>
      </trkpt>
      <trkpt lat="46.57249" lon="4.4739">
        <ele>374.106</ele>
        <time>2022-09-21T11:43:19Z</time>
      </trkpt>
      <trkpt lat="46.57245" lon="4.47398">
        <ele>373.606</ele>
        <time>2022-09-21T11:43:24Z</time>
      </trkpt>
      <trkpt lat="46.57241" lon="4.4741">
        <ele>372.906</ele>
        <time>2022-09-21T11:43:30Z</time>
      </trkpt>
      <trkpt lat="46.57238" lon="4.47419">
        <ele>371.906</ele>
        <time>2022-09-21T11:43:35Z</time>
      </trkpt>
      <trkpt lat="46.57233" lon="4.47428">
        <ele>372.006</ele>
        <time>2022-09-21T11:43:40Z</time>
      </trkpt>
      <trkpt lat="46.57229" lon="4.47438">
        <ele>373.006</ele>
        <time>2022-09-21T11:43:46Z</time>
      </trkpt>
      <trkpt lat="46.57224" lon="4.47445">
        <ele>373.106</ele>
        <time>2022-09-21T11:43:51Z</time>
      </trkpt>
      <trkpt lat="46.57219" lon="4.47452">
        <ele>373.106</ele>
        <time>2022-09-21T11:43:56Z</time>
      </trkpt>
      <trkpt lat="46.57213" lon="4.4746">
        <ele>370.206</ele>
        <time>2022-09-21T11:44:02Z</time>
      </trkpt>
      <trkpt lat="46.57208" lon="4.47467">
        <ele>371.906</ele>
        <time>2022-09-21T11:44:08Z</time>
      </trkpt>
      <trkpt lat="46.57201" lon="4.47476">
        <ele>371.006</ele>
        <time>2022-09-21T11:44:14Z</time>
      </trkpt>
      <trkpt lat="46.57197" lon="4.47483">
        <ele>368.805</ele>
        <time>2022-09-21T11:44:20Z</time>
      </trkpt>
      <trkpt lat="46.5719" lon="4.4749">
        <ele>369.805</ele>
        <time>2022-09-21T11:44:26Z</time>
      </trkpt>
      <trkpt lat="46.57184" lon="4.47495">
        <ele>368.405</ele>
        <time>2022-09-21T11:44:31Z</time>
      </trkpt>
      <trkpt lat="46.57178" lon="4.47502">
        <ele>368.705</ele>
        <time>2022-09-21T11:44:36Z</time>
      </trkpt>
      <trkpt lat="46.57173" lon="4.47509">
        <ele>366.605</ele>
        <time>2022-09-21T11:44:42Z</time>
      </trkpt>
      <trkpt lat="46.57168" lon="4.47516">
        <ele>365.005</ele>
        <time>2022-09-21T11:44:47Z</time>
      </trkpt>
      <trkpt lat="46.57164" lon="4.47523">
        <ele>364.805</ele>
        <time>2022-09-21T11:44:52Z</time>
      </trkpt>
      <trkpt lat="46.57157" lon="4.47532">
        <ele>364.505</ele>
        <time>2022-09-21T11:44:58Z</time>
      </trkpt>
      <trkpt lat="46.57151" lon="4.47538">
        <ele>364.005</ele>
        <time>2022-09-21T11:45:04Z</time>
      </trkpt>
      <trkpt lat="46.57145" lon="4.47547">
        <ele>363.705</ele>
        <time>2022-09-21T11:45:10Z</time>
      </trkpt>
      <trkpt lat="46.57141" lon="4.47555">
        <ele>361.405</ele>
        <time>2022-09-21T11:45:15Z</time>
      </trkpt>
      <trkpt lat="46.57136" lon="4.47562">
        <ele>359.905</ele>
        <time>2022-09-21T11:45:20Z</time>
      </trkpt>
      <trkpt lat="46.57131" lon="4.47573">
        <ele>358.005</ele>
        <time>2022-09-21T11:45:26Z</time>
      </trkpt>
      <trkpt lat="46.57127" lon="4.47582">
        <ele>357.605</ele>
        <time>2022-09-21T11:45:31Z</time>
      </trkpt>
      <trkpt lat="46.57124" lon="4.47591">
        <ele>357.205</ele>
        <time>2022-09-21T11:45:36Z</time>
      </trkpt>
      <trkpt lat="46.57121" lon="4.47601">
        <ele>359.105</ele>
        <time>2022-09-21T11:45:44Z</time>
      </trkpt>
      <trkpt lat="46.57118" lon="4.47611">
        <ele>362.305</ele>
        <time>2022-09-21T11:45:49Z</time>
      </trkpt>
      <trkpt lat="46.57115" lon="4.47623">
        <ele>362.705</ele>
        <time>2022-09-21T11:45:54Z</time>
      </trkpt>
      <trkpt lat="46.57113" lon="4.47633">
        <ele>361.305</ele>
        <time>2022-09-21T11:45:59Z</time>
      </trkpt>
      <trkpt lat="46.57113" lon="4.47643">
        <ele>361.705</ele>
        <time>2022-09-21T11:46:05Z</time>
      </trkpt>
      <trkpt lat="46.57111" lon="4.47654">
        <ele>360.605</ele>
        <time>2022-09-21T11:46:11Z</time>
      </trkpt>
      <trkpt lat="46.57109" lon="4.47664">
        <ele>360.205</ele>
        <time>2022-09-21T11:46:17Z</time>
      </trkpt>
      <trkpt lat="46.57106" lon="4.47674">
        <ele>360.605</ele>
        <time>2022-09-21T11:46:23Z</time>
      </trkpt>
      <trkpt lat="46.57102" lon="4.47682">
        <ele>360.005</ele>
        <time>2022-09-21T11:46:28Z</time>
      </trkpt>
      <trkpt lat="46.57095" lon="4.47693">
        <ele>360.105</ele>
        <time>2022-09-21T11:46:34Z</time>
      </trkpt>
      <trkpt lat="46.5709" lon="4.47702">
        <ele>359.505</ele>
        <time>2022-09-21T11:46:39Z</time>
      </trkpt>
      <trkpt lat="46.57086" lon="4.4771">
        <ele>359.405</ele>
        <time>2022-09-21T11:46:44Z</time>
      </trkpt>
      <trkpt lat="46.57081" lon="4.47719">
        <ele>359.105</ele>
        <time>2022-09-21T11:46:49Z</time>
      </trkpt>
      <trkpt lat="46.57076" lon="4.47727">
        <ele>358.205</ele>
        <time>2022-09-21T11:46:54Z</time>
      </trkpt>
      <trkpt lat="46.57071" lon="4.47737">
        <ele>356.605</ele>
        <time>2022-09-21T11:47:00Z</time>
      </trkpt>
      <trkpt lat="46.57067" lon="4.47747">
        <ele>356.505</ele>
        <time>2022-09-21T11:47:06Z</time>
      </trkpt>
      <trkpt lat="46.57064" lon="4.47757">
        <ele>357.905</ele>
        <time>2022-09-21T11:47:12Z</time>
      </trkpt>
      <trkpt lat="46.57062" lon="4.4777">
        <ele>358.005</ele>
        <time>2022-09-21T11:47:18Z</time>
      </trkpt>
      <trkpt lat="46.57061" lon="4.47781">
        <ele>358.005</ele>
        <time>2022-09-21T11:47:23Z</time>
      </trkpt>
      <trkpt lat="46.57062" lon="4.47791">
        <ele>356.505</ele>
        <time>2022-09-21T11:47:28Z</time>
      </trkpt>
      <trkpt lat="46.57062" lon="4.478">
        <ele>355.005</ele>
        <time>2022-09-21T11:47:34Z</time>
      </trkpt>
      <trkpt lat="46.57062" lon="4.47811">
        <ele>357.005</ele>
        <time>2022-09-21T11:47:40Z</time>
      </trkpt>
      <trkpt lat="46.57062" lon="4.47822">
        <ele>356.305</ele>
        <time>2022-09-21T11:47:46Z</time>
      </trkpt>
      <trkpt lat="46.57061" lon="4.47832">
        <ele>356.405</ele>
        <time>2022-09-21T11:47:51Z</time>
      </trkpt>
      <trkpt lat="46.57061" lon="4.47842">
        <ele>355.805</ele>
        <time>2022-09-21T11:47:57Z</time>
      </trkpt>
      <trkpt lat="46.57061" lon="4.47853">
        <ele>355.105</ele>
        <time>2022-09-21T11:48:04Z</time>
      </trkpt>
      <trkpt lat="46.57059" lon="4.47865">
        <ele>355.805</ele>
        <time>2022-09-21T11:48:09Z</time>
      </trkpt>
      <trkpt lat="46.57059" lon="4.47876">
        <ele>358.205</ele>
        <time>2022-09-21T11:48:14Z</time>
      </trkpt>
      <trkpt lat="46.57059" lon="4.47887">
        <ele>358.905</ele>
        <time>2022-09-21T11:48:20Z</time>
      </trkpt>
      <trkpt lat="46.57056" lon="4.47899">
        <ele>363.005</ele>
        <time>2022-09-21T11:48:26Z</time>
      </trkpt>
      <trkpt lat="46.57053" lon="4.47908">
        <ele>363.205</ele>
        <time>2022-09-21T11:48:34Z</time>
      </trkpt>
      <trkpt lat="46.57047" lon="4.47913">
        <ele>363.505</ele>
        <time>2022-09-21T11:48:42Z</time>
      </trkpt>
      <trkpt lat="46.57042" lon="4.47919">
        <ele>363.805</ele>
        <time>2022-09-21T11:48:48Z</time>
      </trkpt>
      <trkpt lat="46.57036" lon="4.47924">
        <ele>363.805</ele>
        <time>2022-09-21T11:48:54Z</time>
      </trkpt>
      <trkpt lat="46.57031" lon="4.47933">
        <ele>365.205</ele>
        <time>2022-09-21T11:49:00Z</time>
      </trkpt>
      <trkpt lat="46.57027" lon="4.47941">
        <ele>367.005</ele>
        <time>2022-09-21T11:49:06Z</time>
      </trkpt>
      <trkpt lat="46.57023" lon="4.4795">
        <ele>369.605</ele>
        <time>2022-09-21T11:49:12Z</time>
      </trkpt>
      <trkpt lat="46.5702" lon="4.47959">
        <ele>370.905</ele>
        <time>2022-09-21T11:49:17Z</time>
      </trkpt>
      <trkpt lat="46.57016" lon="4.47967">
        <ele>370.505</ele>
        <time>2022-09-21T11:49:24Z</time>
      </trkpt>
      <trkpt lat="46.57012" lon="4.47977">
        <ele>370.905</ele>
        <time>2022-09-21T11:49:30Z</time>
      </trkpt>
      <trkpt lat="46.57008" lon="4.47984">
        <ele>370.905</ele>
        <time>2022-09-21T11:49:35Z</time>
      </trkpt>
      <trkpt lat="46.57004" lon="4.47992">
        <ele>370.205</ele>
        <time>2022-09-21T11:49:40Z</time>
      </trkpt>
      <trkpt lat="46.56999" lon="4.47998">
        <ele>370.805</ele>
        <time>2022-09-21T11:49:46Z</time>
      </trkpt>
      <trkpt lat="46.56994" lon="4.48008">
        <ele>370.205</ele>
        <time>2022-09-21T11:49:51Z</time>
      </trkpt>
      <trkpt lat="46.56989" lon="4.48016">
        <ele>369.305</ele>
        <time>2022-09-21T11:49:56Z</time>
      </trkpt>
      <trkpt lat="46.56985" lon="4.48022">
        <ele>369.505</ele>
        <time>2022-09-21T11:50:02Z</time>
      </trkpt>
      <trkpt lat="46.56979" lon="4.48029">
        <ele>371.705</ele>
        <time>2022-09-21T11:50:08Z</time>
      </trkpt>
      <trkpt lat="46.56973" lon="4.48035">
        <ele>374.405</ele>
        <time>2022-09-21T11:50:14Z</time>
      </trkpt>
      <trkpt lat="46.56967" lon="4.48039">
        <ele>376.905</ele>
        <time>2022-09-21T11:50:20Z</time>
      </trkpt>
      <trkpt lat="46.56961" lon="4.48043">
        <ele>377.005</ele>
        <time>2022-09-21T11:50:25Z</time>
      </trkpt>
      <trkpt lat="46.56954" lon="4.48046">
        <ele>378.605</ele>
        <time>2022-09-21T11:50:31Z</time>
      </trkpt>
      <trkpt lat="46.56947" lon="4.48049">
        <ele>381.405</ele>
        <time>2022-09-21T11:50:37Z</time>
      </trkpt>
      <trkpt lat="46.5694" lon="4.48052">
        <ele>382.405</ele>
        <time>2022-09-21T11:50:44Z</time>
      </trkpt>
      <trkpt lat="46.56934" lon="4.48057">
        <ele>381.605</ele>
        <time>2022-09-21T11:50:51Z</time>
      </trkpt>
      <trkpt lat="46.56929" lon="4.48066">
        <ele>382.505</ele>
        <time>2022-09-21T11:50:58Z</time>
      </trkpt>
      <trkpt lat="46.56928" lon="4.48076">
        <ele>383.405</ele>
        <time>2022-09-21T11:51:05Z</time>
      </trkpt>
      <trkpt lat="46.56927" lon="4.48087">
        <ele>384.605</ele>
        <time>2022-09-21T11:51:11Z</time>
      </trkpt>
      <trkpt lat="46.56927" lon="4.48098">
        <ele>386.305</ele>
        <time>2022-09-21T11:51:17Z</time>
      </trkpt>
      <trkpt lat="46.56926" lon="4.48108">
        <ele>387.505</ele>
        <time>2022-09-21T11:51:24Z</time>
      </trkpt>
      <trkpt lat="46.56925" lon="4.48119">
        <ele>386.905</ele>
        <time>2022-09-21T11:51:29Z</time>
      </trkpt>
      <trkpt lat="46.56925" lon="4.4813">
        <ele>386.305</ele>
        <time>2022-09-21T11:51:35Z</time>
      </trkpt>
      <trkpt lat="46.56925" lon="4.48141">
        <ele>386.705</ele>
        <time>2022-09-21T11:51:40Z</time>
      </trkpt>
      <trkpt lat="46.56923" lon="4.48151">
        <ele>386.005</ele>
        <time>2022-09-21T11:51:46Z</time>
      </trkpt>
      <trkpt lat="46.56919" lon="4.48159">
        <ele>387.905</ele>
        <time>2022-09-21T11:51:51Z</time>
      </trkpt>
      <trkpt lat="46.56915" lon="4.48168">
        <ele>388.205</ele>
        <time>2022-09-21T11:51:56Z</time>
      </trkpt>
      <trkpt lat="46.5691" lon="4.48175">
        <ele>388.305</ele>
        <time>2022-09-21T11:52:02Z</time>
      </trkpt>
      <trkpt lat="46.56904" lon="4.48182">
        <ele>386.905</ele>
        <time>2022-09-21T11:52:07Z</time>
      </trkpt>
      <trkpt lat="46.569" lon="4.48189">
        <ele>383.405</ele>
        <time>2022-09-21T11:52:13Z</time>
      </trkpt>
      <trkpt lat="46.56894" lon="4.48196">
        <ele>385.205</ele>
        <time>2022-09-21T11:52:19Z</time>
      </trkpt>
      <trkpt lat="46.56889" lon="4.48204">
        <ele>386.305</ele>
        <time>2022-09-21T11:52:25Z</time>
      </trkpt>
      <trkpt lat="46.56885" lon="4.48213">
        <ele>386.305</ele>
        <time>2022-09-21T11:55:30Z</time>
      </trkpt>
      <trkpt lat="46.56888" lon="4.48222">
        <ele>387.105</ele>
        <time>2022-09-21T11:55:40Z</time>
      </trkpt>
      <trkpt lat="46.5689" lon="4.48232">
        <ele>388.005</ele>
        <time>2022-09-21T11:55:46Z</time>
      </trkpt>
      <trkpt lat="46.5689" lon="4.48244">
        <ele>390.505</ele>
        <time>2022-09-21T11:55:51Z</time>
      </trkpt>
      <trkpt lat="46.56888" lon="4.48253">
        <ele>391.205</ele>
        <time>2022-09-21T11:55:59Z</time>
      </trkpt>
      <trkpt lat="46.56891" lon="4.48263">
        <ele>388.905</ele>
        <time>2022-09-21T11:56:06Z</time>
      </trkpt>
      <trkpt lat="46.5689" lon="4.48273">
        <ele>388.105</ele>
        <time>2022-09-21T11:56:16Z</time>
      </trkpt>
      <trkpt lat="46.56891" lon="4.48283">
        <ele>386.205</ele>
        <time>2022-09-21T11:56:23Z</time>
      </trkpt>
      <trkpt lat="46.56892" lon="4.48293">
        <ele>386.005</ele>
        <time>2022-09-21T11:56:29Z</time>
      </trkpt>
      <trkpt lat="46.56894" lon="4.48304">
        <ele>385.605</ele>
        <time>2022-09-21T11:56:36Z</time>
      </trkpt>
      <trkpt lat="46.56895" lon="4.48314">
        <ele>385.505</ele>
        <time>2022-09-21T11:56:42Z</time>
      </trkpt>
      <trkpt lat="46.56896" lon="4.48324">
        <ele>384.105</ele>
        <time>2022-09-21T11:56:48Z</time>
      </trkpt>
      <trkpt lat="46.56897" lon="4.48335">
        <ele>383.905</ele>
        <time>2022-09-21T11:56:54Z</time>
      </trkpt>
      <trkpt lat="46.56899" lon="4.48344">
        <ele>385.905</ele>
        <time>2022-09-21T11:57:00Z</time>
      </trkpt>
      <trkpt lat="46.56901" lon="4.48354">
        <ele>386.505</ele>
        <time>2022-09-21T11:57:06Z</time>
      </trkpt>
      <trkpt lat="46.56905" lon="4.48362">
        <ele>385.905</ele>
        <time>2022-09-21T11:57:11Z</time>
      </trkpt>
      <trkpt lat="46.56908" lon="4.48371">
        <ele>385.505</ele>
        <time>2022-09-21T11:57:16Z</time>
      </trkpt>
      <trkpt lat="46.56911" lon="4.48382">
        <ele>385.705</ele>
        <time>2022-09-21T11:57:23Z</time>
      </trkpt>
      <trkpt lat="46.56912" lon="4.48392">
        <ele>384.905</ele>
        <time>2022-09-21T11:57:29Z</time>
      </trkpt>
      <trkpt lat="46.56917" lon="4.48399">
        <ele>383.605</ele>
        <time>2022-09-21T11:57:35Z</time>
      </trkpt>
      <trkpt lat="46.5692" lon="4.48408">
        <ele>384.005</ele>
        <time>2022-09-21T11:57:40Z</time>
      </trkpt>
      <trkpt lat="46.56924" lon="4.48417">
        <ele>384.005</ele>
        <time>2022-09-21T11:57:46Z</time>
      </trkpt>
      <trkpt lat="46.56926" lon="4.48426">
        <ele>383.405</ele>
        <time>2022-09-21T11:57:51Z</time>
      </trkpt>
      <trkpt lat="46.56928" lon="4.48435">
        <ele>382.505</ele>
        <time>2022-09-21T11:57:56Z</time>
      </trkpt>
      <trkpt lat="46.56931" lon="4.48444">
        <ele>381.505</ele>
        <time>2022-09-21T11:58:02Z</time>
      </trkpt>
      <trkpt lat="46.56933" lon="4.48454">
        <ele>381.005</ele>
        <time>2022-09-21T11:58:08Z</time>
      </trkpt>
      <trkpt lat="46.56935" lon="4.48464">
        <ele>379.405</ele>
        <time>2022-09-21T11:58:14Z</time>
      </trkpt>
      <trkpt lat="46.56937" lon="4.48474">
        <ele>380.305</ele>
        <time>2022-09-21T11:58:19Z</time>
      </trkpt>
      <trkpt lat="46.56937" lon="4.48484">
        <ele>381.105</ele>
        <time>2022-09-21T11:58:25Z</time>
      </trkpt>
      <trkpt lat="46.56937" lon="4.48497">
        <ele>381.005</ele>
        <time>2022-09-21T11:58:31Z</time>
      </trkpt>
      <trkpt lat="46.56936" lon="4.48508">
        <ele>378.306</ele>
        <time>2022-09-21T11:58:37Z</time>
      </trkpt>
      <trkpt lat="46.56935" lon="4.48519">
        <ele>376.006</ele>
        <time>2022-09-21T11:58:43Z</time>
      </trkpt>
      <trkpt lat="46.56933" lon="4.48529">
        <ele>375.506</ele>
        <time>2022-09-21T11:58:49Z</time>
      </trkpt>
      <trkpt lat="46.5693" lon="4.48541">
        <ele>375.506</ele>
        <time>2022-09-21T11:58:55Z</time>
      </trkpt>
      <trkpt lat="46.56927" lon="4.48551">
        <ele>376.306</ele>
        <time>2022-09-21T11:59:01Z</time>
      </trkpt>
      <trkpt lat="46.56924" lon="4.48561">
        <ele>376.006</ele>
        <time>2022-09-21T11:59:07Z</time>
      </trkpt>
      <trkpt lat="46.5692" lon="4.4857">
        <ele>376.306</ele>
        <time>2022-09-21T11:59:13Z</time>
      </trkpt>
      <trkpt lat="46.56913" lon="4.48579">
        <ele>374.705</ele>
        <time>2022-09-21T11:59:19Z</time>
      </trkpt>
      <trkpt lat="46.56908" lon="4.48584">
        <ele>372.105</ele>
        <time>2022-09-21T11:59:24Z</time>
      </trkpt>
      <trkpt lat="46.56902" lon="4.48589">
        <ele>371.105</ele>
        <time>2022-09-21T11:59:29Z</time>
      </trkpt>
      <trkpt lat="46.56895" lon="4.48596">
        <ele>371.905</ele>
        <time>2022-09-21T11:59:35Z</time>
      </trkpt>
      <trkpt lat="46.56888" lon="4.48599">
        <ele>372.305</ele>
        <time>2022-09-21T11:59:41Z</time>
      </trkpt>
      <trkpt lat="46.56881" lon="4.48601">
        <ele>374.405</ele>
        <time>2022-09-21T12:00:19Z</time>
      </trkpt>
      <trkpt lat="46.56876" lon="4.48596">
        <ele>375.105</ele>
        <time>2022-09-21T12:00:37Z</time>
      </trkpt>
      <trkpt lat="46.5687" lon="4.48588">
        <ele>374.205</ele>
        <time>2022-09-21T12:01:03Z</time>
      </trkpt>
      <trkpt lat="46.56865" lon="4.48583">
        <ele>375.005</ele>
        <time>2022-09-21T12:01:15Z</time>
      </trkpt>
      <trkpt lat="46.5686" lon="4.48577">
        <ele>375.005</ele>
        <time>2022-09-21T12:01:25Z</time>
      </trkpt>
      <trkpt lat="46.56855" lon="4.48571">
        <ele>374.105</ele>
        <time>2022-09-21T12:01:31Z</time>
      </trkpt>
      <trkpt lat="46.5685" lon="4.48564">
        <ele>372.805</ele>
        <time>2022-09-21T12:01:37Z</time>
      </trkpt>
      <trkpt lat="46.56846" lon="4.48556">
        <ele>373.805</ele>
        <time>2022-09-21T12:01:43Z</time>
      </trkpt>
      <trkpt lat="46.56842" lon="4.48546">
        <ele>373.405</ele>
        <time>2022-09-21T12:01:49Z</time>
      </trkpt>
      <trkpt lat="46.56838" lon="4.48536">
        <ele>372.705</ele>
        <time>2022-09-21T12:01:55Z</time>
      </trkpt>
      <trkpt lat="46.56834" lon="4.48529">
        <ele>371.905</ele>
        <time>2022-09-21T12:02:01Z</time>
      </trkpt>
      <trkpt lat="46.5683" lon="4.48521">
        <ele>370.405</ele>
        <time>2022-09-21T12:02:07Z</time>
      </trkpt>
      <trkpt lat="46.56825" lon="4.48512">
        <ele>368.805</ele>
        <time>2022-09-21T12:02:13Z</time>
      </trkpt>
      <trkpt lat="46.56822" lon="4.48503">
        <ele>369.205</ele>
        <time>2022-09-21T12:02:19Z</time>
      </trkpt>
      <trkpt lat="46.56818" lon="4.48492">
        <ele>370.505</ele>
        <time>2022-09-21T12:02:26Z</time>
      </trkpt>
      <trkpt lat="46.56815" lon="4.48483">
        <ele>370.205</ele>
        <time>2022-09-21T12:02:32Z</time>
      </trkpt>
      <trkpt lat="46.56812" lon="4.48474">
        <ele>369.205</ele>
        <time>2022-09-21T12:02:37Z</time>
      </trkpt>
      <trkpt lat="46.56809" lon="4.48465">
        <ele>368.105</ele>
        <time>2022-09-21T12:02:44Z</time>
      </trkpt>
      <trkpt lat="46.56805" lon="4.48459">
        <ele>367.305</ele>
        <time>2022-09-21T12:02:50Z</time>
      </trkpt>
      <trkpt lat="46.56798" lon="4.48457">
        <ele>367.105</ele>
        <time>2022-09-21T12:02:56Z</time>
      </trkpt>
      <trkpt lat="46.56791" lon="4.48452">
        <ele>365.705</ele>
        <time>2022-09-21T12:03:02Z</time>
      </trkpt>
      <trkpt lat="46.56784" lon="4.48446">
        <ele>364.205</ele>
        <time>2022-09-21T12:03:08Z</time>
      </trkpt>
      <trkpt lat="46.5678" lon="4.4844">
        <ele>362.405</ele>
        <time>2022-09-21T12:03:13Z</time>
      </trkpt>
      <trkpt lat="46.56777" lon="4.48429">
        <ele>361.905</ele>
        <time>2022-09-21T12:03:24Z</time>
      </trkpt>
      <trkpt lat="46.56777" lon="4.48419">
        <ele>362.805</ele>
        <time>2022-09-21T12:03:32Z</time>
      </trkpt>
      <trkpt lat="46.56776" lon="4.48409">
        <ele>363.305</ele>
        <time>2022-09-21T12:03:38Z</time>
      </trkpt>
      <trkpt lat="46.56774" lon="4.484">
        <ele>362.205</ele>
        <time>2022-09-21T12:03:52Z</time>
      </trkpt>
      <trkpt lat="46.56774" lon="4.4839">
        <ele>364.305</ele>
        <time>2022-09-21T12:04:07Z</time>
      </trkpt>
      <trkpt lat="46.56772" lon="4.4838">
        <ele>363.705</ele>
        <time>2022-09-21T12:04:13Z</time>
      </trkpt>
      <trkpt lat="46.56771" lon="4.4837">
        <ele>363.605</ele>
        <time>2022-09-21T12:04:19Z</time>
      </trkpt>
      <trkpt lat="46.56768" lon="4.48359">
        <ele>364.805</ele>
        <time>2022-09-21T12:04:25Z</time>
      </trkpt>
      <trkpt lat="46.56764" lon="4.48351">
        <ele>364.105</ele>
        <time>2022-09-21T12:04:31Z</time>
      </trkpt>
      <trkpt lat="46.5676" lon="4.48343">
        <ele>366.105</ele>
        <time>2022-09-21T12:04:37Z</time>
      </trkpt>
      <trkpt lat="46.56756" lon="4.48336">
        <ele>364.705</ele>
        <time>2022-09-21T12:04:42Z</time>
      </trkpt>
      <trkpt lat="46.56751" lon="4.48329">
        <ele>363.105</ele>
        <time>2022-09-21T12:04:48Z</time>
      </trkpt>
      <trkpt lat="46.56744" lon="4.48324">
        <ele>361.205</ele>
        <time>2022-09-21T12:04:55Z</time>
      </trkpt>
      <trkpt lat="46.56739" lon="4.48318">
        <ele>360.505</ele>
        <time>2022-09-21T12:05:00Z</time>
      </trkpt>
      <trkpt lat="46.56732" lon="4.48316">
        <ele>362.805</ele>
        <time>2022-09-21T12:05:06Z</time>
      </trkpt>
      <trkpt lat="46.56725" lon="4.48318">
        <ele>362.805</ele>
        <time>2022-09-21T12:05:12Z</time>
      </trkpt>
      <trkpt lat="46.56719" lon="4.48322">
        <ele>363.705</ele>
        <time>2022-09-21T12:05:19Z</time>
      </trkpt>
      <trkpt lat="46.56712" lon="4.48326">
        <ele>364.905</ele>
        <time>2022-09-21T12:05:25Z</time>
      </trkpt>
      <trkpt lat="46.56704" lon="4.48329">
        <ele>364.305</ele>
        <time>2022-09-21T12:05:31Z</time>
      </trkpt>
      <trkpt lat="46.56697" lon="4.4833">
        <ele>362.705</ele>
        <time>2022-09-21T12:05:37Z</time>
      </trkpt>
      <trkpt lat="46.56689" lon="4.4833">
        <ele>360.705</ele>
        <time>2022-09-21T12:05:42Z</time>
      </trkpt>
      <trkpt lat="46.56683" lon="4.48326">
        <ele>359.105</ele>
        <time>2022-09-21T12:05:48Z</time>
      </trkpt>
      <trkpt lat="46.56676" lon="4.48322">
        <ele>359.605</ele>
        <time>2022-09-21T12:05:54Z</time>
      </trkpt>
      <trkpt lat="46.56669" lon="4.48321">
        <ele>360.605</ele>
        <time>2022-09-21T12:06:00Z</time>
      </trkpt>
      <trkpt lat="46.56662" lon="4.48319">
        <ele>361.105</ele>
        <time>2022-09-21T12:06:05Z</time>
      </trkpt>
      <trkpt lat="46.56655" lon="4.48315">
        <ele>360.605</ele>
        <time>2022-09-21T12:06:11Z</time>
      </trkpt>
      <trkpt lat="46.5665" lon="4.48311">
        <ele>361.905</ele>
        <time>2022-09-21T12:06:38Z</time>
      </trkpt>
      <trkpt lat="46.56643" lon="4.48307">
        <ele>361.905</ele>
        <time>2022-09-21T12:06:44Z</time>
      </trkpt>
      <trkpt lat="46.56635" lon="4.483">
        <ele>361.505</ele>
        <time>2022-09-21T12:06:49Z</time>
      </trkpt>
      <trkpt lat="46.56633" lon="4.48289">
        <ele>360.305</ele>
        <time>2022-09-21T12:06:55Z</time>
      </trkpt>
      <trkpt lat="46.56632" lon="4.4828">
        <ele>358.905</ele>
        <time>2022-09-21T12:07:00Z</time>
      </trkpt>
      <trkpt lat="46.56629" lon="4.48267">
        <ele>358.404</ele>
        <time>2022-09-21T12:07:05Z</time>
      </trkpt>
      <trkpt lat="46.56626" lon="4.48255">
        <ele>355.004</ele>
        <time>2022-09-21T12:07:11Z</time>
      </trkpt>
      <trkpt lat="46.56624" lon="4.48245">
        <ele>354.204</ele>
        <time>2022-09-21T12:07:16Z</time>
      </trkpt>
      <trkpt lat="46.56619" lon="4.48237">
        <ele>354.604</ele>
        <time>2022-09-21T12:07:23Z</time>
      </trkpt>
      <trkpt lat="46.56614" lon="4.48229">
        <ele>354.104</ele>
        <time>2022-09-21T12:07:28Z</time>
      </trkpt>
      <trkpt lat="46.56609" lon="4.48218">
        <ele>353.304</ele>
        <time>2022-09-21T12:07:33Z</time>
      </trkpt>
      <trkpt lat="46.56605" lon="4.48209">
        <ele>351.704</ele>
        <time>2022-09-21T12:07:40Z</time>
      </trkpt>
      <trkpt lat="46.56601" lon="4.482">
        <ele>351.804</ele>
        <time>2022-09-21T12:07:45Z</time>
      </trkpt>
      <trkpt lat="46.56597" lon="4.48191">
        <ele>349.904</ele>
        <time>2022-09-21T12:07:51Z</time>
      </trkpt>
      <trkpt lat="46.56593" lon="4.48181">
        <ele>351.204</ele>
        <time>2022-09-21T12:07:57Z</time>
      </trkpt>
      <trkpt lat="46.56589" lon="4.48172">
        <ele>353.204</ele>
        <time>2022-09-21T12:08:02Z</time>
      </trkpt>
      <trkpt lat="46.56585" lon="4.48164">
        <ele>353.304</ele>
        <time>2022-09-21T12:08:08Z</time>
      </trkpt>
      <trkpt lat="46.56581" lon="4.48155">
        <ele>352.404</ele>
        <time>2022-09-21T12:08:13Z</time>
      </trkpt>
      <trkpt lat="46.56574" lon="4.48147">
        <ele>351.904</ele>
        <time>2022-09-21T12:08:19Z</time>
      </trkpt>
      <trkpt lat="46.56569" lon="4.4814">
        <ele>352.404</ele>
        <time>2022-09-21T12:08:25Z</time>
      </trkpt>
      <trkpt lat="46.56558" lon="4.48132">
        <ele>353.104</ele>
        <time>2022-09-21T12:08:32Z</time>
      </trkpt>
      <trkpt lat="46.5655" lon="4.4813">
        <ele>352.804</ele>
        <time>2022-09-21T12:08:38Z</time>
      </trkpt>
      <trkpt lat="46.56542" lon="4.48131">
        <ele>350.204</ele>
        <time>2022-09-21T12:08:45Z</time>
      </trkpt>
      <trkpt lat="46.56534" lon="4.48134">
        <ele>353.304</ele>
        <time>2022-09-21T12:08:50Z</time>
      </trkpt>
      <trkpt lat="46.56527" lon="4.48139">
        <ele>353.904</ele>
        <time>2022-09-21T12:08:58Z</time>
      </trkpt>
      <trkpt lat="46.56521" lon="4.48145">
        <ele>352.904</ele>
        <time>2022-09-21T12:09:03Z</time>
      </trkpt>
      <trkpt lat="46.56515" lon="4.48151">
        <ele>351.804</ele>
        <time>2022-09-21T12:09:08Z</time>
      </trkpt>
      <trkpt lat="46.56506" lon="4.48151">
        <ele>351.404</ele>
        <time>2022-09-21T12:09:14Z</time>
      </trkpt>
      <trkpt lat="46.56498" lon="4.48154">
        <ele>351.104</ele>
        <time>2022-09-21T12:09:21Z</time>
      </trkpt>
      <trkpt lat="46.56492" lon="4.48156">
        <ele>350.204</ele>
        <time>2022-09-21T12:09:26Z</time>
      </trkpt>
      <trkpt lat="46.56484" lon="4.48153">
        <ele>348.904</ele>
        <time>2022-09-21T12:09:32Z</time>
      </trkpt>
      <trkpt lat="46.56476" lon="4.48154">
        <ele>348.704</ele>
        <time>2022-09-21T12:09:38Z</time>
      </trkpt>
      <trkpt lat="46.56468" lon="4.48153">
        <ele>349.804</ele>
        <time>2022-09-21T12:09:43Z</time>
      </trkpt>
      <trkpt lat="46.5646" lon="4.48153">
        <ele>350.604</ele>
        <time>2022-09-21T12:09:49Z</time>
      </trkpt>
      <trkpt lat="46.56453" lon="4.4815">
        <ele>353.504</ele>
        <time>2022-09-21T12:09:54Z</time>
      </trkpt>
      <trkpt lat="46.56447" lon="4.48144">
        <ele>354.804</ele>
        <time>2022-09-21T12:10:01Z</time>
      </trkpt>
      <trkpt lat="46.56442" lon="4.48136">
        <ele>354.904</ele>
        <time>2022-09-21T12:10:06Z</time>
      </trkpt>
      <trkpt lat="46.56437" lon="4.48128">
        <ele>356.904</ele>
        <time>2022-09-21T12:10:11Z</time>
      </trkpt>
      <trkpt lat="46.56432" lon="4.48121">
        <ele>356.204</ele>
        <time>2022-09-21T12:10:16Z</time>
      </trkpt>
      <trkpt lat="46.56427" lon="4.48113">
        <ele>356.204</ele>
        <time>2022-09-21T12:10:22Z</time>
      </trkpt>
      <trkpt lat="46.56421" lon="4.48107">
        <ele>356.304</ele>
        <time>2022-09-21T12:10:28Z</time>
      </trkpt>
      <trkpt lat="46.56414" lon="4.48099">
        <ele>354.804</ele>
        <time>2022-09-21T12:10:34Z</time>
      </trkpt>
      <trkpt lat="46.56409" lon="4.48092">
        <ele>355.704</ele>
        <time>2022-09-21T12:10:39Z</time>
      </trkpt>
      <trkpt lat="46.56402" lon="4.48089">
        <ele>355.704</ele>
        <time>2022-09-21T12:10:45Z</time>
      </trkpt>
      <trkpt lat="46.56396" lon="4.48083">
        <ele>355.504</ele>
        <time>2022-09-21T12:10:50Z</time>
      </trkpt>
      <trkpt lat="46.5639" lon="4.48076">
        <ele>354.004</ele>
        <time>2022-09-21T12:10:55Z</time>
      </trkpt>
      <trkpt lat="46.56383" lon="4.48073">
        <ele>352.204</ele>
        <time>2022-09-21T12:11:01Z</time>
      </trkpt>
      <trkpt lat="46.56376" lon="4.48074">
        <ele>350.904</ele>
        <time>2022-09-21T12:11:06Z</time>
      </trkpt>
      <trkpt lat="46.56369" lon="4.48079">
        <ele>352.004</ele>
        <time>2022-09-21T12:11:12Z</time>
      </trkpt>
      <trkpt lat="46.56362" lon="4.48085">
        <ele>353.804</ele>
        <time>2022-09-21T12:11:18Z</time>
      </trkpt>
      <trkpt lat="46.56356" lon="4.4809">
        <ele>357.004</ele>
        <time>2022-09-21T12:11:24Z</time>
      </trkpt>
      <trkpt lat="46.5635" lon="4.48096">
        <ele>354.604</ele>
        <time>2022-09-21T12:11:33Z</time>
      </trkpt>
      <trkpt lat="46.56344" lon="4.48101">
        <ele>353.304</ele>
        <time>2022-09-21T12:11:39Z</time>
      </trkpt>
      <trkpt lat="46.56338" lon="4.48106">
        <ele>351.604</ele>
        <time>2022-09-21T12:11:46Z</time>
      </trkpt>
      <trkpt lat="46.56331" lon="4.48111">
        <ele>351.404</ele>
        <time>2022-09-21T12:11:52Z</time>
      </trkpt>
      <trkpt lat="46.56325" lon="4.48116">
        <ele>354.504</ele>
        <time>2022-09-21T12:11:58Z</time>
      </trkpt>
      <trkpt lat="46.56321" lon="4.48123">
        <ele>355.704</ele>
        <time>2022-09-21T12:12:03Z</time>
      </trkpt>
      <trkpt lat="46.56317" lon="4.48132">
        <ele>355.604</ele>
        <time>2022-09-21T12:12:11Z</time>
      </trkpt>
      <trkpt lat="46.56312" lon="4.48138">
        <ele>358.104</ele>
        <time>2022-09-21T12:12:17Z</time>
      </trkpt>
      <trkpt lat="46.56306" lon="4.48145">
        <ele>360.704</ele>
        <time>2022-09-21T12:12:22Z</time>
      </trkpt>
      <trkpt lat="46.563" lon="4.48149">
        <ele>362.803</ele>
        <time>2022-09-21T12:12:27Z</time>
      </trkpt>
      <trkpt lat="46.56293" lon="4.48149">
        <ele>360.603</ele>
        <time>2022-09-21T12:12:32Z</time>
      </trkpt>
      <trkpt lat="46.56285" lon="4.48152">
        <ele>360.103</ele>
        <time>2022-09-21T12:12:39Z</time>
      </trkpt>
      <trkpt lat="46.56278" lon="4.48152">
        <ele>360.003</ele>
        <time>2022-09-21T12:12:44Z</time>
      </trkpt>
      <trkpt lat="46.56271" lon="4.48152">
        <ele>360.003</ele>
        <time>2022-09-21T12:12:50Z</time>
      </trkpt>
      <trkpt lat="46.56264" lon="4.48152">
        <ele>360.503</ele>
        <time>2022-09-21T12:12:55Z</time>
      </trkpt>
      <trkpt lat="46.56256" lon="4.48152">
        <ele>362.503</ele>
        <time>2022-09-21T12:13:00Z</time>
      </trkpt>
      <trkpt lat="46.56249" lon="4.48157">
        <ele>362.503</ele>
        <time>2022-09-21T12:13:06Z</time>
      </trkpt>
      <trkpt lat="46.56241" lon="4.48159">
        <ele>363.603</ele>
        <time>2022-09-21T12:13:11Z</time>
      </trkpt>
      <trkpt lat="46.56235" lon="4.48163">
        <ele>365.703</ele>
        <time>2022-09-21T12:13:18Z</time>
      </trkpt>
      <trkpt lat="46.56228" lon="4.48166">
        <ele>367.503</ele>
        <time>2022-09-21T12:13:27Z</time>
      </trkpt>
      <trkpt lat="46.56222" lon="4.48169">
        <ele>369.703</ele>
        <time>2022-09-21T12:15:42Z</time>
      </trkpt>
      <trkpt lat="46.56214" lon="4.48169">
        <ele>369.703</ele>
        <time>2022-09-21T12:15:47Z</time>
      </trkpt>
      <trkpt lat="46.56207" lon="4.4817">
        <ele>368.203</ele>
        <time>2022-09-21T12:15:53Z</time>
      </trkpt>
      <trkpt lat="46.562" lon="4.48171">
        <ele>367.603</ele>
        <time>2022-09-21T12:15:58Z</time>
      </trkpt>
      <trkpt lat="46.56193" lon="4.4817">
        <ele>366.203</ele>
        <time>2022-09-21T12:16:04Z</time>
      </trkpt>
      <trkpt lat="46.56185" lon="4.48168">
        <ele>364.403</ele>
        <time>2022-09-21T12:16:10Z</time>
      </trkpt>
      <trkpt lat="46.56178" lon="4.48166">
        <ele>363.303</ele>
        <time>2022-09-21T12:16:17Z</time>
      </trkpt>
      <trkpt lat="46.56171" lon="4.48165">
        <ele>362.503</ele>
        <time>2022-09-21T12:16:23Z</time>
      </trkpt>
      <trkpt lat="46.56165" lon="4.48165">
        <ele>363.003</ele>
        <time>2022-09-21T12:16:28Z</time>
      </trkpt>
      <trkpt lat="46.56156" lon="4.48165">
        <ele>365.003</ele>
        <time>2022-09-21T12:16:34Z</time>
      </trkpt>
      <trkpt lat="46.56149" lon="4.48167">
        <ele>367.403</ele>
        <time>2022-09-21T12:16:40Z</time>
      </trkpt>
      <trkpt lat="46.56142" lon="4.48169">
        <ele>368.503</ele>
        <time>2022-09-21T12:16:47Z</time>
      </trkpt>
      <trkpt lat="46.56135" lon="4.48173">
        <ele>370.303</ele>
        <time>2022-09-21T12:16:53Z</time>
      </trkpt>
      <trkpt lat="46.56128" lon="4.48178">
        <ele>372.303</ele>
        <time>2022-09-21T12:17:00Z</time>
      </trkpt>
      <trkpt lat="46.56122" lon="4.48183">
        <ele>373.003</ele>
        <time>2022-09-21T12:17:07Z</time>
      </trkpt>
      <trkpt lat="46.56116" lon="4.48188">
        <ele>374.303</ele>
        <time>2022-09-21T12:17:14Z</time>
      </trkpt>
      <trkpt lat="46.5611" lon="4.48194">
        <ele>375.603</ele>
        <time>2022-09-21T12:17:21Z</time>
      </trkpt>
      <trkpt lat="46.56103" lon="4.482">
        <ele>377.003</ele>
        <time>2022-09-21T12:17:28Z</time>
      </trkpt>
      <trkpt lat="46.56097" lon="4.48203">
        <ele>377.403</ele>
        <time>2022-09-21T12:17:34Z</time>
      </trkpt>
      <trkpt lat="46.5609" lon="4.48208">
        <ele>379.003</ele>
        <time>2022-09-21T12:17:41Z</time>
      </trkpt>
      <trkpt lat="46.56084" lon="4.48213">
        <ele>379.603</ele>
        <time>2022-09-21T12:17:48Z</time>
      </trkpt>
      <trkpt lat="46.56077" lon="4.48217">
        <ele>380.603</ele>
        <time>2022-09-21T12:17:54Z</time>
      </trkpt>
      <trkpt lat="46.56071" lon="4.4822">
        <ele>382.003</ele>
        <time>2022-09-21T12:18:01Z</time>
      </trkpt>
      <trkpt lat="46.56064" lon="4.48224">
        <ele>383.503</ele>
        <time>2022-09-21T12:18:09Z</time>
      </trkpt>
      <trkpt lat="46.56058" lon="4.48227">
        <ele>382.903</ele>
        <time>2022-09-21T12:18:16Z</time>
      </trkpt>
      <trkpt lat="46.56051" lon="4.48229">
        <ele>382.303</ele>
        <time>2022-09-21T12:18:23Z</time>
      </trkpt>
      <trkpt lat="46.56045" lon="4.48231">
        <ele>380.703</ele>
        <time>2022-09-21T12:18:30Z</time>
      </trkpt>
      <trkpt lat="46.56038" lon="4.48232">
        <ele>381.803</ele>
        <time>2022-09-21T12:18:37Z</time>
      </trkpt>
      <trkpt lat="46.56031" lon="4.48232">
        <ele>383.803</ele>
        <time>2022-09-21T12:18:42Z</time>
      </trkpt>
      <trkpt lat="46.56024" lon="4.48231">
        <ele>385.703</ele>
        <time>2022-09-21T12:18:49Z</time>
      </trkpt>
      <trkpt lat="46.56017" lon="4.4823">
        <ele>386.903</ele>
        <time>2022-09-21T12:18:55Z</time>
      </trkpt>
      <trkpt lat="46.5601" lon="4.4823">
        <ele>387.403</ele>
        <time>2022-09-21T12:19:02Z</time>
      </trkpt>
      <trkpt lat="46.56003" lon="4.48229">
        <ele>389.103</ele>
        <time>2022-09-21T12:19:08Z</time>
      </trkpt>
      <trkpt lat="46.55997" lon="4.48225">
        <ele>390.203</ele>
        <time>2022-09-21T12:19:14Z</time>
      </trkpt>
      <trkpt lat="46.5599" lon="4.48224">
        <ele>390.903</ele>
        <time>2022-09-21T12:19:23Z</time>
      </trkpt>
      <trkpt lat="46.55983" lon="4.4822">
        <ele>391.703</ele>
        <time>2022-09-21T12:19:29Z</time>
      </trkpt>
      <trkpt lat="46.55976" lon="4.4822">
        <ele>392.503</ele>
        <time>2022-09-21T12:19:35Z</time>
      </trkpt>
      <trkpt lat="46.55969" lon="4.48219">
        <ele>394.603</ele>
        <time>2022-09-21T12:19:42Z</time>
      </trkpt>
      <trkpt lat="46.55961" lon="4.4822">
        <ele>396.103</ele>
        <time>2022-09-21T12:19:49Z</time>
      </trkpt>
      <trkpt lat="46.55955" lon="4.48221">
        <ele>397.503</ele>
        <time>2022-09-21T12:19:58Z</time>
      </trkpt>
      <trkpt lat="46.55947" lon="4.48222">
        <ele>397.903</ele>
        <time>2022-09-21T12:20:05Z</time>
      </trkpt>
      <trkpt lat="46.5594" lon="4.48223">
        <ele>398.403</ele>
        <time>2022-09-21T12:20:13Z</time>
      </trkpt>
      <trkpt lat="46.55933" lon="4.48223">
        <ele>399.303</ele>
        <time>2022-09-21T12:20:21Z</time>
      </trkpt>
      <trkpt lat="46.55926" lon="4.48225">
        <ele>399.303</ele>
        <time>2022-09-21T12:20:28Z</time>
      </trkpt>
      <trkpt lat="46.55919" lon="4.48224">
        <ele>399.902</ele>
        <time>2022-09-21T12:20:34Z</time>
      </trkpt>
      <trkpt lat="46.55913" lon="4.48227">
        <ele>400.002</ele>
        <time>2022-09-21T12:20:40Z</time>
      </trkpt>
      <trkpt lat="46.55905" lon="4.48227">
        <ele>400.502</ele>
        <time>2022-09-21T12:20:47Z</time>
      </trkpt>
      <trkpt lat="46.55898" lon="4.48228">
        <ele>403.002</ele>
        <time>2022-09-21T12:20:53Z</time>
      </trkpt>
      <trkpt lat="46.55891" lon="4.4823">
        <ele>405.502</ele>
        <time>2022-09-21T12:21:00Z</time>
      </trkpt>
      <trkpt lat="46.55884" lon="4.48231">
        <ele>406.902</ele>
        <time>2022-09-21T12:21:06Z</time>
      </trkpt>
      <trkpt lat="46.55877" lon="4.48233">
        <ele>408.702</ele>
        <time>2022-09-21T12:21:12Z</time>
      </trkpt>
      <trkpt lat="46.55869" lon="4.48237">
        <ele>409.602</ele>
        <time>2022-09-21T12:21:18Z</time>
      </trkpt>
      <trkpt lat="46.55863" lon="4.48241">
        <ele>409.102</ele>
        <time>2022-09-21T12:21:25Z</time>
      </trkpt>
      <trkpt lat="46.55856" lon="4.4824">
        <ele>409.102</ele>
        <time>2022-09-21T12:21:30Z</time>
      </trkpt>
      <trkpt lat="46.5585" lon="4.48241">
        <ele>409.302</ele>
        <time>2022-09-21T12:21:36Z</time>
      </trkpt>
      <trkpt lat="46.55842" lon="4.48241">
        <ele>409.002</ele>
        <time>2022-09-21T12:21:42Z</time>
      </trkpt>
      <trkpt lat="46.55836" lon="4.48239">
        <ele>409.502</ele>
        <time>2022-09-21T12:21:47Z</time>
      </trkpt>
      <trkpt lat="46.55829" lon="4.48237">
        <ele>410.502</ele>
        <time>2022-09-21T12:21:53Z</time>
      </trkpt>
      <trkpt lat="46.55822" lon="4.48238">
        <ele>410.402</ele>
        <time>2022-09-21T12:21:58Z</time>
      </trkpt>
      <trkpt lat="46.55815" lon="4.48236">
        <ele>410.802</ele>
        <time>2022-09-21T12:22:04Z</time>
      </trkpt>
      <trkpt lat="46.55807" lon="4.48235">
        <ele>410.702</ele>
        <time>2022-09-21T12:22:10Z</time>
      </trkpt>
      <trkpt lat="46.55799" lon="4.48234">
        <ele>413.102</ele>
        <time>2022-09-21T12:22:16Z</time>
      </trkpt>
      <trkpt lat="46.55791" lon="4.4823">
        <ele>414.402</ele>
        <time>2022-09-21T12:22:22Z</time>
      </trkpt>
      <trkpt lat="46.55784" lon="4.48229">
        <ele>416.302</ele>
        <time>2022-09-21T12:22:27Z</time>
      </trkpt>
      <trkpt lat="46.55775" lon="4.48227">
        <ele>417.402</ele>
        <time>2022-09-21T12:22:32Z</time>
      </trkpt>
      <trkpt lat="46.55768" lon="4.48227">
        <ele>418.302</ele>
        <time>2022-09-21T12:22:38Z</time>
      </trkpt>
      <trkpt lat="46.55761" lon="4.48229">
        <ele>419.102</ele>
        <time>2022-09-21T12:22:44Z</time>
      </trkpt>
      <trkpt lat="46.55752" lon="4.48228">
        <ele>420.902</ele>
        <time>2022-09-21T12:22:50Z</time>
      </trkpt>
      <trkpt lat="46.55744" lon="4.4823">
        <ele>422.302</ele>
        <time>2022-09-21T12:22:55Z</time>
      </trkpt>
      <trkpt lat="46.55738" lon="4.48231">
        <ele>423.302</ele>
        <time>2022-09-21T12:23:01Z</time>
      </trkpt>
      <trkpt lat="46.55731" lon="4.48235">
        <ele>422.002</ele>
        <time>2022-09-21T12:23:08Z</time>
      </trkpt>
      <trkpt lat="46.55724" lon="4.48239">
        <ele>422.902</ele>
        <time>2022-09-21T12:23:14Z</time>
      </trkpt>
      <trkpt lat="46.55717" lon="4.48241">
        <ele>423.602</ele>
        <time>2022-09-21T12:23:19Z</time>
      </trkpt>
      <trkpt lat="46.5571" lon="4.48243">
        <ele>426.002</ele>
        <time>2022-09-21T12:23:26Z</time>
      </trkpt>
      <trkpt lat="46.55703" lon="4.48246">
        <ele>427.602</ele>
        <time>2022-09-21T12:23:31Z</time>
      </trkpt>
      <trkpt lat="46.55695" lon="4.4825">
        <ele>431.202</ele>
        <time>2022-09-21T12:23:36Z</time>
      </trkpt>
      <trkpt lat="46.55688" lon="4.48257">
        <ele>432.802</ele>
        <time>2022-09-21T12:23:42Z</time>
      </trkpt>
      <trkpt lat="46.55681" lon="4.48262">
        <ele>434.202</ele>
        <time>2022-09-21T12:23:48Z</time>
      </trkpt>
      <trkpt lat="46.55673" lon="4.48266">
        <ele>433.202</ele>
        <time>2022-09-21T12:23:54Z</time>
      </trkpt>
      <trkpt lat="46.55666" lon="4.4827">
        <ele>434.502</ele>
        <time>2022-09-21T12:24:01Z</time>
      </trkpt>
      <trkpt lat="46.55659" lon="4.4827">
        <ele>435.902</ele>
        <time>2022-09-21T12:24:07Z</time>
      </trkpt>
      <trkpt lat="46.55653" lon="4.48274">
        <ele>438.302</ele>
        <time>2022-09-21T12:25:15Z</time>
      </trkpt>
      <trkpt lat="46.55657" lon="4.48266">
        <ele>436.302</ele>
        <time>2022-09-21T12:26:04Z</time>
      </trkpt>
      <trkpt lat="46.5565" lon="4.48263">
        <ele>439.402</ele>
        <time>2022-09-21T12:26:12Z</time>
      </trkpt>
      <trkpt lat="46.55651" lon="4.48272">
        <ele>437.202</ele>
        <time>2022-09-21T12:26:24Z</time>
      </trkpt>
      <trkpt lat="46.55656" lon="4.48279">
        <ele>436.502</ele>
        <time>2022-09-21T12:26:38Z</time>
      </trkpt>
      <trkpt lat="46.55661" lon="4.48286">
        <ele>436.502</ele>
        <time>2022-09-21T12:26:47Z</time>
      </trkpt>
      <trkpt lat="46.55664" lon="4.48295">
        <ele>435.702</ele>
        <time>2022-09-21T12:26:55Z</time>
      </trkpt>
      <trkpt lat="46.55667" lon="4.48304">
        <ele>434.602</ele>
        <time>2022-09-21T12:27:05Z</time>
      </trkpt>
      <trkpt lat="46.5567" lon="4.48312">
        <ele>434.702</ele>
        <time>2022-09-21T12:27:14Z</time>
      </trkpt>
      <trkpt lat="46.55672" lon="4.48322">
        <ele>434.602</ele>
        <time>2022-09-21T12:27:30Z</time>
      </trkpt>
      <trkpt lat="46.55676" lon="4.48331">
        <ele>435.302</ele>
        <time>2022-09-21T12:27:39Z</time>
      </trkpt>
      <trkpt lat="46.5568" lon="4.48339">
        <ele>434.402</ele>
        <time>2022-09-21T12:27:49Z</time>
      </trkpt>
      <trkpt lat="46.55683" lon="4.48347">
        <ele>434.302</ele>
        <time>2022-09-21T12:27:59Z</time>
      </trkpt>
      <trkpt lat="46.55684" lon="4.48357">
        <ele>434.002</ele>
        <time>2022-09-21T12:28:06Z</time>
      </trkpt>
      <trkpt lat="46.55688" lon="4.48366">
        <ele>432.502</ele>
        <time>2022-09-21T12:28:12Z</time>
      </trkpt>
      <trkpt lat="46.55692" lon="4.48374">
        <ele>434.202</ele>
        <time>2022-09-21T12:28:24Z</time>
      </trkpt>
      <trkpt lat="46.55696" lon="4.48381">
        <ele>435.002</ele>
        <time>2022-09-21T12:28:33Z</time>
      </trkpt>
      <trkpt lat="46.557" lon="4.48389">
        <ele>434.002</ele>
        <time>2022-09-21T12:28:42Z</time>
      </trkpt>
      <trkpt lat="46.55705" lon="4.48396">
        <ele>433.302</ele>
        <time>2022-09-21T12:28:51Z</time>
      </trkpt>
      <trkpt lat="46.5571" lon="4.48404">
        <ele>429.702</ele>
        <time>2022-09-21T12:29:15Z</time>
      </trkpt>
      <trkpt lat="46.55715" lon="4.48411">
        <ele>426.802</ele>
        <time>2022-09-21T12:29:22Z</time>
      </trkpt>
      <trkpt lat="46.55718" lon="4.48421">
        <ele>425.302</ele>
        <time>2022-09-21T12:29:29Z</time>
      </trkpt>
      <trkpt lat="46.55721" lon="4.4843">
        <ele>423.602</ele>
        <time>2022-09-21T12:29:34Z</time>
      </trkpt>
      <trkpt lat="46.55726" lon="4.48439">
        <ele>423.402</ele>
        <time>2022-09-21T12:29:40Z</time>
      </trkpt>
      <trkpt lat="46.55731" lon="4.48447">
        <ele>423.802</ele>
        <time>2022-09-21T12:29:45Z</time>
      </trkpt>
      <trkpt lat="46.55736" lon="4.48455">
        <ele>423.502</ele>
        <time>2022-09-21T12:29:50Z</time>
      </trkpt>
      <trkpt lat="46.55741" lon="4.48461">
        <ele>426.702</ele>
        <time>2022-09-21T12:29:56Z</time>
      </trkpt>
      <trkpt lat="46.55745" lon="4.4847">
        <ele>426.002</ele>
        <time>2022-09-21T12:30:02Z</time>
      </trkpt>
      <trkpt lat="46.55748" lon="4.4848">
        <ele>426.002</ele>
        <time>2022-09-21T12:30:08Z</time>
      </trkpt>
      <trkpt lat="46.55751" lon="4.48489">
        <ele>426.602</ele>
        <time>2022-09-21T12:30:14Z</time>
      </trkpt>
      <trkpt lat="46.55755" lon="4.48497">
        <ele>426.602</ele>
        <time>2022-09-21T12:30:20Z</time>
      </trkpt>
      <trkpt lat="46.55757" lon="4.48507">
        <ele>426.402</ele>
        <time>2022-09-21T12:30:27Z</time>
      </trkpt>
      <trkpt lat="46.5576" lon="4.48516">
        <ele>427.302</ele>
        <time>2022-09-21T12:30:34Z</time>
      </trkpt>
      <trkpt lat="46.55764" lon="4.48525">
        <ele>429.302</ele>
        <time>2022-09-21T12:30:42Z</time>
      </trkpt>
      <trkpt lat="46.55767" lon="4.48533">
        <ele>430.702</ele>
        <time>2022-09-21T12:30:49Z</time>
      </trkpt>
      <trkpt lat="46.55769" lon="4.48543">
        <ele>431.302</ele>
        <time>2022-09-21T12:30:56Z</time>
      </trkpt>
      <trkpt lat="46.55771" lon="4.48553">
        <ele>431.702</ele>
        <time>2022-09-21T12:31:02Z</time>
      </trkpt>
      <trkpt lat="46.55774" lon="4.48563">
        <ele>432.902</ele>
        <time>2022-09-21T12:31:08Z</time>
      </trkpt>
      <trkpt lat="46.55775" lon="4.48573">
        <ele>434.802</ele>
        <time>2022-09-21T12:31:14Z</time>
      </trkpt>
      <trkpt lat="46.55778" lon="4.48583">
        <ele>436.202</ele>
        <time>2022-09-21T12:31:19Z</time>
      </trkpt>
      <trkpt lat="46.5578" lon="4.48593">
        <ele>437.902</ele>
        <time>2022-09-21T12:31:26Z</time>
      </trkpt>
      <trkpt lat="46.55782" lon="4.48603">
        <ele>436.802</ele>
        <time>2022-09-21T12:31:33Z</time>
      </trkpt>
      <trkpt lat="46.55786" lon="4.48611">
        <ele>438.602</ele>
        <time>2022-09-21T12:31:40Z</time>
      </trkpt>
      <trkpt lat="46.55787" lon="4.48622">
        <ele>440.602</ele>
        <time>2022-09-21T12:31:46Z</time>
      </trkpt>
      <trkpt lat="46.55789" lon="4.48633">
        <ele>445.802</ele>
        <time>2022-09-21T12:31:53Z</time>
      </trkpt>
      <trkpt lat="46.55785" lon="4.4864">
        <ele>446.302</ele>
        <time>2022-09-21T12:32:09Z</time>
      </trkpt>
      <trkpt lat="46.5578" lon="4.48649">
        <ele>446.002</ele>
        <time>2022-09-21T12:32:27Z</time>
      </trkpt>
      <trkpt lat="46.55779" lon="4.48659">
        <ele>446.702</ele>
        <time>2022-09-21T12:32:35Z</time>
      </trkpt>
      <trkpt lat="46.5578" lon="4.48668">
        <ele>446.102</ele>
        <time>2022-09-21T12:32:43Z</time>
      </trkpt>
      <trkpt lat="46.55782" lon="4.48678">
        <ele>447.402</ele>
        <time>2022-09-21T12:32:49Z</time>
      </trkpt>
      <trkpt lat="46.55782" lon="4.48689">
        <ele>448.502</ele>
        <time>2022-09-21T12:32:58Z</time>
      </trkpt>
      <trkpt lat="46.55779" lon="4.48698">
        <ele>452.302</ele>
        <time>2022-09-21T12:33:06Z</time>
      </trkpt>
      <trkpt lat="46.55773" lon="4.48703">
        <ele>454.602</ele>
        <time>2022-09-21T12:33:12Z</time>
      </trkpt>
      <trkpt lat="46.5577" lon="4.48713">
        <ele>455.302</ele>
        <time>2022-09-21T12:33:20Z</time>
      </trkpt>
      <trkpt lat="46.55766" lon="4.48721">
        <ele>455.102</ele>
        <time>2022-09-21T12:33:35Z</time>
      </trkpt>
      <trkpt lat="46.5576" lon="4.48725">
        <ele>455.302</ele>
        <time>2022-09-21T12:33:58Z</time>
      </trkpt>
      <trkpt lat="46.55756" lon="4.48732">
        <ele>455.802</ele>
        <time>2022-09-21T12:34:14Z</time>
      </trkpt>
      <trkpt lat="46.55762" lon="4.48731">
        <ele>455.002</ele>
        <time>2022-09-21T12:34:21Z</time>
      </trkpt>
      <trkpt lat="46.55763" lon="4.48722">
        <ele>454.102</ele>
        <time>2022-09-21T12:34:29Z</time>
      </trkpt>
      <trkpt lat="46.55755" lon="4.4872">
        <ele>452.602</ele>
        <time>2022-09-21T12:34:38Z</time>
      </trkpt>
      <trkpt lat="46.55751" lon="4.4873">
        <ele>450.902</ele>
        <time>2022-09-21T12:34:55Z</time>
      </trkpt>
      <trkpt lat="46.55759" lon="4.48732">
        <ele>451.702</ele>
        <time>2022-09-21T12:35:01Z</time>
      </trkpt>
      <trkpt lat="46.55753" lon="4.4874">
        <ele>449.802</ele>
        <time>2022-09-21T12:35:06Z</time>
      </trkpt>
      <trkpt lat="46.5576" lon="4.48738">
        <ele>450.902</ele>
        <time>2022-09-21T12:35:12Z</time>
      </trkpt>
      <trkpt lat="46.55763" lon="4.48728">
        <ele>450.902</ele>
        <time>2022-09-21T12:35:18Z</time>
      </trkpt>
      <trkpt lat="46.55768" lon="4.48734">
        <ele>456.402</ele>
        <time>2022-09-21T12:35:31Z</time>
      </trkpt>
      <trkpt lat="46.55765" lon="4.48745">
        <ele>458.602</ele>
        <time>2022-09-21T12:35:38Z</time>
      </trkpt>
      <trkpt lat="46.55761" lon="4.48753">
        <ele>460.202</ele>
        <time>2022-09-21T12:35:47Z</time>
      </trkpt>
      <trkpt lat="46.55758" lon="4.48761">
        <ele>462.602</ele>
        <time>2022-09-21T12:36:03Z</time>
      </trkpt>
      <trkpt lat="46.55755" lon="4.48752">
        <ele>461.302</ele>
        <time>2022-09-21T12:38:46Z</time>
      </trkpt>
      <trkpt lat="46.55752" lon="4.48743">
        <ele>459.402</ele>
        <time>2022-09-21T12:38:55Z</time>
      </trkpt>
      <trkpt lat="46.55756" lon="4.48751">
        <ele>457.702</ele>
        <time>2022-09-21T12:39:21Z</time>
      </trkpt>
      <trkpt lat="46.55758" lon="4.48761">
        <ele>458.302</ele>
        <time>2022-09-21T12:40:38Z</time>
      </trkpt>
      <trkpt lat="46.55763" lon="4.48753">
        <ele>461.102</ele>
        <time>2022-09-21T12:48:32Z</time>
      </trkpt>
      <trkpt lat="46.55766" lon="4.48744">
        <ele>460.002</ele>
        <time>2022-09-21T12:48:41Z</time>
      </trkpt>
      <trkpt lat="46.55766" lon="4.48734">
        <ele>457.402</ele>
        <time>2022-09-21T12:48:50Z</time>
      </trkpt>
      <trkpt lat="46.55767" lon="4.48724">
        <ele>455.602</ele>
        <time>2022-09-21T12:49:00Z</time>
      </trkpt>
      <trkpt lat="46.55769" lon="4.48714">
        <ele>454.602</ele>
        <time>2022-09-21T12:49:42Z</time>
      </trkpt>
      <trkpt lat="46.55766" lon="4.48704">
        <ele>452.402</ele>
        <time>2022-09-21T12:56:58Z</time>
      </trkpt>
      <trkpt lat="46.5577" lon="4.48697">
        <ele>451.202</ele>
        <time>2022-09-21T12:57:05Z</time>
      </trkpt>
      <trkpt lat="46.55776" lon="4.48693">
        <ele>451.302</ele>
        <time>2022-09-21T12:57:17Z</time>
      </trkpt>
      <trkpt lat="46.55781" lon="4.48686">
        <ele>452.302</ele>
        <time>2022-09-21T12:57:30Z</time>
      </trkpt>
      <trkpt lat="46.55781" lon="4.48676">
        <ele>451.202</ele>
        <time>2022-09-21T12:57:37Z</time>
      </trkpt>
      <trkpt lat="46.55779" lon="4.48667">
        <ele>451.302</ele>
        <time>2022-09-21T12:57:43Z</time>
      </trkpt>
      <trkpt lat="46.55779" lon="4.48656">
        <ele>450.002</ele>
        <time>2022-09-21T12:57:51Z</time>
      </trkpt>
      <trkpt lat="46.55779" lon="4.48647">
        <ele>449.602</ele>
        <time>2022-09-21T12:58:00Z</time>
      </trkpt>
      <trkpt lat="46.55783" lon="4.48639">
        <ele>451.602</ele>
        <time>2022-09-21T12:58:21Z</time>
      </trkpt>
      <trkpt lat="46.55786" lon="4.4863">
        <ele>450.002</ele>
        <time>2022-09-21T12:58:28Z</time>
      </trkpt>
      <trkpt lat="46.55785" lon="4.4862">
        <ele>450.202</ele>
        <time>2022-09-21T12:58:38Z</time>
      </trkpt>
      <trkpt lat="46.55781" lon="4.48611">
        <ele>445.802</ele>
        <time>2022-09-21T13:01:18Z</time>
      </trkpt>
      <trkpt lat="46.55779" lon="4.48602">
        <ele>443.702</ele>
        <time>2022-09-21T13:01:27Z</time>
      </trkpt>
      <trkpt lat="46.55777" lon="4.48592">
        <ele>443.102</ele>
        <time>2022-09-21T13:01:34Z</time>
      </trkpt>
      <trkpt lat="46.55774" lon="4.48582">
        <ele>443.002</ele>
        <time>2022-09-21T13:01:41Z</time>
      </trkpt>
      <trkpt lat="46.55776" lon="4.48572">
        <ele>444.602</ele>
        <time>2022-09-21T13:01:48Z</time>
      </trkpt>
      <trkpt lat="46.55771" lon="4.48561">
        <ele>443.002</ele>
        <time>2022-09-21T13:01:56Z</time>
      </trkpt>
      <trkpt lat="46.55769" lon="4.4855">
        <ele>441.402</ele>
        <time>2022-09-21T13:02:02Z</time>
      </trkpt>
      <trkpt lat="46.55766" lon="4.4854">
        <ele>441.702</ele>
        <time>2022-09-21T13:02:09Z</time>
      </trkpt>
      <trkpt lat="46.55762" lon="4.48532">
        <ele>440.902</ele>
        <time>2022-09-21T13:02:15Z</time>
      </trkpt>
      <trkpt lat="46.5576" lon="4.48523">
        <ele>438.602</ele>
        <time>2022-09-21T13:02:22Z</time>
      </trkpt>
      <trkpt lat="46.55759" lon="4.48512">
        <ele>437.902</ele>
        <time>2022-09-21T13:02:30Z</time>
      </trkpt>
      <trkpt lat="46.55756" lon="4.48504">
        <ele>437.102</ele>
        <time>2022-09-21T13:02:35Z</time>
      </trkpt>
      <trkpt lat="46.55752" lon="4.48495">
        <ele>437.102</ele>
        <time>2022-09-21T13:02:41Z</time>
      </trkpt>
      <trkpt lat="46.5575" lon="4.48486">
        <ele>435.502</ele>
        <time>2022-09-21T13:02:47Z</time>
      </trkpt>
      <trkpt lat="46.55747" lon="4.48476">
        <ele>435.602</ele>
        <time>2022-09-21T13:02:53Z</time>
      </trkpt>
      <trkpt lat="46.55744" lon="4.48467">
        <ele>435.102</ele>
        <time>2022-09-21T13:03:00Z</time>
      </trkpt>
      <trkpt lat="46.55739" lon="4.4846">
        <ele>434.902</ele>
        <time>2022-09-21T13:03:07Z</time>
      </trkpt>
      <trkpt lat="46.55732" lon="4.48455">
        <ele>435.402</ele>
        <time>2022-09-21T13:03:13Z</time>
      </trkpt>
      <trkpt lat="46.55726" lon="4.48449">
        <ele>435.602</ele>
        <time>2022-09-21T13:03:19Z</time>
      </trkpt>
      <trkpt lat="46.55723" lon="4.48438">
        <ele>436.302</ele>
        <time>2022-09-21T13:03:25Z</time>
      </trkpt>
      <trkpt lat="46.55718" lon="4.48432">
        <ele>435.002</ele>
        <time>2022-09-21T13:03:31Z</time>
      </trkpt>
      <trkpt lat="46.55715" lon="4.48422">
        <ele>432.002</ele>
        <time>2022-09-21T13:03:37Z</time>
      </trkpt>
      <trkpt lat="46.55712" lon="4.48414">
        <ele>428.402</ele>
        <time>2022-09-21T13:03:44Z</time>
      </trkpt>
      <trkpt lat="46.55709" lon="4.48405">
        <ele>426.602</ele>
        <time>2022-09-21T13:03:52Z</time>
      </trkpt>
      <trkpt lat="46.55708" lon="4.48393">
        <ele>430.702</ele>
        <time>2022-09-21T13:04:57Z</time>
      </trkpt>
      <trkpt lat="46.55715" lon="4.48394">
        <ele>430.102</ele>
        <time>2022-09-21T13:05:13Z</time>
      </trkpt>
      <trkpt lat="46.55722" lon="4.48399">
        <ele>429.702</ele>
        <time>2022-09-21T13:05:19Z</time>
      </trkpt>
      <trkpt lat="46.55728" lon="4.48403">
        <ele>432.102</ele>
        <time>2022-09-21T13:05:25Z</time>
      </trkpt>
      <trkpt lat="46.55735" lon="4.48404">
        <ele>432.102</ele>
        <time>2022-09-21T13:05:31Z</time>
      </trkpt>
      <trkpt lat="46.55742" lon="4.48406">
        <ele>430.002</ele>
        <time>2022-09-21T13:05:37Z</time>
      </trkpt>
      <trkpt lat="46.55749" lon="4.48408">
        <ele>424.902</ele>
        <time>2022-09-21T13:05:48Z</time>
      </trkpt>
      <trkpt lat="46.55756" lon="4.48412">
        <ele>421.602</ele>
        <time>2022-09-21T13:05:58Z</time>
      </trkpt>
      <trkpt lat="46.55763" lon="4.48414">
        <ele>420.602</ele>
        <time>2022-09-21T13:06:04Z</time>
      </trkpt>
      <trkpt lat="46.5577" lon="4.48416">
        <ele>418.902</ele>
        <time>2022-09-21T13:06:09Z</time>
      </trkpt>
      <trkpt lat="46.5578" lon="4.48421">
        <ele>420.102</ele>
        <time>2022-09-21T13:06:14Z</time>
      </trkpt>
      <trkpt lat="46.55787" lon="4.48423">
        <ele>420.602</ele>
        <time>2022-09-21T13:06:19Z</time>
      </trkpt>
      <trkpt lat="46.55796" lon="4.48426">
        <ele>422.102</ele>
        <time>2022-09-21T13:06:25Z</time>
      </trkpt>
      <trkpt lat="46.55803" lon="4.4843">
        <ele>423.002</ele>
        <time>2022-09-21T13:06:30Z</time>
      </trkpt>
      <trkpt lat="46.5581" lon="4.48434">
        <ele>423.602</ele>
        <time>2022-09-21T13:06:35Z</time>
      </trkpt>
      <trkpt lat="46.55819" lon="4.4844">
        <ele>425.002</ele>
        <time>2022-09-21T13:06:41Z</time>
      </trkpt>
      <trkpt lat="46.55825" lon="4.48445">
        <ele>424.402</ele>
        <time>2022-09-21T13:06:46Z</time>
      </trkpt>
      <trkpt lat="46.55831" lon="4.4845">
        <ele>424.002</ele>
        <time>2022-09-21T13:06:51Z</time>
      </trkpt>
      <trkpt lat="46.5584" lon="4.48453">
        <ele>425.402</ele>
        <time>2022-09-21T13:06:57Z</time>
      </trkpt>
      <trkpt lat="46.55847" lon="4.48457">
        <ele>425.902</ele>
        <time>2022-09-21T13:07:02Z</time>
      </trkpt>
      <trkpt lat="46.55853" lon="4.48462">
        <ele>423.702</ele>
        <time>2022-09-21T13:07:08Z</time>
      </trkpt>
      <trkpt lat="46.5586" lon="4.48467">
        <ele>425.503</ele>
        <time>2022-09-21T13:07:13Z</time>
      </trkpt>
      <trkpt lat="46.55866" lon="4.48472">
        <ele>426.403</ele>
        <time>2022-09-21T13:07:19Z</time>
      </trkpt>
      <trkpt lat="46.55874" lon="4.4848">
        <ele>424.003</ele>
        <time>2022-09-21T13:07:25Z</time>
      </trkpt>
      <trkpt lat="46.55878" lon="4.48488">
        <ele>419.903</ele>
        <time>2022-09-21T13:07:32Z</time>
      </trkpt>
      <trkpt lat="46.55883" lon="4.48495">
        <ele>421.103</ele>
        <time>2022-09-21T13:07:38Z</time>
      </trkpt>
      <trkpt lat="46.55888" lon="4.48504">
        <ele>421.603</ele>
        <time>2022-09-21T13:07:43Z</time>
      </trkpt>
      <trkpt lat="46.55892" lon="4.48512">
        <ele>419.603</ele>
        <time>2022-09-21T13:07:50Z</time>
      </trkpt>
      <trkpt lat="46.55894" lon="4.48521">
        <ele>420.803</ele>
        <time>2022-09-21T13:07:56Z</time>
      </trkpt>
      <trkpt lat="46.55896" lon="4.48531">
        <ele>421.403</ele>
        <time>2022-09-21T13:08:01Z</time>
      </trkpt>
      <trkpt lat="46.559" lon="4.4854">
        <ele>419.903</ele>
        <time>2022-09-21T13:08:08Z</time>
      </trkpt>
      <trkpt lat="46.55902" lon="4.4855">
        <ele>422.103</ele>
        <time>2022-09-21T13:08:13Z</time>
      </trkpt>
      <trkpt lat="46.55907" lon="4.48559">
        <ele>421.003</ele>
        <time>2022-09-21T13:08:19Z</time>
      </trkpt>
      <trkpt lat="46.5591" lon="4.48572">
        <ele>419.503</ele>
        <time>2022-09-21T13:08:25Z</time>
      </trkpt>
      <trkpt lat="46.55913" lon="4.48582">
        <ele>419.103</ele>
        <time>2022-09-21T13:08:31Z</time>
      </trkpt>
      <trkpt lat="46.55916" lon="4.48594">
        <ele>419.703</ele>
        <time>2022-09-21T13:08:37Z</time>
      </trkpt>
      <trkpt lat="46.55917" lon="4.48603">
        <ele>417.203</ele>
        <time>2022-09-21T13:08:43Z</time>
      </trkpt>
      <trkpt lat="46.55919" lon="4.48615">
        <ele>415.603</ele>
        <time>2022-09-21T13:08:49Z</time>
      </trkpt>
      <trkpt lat="46.55921" lon="4.48624">
        <ele>414.603</ele>
        <time>2022-09-21T13:08:55Z</time>
      </trkpt>
      <trkpt lat="46.55924" lon="4.48635">
        <ele>414.403</ele>
        <time>2022-09-21T13:09:01Z</time>
      </trkpt>
      <trkpt lat="46.55929" lon="4.48643">
        <ele>414.503</ele>
        <time>2022-09-21T13:09:06Z</time>
      </trkpt>
      <trkpt lat="46.5593" lon="4.48654">
        <ele>415.903</ele>
        <time>2022-09-21T13:09:12Z</time>
      </trkpt>
      <trkpt lat="46.55932" lon="4.48663">
        <ele>416.003</ele>
        <time>2022-09-21T13:09:17Z</time>
      </trkpt>
      <trkpt lat="46.55935" lon="4.48674">
        <ele>415.803</ele>
        <time>2022-09-21T13:09:24Z</time>
      </trkpt>
      <trkpt lat="46.55938" lon="4.48684">
        <ele>413.803</ele>
        <time>2022-09-21T13:09:30Z</time>
      </trkpt>
      <trkpt lat="46.55942" lon="4.48693">
        <ele>414.303</ele>
        <time>2022-09-21T13:09:35Z</time>
      </trkpt>
      <trkpt lat="46.55948" lon="4.48701">
        <ele>416.103</ele>
        <time>2022-09-21T13:09:41Z</time>
      </trkpt>
      <trkpt lat="46.55949" lon="4.48711">
        <ele>414.903</ele>
        <time>2022-09-21T13:09:46Z</time>
      </trkpt>
      <trkpt lat="46.55953" lon="4.4872">
        <ele>411.503</ele>
        <time>2022-09-21T13:09:53Z</time>
      </trkpt>
      <trkpt lat="46.55955" lon="4.48729">
        <ele>410.203</ele>
        <time>2022-09-21T13:09:59Z</time>
      </trkpt>
      <trkpt lat="46.55959" lon="4.48739">
        <ele>411.703</ele>
        <time>2022-09-21T13:10:05Z</time>
      </trkpt>
      <trkpt lat="46.55961" lon="4.48748">
        <ele>411.703</ele>
        <time>2022-09-21T13:10:10Z</time>
      </trkpt>
      <trkpt lat="46.55965" lon="4.48758">
        <ele>411.303</ele>
        <time>2022-09-21T13:10:15Z</time>
      </trkpt>
      <trkpt lat="46.55968" lon="4.48768">
        <ele>412.503</ele>
        <time>2022-09-21T13:10:21Z</time>
      </trkpt>
      <trkpt lat="46.55971" lon="4.48779">
        <ele>412.003</ele>
        <time>2022-09-21T13:10:26Z</time>
      </trkpt>
      <trkpt lat="46.55975" lon="4.48788">
        <ele>412.303</ele>
        <time>2022-09-21T13:10:33Z</time>
      </trkpt>
      <trkpt lat="46.55978" lon="4.48797">
        <ele>411.803</ele>
        <time>2022-09-21T13:10:40Z</time>
      </trkpt>
      <trkpt lat="46.55979" lon="4.48807">
        <ele>409.803</ele>
        <time>2022-09-21T13:10:46Z</time>
      </trkpt>
      <trkpt lat="46.55982" lon="4.48818">
        <ele>409.703</ele>
        <time>2022-09-21T13:10:51Z</time>
      </trkpt>
      <trkpt lat="46.55983" lon="4.4883">
        <ele>410.903</ele>
        <time>2022-09-21T13:10:57Z</time>
      </trkpt>
      <trkpt lat="46.55987" lon="4.48839">
        <ele>409.503</ele>
        <time>2022-09-21T13:11:05Z</time>
      </trkpt>
      <trkpt lat="46.5599" lon="4.48849">
        <ele>407.503</ele>
        <time>2022-09-21T13:11:13Z</time>
      </trkpt>
      <trkpt lat="46.55995" lon="4.48857">
        <ele>406.803</ele>
        <time>2022-09-21T13:11:19Z</time>
      </trkpt>
      <trkpt lat="46.56001" lon="4.48866">
        <ele>405.103</ele>
        <time>2022-09-21T13:11:25Z</time>
      </trkpt>
      <trkpt lat="46.56005" lon="4.48873">
        <ele>404.103</ele>
        <time>2022-09-21T13:11:31Z</time>
      </trkpt>
      <trkpt lat="46.56005" lon="4.48884">
        <ele>404.103</ele>
        <time>2022-09-21T13:11:37Z</time>
      </trkpt>
      <trkpt lat="46.56004" lon="4.48894">
        <ele>403.603</ele>
        <time>2022-09-21T13:11:43Z</time>
      </trkpt>
      <trkpt lat="46.56003" lon="4.48905">
        <ele>401.503</ele>
        <time>2022-09-21T13:11:49Z</time>
      </trkpt>
      <trkpt lat="46.56" lon="4.48914">
        <ele>402.003</ele>
        <time>2022-09-21T13:11:55Z</time>
      </trkpt>
      <trkpt lat="46.55996" lon="4.48922">
        <ele>401.703</ele>
        <time>2022-09-21T13:12:01Z</time>
      </trkpt>
      <trkpt lat="46.55991" lon="4.48928">
        <ele>399.703</ele>
        <time>2022-09-21T13:12:06Z</time>
      </trkpt>
      <trkpt lat="46.55987" lon="4.48938">
        <ele>397.703</ele>
        <time>2022-09-21T13:12:12Z</time>
      </trkpt>
      <trkpt lat="46.55986" lon="4.48948">
        <ele>396.403</ele>
        <time>2022-09-21T13:12:19Z</time>
      </trkpt>
      <trkpt lat="46.55987" lon="4.48958">
        <ele>395.403</ele>
        <time>2022-09-21T13:12:26Z</time>
      </trkpt>
      <trkpt lat="46.55991" lon="4.48967">
        <ele>392.703</ele>
        <time>2022-09-21T13:12:32Z</time>
      </trkpt>
      <trkpt lat="46.55992" lon="4.48976">
        <ele>392.403</ele>
        <time>2022-09-21T13:12:38Z</time>
      </trkpt>
      <trkpt lat="46.55998" lon="4.48985">
        <ele>392.003</ele>
        <time>2022-09-21T13:12:43Z</time>
      </trkpt>
      <trkpt lat="46.56001" lon="4.48994">
        <ele>390.103</ele>
        <time>2022-09-21T13:12:50Z</time>
      </trkpt>
      <trkpt lat="46.56005" lon="4.49001">
        <ele>387.103</ele>
        <time>2022-09-21T13:12:56Z</time>
      </trkpt>
      <trkpt lat="46.56006" lon="4.49011">
        <ele>384.903</ele>
        <time>2022-09-21T13:13:01Z</time>
      </trkpt>
      <trkpt lat="46.56008" lon="4.49021">
        <ele>381.703</ele>
        <time>2022-09-21T13:13:07Z</time>
      </trkpt>
      <trkpt lat="46.56005" lon="4.49032">
        <ele>380.903</ele>
        <time>2022-09-21T13:13:13Z</time>
      </trkpt>
      <trkpt lat="46.56002" lon="4.49042">
        <ele>382.003</ele>
        <time>2022-09-21T13:13:20Z</time>
      </trkpt>
      <trkpt lat="46.55997" lon="4.4905">
        <ele>381.503</ele>
        <time>2022-09-21T13:13:28Z</time>
      </trkpt>
      <trkpt lat="46.55992" lon="4.49059">
        <ele>378.903</ele>
        <time>2022-09-21T13:13:34Z</time>
      </trkpt>
      <trkpt lat="46.55988" lon="4.49067">
        <ele>376.803</ele>
        <time>2022-09-21T13:13:40Z</time>
      </trkpt>
      <trkpt lat="46.55984" lon="4.49075">
        <ele>373.103</ele>
        <time>2022-09-21T13:13:46Z</time>
      </trkpt>
      <trkpt lat="46.5598" lon="4.49083">
        <ele>368.403</ele>
        <time>2022-09-21T13:13:52Z</time>
      </trkpt>
      <trkpt lat="46.55978" lon="4.49093">
        <ele>368.703</ele>
        <time>2022-09-21T13:13:58Z</time>
      </trkpt>
      <trkpt lat="46.55975" lon="4.49103">
        <ele>369.203</ele>
        <time>2022-09-21T13:14:05Z</time>
      </trkpt>
      <trkpt lat="46.55972" lon="4.49112">
        <ele>370.603</ele>
        <time>2022-09-21T13:14:10Z</time>
      </trkpt>
      <trkpt lat="46.5597" lon="4.49122">
        <ele>370.003</ele>
        <time>2022-09-21T13:14:16Z</time>
      </trkpt>
      <trkpt lat="46.55968" lon="4.49133">
        <ele>370.703</ele>
        <time>2022-09-21T13:14:22Z</time>
      </trkpt>
      <trkpt lat="46.55965" lon="4.49142">
        <ele>370.803</ele>
        <time>2022-09-21T13:14:27Z</time>
      </trkpt>
      <trkpt lat="46.55962" lon="4.49154">
        <ele>371.703</ele>
        <time>2022-09-21T13:14:33Z</time>
      </trkpt>
      <trkpt lat="46.55959" lon="4.49165">
        <ele>372.103</ele>
        <time>2022-09-21T13:14:39Z</time>
      </trkpt>
      <trkpt lat="46.55957" lon="4.49177">
        <ele>371.103</ele>
        <time>2022-09-21T13:14:45Z</time>
      </trkpt>
      <trkpt lat="46.55955" lon="4.49186">
        <ele>370.703</ele>
        <time>2022-09-21T13:14:51Z</time>
      </trkpt>
      <trkpt lat="46.55953" lon="4.49198">
        <ele>370.203</ele>
        <time>2022-09-21T13:14:57Z</time>
      </trkpt>
      <trkpt lat="46.55951" lon="4.49208">
        <ele>369.803</ele>
        <time>2022-09-21T13:15:03Z</time>
      </trkpt>
      <trkpt lat="46.55948" lon="4.4922">
        <ele>368.703</ele>
        <time>2022-09-21T13:15:09Z</time>
      </trkpt>
      <trkpt lat="46.55946" lon="4.49231">
        <ele>370.003</ele>
        <time>2022-09-21T13:15:16Z</time>
      </trkpt>
      <trkpt lat="46.55944" lon="4.49242">
        <ele>369.003</ele>
        <time>2022-09-21T13:15:21Z</time>
      </trkpt>
      <trkpt lat="46.55942" lon="4.49251">
        <ele>368.603</ele>
        <time>2022-09-21T13:15:26Z</time>
      </trkpt>
      <trkpt lat="46.55939" lon="4.49262">
        <ele>366.203</ele>
        <time>2022-09-21T13:15:32Z</time>
      </trkpt>
      <trkpt lat="46.55937" lon="4.49272">
        <ele>364.703</ele>
        <time>2022-09-21T13:15:37Z</time>
      </trkpt>
      <trkpt lat="46.55936" lon="4.49282">
        <ele>363.303</ele>
        <time>2022-09-21T13:15:43Z</time>
      </trkpt>
      <trkpt lat="46.55933" lon="4.49292">
        <ele>362.403</ele>
        <time>2022-09-21T13:15:49Z</time>
      </trkpt>
      <trkpt lat="46.5593" lon="4.49301">
        <ele>362.303</ele>
        <time>2022-09-21T13:15:55Z</time>
      </trkpt>
      <trkpt lat="46.55928" lon="4.49313">
        <ele>361.503</ele>
        <time>2022-09-21T13:16:01Z</time>
      </trkpt>
      <trkpt lat="46.55926" lon="4.49323">
        <ele>360.803</ele>
        <time>2022-09-21T13:16:07Z</time>
      </trkpt>
      <trkpt lat="46.55923" lon="4.49335">
        <ele>360.203</ele>
        <time>2022-09-21T13:16:13Z</time>
      </trkpt>
      <trkpt lat="46.55923" lon="4.49345">
        <ele>360.303</ele>
        <time>2022-09-21T13:16:20Z</time>
      </trkpt>
      <trkpt lat="46.55923" lon="4.49356">
        <ele>360.003</ele>
        <time>2022-09-21T13:16:25Z</time>
      </trkpt>
      <trkpt lat="46.55926" lon="4.49366">
        <ele>360.103</ele>
        <time>2022-09-21T13:16:31Z</time>
      </trkpt>
      <trkpt lat="46.55927" lon="4.49376">
        <ele>358.503</ele>
        <time>2022-09-21T13:16:39Z</time>
      </trkpt>
      <trkpt lat="46.55925" lon="4.49365">
        <ele>356.803</ele>
        <time>2022-09-21T13:17:28Z</time>
      </trkpt>
      <trkpt lat="46.55919" lon="4.49367">
        <ele>361.303</ele>
        <time>2022-09-21T13:20:34Z</time>
      </trkpt>
      <trkpt lat="46.55914" lon="4.49374">
        <ele>356.603</ele>
        <time>2022-09-21T13:20:43Z</time>
      </trkpt>
      <trkpt lat="46.55909" lon="4.49381">
        <ele>352.803</ele>
        <time>2022-09-21T13:21:00Z</time>
      </trkpt>
      <trkpt lat="46.55903" lon="4.49386">
        <ele>351.203</ele>
        <time>2022-09-21T13:21:09Z</time>
      </trkpt>
      <trkpt lat="46.55897" lon="4.49393">
        <ele>350.003</ele>
        <time>2022-09-21T13:21:16Z</time>
      </trkpt>
      <trkpt lat="46.55892" lon="4.49399">
        <ele>349.203</ele>
        <time>2022-09-21T13:21:22Z</time>
      </trkpt>
      <trkpt lat="46.55887" lon="4.49407">
        <ele>348.103</ele>
        <time>2022-09-21T13:21:29Z</time>
      </trkpt>
      <trkpt lat="46.55882" lon="4.49416">
        <ele>347.303</ele>
        <time>2022-09-21T13:21:34Z</time>
      </trkpt>
      <trkpt lat="46.55878" lon="4.49424">
        <ele>347.203</ele>
        <time>2022-09-21T13:21:39Z</time>
      </trkpt>
      <trkpt lat="46.55872" lon="4.49429">
        <ele>346.603</ele>
        <time>2022-09-21T13:21:45Z</time>
      </trkpt>
      <trkpt lat="46.55868" lon="4.49436">
        <ele>346.203</ele>
        <time>2022-09-21T13:21:50Z</time>
      </trkpt>
      <trkpt lat="46.55861" lon="4.49439">
        <ele>345.903</ele>
        <time>2022-09-21T13:21:56Z</time>
      </trkpt>
      <trkpt lat="46.55855" lon="4.49443">
        <ele>345.403</ele>
        <time>2022-09-21T13:22:01Z</time>
      </trkpt>
      <trkpt lat="46.55848" lon="4.49448">
        <ele>344.603</ele>
        <time>2022-09-21T13:22:07Z</time>
      </trkpt>
      <trkpt lat="46.55841" lon="4.49454">
        <ele>344.303</ele>
        <time>2022-09-21T13:22:13Z</time>
      </trkpt>
      <trkpt lat="46.55835" lon="4.4946">
        <ele>344.703</ele>
        <time>2022-09-21T13:22:19Z</time>
      </trkpt>
      <trkpt lat="46.55828" lon="4.49465">
        <ele>342.503</ele>
        <time>2022-09-21T13:22:24Z</time>
      </trkpt>
      <trkpt lat="46.55824" lon="4.49472">
        <ele>340.503</ele>
        <time>2022-09-21T13:22:31Z</time>
      </trkpt>
      <trkpt lat="46.55818" lon="4.49481">
        <ele>343.103</ele>
        <time>2022-09-21T13:22:37Z</time>
      </trkpt>
      <trkpt lat="46.55812" lon="4.49488">
        <ele>342.403</ele>
        <time>2022-09-21T13:22:43Z</time>
      </trkpt>
      <trkpt lat="46.55807" lon="4.49498">
        <ele>340.303</ele>
        <time>2022-09-21T13:22:49Z</time>
      </trkpt>
      <trkpt lat="46.55804" lon="4.49507">
        <ele>337.903</ele>
        <time>2022-09-21T13:22:55Z</time>
      </trkpt>
      <trkpt lat="46.558" lon="4.49518">
        <ele>337.103</ele>
        <time>2022-09-21T13:23:01Z</time>
      </trkpt>
      <trkpt lat="46.55796" lon="4.49526">
        <ele>337.503</ele>
        <time>2022-09-21T13:23:07Z</time>
      </trkpt>
      <trkpt lat="46.55793" lon="4.4954">
        <ele>338.603</ele>
        <time>2022-09-21T13:23:13Z</time>
      </trkpt>
      <trkpt lat="46.55788" lon="4.49548">
        <ele>337.503</ele>
        <time>2022-09-21T13:23:19Z</time>
      </trkpt>
      <trkpt lat="46.55786" lon="4.49557">
        <ele>337.903</ele>
        <time>2022-09-21T13:23:25Z</time>
      </trkpt>
      <trkpt lat="46.55781" lon="4.49564">
        <ele>336.503</ele>
        <time>2022-09-21T13:23:31Z</time>
      </trkpt>
      <trkpt lat="46.55779" lon="4.49574">
        <ele>337.703</ele>
        <time>2022-09-21T13:23:37Z</time>
      </trkpt>
      <trkpt lat="46.55775" lon="4.49582">
        <ele>335.803</ele>
        <time>2022-09-21T13:23:42Z</time>
      </trkpt>
      <trkpt lat="46.55771" lon="4.49592">
        <ele>334.303</ele>
        <time>2022-09-21T13:23:48Z</time>
      </trkpt>
      <trkpt lat="46.55767" lon="4.49601">
        <ele>333.403</ele>
        <time>2022-09-21T13:23:55Z</time>
      </trkpt>
      <trkpt lat="46.55764" lon="4.49609">
        <ele>332.703</ele>
        <time>2022-09-21T13:24:01Z</time>
      </trkpt>
      <trkpt lat="46.55761" lon="4.49618">
        <ele>331.303</ele>
        <time>2022-09-21T13:24:08Z</time>
      </trkpt>
      <trkpt lat="46.55756" lon="4.49627">
        <ele>329.603</ele>
        <time>2022-09-21T13:24:13Z</time>
      </trkpt>
      <trkpt lat="46.55753" lon="4.49637">
        <ele>329.703</ele>
        <time>2022-09-21T13:24:19Z</time>
      </trkpt>
      <trkpt lat="46.5575" lon="4.49648">
        <ele>328.903</ele>
        <time>2022-09-21T13:24:25Z</time>
      </trkpt>
      <trkpt lat="46.55749" lon="4.49659">
        <ele>326.603</ele>
        <time>2022-09-21T13:24:32Z</time>
      </trkpt>
      <trkpt lat="46.55746" lon="4.49669">
        <ele>327.703</ele>
        <time>2022-09-21T13:24:39Z</time>
      </trkpt>
      <trkpt lat="46.55741" lon="4.49681">
        <ele>329.003</ele>
        <time>2022-09-21T13:24:45Z</time>
      </trkpt>
      <trkpt lat="46.55738" lon="4.4969">
        <ele>330.903</ele>
        <time>2022-09-21T13:24:50Z</time>
      </trkpt>
      <trkpt lat="46.55733" lon="4.497">
        <ele>329.303</ele>
        <time>2022-09-21T13:24:55Z</time>
      </trkpt>
      <trkpt lat="46.5573" lon="4.49709">
        <ele>325.603</ele>
        <time>2022-09-21T13:25:01Z</time>
      </trkpt>
      <trkpt lat="46.55726" lon="4.49718">
        <ele>322.903</ele>
        <time>2022-09-21T13:25:08Z</time>
      </trkpt>
      <trkpt lat="46.55725" lon="4.49729">
        <ele>324.203</ele>
        <time>2022-09-21T13:25:13Z</time>
      </trkpt>
      <trkpt lat="46.55721" lon="4.49738">
        <ele>322.203</ele>
        <time>2022-09-21T13:25:18Z</time>
      </trkpt>
      <trkpt lat="46.5572" lon="4.49748">
        <ele>320.003</ele>
        <time>2022-09-21T13:25:23Z</time>
      </trkpt>
      <trkpt lat="46.5572" lon="4.49759">
        <ele>319.003</ele>
        <time>2022-09-21T13:25:29Z</time>
      </trkpt>
      <trkpt lat="46.55719" lon="4.49769">
        <ele>319.603</ele>
        <time>2022-09-21T13:25:34Z</time>
      </trkpt>
      <trkpt lat="46.55717" lon="4.4978">
        <ele>318.803</ele>
        <time>2022-09-21T13:25:40Z</time>
      </trkpt>
      <trkpt lat="46.55714" lon="4.4979">
        <ele>320.503</ele>
        <time>2022-09-21T13:25:45Z</time>
      </trkpt>
      <trkpt lat="46.55712" lon="4.498">
        <ele>319.903</ele>
        <time>2022-09-21T13:25:50Z</time>
      </trkpt>
      <trkpt lat="46.55708" lon="4.49809">
        <ele>318.403</ele>
        <time>2022-09-21T13:25:56Z</time>
      </trkpt>
      <trkpt lat="46.55706" lon="4.49819">
        <ele>316.103</ele>
        <time>2022-09-21T13:26:03Z</time>
      </trkpt>
      <trkpt lat="46.55703" lon="4.4983">
        <ele>317.803</ele>
        <time>2022-09-21T13:26:09Z</time>
      </trkpt>
      <trkpt lat="46.557" lon="4.49838">
        <ele>316.403</ele>
        <time>2022-09-21T13:26:14Z</time>
      </trkpt>
      <trkpt lat="46.55696" lon="4.49846">
        <ele>316.103</ele>
        <time>2022-09-21T13:26:19Z</time>
      </trkpt>
      <trkpt lat="46.55693" lon="4.49856">
        <ele>315.603</ele>
        <time>2022-09-21T13:26:25Z</time>
      </trkpt>
      <trkpt lat="46.5569" lon="4.49867">
        <ele>315.503</ele>
        <time>2022-09-21T13:26:31Z</time>
      </trkpt>
      <trkpt lat="46.55687" lon="4.4988">
        <ele>315.003</ele>
        <time>2022-09-21T13:26:37Z</time>
      </trkpt>
      <trkpt lat="46.55685" lon="4.4989">
        <ele>313.803</ele>
        <time>2022-09-21T13:26:43Z</time>
      </trkpt>
      <trkpt lat="46.55683" lon="4.499">
        <ele>312.303</ele>
        <time>2022-09-21T13:26:49Z</time>
      </trkpt>
      <trkpt lat="46.55681" lon="4.4991">
        <ele>311.503</ele>
        <time>2022-09-21T13:26:54Z</time>
      </trkpt>
      <trkpt lat="46.55679" lon="4.49921">
        <ele>310.403</ele>
        <time>2022-09-21T13:27:01Z</time>
      </trkpt>
      <trkpt lat="46.55678" lon="4.49931">
        <ele>312.303</ele>
        <time>2022-09-21T13:27:07Z</time>
      </trkpt>
      <trkpt lat="46.55676" lon="4.49943">
        <ele>312.503</ele>
        <time>2022-09-21T13:27:13Z</time>
      </trkpt>
      <trkpt lat="46.55674" lon="4.49952">
        <ele>309.903</ele>
        <time>2022-09-21T13:27:18Z</time>
      </trkpt>
      <trkpt lat="46.55672" lon="4.49963">
        <ele>307.203</ele>
        <time>2022-09-21T13:27:25Z</time>
      </trkpt>
      <trkpt lat="46.5567" lon="4.49973">
        <ele>306.403</ele>
        <time>2022-09-21T13:27:30Z</time>
      </trkpt>
      <trkpt lat="46.55667" lon="4.49981">
        <ele>305.803</ele>
        <time>2022-09-21T13:27:36Z</time>
      </trkpt>
      <trkpt lat="46.55664" lon="4.4999">
        <ele>306.203</ele>
        <time>2022-09-21T13:27:41Z</time>
      </trkpt>
      <trkpt lat="46.55664" lon="4.5">
        <ele>305.203</ele>
        <time>2022-09-21T13:27:46Z</time>
      </trkpt>
      <trkpt lat="46.55663" lon="4.5001">
        <ele>305.503</ele>
        <time>2022-09-21T13:27:52Z</time>
      </trkpt>
      <trkpt lat="46.5566" lon="4.50021">
        <ele>304.903</ele>
        <time>2022-09-21T13:27:57Z</time>
      </trkpt>
      <trkpt lat="46.55658" lon="4.5003">
        <ele>304.603</ele>
        <time>2022-09-21T13:28:02Z</time>
      </trkpt>
      <trkpt lat="46.55655" lon="4.50041">
        <ele>304.503</ele>
        <time>2022-09-21T13:28:08Z</time>
      </trkpt>
      <trkpt lat="46.55654" lon="4.50052">
        <ele>302.903</ele>
        <time>2022-09-21T13:28:14Z</time>
      </trkpt>
      <trkpt lat="46.5565" lon="4.5006">
        <ele>304.103</ele>
        <time>2022-09-21T13:28:20Z</time>
      </trkpt>
      <trkpt lat="46.55646" lon="4.5007">
        <ele>305.203</ele>
        <time>2022-09-21T13:28:25Z</time>
      </trkpt>
      <trkpt lat="46.55642" lon="4.50079">
        <ele>306.003</ele>
        <time>2022-09-21T13:28:31Z</time>
      </trkpt>
      <trkpt lat="46.55634" lon="4.50084">
        <ele>306.003</ele>
        <time>2022-09-21T13:28:37Z</time>
      </trkpt>
      <trkpt lat="46.55628" lon="4.50088">
        <ele>306.603</ele>
        <time>2022-09-21T13:28:43Z</time>
      </trkpt>
      <trkpt lat="46.55621" lon="4.50093">
        <ele>305.303</ele>
        <time>2022-09-21T13:28:49Z</time>
      </trkpt>
      <trkpt lat="46.55615" lon="4.501">
        <ele>304.103</ele>
        <time>2022-09-21T13:28:55Z</time>
      </trkpt>
      <trkpt lat="46.55609" lon="4.50105">
        <ele>301.603</ele>
        <time>2022-09-21T13:29:01Z</time>
      </trkpt>
      <trkpt lat="46.55602" lon="4.50109">
        <ele>299.303</ele>
        <time>2022-09-21T13:29:06Z</time>
      </trkpt>
      <trkpt lat="46.55597" lon="4.50114">
        <ele>299.503</ele>
        <time>2022-09-21T13:29:12Z</time>
      </trkpt>
      <trkpt lat="46.5559" lon="4.5012">
        <ele>298.703</ele>
        <time>2022-09-21T13:29:18Z</time>
      </trkpt>
      <trkpt lat="46.55584" lon="4.50124">
        <ele>300.803</ele>
        <time>2022-09-21T13:29:40Z</time>
      </trkpt>
      <trkpt lat="46.55577" lon="4.5013">
        <ele>301.403</ele>
        <time>2022-09-21T13:29:47Z</time>
      </trkpt>
      <trkpt lat="46.55572" lon="4.50137">
        <ele>300.503</ele>
        <time>2022-09-21T13:29:53Z</time>
      </trkpt>
      <trkpt lat="46.55565" lon="4.50142">
        <ele>299.303</ele>
        <time>2022-09-21T13:29:59Z</time>
      </trkpt>
      <trkpt lat="46.55559" lon="4.50148">
        <ele>298.803</ele>
        <time>2022-09-21T13:30:05Z</time>
      </trkpt>
      <trkpt lat="46.55552" lon="4.50154">
        <ele>294.803</ele>
        <time>2022-09-21T13:30:11Z</time>
      </trkpt>
      <trkpt lat="46.55546" lon="4.50158">
        <ele>294.103</ele>
        <time>2022-09-21T13:30:17Z</time>
      </trkpt>
      <trkpt lat="46.5554" lon="4.50163">
        <ele>293.203</ele>
        <time>2022-09-21T13:30:23Z</time>
      </trkpt>
      <trkpt lat="46.55533" lon="4.50169">
        <ele>291.603</ele>
        <time>2022-09-21T13:30:29Z</time>
      </trkpt>
      <trkpt lat="46.55526" lon="4.50172">
        <ele>290.203</ele>
        <time>2022-09-21T13:30:35Z</time>
      </trkpt>
      <trkpt lat="46.5552" lon="4.50177">
        <ele>289.603</ele>
        <time>2022-09-21T13:30:41Z</time>
      </trkpt>
      <trkpt lat="46.55513" lon="4.50179">
        <ele>287.903</ele>
        <time>2022-09-21T13:30:47Z</time>
      </trkpt>
      <trkpt lat="46.55505" lon="4.50182">
        <ele>284.703</ele>
        <time>2022-09-21T13:30:53Z</time>
      </trkpt>
      <trkpt lat="46.55498" lon="4.50182">
        <ele>283.603</ele>
        <time>2022-09-21T13:31:00Z</time>
      </trkpt>
      <trkpt lat="46.55491" lon="4.5018">
        <ele>282.703</ele>
        <time>2022-09-21T13:31:05Z</time>
      </trkpt>
      <trkpt lat="46.55484" lon="4.50179">
        <ele>281.703</ele>
        <time>2022-09-21T13:31:11Z</time>
      </trkpt>
      <trkpt lat="46.55477" lon="4.5018">
        <ele>281.803</ele>
        <time>2022-09-21T13:31:18Z</time>
      </trkpt>
      <trkpt lat="46.5547" lon="4.50179">
        <ele>279.503</ele>
        <time>2022-09-21T13:31:24Z</time>
      </trkpt>
      <trkpt lat="46.55464" lon="4.50179">
        <ele>276.503</ele>
        <time>2022-09-21T13:31:29Z</time>
      </trkpt>
      <trkpt lat="46.55457" lon="4.5018">
        <ele>273.803</ele>
        <time>2022-09-21T13:31:34Z</time>
      </trkpt>
      <trkpt lat="46.5545" lon="4.50181">
        <ele>275.403</ele>
        <time>2022-09-21T13:31:41Z</time>
      </trkpt>
      <trkpt lat="46.55443" lon="4.50186">
        <ele>275.403</ele>
        <time>2022-09-21T13:31:47Z</time>
      </trkpt>
      <trkpt lat="46.55438" lon="4.50192">
        <ele>276.403</ele>
        <time>2022-09-21T13:31:54Z</time>
      </trkpt>
      <trkpt lat="46.55433" lon="4.502">
        <ele>275.403</ele>
        <time>2022-09-21T13:32:05Z</time>
      </trkpt>
      <trkpt lat="46.55431" lon="4.50209">
        <ele>274.403</ele>
        <time>2022-09-21T13:32:44Z</time>
      </trkpt>
      <trkpt lat="46.55434" lon="4.50201">
        <ele>275.703</ele>
        <time>2022-09-21T13:34:27Z</time>
      </trkpt>
      <trkpt lat="46.55437" lon="4.50192">
        <ele>276.403</ele>
        <time>2022-09-21T13:34:38Z</time>
      </trkpt>
      <trkpt lat="46.55441" lon="4.50184">
        <ele>275.203</ele>
        <time>2022-09-21T13:36:06Z</time>
      </trkpt>
      <trkpt lat="46.55437" lon="4.50191">
        <ele>274.503</ele>
        <time>2022-09-21T13:36:34Z</time>
      </trkpt>
      <trkpt lat="46.55433" lon="4.50199">
        <ele>274.603</ele>
        <time>2022-09-21T13:36:42Z</time>
      </trkpt>
      <trkpt lat="46.5543" lon="4.50209">
        <ele>273.803</ele>
        <time>2022-09-21T13:36:53Z</time>
      </trkpt>
      <trkpt lat="46.55425" lon="4.50218">
        <ele>271.103</ele>
        <time>2022-09-21T13:37:26Z</time>
      </trkpt>
      <trkpt lat="46.55422" lon="4.50227">
        <ele>270.003</ele>
        <time>2022-09-21T13:37:33Z</time>
      </trkpt>
      <trkpt lat="46.55417" lon="4.50234">
        <ele>269.503</ele>
        <time>2022-09-21T13:37:39Z</time>
      </trkpt>
      <trkpt lat="46.55414" lon="4.50244">
        <ele>270.903</ele>
        <time>2022-09-21T13:37:46Z</time>
      </trkpt>
      <trkpt lat="46.55412" lon="4.50253">
        <ele>272.203</ele>
        <time>2022-09-21T13:37:54Z</time>
      </trkpt>
      <trkpt lat="46.55415" lon="4.50263">
        <ele>273.403</ele>
        <time>2022-09-21T13:38:09Z</time>
      </trkpt>
      <trkpt lat="46.55419" lon="4.50271">
        <ele>273.303</ele>
        <time>2022-09-21T13:38:19Z</time>
      </trkpt>
      <trkpt lat="46.55423" lon="4.5028">
        <ele>271.803</ele>
        <time>2022-09-21T13:38:26Z</time>
      </trkpt>
      <trkpt lat="46.55427" lon="4.50288">
        <ele>271.003</ele>
        <time>2022-09-21T13:38:34Z</time>
      </trkpt>
      <trkpt lat="46.55431" lon="4.50296">
        <ele>272.303</ele>
        <time>2022-09-21T13:38:39Z</time>
      </trkpt>
      <trkpt lat="46.55437" lon="4.50306">
        <ele>274.503</ele>
        <time>2022-09-21T13:38:45Z</time>
      </trkpt>
      <trkpt lat="46.5544" lon="4.50316">
        <ele>273.903</ele>
        <time>2022-09-21T13:38:50Z</time>
      </trkpt>
      <trkpt lat="46.55443" lon="4.50325">
        <ele>272.403</ele>
        <time>2022-09-21T13:38:56Z</time>
      </trkpt>
      <trkpt lat="46.55446" lon="4.50333">
        <ele>274.403</ele>
        <time>2022-09-21T13:39:02Z</time>
      </trkpt>
      <trkpt lat="46.5545" lon="4.50341">
        <ele>273.103</ele>
        <time>2022-09-21T13:39:08Z</time>
      </trkpt>
      <trkpt lat="46.55448" lon="4.50351">
        <ele>272.503</ele>
        <time>2022-09-21T13:39:14Z</time>
      </trkpt>
      <trkpt lat="46.55447" lon="4.50362">
        <ele>270.903</ele>
        <time>2022-09-21T13:39:20Z</time>
      </trkpt>
      <trkpt lat="46.55444" lon="4.50371">
        <ele>271.303</ele>
        <time>2022-09-21T13:39:27Z</time>
      </trkpt>
      <trkpt lat="46.5544" lon="4.5038">
        <ele>271.203</ele>
        <time>2022-09-21T13:39:34Z</time>
      </trkpt>
      <trkpt lat="46.55435" lon="4.50389">
        <ele>273.103</ele>
        <time>2022-09-21T13:39:42Z</time>
      </trkpt>
      <trkpt lat="46.55429" lon="4.50394">
        <ele>275.903</ele>
        <time>2022-09-21T13:39:48Z</time>
      </trkpt>
      <trkpt lat="46.55423" lon="4.50401">
        <ele>278.803</ele>
        <time>2022-09-21T13:39:54Z</time>
      </trkpt>
      <trkpt lat="46.55419" lon="4.50408">
        <ele>278.903</ele>
        <time>2022-09-21T13:39:59Z</time>
      </trkpt>
      <trkpt lat="46.55413" lon="4.50414">
        <ele>277.803</ele>
        <time>2022-09-21T13:40:05Z</time>
      </trkpt>
      <trkpt lat="46.55407" lon="4.5042">
        <ele>279.103</ele>
        <time>2022-09-21T13:40:11Z</time>
      </trkpt>
      <trkpt lat="46.554" lon="4.50427">
        <ele>278.603</ele>
        <time>2022-09-21T13:40:17Z</time>
      </trkpt>
      <trkpt lat="46.55394" lon="4.50431">
        <ele>278.903</ele>
        <time>2022-09-21T13:40:22Z</time>
      </trkpt>
      <trkpt lat="46.55388" lon="4.50439">
        <ele>280.703</ele>
        <time>2022-09-21T13:40:27Z</time>
      </trkpt>
      <trkpt lat="46.55381" lon="4.50446">
        <ele>281.503</ele>
        <time>2022-09-21T13:40:33Z</time>
      </trkpt>
      <trkpt lat="46.55376" lon="4.50452">
        <ele>277.703</ele>
        <time>2022-09-21T13:40:39Z</time>
      </trkpt>
      <trkpt lat="46.5537" lon="4.5046">
        <ele>276.803</ele>
        <time>2022-09-21T13:40:45Z</time>
      </trkpt>
      <trkpt lat="46.55365" lon="4.50468">
        <ele>276.803</ele>
        <time>2022-09-21T13:40:50Z</time>
      </trkpt>
      <trkpt lat="46.55359" lon="4.50475">
        <ele>277.003</ele>
        <time>2022-09-21T13:40:56Z</time>
      </trkpt>
      <trkpt lat="46.55355" lon="4.50484">
        <ele>278.703</ele>
        <time>2022-09-21T13:41:01Z</time>
      </trkpt>
      <trkpt lat="46.55352" lon="4.50494">
        <ele>280.503</ele>
        <time>2022-09-21T13:41:08Z</time>
      </trkpt>
      <trkpt lat="46.5535" lon="4.50504">
        <ele>284.203</ele>
        <time>2022-09-21T13:41:13Z</time>
      </trkpt>
      <trkpt lat="46.55348" lon="4.50515">
        <ele>283.803</ele>
        <time>2022-09-21T13:41:20Z</time>
      </trkpt>
      <trkpt lat="46.55346" lon="4.50526">
        <ele>285.203</ele>
        <time>2022-09-21T13:41:26Z</time>
      </trkpt>
      <trkpt lat="46.55344" lon="4.50535">
        <ele>285.003</ele>
        <time>2022-09-21T13:41:31Z</time>
      </trkpt>
      <trkpt lat="46.55339" lon="4.50544">
        <ele>284.503</ele>
        <time>2022-09-21T13:41:37Z</time>
      </trkpt>
      <trkpt lat="46.55335" lon="4.50551">
        <ele>283.103</ele>
        <time>2022-09-21T13:41:42Z</time>
      </trkpt>
      <trkpt lat="46.5533" lon="4.50559">
        <ele>282.703</ele>
        <time>2022-09-21T13:41:47Z</time>
      </trkpt>
      <trkpt lat="46.55325" lon="4.50568">
        <ele>284.103</ele>
        <time>2022-09-21T13:41:54Z</time>
      </trkpt>
      <trkpt lat="46.55319" lon="4.50576">
        <ele>285.403</ele>
        <time>2022-09-21T13:42:00Z</time>
      </trkpt>
      <trkpt lat="46.55316" lon="4.50585">
        <ele>285.503</ele>
        <time>2022-09-21T13:42:06Z</time>
      </trkpt>
      <trkpt lat="46.55313" lon="4.50595">
        <ele>288.003</ele>
        <time>2022-09-21T13:42:11Z</time>
      </trkpt>
      <trkpt lat="46.55308" lon="4.50606">
        <ele>290.403</ele>
        <time>2022-09-21T13:42:17Z</time>
      </trkpt>
      <trkpt lat="46.55303" lon="4.50614">
        <ele>290.503</ele>
        <time>2022-09-21T13:42:25Z</time>
      </trkpt>
      <trkpt lat="46.55299" lon="4.50623">
        <ele>291.403</ele>
        <time>2022-09-21T13:42:31Z</time>
      </trkpt>
      <trkpt lat="46.55293" lon="4.50634">
        <ele>291.703</ele>
        <time>2022-09-21T13:42:37Z</time>
      </trkpt>
      <trkpt lat="46.55287" lon="4.50639">
        <ele>291.502</ele>
        <time>2022-09-21T13:42:42Z</time>
      </trkpt>
      <trkpt lat="46.55281" lon="4.50645">
        <ele>290.302</ele>
        <time>2022-09-21T13:42:47Z</time>
      </trkpt>
      <trkpt lat="46.55275" lon="4.50651">
        <ele>289.702</ele>
        <time>2022-09-21T13:42:53Z</time>
      </trkpt>
      <trkpt lat="46.55269" lon="4.50656">
        <ele>290.202</ele>
        <time>2022-09-21T13:42:59Z</time>
      </trkpt>
      <trkpt lat="46.55261" lon="4.50661">
        <ele>289.702</ele>
        <time>2022-09-21T13:43:05Z</time>
      </trkpt>
      <trkpt lat="46.55254" lon="4.50664">
        <ele>289.702</ele>
        <time>2022-09-21T13:43:10Z</time>
      </trkpt>
      <trkpt lat="46.55248" lon="4.50668">
        <ele>292.402</ele>
        <time>2022-09-21T13:43:16Z</time>
      </trkpt>
      <trkpt lat="46.55242" lon="4.50673">
        <ele>293.402</ele>
        <time>2022-09-21T13:43:22Z</time>
      </trkpt>
      <trkpt lat="46.55236" lon="4.50678">
        <ele>290.302</ele>
        <time>2022-09-21T13:43:29Z</time>
      </trkpt>
      <trkpt lat="46.55229" lon="4.50683">
        <ele>290.102</ele>
        <time>2022-09-21T13:43:36Z</time>
      </trkpt>
      <trkpt lat="46.55224" lon="4.50689">
        <ele>292.502</ele>
        <time>2022-09-21T13:43:42Z</time>
      </trkpt>
      <trkpt lat="46.55218" lon="4.50695">
        <ele>294.702</ele>
        <time>2022-09-21T13:43:49Z</time>
      </trkpt>
      <trkpt lat="46.55214" lon="4.50704">
        <ele>293.602</ele>
        <time>2022-09-21T13:46:40Z</time>
      </trkpt>
      <trkpt lat="46.55214" lon="4.50713">
        <ele>294.302</ele>
        <time>2022-09-21T13:49:23Z</time>
      </trkpt>
      <trkpt lat="46.55215" lon="4.50723">
        <ele>291.802</ele>
        <time>2022-09-21T13:49:30Z</time>
      </trkpt>
      <trkpt lat="46.55217" lon="4.50732">
        <ele>293.802</ele>
        <time>2022-09-21T13:49:36Z</time>
      </trkpt>
      <trkpt lat="46.55218" lon="4.50742">
        <ele>294.102</ele>
        <time>2022-09-21T13:49:43Z</time>
      </trkpt>
      <trkpt lat="46.55219" lon="4.50752">
        <ele>294.302</ele>
        <time>2022-09-21T13:49:50Z</time>
      </trkpt>
      <trkpt lat="46.55218" lon="4.50761">
        <ele>295.502</ele>
        <time>2022-09-21T13:49:56Z</time>
      </trkpt>
      <trkpt lat="46.55211" lon="4.50766">
        <ele>296.202</ele>
        <time>2022-09-21T13:50:02Z</time>
      </trkpt>
      <trkpt lat="46.55204" lon="4.50768">
        <ele>294.702</ele>
        <time>2022-09-21T13:50:08Z</time>
      </trkpt>
      <trkpt lat="46.55198" lon="4.50772">
        <ele>293.502</ele>
        <time>2022-09-21T13:50:20Z</time>
      </trkpt>
      <trkpt lat="46.55193" lon="4.50778">
        <ele>295.302</ele>
        <time>2022-09-21T13:50:54Z</time>
      </trkpt>
      <trkpt lat="46.55185" lon="4.50783">
        <ele>297.102</ele>
        <time>2022-09-21T13:50:59Z</time>
      </trkpt>
      <trkpt lat="46.55179" lon="4.50786">
        <ele>296.602</ele>
        <time>2022-09-21T13:51:08Z</time>
      </trkpt>
      <trkpt lat="46.55171" lon="4.50787">
        <ele>297.202</ele>
        <time>2022-09-21T13:51:14Z</time>
      </trkpt>
      <trkpt lat="46.55165" lon="4.5079">
        <ele>295.402</ele>
        <time>2022-09-21T13:51:19Z</time>
      </trkpt>
      <trkpt lat="46.55157" lon="4.50795">
        <ele>293.302</ele>
        <time>2022-09-21T13:51:25Z</time>
      </trkpt>
      <trkpt lat="46.55151" lon="4.508">
        <ele>291.502</ele>
        <time>2022-09-21T13:51:31Z</time>
      </trkpt>
      <trkpt lat="46.55143" lon="4.50805">
        <ele>292.202</ele>
        <time>2022-09-21T13:51:37Z</time>
      </trkpt>
      <trkpt lat="46.55136" lon="4.5081">
        <ele>290.702</ele>
        <time>2022-09-21T13:51:43Z</time>
      </trkpt>
      <trkpt lat="46.5513" lon="4.50814">
        <ele>290.102</ele>
        <time>2022-09-21T13:51:49Z</time>
      </trkpt>
      <trkpt lat="46.55122" lon="4.50817">
        <ele>290.502</ele>
        <time>2022-09-21T13:51:55Z</time>
      </trkpt>
      <trkpt lat="46.55114" lon="4.50819">
        <ele>290.302</ele>
        <time>2022-09-21T13:52:01Z</time>
      </trkpt>
      <trkpt lat="46.55106" lon="4.50822">
        <ele>289.202</ele>
        <time>2022-09-21T13:52:06Z</time>
      </trkpt>
      <trkpt lat="46.55099" lon="4.50825">
        <ele>288.802</ele>
        <time>2022-09-21T13:52:13Z</time>
      </trkpt>
      <trkpt lat="46.55091" lon="4.50827">
        <ele>286.602</ele>
        <time>2022-09-21T13:52:19Z</time>
      </trkpt>
      <trkpt lat="46.55084" lon="4.50829">
        <ele>285.402</ele>
        <time>2022-09-21T13:52:25Z</time>
      </trkpt>
      <trkpt lat="46.55077" lon="4.50829">
        <ele>285.502</ele>
        <time>2022-09-21T13:52:30Z</time>
      </trkpt>
      <trkpt lat="46.55068" lon="4.50828">
        <ele>289.302</ele>
        <time>2022-09-21T13:52:35Z</time>
      </trkpt>
      <trkpt lat="46.55061" lon="4.50827">
        <ele>292.502</ele>
        <time>2022-09-21T13:52:41Z</time>
      </trkpt>
      <trkpt lat="46.55053" lon="4.50827">
        <ele>291.402</ele>
        <time>2022-09-21T13:52:46Z</time>
      </trkpt>
      <trkpt lat="46.55046" lon="4.50827">
        <ele>290.802</ele>
        <time>2022-09-21T13:52:52Z</time>
      </trkpt>
      <trkpt lat="46.55039" lon="4.50826">
        <ele>288.902</ele>
        <time>2022-09-21T13:52:59Z</time>
      </trkpt>
      <trkpt lat="46.5503" lon="4.50827">
        <ele>286.002</ele>
        <time>2022-09-21T13:53:05Z</time>
      </trkpt>
      <trkpt lat="46.55023" lon="4.5083">
        <ele>283.702</ele>
        <time>2022-09-21T13:53:11Z</time>
      </trkpt>
      <trkpt lat="46.55015" lon="4.50831">
        <ele>282.502</ele>
        <time>2022-09-21T13:53:17Z</time>
      </trkpt>
      <trkpt lat="46.55007" lon="4.50832">
        <ele>281.302</ele>
        <time>2022-09-21T13:53:22Z</time>
      </trkpt>
      <trkpt lat="46.55001" lon="4.50831">
        <ele>282.402</ele>
        <time>2022-09-21T13:53:27Z</time>
      </trkpt>
      <trkpt lat="46.54994" lon="4.50831">
        <ele>282.202</ele>
        <time>2022-09-21T13:53:32Z</time>
      </trkpt>
      <trkpt lat="46.54985" lon="4.50829">
        <ele>282.602</ele>
        <time>2022-09-21T13:53:37Z</time>
      </trkpt>
      <trkpt lat="46.54978" lon="4.50828">
        <ele>281.902</ele>
        <time>2022-09-21T13:53:42Z</time>
      </trkpt>
      <trkpt lat="46.5497" lon="4.50826">
        <ele>282.002</ele>
        <time>2022-09-21T13:53:47Z</time>
      </trkpt>
      <trkpt lat="46.54964" lon="4.50821">
        <ele>284.502</ele>
        <time>2022-09-21T13:53:53Z</time>
      </trkpt>
      <trkpt lat="46.54956" lon="4.50818">
        <ele>284.502</ele>
        <time>2022-09-21T13:53:58Z</time>
      </trkpt>
      <trkpt lat="46.54948" lon="4.50816">
        <ele>282.502</ele>
        <time>2022-09-21T13:54:03Z</time>
      </trkpt>
      <trkpt lat="46.5494" lon="4.50815">
        <ele>280.502</ele>
        <time>2022-09-21T13:54:09Z</time>
      </trkpt>
      <trkpt lat="46.54933" lon="4.50815">
        <ele>280.002</ele>
        <time>2022-09-21T13:54:15Z</time>
      </trkpt>
      <trkpt lat="46.54925" lon="4.50817">
        <ele>282.002</ele>
        <time>2022-09-21T13:54:21Z</time>
      </trkpt>
      <trkpt lat="46.54918" lon="4.5082">
        <ele>282.002</ele>
        <time>2022-09-21T13:54:26Z</time>
      </trkpt>
      <trkpt lat="46.54912" lon="4.50825">
        <ele>280.702</ele>
        <time>2022-09-21T13:54:32Z</time>
      </trkpt>
      <trkpt lat="46.54905" lon="4.50829">
        <ele>281.602</ele>
        <time>2022-09-21T13:54:38Z</time>
      </trkpt>
      <trkpt lat="46.54898" lon="4.50833">
        <ele>281.702</ele>
        <time>2022-09-21T13:54:45Z</time>
      </trkpt>
      <trkpt lat="46.54891" lon="4.50836">
        <ele>280.202</ele>
        <time>2022-09-21T13:54:51Z</time>
      </trkpt>
      <trkpt lat="46.54884" lon="4.50839">
        <ele>279.302</ele>
        <time>2022-09-21T13:54:57Z</time>
      </trkpt>
      <trkpt lat="46.54878" lon="4.5084">
        <ele>281.202</ele>
        <time>2022-09-21T13:55:02Z</time>
      </trkpt>
      <trkpt lat="46.5487" lon="4.50844">
        <ele>280.202</ele>
        <time>2022-09-21T13:55:08Z</time>
      </trkpt>
      <trkpt lat="46.54863" lon="4.50847">
        <ele>282.301</ele>
        <time>2022-09-21T13:55:15Z</time>
      </trkpt>
      <trkpt lat="46.54855" lon="4.50852">
        <ele>281.701</ele>
        <time>2022-09-21T13:55:21Z</time>
      </trkpt>
      <trkpt lat="46.54848" lon="4.50856">
        <ele>283.401</ele>
        <time>2022-09-21T13:55:27Z</time>
      </trkpt>
      <trkpt lat="46.54841" lon="4.50858">
        <ele>282.601</ele>
        <time>2022-09-21T13:55:32Z</time>
      </trkpt>
      <trkpt lat="46.54834" lon="4.5086">
        <ele>284.601</ele>
        <time>2022-09-21T13:55:39Z</time>
      </trkpt>
      <trkpt lat="46.54824" lon="4.50861">
        <ele>284.301</ele>
        <time>2022-09-21T13:55:45Z</time>
      </trkpt>
      <trkpt lat="46.54816" lon="4.50861">
        <ele>283.601</ele>
        <time>2022-09-21T13:55:51Z</time>
      </trkpt>
      <trkpt lat="46.54808" lon="4.50862">
        <ele>284.601</ele>
        <time>2022-09-21T13:55:57Z</time>
      </trkpt>
      <trkpt lat="46.54801" lon="4.50863">
        <ele>284.801</ele>
        <time>2022-09-21T13:56:03Z</time>
      </trkpt>
      <trkpt lat="46.54792" lon="4.50861">
        <ele>284.501</ele>
        <time>2022-09-21T13:56:09Z</time>
      </trkpt>
      <trkpt lat="46.54785" lon="4.50862">
        <ele>285.501</ele>
        <time>2022-09-21T13:56:15Z</time>
      </trkpt>
      <trkpt lat="46.54777" lon="4.50858">
        <ele>288.001</ele>
        <time>2022-09-21T13:56:21Z</time>
      </trkpt>
      <trkpt lat="46.54771" lon="4.50859">
        <ele>286.801</ele>
        <time>2022-09-21T13:56:26Z</time>
      </trkpt>
      <trkpt lat="46.54763" lon="4.50859">
        <ele>286.201</ele>
        <time>2022-09-21T13:56:33Z</time>
      </trkpt>
      <trkpt lat="46.54755" lon="4.50858">
        <ele>286.601</ele>
        <time>2022-09-21T13:56:38Z</time>
      </trkpt>
      <trkpt lat="46.54748" lon="4.50859">
        <ele>287.001</ele>
        <time>2022-09-21T13:56:43Z</time>
      </trkpt>
      <trkpt lat="46.54741" lon="4.50858">
        <ele>286.401</ele>
        <time>2022-09-21T13:56:49Z</time>
      </trkpt>
      <trkpt lat="46.54734" lon="4.50858">
        <ele>288.201</ele>
        <time>2022-09-21T13:56:56Z</time>
      </trkpt>
      <trkpt lat="46.54727" lon="4.50857">
        <ele>289.601</ele>
        <time>2022-09-21T13:57:01Z</time>
      </trkpt>
      <trkpt lat="46.5472" lon="4.50857">
        <ele>290.701</ele>
        <time>2022-09-21T13:57:07Z</time>
      </trkpt>
      <trkpt lat="46.54713" lon="4.50856">
        <ele>290.701</ele>
        <time>2022-09-21T13:57:12Z</time>
      </trkpt>
      <trkpt lat="46.54707" lon="4.50857">
        <ele>289.601</ele>
        <time>2022-09-21T13:57:17Z</time>
      </trkpt>
      <trkpt lat="46.547" lon="4.50856">
        <ele>289.301</ele>
        <time>2022-09-21T13:57:22Z</time>
      </trkpt>
      <trkpt lat="46.54692" lon="4.50856">
        <ele>288.101</ele>
        <time>2022-09-21T13:57:27Z</time>
      </trkpt>
      <trkpt lat="46.54685" lon="4.50855">
        <ele>287.501</ele>
        <time>2022-09-21T13:57:33Z</time>
      </trkpt>
      <trkpt lat="46.54678" lon="4.50853">
        <ele>289.901</ele>
        <time>2022-09-21T13:57:38Z</time>
      </trkpt>
      <trkpt lat="46.54672" lon="4.50851">
        <ele>292.001</ele>
        <time>2022-09-21T13:57:44Z</time>
      </trkpt>
      <trkpt lat="46.54664" lon="4.50851">
        <ele>292.201</ele>
        <time>2022-09-21T13:57:49Z</time>
      </trkpt>
      <trkpt lat="46.54658" lon="4.50853">
        <ele>293.101</ele>
        <time>2022-09-21T13:57:55Z</time>
      </trkpt>
      <trkpt lat="46.54649" lon="4.50853">
        <ele>292.601</ele>
        <time>2022-09-21T13:58:01Z</time>
      </trkpt>
      <trkpt lat="46.54641" lon="4.50853">
        <ele>291.001</ele>
        <time>2022-09-21T13:58:06Z</time>
      </trkpt>
      <trkpt lat="46.54634" lon="4.50852">
        <ele>290.701</ele>
        <time>2022-09-21T13:58:12Z</time>
      </trkpt>
      <trkpt lat="46.54627" lon="4.50853">
        <ele>290.001</ele>
        <time>2022-09-21T13:58:17Z</time>
      </trkpt>
      <trkpt lat="46.54618" lon="4.50854">
        <ele>288.101</ele>
        <time>2022-09-21T13:58:22Z</time>
      </trkpt>
      <trkpt lat="46.54611" lon="4.50856">
        <ele>286.501</ele>
        <time>2022-09-21T13:58:28Z</time>
      </trkpt>
      <trkpt lat="46.54603" lon="4.50856">
        <ele>286.501</ele>
        <time>2022-09-21T13:58:34Z</time>
      </trkpt>
      <trkpt lat="46.54594" lon="4.50857">
        <ele>286.301</ele>
        <time>2022-09-21T13:58:39Z</time>
      </trkpt>
      <trkpt lat="46.54587" lon="4.50858">
        <ele>288.401</ele>
        <time>2022-09-21T13:58:46Z</time>
      </trkpt>
      <trkpt lat="46.5458" lon="4.50858">
        <ele>290.701</ele>
        <time>2022-09-21T13:58:51Z</time>
      </trkpt>
      <trkpt lat="46.5457" lon="4.50862">
        <ele>290.201</ele>
        <time>2022-09-21T13:58:57Z</time>
      </trkpt>
      <trkpt lat="46.54563" lon="4.50865">
        <ele>289.201</ele>
        <time>2022-09-21T13:59:04Z</time>
      </trkpt>
      <trkpt lat="46.54557" lon="4.50868">
        <ele>288.801</ele>
        <time>2022-09-21T13:59:09Z</time>
      </trkpt>
      <trkpt lat="46.5455" lon="4.50871">
        <ele>287.601</ele>
        <time>2022-09-21T13:59:14Z</time>
      </trkpt>
      <trkpt lat="46.54542" lon="4.50873">
        <ele>286.301</ele>
        <time>2022-09-21T13:59:20Z</time>
      </trkpt>
      <trkpt lat="46.54533" lon="4.50873">
        <ele>286.901</ele>
        <time>2022-09-21T13:59:25Z</time>
      </trkpt>
      <trkpt lat="46.54526" lon="4.50873">
        <ele>286.901</ele>
        <time>2022-09-21T13:59:30Z</time>
      </trkpt>
      <trkpt lat="46.54519" lon="4.50872">
        <ele>286.701</ele>
        <time>2022-09-21T13:59:35Z</time>
      </trkpt>
      <trkpt lat="46.54513" lon="4.50872">
        <ele>287.901</ele>
        <time>2022-09-21T13:59:41Z</time>
      </trkpt>
      <trkpt lat="46.54504" lon="4.50869">
        <ele>288.601</ele>
        <time>2022-09-21T13:59:46Z</time>
      </trkpt>
      <trkpt lat="46.54497" lon="4.50865">
        <ele>288.3</ele>
        <time>2022-09-21T13:59:52Z</time>
      </trkpt>
      <trkpt lat="46.54491" lon="4.5086">
        <ele>288.9</ele>
        <time>2022-09-21T13:59:57Z</time>
      </trkpt>
      <trkpt lat="46.54485" lon="4.50857">
        <ele>288.5</ele>
        <time>2022-09-21T14:00:03Z</time>
      </trkpt>
      <trkpt lat="46.54476" lon="4.50851">
        <ele>287.7</ele>
        <time>2022-09-21T14:00:09Z</time>
      </trkpt>
      <trkpt lat="46.54469" lon="4.50848">
        <ele>288.9</ele>
        <time>2022-09-21T14:00:15Z</time>
      </trkpt>
      <trkpt lat="46.54461" lon="4.50844">
        <ele>289</ele>
        <time>2022-09-21T14:00:21Z</time>
      </trkpt>
      <trkpt lat="46.54454" lon="4.50841">
        <ele>289.4</ele>
        <time>2022-09-21T14:00:26Z</time>
      </trkpt>
      <trkpt lat="46.54447" lon="4.50838">
        <ele>289.2</ele>
        <time>2022-09-21T14:00:32Z</time>
      </trkpt>
      <trkpt lat="46.5444" lon="4.50837">
        <ele>288.2</ele>
        <time>2022-09-21T14:00:37Z</time>
      </trkpt>
      <trkpt lat="46.54433" lon="4.50835">
        <ele>287.7</ele>
        <time>2022-09-21T14:00:43Z</time>
      </trkpt>
      <trkpt lat="46.54425" lon="4.50833">
        <ele>286</ele>
        <time>2022-09-21T14:00:49Z</time>
      </trkpt>
      <trkpt lat="46.54417" lon="4.50828">
        <ele>285.2</ele>
        <time>2022-09-21T14:00:54Z</time>
      </trkpt>
      <trkpt lat="46.54411" lon="4.50823">
        <ele>286</ele>
        <time>2022-09-21T14:00:59Z</time>
      </trkpt>
      <trkpt lat="46.54405" lon="4.50818">
        <ele>284.1</ele>
        <time>2022-09-21T14:01:06Z</time>
      </trkpt>
      <trkpt lat="46.54399" lon="4.50812">
        <ele>283</ele>
        <time>2022-09-21T14:01:12Z</time>
      </trkpt>
      <trkpt lat="46.54393" lon="4.50806">
        <ele>282.9</ele>
        <time>2022-09-21T14:01:17Z</time>
      </trkpt>
      <trkpt lat="46.54385" lon="4.50799">
        <ele>282.4</ele>
        <time>2022-09-21T14:01:22Z</time>
      </trkpt>
      <trkpt lat="46.54378" lon="4.50797">
        <ele>280.7</ele>
        <time>2022-09-21T14:01:29Z</time>
      </trkpt>
      <trkpt lat="46.5437" lon="4.50796">
        <ele>280.2</ele>
        <time>2022-09-21T14:01:34Z</time>
      </trkpt>
      <trkpt lat="46.54363" lon="4.50796">
        <ele>280.7</ele>
        <time>2022-09-21T14:01:39Z</time>
      </trkpt>
      <trkpt lat="46.54355" lon="4.50796">
        <ele>279</ele>
        <time>2022-09-21T14:01:45Z</time>
      </trkpt>
      <trkpt lat="46.54348" lon="4.50792">
        <ele>278.3</ele>
        <time>2022-09-21T14:01:50Z</time>
      </trkpt>
      <trkpt lat="46.54341" lon="4.50789">
        <ele>278.8</ele>
        <time>2022-09-21T14:01:55Z</time>
      </trkpt>
      <trkpt lat="46.54333" lon="4.50786">
        <ele>281.4</ele>
        <time>2022-09-21T14:02:01Z</time>
      </trkpt>
      <trkpt lat="46.54325" lon="4.50783">
        <ele>283.1</ele>
        <time>2022-09-21T14:02:06Z</time>
      </trkpt>
      <trkpt lat="46.54318" lon="4.5078">
        <ele>282.2</ele>
        <time>2022-09-21T14:02:13Z</time>
      </trkpt>
      <trkpt lat="46.54311" lon="4.50776">
        <ele>280.2</ele>
        <time>2022-09-21T14:02:18Z</time>
      </trkpt>
      <trkpt lat="46.54303" lon="4.50772">
        <ele>279.8</ele>
        <time>2022-09-21T14:02:23Z</time>
      </trkpt>
      <trkpt lat="46.54292" lon="4.5077">
        <ele>278.4</ele>
        <time>2022-09-21T14:02:29Z</time>
      </trkpt>
      <trkpt lat="46.54285" lon="4.50769">
        <ele>277.9</ele>
        <time>2022-09-21T14:02:34Z</time>
      </trkpt>
      <trkpt lat="46.54278" lon="4.50767">
        <ele>278.5</ele>
        <time>2022-09-21T14:02:40Z</time>
      </trkpt>
      <trkpt lat="46.54272" lon="4.50765">
        <ele>278.6</ele>
        <time>2022-09-21T14:02:45Z</time>
      </trkpt>
      <trkpt lat="46.54264" lon="4.50761">
        <ele>277.8</ele>
        <time>2022-09-21T14:02:50Z</time>
      </trkpt>
      <trkpt lat="46.54257" lon="4.50758">
        <ele>277</ele>
        <time>2022-09-21T14:02:55Z</time>
      </trkpt>
      <trkpt lat="46.54248" lon="4.50757">
        <ele>274.5</ele>
        <time>2022-09-21T14:03:01Z</time>
      </trkpt>
      <trkpt lat="46.54242" lon="4.50753">
        <ele>275.8</ele>
        <time>2022-09-21T14:03:06Z</time>
      </trkpt>
      <trkpt lat="46.54235" lon="4.50751">
        <ele>276.9</ele>
        <time>2022-09-21T14:03:11Z</time>
      </trkpt>
      <trkpt lat="46.54226" lon="4.50749">
        <ele>276.6</ele>
        <time>2022-09-21T14:03:17Z</time>
      </trkpt>
      <trkpt lat="46.54218" lon="4.50746">
        <ele>278</ele>
        <time>2022-09-21T14:03:22Z</time>
      </trkpt>
      <trkpt lat="46.5421" lon="4.50747">
        <ele>278</ele>
        <time>2022-09-21T14:03:29Z</time>
      </trkpt>
      <trkpt lat="46.54201" lon="4.50745">
        <ele>275.5</ele>
        <time>2022-09-21T14:03:34Z</time>
      </trkpt>
      <trkpt lat="46.54194" lon="4.50745">
        <ele>273.3</ele>
        <time>2022-09-21T14:03:39Z</time>
      </trkpt>
      <trkpt lat="46.54185" lon="4.50744">
        <ele>270.8</ele>
        <time>2022-09-21T14:03:45Z</time>
      </trkpt>
      <trkpt lat="46.54178" lon="4.50743">
        <ele>270.9</ele>
        <time>2022-09-21T14:03:51Z</time>
      </trkpt>
      <trkpt lat="46.5417" lon="4.50741">
        <ele>272.8</ele>
        <time>2022-09-21T14:03:57Z</time>
      </trkpt>
      <trkpt lat="46.54162" lon="4.5074">
        <ele>271.899</ele>
        <time>2022-09-21T14:04:03Z</time>
      </trkpt>
      <trkpt lat="46.54154" lon="4.50737">
        <ele>271.699</ele>
        <time>2022-09-21T14:04:09Z</time>
      </trkpt>
      <trkpt lat="46.54147" lon="4.50733">
        <ele>273.799</ele>
        <time>2022-09-21T14:04:15Z</time>
      </trkpt>
      <trkpt lat="46.54139" lon="4.5073">
        <ele>273.999</ele>
        <time>2022-09-21T14:04:21Z</time>
      </trkpt>
      <trkpt lat="46.54131" lon="4.50725">
        <ele>274.099</ele>
        <time>2022-09-21T14:04:26Z</time>
      </trkpt>
      <trkpt lat="46.54124" lon="4.50721">
        <ele>273.799</ele>
        <time>2022-09-21T14:04:31Z</time>
      </trkpt>
      <trkpt lat="46.54115" lon="4.50715">
        <ele>273.099</ele>
        <time>2022-09-21T14:04:37Z</time>
      </trkpt>
      <trkpt lat="46.54108" lon="4.50712">
        <ele>272.799</ele>
        <time>2022-09-21T14:04:44Z</time>
      </trkpt>
      <trkpt lat="46.54101" lon="4.50708">
        <ele>272.699</ele>
        <time>2022-09-21T14:04:49Z</time>
      </trkpt>
      <trkpt lat="46.54094" lon="4.50705">
        <ele>271.699</ele>
        <time>2022-09-21T14:04:54Z</time>
      </trkpt>
      <trkpt lat="46.54086" lon="4.50702">
        <ele>271.299</ele>
        <time>2022-09-21T14:04:59Z</time>
      </trkpt>
      <trkpt lat="46.54079" lon="4.50698">
        <ele>271.999</ele>
        <time>2022-09-21T14:05:06Z</time>
      </trkpt>
      <trkpt lat="46.54071" lon="4.50695">
        <ele>273.499</ele>
        <time>2022-09-21T14:05:11Z</time>
      </trkpt>
      <trkpt lat="46.54063" lon="4.50693">
        <ele>274.099</ele>
        <time>2022-09-21T14:05:17Z</time>
      </trkpt>
      <trkpt lat="46.54055" lon="4.50692">
        <ele>273.699</ele>
        <time>2022-09-21T14:05:22Z</time>
      </trkpt>
      <trkpt lat="46.54048" lon="4.50696">
        <ele>273.799</ele>
        <time>2022-09-21T14:05:29Z</time>
      </trkpt>
      <trkpt lat="46.5404" lon="4.50699">
        <ele>273.299</ele>
        <time>2022-09-21T14:05:34Z</time>
      </trkpt>
      <trkpt lat="46.54034" lon="4.50704">
        <ele>273.599</ele>
        <time>2022-09-21T14:05:39Z</time>
      </trkpt>
      <trkpt lat="46.54029" lon="4.5071">
        <ele>273.999</ele>
        <time>2022-09-21T14:05:45Z</time>
      </trkpt>
      <trkpt lat="46.54023" lon="4.50718">
        <ele>274.899</ele>
        <time>2022-09-21T14:05:51Z</time>
      </trkpt>
      <trkpt lat="46.54017" lon="4.50724">
        <ele>274.399</ele>
        <time>2022-09-21T14:05:57Z</time>
      </trkpt>
      <trkpt lat="46.5401" lon="4.50727">
        <ele>272.599</ele>
        <time>2022-09-21T14:06:03Z</time>
      </trkpt>
      <trkpt lat="46.54003" lon="4.5073">
        <ele>271.799</ele>
        <time>2022-09-21T14:06:09Z</time>
      </trkpt>
      <trkpt lat="46.53996" lon="4.50731">
        <ele>271.499</ele>
        <time>2022-09-21T14:06:15Z</time>
      </trkpt>
      <trkpt lat="46.53987" lon="4.50732">
        <ele>271.099</ele>
        <time>2022-09-21T14:06:21Z</time>
      </trkpt>
      <trkpt lat="46.5398" lon="4.50733">
        <ele>272.999</ele>
        <time>2022-09-21T14:06:26Z</time>
      </trkpt>
      <trkpt lat="46.53973" lon="4.50732">
        <ele>274.099</ele>
        <time>2022-09-21T14:06:32Z</time>
      </trkpt>
      <trkpt lat="46.53965" lon="4.50731">
        <ele>275.799</ele>
        <time>2022-09-21T14:06:37Z</time>
      </trkpt>
      <trkpt lat="46.53958" lon="4.50726">
        <ele>276.899</ele>
        <time>2022-09-21T14:06:42Z</time>
      </trkpt>
      <trkpt lat="46.53952" lon="4.50723">
        <ele>275.799</ele>
        <time>2022-09-21T14:06:48Z</time>
      </trkpt>
      <trkpt lat="46.53946" lon="4.50719">
        <ele>274.499</ele>
        <time>2022-09-21T14:06:53Z</time>
      </trkpt>
      <trkpt lat="46.53939" lon="4.5072">
        <ele>275.199</ele>
        <time>2022-09-21T14:07:00Z</time>
      </trkpt>
      <trkpt lat="46.53933" lon="4.50726">
        <ele>273.599</ele>
        <time>2022-09-21T14:08:13Z</time>
      </trkpt>
      <trkpt lat="46.53931" lon="4.50735">
        <ele>270.899</ele>
        <time>2022-09-21T14:08:20Z</time>
      </trkpt>
      <trkpt lat="46.53929" lon="4.50745">
        <ele>270.999</ele>
        <time>2022-09-21T14:08:26Z</time>
      </trkpt>
      <trkpt lat="46.53927" lon="4.50756">
        <ele>273.199</ele>
        <time>2022-09-21T14:08:33Z</time>
      </trkpt>
      <trkpt lat="46.53922" lon="4.50767">
        <ele>273.199</ele>
        <time>2022-09-21T14:08:39Z</time>
      </trkpt>
      <trkpt lat="46.53921" lon="4.50778">
        <ele>268.799</ele>
        <time>2022-09-21T14:08:48Z</time>
      </trkpt>
      <trkpt lat="46.5392" lon="4.50789">
        <ele>265.799</ele>
        <time>2022-09-21T14:08:58Z</time>
      </trkpt>
      <trkpt lat="46.53918" lon="4.50798">
        <ele>266.699</ele>
        <time>2022-09-21T14:09:04Z</time>
      </trkpt>
      <trkpt lat="46.53918" lon="4.50808">
        <ele>267.099</ele>
        <time>2022-09-21T14:09:13Z</time>
      </trkpt>
      <trkpt lat="46.53924" lon="4.50811">
        <ele>265.899</ele>
        <time>2022-09-21T14:09:38Z</time>
      </trkpt>
      <trkpt lat="46.53931" lon="4.50812">
        <ele>264.299</ele>
        <time>2022-09-21T14:09:47Z</time>
      </trkpt>
      <trkpt lat="46.53937" lon="4.50812">
        <ele>264.499</ele>
        <time>2022-09-21T14:09:56Z</time>
      </trkpt>
      <trkpt lat="46.53942" lon="4.50804">
        <ele>264.799</ele>
        <time>2022-09-21T14:10:05Z</time>
      </trkpt>
      <trkpt lat="46.53942" lon="4.50794">
        <ele>266.399</ele>
        <time>2022-09-21T14:10:13Z</time>
      </trkpt>
      <trkpt lat="46.53937" lon="4.50788">
        <ele>273.899</ele>
        <time>2022-09-21T14:10:58Z</time>
      </trkpt>
      <trkpt lat="46.53932" lon="4.5078">
        <ele>273.499</ele>
        <time>2022-09-21T14:11:07Z</time>
      </trkpt>
      <trkpt lat="46.5393" lon="4.50772">
        <ele>269.299</ele>
        <time>2022-09-21T14:11:37Z</time>
      </trkpt>
    </trkseg>
  </trk>
</gpx>